<?xml version="1.0" encoding="UTF-8" standalone="no" ?>
<gpx xmlns="http://www.topografix.com/GPX/1/1" xmlns:xsi="http://www.w3.org/2001/XMLSchema-instance" xsi:schemaLocation="http://www.topografix.com/GPX/1/1 http://www.topografix.com/GPX/1/1/gpx.xsd" version="1.1" creator="VisuGPX - https://www.visugpx.com">
  <metadata>
    <name>Boucles autour du Puy Mary</name>
    <desc><![CDATA[Projets été 2020]]></desc>
  </metadata>
  <trk>
    <name><![CDATA[Parcours 33 rouge - La Vallée du Mars sur TraceDeTrail.fr]]></name>
    <trkseg>
      <trkpt lat="45.15514" lon="2.62259">
        <ele>924.7</ele>
        <time>2000-01-01T01:27:51.000Z</time>
      </trkpt>
      <trkpt lat="45.15517" lon="2.62251">
        <ele>925</ele>
        <time>2000-01-01T01:28:01.000Z</time>
      </trkpt>
      <trkpt lat="45.15517" lon="2.62251">
        <ele>925</ele>
        <time>2000-01-01T01:28:11.000Z</time>
      </trkpt>
      <trkpt lat="45.1552" lon="2.62243">
        <ele>926</ele>
        <time>2000-01-01T01:28:21.000Z</time>
      </trkpt>
      <trkpt lat="45.15522" lon="2.62234">
        <ele>924</ele>
        <time>2000-01-01T01:28:31.000Z</time>
      </trkpt>
      <trkpt lat="45.15523" lon="2.62224">
        <ele>926</ele>
        <time>2000-01-01T01:28:41.000Z</time>
      </trkpt>
      <trkpt lat="45.15521" lon="2.6221">
        <ele>926</ele>
        <time>2000-01-01T01:28:51.000Z</time>
      </trkpt>
      <trkpt lat="45.15519" lon="2.6219">
        <ele>924</ele>
        <time>2000-01-01T01:29:01.000Z</time>
      </trkpt>
      <trkpt lat="45.15519" lon="2.6219">
        <ele>926</ele>
        <time>2000-01-01T01:29:11.000Z</time>
      </trkpt>
      <trkpt lat="45.15519" lon="2.62172">
        <ele>925</ele>
        <time>2000-01-01T01:29:21.000Z</time>
      </trkpt>
      <trkpt lat="45.15518" lon="2.62157">
        <ele>924</ele>
        <time>2000-01-01T01:29:31.000Z</time>
      </trkpt>
      <trkpt lat="45.15519" lon="2.62146">
        <ele>924</ele>
        <time>2000-01-01T01:29:41.000Z</time>
      </trkpt>
      <trkpt lat="45.15521" lon="2.62134">
        <ele>924</ele>
        <time>2000-01-01T01:29:51.000Z</time>
      </trkpt>
      <trkpt lat="45.15525" lon="2.62125">
        <ele>924</ele>
        <time>2000-01-01T01:30:01.000Z</time>
      </trkpt>
      <trkpt lat="45.1553" lon="2.62114">
        <ele>924</ele>
        <time>2000-01-01T01:30:11.000Z</time>
      </trkpt>
      <trkpt lat="45.15538" lon="2.62104">
        <ele>926</ele>
        <time>2000-01-01T01:30:21.000Z</time>
      </trkpt>
      <trkpt lat="45.15549" lon="2.62089">
        <ele>925</ele>
        <time>2000-01-01T01:30:31.000Z</time>
      </trkpt>
      <trkpt lat="45.1556" lon="2.62075">
        <ele>928</ele>
        <time>2000-01-01T01:30:41.000Z</time>
      </trkpt>
      <trkpt lat="45.15571" lon="2.6206">
        <ele>923</ele>
        <time>2000-01-01T01:30:51.000Z</time>
      </trkpt>
      <trkpt lat="45.15576" lon="2.62052">
        <ele>929</ele>
        <time>2000-01-01T01:31:01.000Z</time>
      </trkpt>
      <trkpt lat="45.15586" lon="2.62041">
        <ele>931</ele>
        <time>2000-01-01T01:31:11.000Z</time>
      </trkpt>
      <trkpt lat="45.15595" lon="2.62028">
        <ele>929</ele>
        <time>2000-01-01T01:31:21.000Z</time>
      </trkpt>
      <trkpt lat="45.15603" lon="2.62015">
        <ele>930</ele>
        <time>2000-01-01T01:31:31.000Z</time>
      </trkpt>
      <trkpt lat="45.15611" lon="2.62">
        <ele>929</ele>
        <time>2000-01-01T01:31:41.000Z</time>
      </trkpt>
      <trkpt lat="45.15615" lon="2.61991">
        <ele>928</ele>
        <time>2000-01-01T01:31:51.000Z</time>
      </trkpt>
      <trkpt lat="45.15621" lon="2.61978">
        <ele>928</ele>
        <time>2000-01-01T01:32:01.000Z</time>
      </trkpt>
      <trkpt lat="45.15625" lon="2.61969">
        <ele>929</ele>
        <time>2000-01-01T01:32:11.000Z</time>
      </trkpt>
      <trkpt lat="45.15627" lon="2.61968">
        <ele>928</ele>
        <time>2000-01-01T01:32:21.000Z</time>
      </trkpt>
      <trkpt lat="45.15632" lon="2.61966">
        <ele>929</ele>
        <time>2000-01-01T01:32:31.000Z</time>
      </trkpt>
      <trkpt lat="45.15638" lon="2.61961">
        <ele>929</ele>
        <time>2000-01-01T01:32:41.000Z</time>
      </trkpt>
      <trkpt lat="45.15644" lon="2.61955">
        <ele>933</ele>
        <time>2000-01-01T01:32:51.000Z</time>
      </trkpt>
      <trkpt lat="45.15651" lon="2.61945">
        <ele>929</ele>
        <time>2000-01-01T01:33:01.000Z</time>
      </trkpt>
      <trkpt lat="45.15661" lon="2.61927">
        <ele>934</ele>
        <time>2000-01-01T01:33:11.000Z</time>
      </trkpt>
      <trkpt lat="45.15671" lon="2.61916">
        <ele>933</ele>
        <time>2000-01-01T01:33:21.000Z</time>
      </trkpt>
      <trkpt lat="45.15676" lon="2.61912">
        <ele>934</ele>
        <time>2000-01-01T01:33:31.000Z</time>
      </trkpt>
      <trkpt lat="45.1568" lon="2.61911">
        <ele>936</ele>
        <time>2000-01-01T01:33:41.000Z</time>
      </trkpt>
      <trkpt lat="45.15686" lon="2.61912">
        <ele>935</ele>
        <time>2000-01-01T01:33:51.000Z</time>
      </trkpt>
      <trkpt lat="45.1569" lon="2.61915">
        <ele>935</ele>
        <time>2000-01-01T01:34:01.000Z</time>
      </trkpt>
      <trkpt lat="45.15692" lon="2.6192">
        <ele>939</ele>
        <time>2000-01-01T01:34:11.000Z</time>
      </trkpt>
      <trkpt lat="45.15697" lon="2.61914">
        <ele>940</ele>
        <time>2000-01-01T01:34:21.000Z</time>
      </trkpt>
      <trkpt lat="45.15703" lon="2.61905">
        <ele>937</ele>
        <time>2000-01-01T01:34:31.000Z</time>
      </trkpt>
      <trkpt lat="45.1571" lon="2.61896">
        <ele>938</ele>
        <time>2000-01-01T01:34:41.000Z</time>
      </trkpt>
      <trkpt lat="45.15718" lon="2.61885">
        <ele>940</ele>
        <time>2000-01-01T01:34:51.000Z</time>
      </trkpt>
      <trkpt lat="45.15724" lon="2.61873">
        <ele>938</ele>
        <time>2000-01-01T01:35:01.000Z</time>
      </trkpt>
      <trkpt lat="45.1573" lon="2.61862">
        <ele>938.5</ele>
        <time>2000-01-01T01:35:11.000Z</time>
      </trkpt>
      <trkpt lat="45.15732" lon="2.6185">
        <ele>939</ele>
        <time>2000-01-01T01:35:21.000Z</time>
      </trkpt>
      <trkpt lat="45.15731" lon="2.6183">
        <ele>937</ele>
        <time>2000-01-01T01:35:31.000Z</time>
      </trkpt>
      <trkpt lat="45.15731" lon="2.6183">
        <ele>936</ele>
        <time>2000-01-01T01:35:41.000Z</time>
      </trkpt>
      <trkpt lat="45.15731" lon="2.6183">
        <ele>936</ele>
        <time>2000-01-01T01:35:51.000Z</time>
      </trkpt>
      <trkpt lat="45.15731" lon="2.6183">
        <ele>936</ele>
        <time>2000-01-01T01:36:01.000Z</time>
      </trkpt>
      <trkpt lat="45.1573" lon="2.61826">
        <ele>936</ele>
        <time>2000-01-01T01:36:11.000Z</time>
      </trkpt>
      <trkpt lat="45.15729" lon="2.6181">
        <ele>935</ele>
        <time>2000-01-01T01:36:21.000Z</time>
      </trkpt>
      <trkpt lat="45.15727" lon="2.61805">
        <ele>934</ele>
        <time>2000-01-01T01:36:31.000Z</time>
      </trkpt>
      <trkpt lat="45.1573" lon="2.61797">
        <ele>935</ele>
        <time>2000-01-01T01:36:41.000Z</time>
      </trkpt>
      <trkpt lat="45.15735" lon="2.61787">
        <ele>934</ele>
        <time>2000-01-01T01:36:51.000Z</time>
      </trkpt>
      <trkpt lat="45.15737" lon="2.61778">
        <ele>935</ele>
        <time>2000-01-01T01:37:01.000Z</time>
      </trkpt>
      <trkpt lat="45.15738" lon="2.61764">
        <ele>935</ele>
        <time>2000-01-01T01:37:11.000Z</time>
      </trkpt>
      <trkpt lat="45.1574" lon="2.61755">
        <ele>936</ele>
        <time>2000-01-01T01:37:21.000Z</time>
      </trkpt>
      <trkpt lat="45.15745" lon="2.6174">
        <ele>935</ele>
        <time>2000-01-01T01:37:31.000Z</time>
      </trkpt>
      <trkpt lat="45.1575" lon="2.61731">
        <ele>937</ele>
        <time>2000-01-01T01:37:41.000Z</time>
      </trkpt>
      <trkpt lat="45.15757" lon="2.61724">
        <ele>941</ele>
        <time>2000-01-01T01:37:51.000Z</time>
      </trkpt>
      <trkpt lat="45.15764" lon="2.61713">
        <ele>941</ele>
        <time>2000-01-01T01:38:01.000Z</time>
      </trkpt>
      <trkpt lat="45.15767" lon="2.61707">
        <ele>938</ele>
        <time>2000-01-01T01:38:11.000Z</time>
      </trkpt>
      <trkpt lat="45.15772" lon="2.61699">
        <ele>941</ele>
        <time>2000-01-01T01:38:21.000Z</time>
      </trkpt>
      <trkpt lat="45.15781" lon="2.61684">
        <ele>940</ele>
        <time>2000-01-01T01:38:31.000Z</time>
      </trkpt>
      <trkpt lat="45.15789" lon="2.61674">
        <ele>942</ele>
        <time>2000-01-01T01:38:41.000Z</time>
      </trkpt>
      <trkpt lat="45.15794" lon="2.61669">
        <ele>942</ele>
        <time>2000-01-01T01:38:51.000Z</time>
      </trkpt>
      <trkpt lat="45.15796" lon="2.61667">
        <ele>942</ele>
        <time>2000-01-01T01:39:01.000Z</time>
      </trkpt>
      <trkpt lat="45.15803" lon="2.61667">
        <ele>944</ele>
        <time>2000-01-01T01:39:11.000Z</time>
      </trkpt>
      <trkpt lat="45.15811" lon="2.61668">
        <ele>945</ele>
        <time>2000-01-01T01:39:21.000Z</time>
      </trkpt>
      <trkpt lat="45.15815" lon="2.61665">
        <ele>940</ele>
        <time>2000-01-01T01:39:31.000Z</time>
      </trkpt>
      <trkpt lat="45.15823" lon="2.61661">
        <ele>946</ele>
        <time>2000-01-01T01:39:41.000Z</time>
      </trkpt>
      <trkpt lat="45.15831" lon="2.6166">
        <ele>944</ele>
        <time>2000-01-01T01:39:51.000Z</time>
      </trkpt>
      <trkpt lat="45.15837" lon="2.61662">
        <ele>947</ele>
        <time>2000-01-01T01:40:01.000Z</time>
      </trkpt>
      <trkpt lat="45.15843" lon="2.61665">
        <ele>950</ele>
        <time>2000-01-01T01:40:11.000Z</time>
      </trkpt>
      <trkpt lat="45.15849" lon="2.61667">
        <ele>950</ele>
        <time>2000-01-01T01:40:21.000Z</time>
      </trkpt>
      <trkpt lat="45.15855" lon="2.6167">
        <ele>951</ele>
        <time>2000-01-01T01:40:31.000Z</time>
      </trkpt>
      <trkpt lat="45.15858" lon="2.61671">
        <ele>951</ele>
        <time>2000-01-01T01:40:41.000Z</time>
      </trkpt>
      <trkpt lat="45.1586" lon="2.61668">
        <ele>951</ele>
        <time>2000-01-01T01:40:51.000Z</time>
      </trkpt>
      <trkpt lat="45.15864" lon="2.61667">
        <ele>951</ele>
        <time>2000-01-01T01:41:01.000Z</time>
      </trkpt>
      <trkpt lat="45.15872" lon="2.61668">
        <ele>952</ele>
        <time>2000-01-01T01:41:11.000Z</time>
      </trkpt>
      <trkpt lat="45.15872" lon="2.61667">
        <ele>952</ele>
        <time>2000-01-01T01:41:21.000Z</time>
      </trkpt>
      <trkpt lat="45.15872" lon="2.61667">
        <ele>952</ele>
        <time>2000-01-01T01:41:31.000Z</time>
      </trkpt>
      <trkpt lat="45.15872" lon="2.61668">
        <ele>952</ele>
        <time>2000-01-01T01:41:41.000Z</time>
      </trkpt>
      <trkpt lat="45.15874" lon="2.61668">
        <ele>952</ele>
        <time>2000-01-01T01:41:51.000Z</time>
      </trkpt>
      <trkpt lat="45.15879" lon="2.6167">
        <ele>952</ele>
        <time>2000-01-01T01:42:01.000Z</time>
      </trkpt>
      <trkpt lat="45.15885" lon="2.61676">
        <ele>954</ele>
        <time>2000-01-01T01:42:11.000Z</time>
      </trkpt>
      <trkpt lat="45.15891" lon="2.61687">
        <ele>953</ele>
        <time>2000-01-01T01:42:21.000Z</time>
      </trkpt>
      <trkpt lat="45.15897" lon="2.61698">
        <ele>956</ele>
        <time>2000-01-01T01:42:31.000Z</time>
      </trkpt>
      <trkpt lat="45.15902" lon="2.61705">
        <ele>953</ele>
        <time>2000-01-01T01:42:41.000Z</time>
      </trkpt>
      <trkpt lat="45.15912" lon="2.61712">
        <ele>954</ele>
        <time>2000-01-01T01:42:51.000Z</time>
      </trkpt>
      <trkpt lat="45.15916" lon="2.61713">
        <ele>956</ele>
        <time>2000-01-01T01:43:01.000Z</time>
      </trkpt>
      <trkpt lat="45.15918" lon="2.61714">
        <ele>958</ele>
        <time>2000-01-01T01:43:11.000Z</time>
      </trkpt>
      <trkpt lat="45.15926" lon="2.61716">
        <ele>958</ele>
        <time>2000-01-01T01:43:21.000Z</time>
      </trkpt>
      <trkpt lat="45.1594" lon="2.61723">
        <ele>957</ele>
        <time>2000-01-01T01:43:31.000Z</time>
      </trkpt>
      <trkpt lat="45.15953" lon="2.61732">
        <ele>960</ele>
        <time>2000-01-01T01:43:41.000Z</time>
      </trkpt>
      <trkpt lat="45.15965" lon="2.61745">
        <ele>962</ele>
        <time>2000-01-01T01:43:51.000Z</time>
      </trkpt>
      <trkpt lat="45.15975" lon="2.61758">
        <ele>967</ele>
        <time>2000-01-01T01:44:01.000Z</time>
      </trkpt>
      <trkpt lat="45.15981" lon="2.61769">
        <ele>966</ele>
        <time>2000-01-01T01:44:11.000Z</time>
      </trkpt>
      <trkpt lat="45.15986" lon="2.61784">
        <ele>968</ele>
        <time>2000-01-01T01:44:21.000Z</time>
      </trkpt>
      <trkpt lat="45.15987" lon="2.61804">
        <ele>971</ele>
        <time>2000-01-01T01:44:31.000Z</time>
      </trkpt>
      <trkpt lat="45.15986" lon="2.61826">
        <ele>974</ele>
        <time>2000-01-01T01:44:41.000Z</time>
      </trkpt>
      <trkpt lat="45.1598" lon="2.61848">
        <ele>976</ele>
        <time>2000-01-01T01:44:51.000Z</time>
      </trkpt>
      <trkpt lat="45.15973" lon="2.61873">
        <ele>975.5</ele>
        <time>2000-01-01T01:45:01.000Z</time>
      </trkpt>
      <trkpt lat="45.15971" lon="2.61881">
        <ele>978</ele>
        <time>2000-01-01T01:45:11.000Z</time>
      </trkpt>
      <trkpt lat="45.15967" lon="2.61882">
        <ele>978</ele>
        <time>2000-01-01T01:45:21.000Z</time>
      </trkpt>
      <trkpt lat="45.1596" lon="2.61882">
        <ele>977</ele>
        <time>2000-01-01T01:45:31.000Z</time>
      </trkpt>
      <trkpt lat="45.15946" lon="2.61881">
        <ele>975</ele>
        <time>2000-01-01T01:45:41.000Z</time>
      </trkpt>
      <trkpt lat="45.15937" lon="2.61883">
        <ele>975</ele>
        <time>2000-01-01T01:45:51.000Z</time>
      </trkpt>
      <trkpt lat="45.1593" lon="2.61887">
        <ele>974</ele>
        <time>2000-01-01T01:46:01.000Z</time>
      </trkpt>
      <trkpt lat="45.1592" lon="2.61898">
        <ele>973</ele>
        <time>2000-01-01T01:46:11.000Z</time>
      </trkpt>
      <trkpt lat="45.15911" lon="2.61908">
        <ele>969</ele>
        <time>2000-01-01T01:46:21.000Z</time>
      </trkpt>
      <trkpt lat="45.15909" lon="2.61905">
        <ele>969</ele>
        <time>2000-01-01T01:46:31.000Z</time>
      </trkpt>
      <trkpt lat="45.15909" lon="2.61905">
        <ele>969</ele>
        <time>2000-01-01T01:46:41.000Z</time>
      </trkpt>
      <trkpt lat="45.15911" lon="2.61908">
        <ele>969</ele>
        <time>2000-01-01T01:46:51.000Z</time>
      </trkpt>
      <trkpt lat="45.1591" lon="2.61909">
        <ele>969</ele>
        <time>2000-01-01T01:47:01.000Z</time>
      </trkpt>
      <trkpt lat="45.15905" lon="2.61913">
        <ele>973</ele>
        <time>2000-01-01T01:47:11.000Z</time>
      </trkpt>
      <trkpt lat="45.15903" lon="2.61915">
        <ele>969</ele>
        <time>2000-01-01T01:47:21.000Z</time>
      </trkpt>
      <trkpt lat="45.15895" lon="2.61919">
        <ele>970</ele>
        <time>2000-01-01T01:47:31.000Z</time>
      </trkpt>
      <trkpt lat="45.15887" lon="2.6192">
        <ele>970</ele>
        <time>2000-01-01T01:47:41.000Z</time>
      </trkpt>
      <trkpt lat="45.15874" lon="2.61924">
        <ele>972.5</ele>
        <time>2000-01-01T01:47:51.000Z</time>
      </trkpt>
      <trkpt lat="45.15867" lon="2.61929">
        <ele>969</ele>
        <time>2000-01-01T01:48:01.000Z</time>
      </trkpt>
      <trkpt lat="45.15866" lon="2.61932">
        <ele>969</ele>
        <time>2000-01-01T01:48:11.000Z</time>
      </trkpt>
      <trkpt lat="45.15866" lon="2.61939">
        <ele>970</ele>
        <time>2000-01-01T01:48:21.000Z</time>
      </trkpt>
      <trkpt lat="45.1587" lon="2.61946">
        <ele>973.7</ele>
        <time>2000-01-01T01:48:31.000Z</time>
      </trkpt>
      <trkpt lat="45.15872" lon="2.61947">
        <ele>970</ele>
        <time>2000-01-01T01:48:41.000Z</time>
      </trkpt>
      <trkpt lat="45.15881" lon="2.61959">
        <ele>970</ele>
        <time>2000-01-01T01:48:51.000Z</time>
      </trkpt>
      <trkpt lat="45.15888" lon="2.6197">
        <ele>975</ele>
        <time>2000-01-01T01:49:01.000Z</time>
      </trkpt>
      <trkpt lat="45.15896" lon="2.61983">
        <ele>971</ele>
        <time>2000-01-01T01:49:11.000Z</time>
      </trkpt>
      <trkpt lat="45.15909" lon="2.62004">
        <ele>978</ele>
        <time>2000-01-01T01:49:21.000Z</time>
      </trkpt>
      <trkpt lat="45.15921" lon="2.62021">
        <ele>979</ele>
        <time>2000-01-01T01:49:31.000Z</time>
      </trkpt>
      <trkpt lat="45.1593" lon="2.62032">
        <ele>979</ele>
        <time>2000-01-01T01:49:41.000Z</time>
      </trkpt>
      <trkpt lat="45.15941" lon="2.62046">
        <ele>983</ele>
        <time>2000-01-01T01:49:51.000Z</time>
      </trkpt>
      <trkpt lat="45.15954" lon="2.62058">
        <ele>981</ele>
        <time>2000-01-01T01:50:01.000Z</time>
      </trkpt>
      <trkpt lat="45.15963" lon="2.62066">
        <ele>985</ele>
        <time>2000-01-01T01:50:11.000Z</time>
      </trkpt>
      <trkpt lat="45.15972" lon="2.62073">
        <ele>984</ele>
        <time>2000-01-01T01:50:21.000Z</time>
      </trkpt>
      <trkpt lat="45.1598" lon="2.62082">
        <ele>988</ele>
        <time>2000-01-01T01:50:31.000Z</time>
      </trkpt>
      <trkpt lat="45.15989" lon="2.62089">
        <ele>988</ele>
        <time>2000-01-01T01:50:41.000Z</time>
      </trkpt>
      <trkpt lat="45.15995" lon="2.62091">
        <ele>991</ele>
        <time>2000-01-01T01:50:51.000Z</time>
      </trkpt>
      <trkpt lat="45.16003" lon="2.62094">
        <ele>998</ele>
        <time>2000-01-01T01:51:01.000Z</time>
      </trkpt>
      <trkpt lat="45.1601" lon="2.62102">
        <ele>993</ele>
        <time>2000-01-01T01:51:11.000Z</time>
      </trkpt>
      <trkpt lat="45.1602" lon="2.62118">
        <ele>1006</ele>
        <time>2000-01-01T01:51:21.000Z</time>
      </trkpt>
      <trkpt lat="45.16028" lon="2.62133">
        <ele>998</ele>
        <time>2000-01-01T01:51:31.000Z</time>
      </trkpt>
      <trkpt lat="45.16029" lon="2.62144">
        <ele>1008</ele>
        <time>2000-01-01T01:51:41.000Z</time>
      </trkpt>
      <trkpt lat="45.16027" lon="2.62157">
        <ele>1007</ele>
        <time>2000-01-01T01:51:51.000Z</time>
      </trkpt>
      <trkpt lat="45.16026" lon="2.6216">
        <ele>998</ele>
        <time>2000-01-01T01:52:01.000Z</time>
      </trkpt>
      <trkpt lat="45.16024" lon="2.62159">
        <ele>1006</ele>
        <time>2000-01-01T01:52:11.000Z</time>
      </trkpt>
      <trkpt lat="45.16024" lon="2.62159">
        <ele>1006</ele>
        <time>2000-01-01T01:52:21.000Z</time>
      </trkpt>
      <trkpt lat="45.16026" lon="2.6216">
        <ele>1006</ele>
        <time>2000-01-01T01:52:31.000Z</time>
      </trkpt>
      <trkpt lat="45.16019" lon="2.6218">
        <ele>1000</ele>
        <time>2000-01-01T01:52:41.000Z</time>
      </trkpt>
      <trkpt lat="45.16007" lon="2.62206">
        <ele>1000</ele>
        <time>2000-01-01T01:52:51.000Z</time>
      </trkpt>
      <trkpt lat="45.15999" lon="2.62222">
        <ele>1001</ele>
        <time>2000-01-01T01:53:01.000Z</time>
      </trkpt>
      <trkpt lat="45.1599" lon="2.62243">
        <ele>1000</ele>
        <time>2000-01-01T01:53:11.000Z</time>
      </trkpt>
      <trkpt lat="45.15986" lon="2.6226">
        <ele>1012</ele>
        <time>2000-01-01T01:53:21.000Z</time>
      </trkpt>
      <trkpt lat="45.15982" lon="2.62272">
        <ele>1001</ele>
        <time>2000-01-01T01:53:31.000Z</time>
      </trkpt>
      <trkpt lat="45.15974" lon="2.62291">
        <ele>1016</ele>
        <time>2000-01-01T01:53:41.000Z</time>
      </trkpt>
      <trkpt lat="45.15967" lon="2.62304">
        <ele>1005</ele>
        <time>2000-01-01T01:53:51.000Z</time>
      </trkpt>
      <trkpt lat="45.15958" lon="2.6231">
        <ele>1018</ele>
        <time>2000-01-01T01:54:01.000Z</time>
      </trkpt>
      <trkpt lat="45.1595" lon="2.62314">
        <ele>1017</ele>
        <time>2000-01-01T01:54:11.000Z</time>
      </trkpt>
      <trkpt lat="45.15937" lon="2.62319">
        <ele>1012</ele>
        <time>2000-01-01T01:54:21.000Z</time>
      </trkpt>
      <trkpt lat="45.15925" lon="2.62326">
        <ele>1018</ele>
        <time>2000-01-01T01:54:31.000Z</time>
      </trkpt>
      <trkpt lat="45.15919" lon="2.62332">
        <ele>1018</ele>
        <time>2000-01-01T01:54:41.000Z</time>
      </trkpt>
      <trkpt lat="45.15914" lon="2.62342">
        <ele>1018</ele>
        <time>2000-01-01T01:54:51.000Z</time>
      </trkpt>
      <trkpt lat="45.15909" lon="2.62359">
        <ele>1023</ele>
        <time>2000-01-01T01:55:01.000Z</time>
      </trkpt>
      <trkpt lat="45.15906" lon="2.62368">
        <ele>1017</ele>
        <time>2000-01-01T01:55:11.000Z</time>
      </trkpt>
      <trkpt lat="45.15902" lon="2.62384">
        <ele>1030</ele>
        <time>2000-01-01T01:55:21.000Z</time>
      </trkpt>
      <trkpt lat="45.15898" lon="2.62396">
        <ele>1019</ele>
        <time>2000-01-01T01:55:31.000Z</time>
      </trkpt>
      <trkpt lat="45.15896" lon="2.62401">
        <ele>1020</ele>
        <time>2000-01-01T01:55:41.000Z</time>
      </trkpt>
      <trkpt lat="45.15891" lon="2.62406">
        <ele>1030.5</ele>
        <time>2000-01-01T01:55:51.000Z</time>
      </trkpt>
      <trkpt lat="45.15888" lon="2.62409">
        <ele>1019</ele>
        <time>2000-01-01T01:56:01.000Z</time>
      </trkpt>
      <trkpt lat="45.15884" lon="2.62413">
        <ele>1018</ele>
        <time>2000-01-01T01:56:11.000Z</time>
      </trkpt>
      <trkpt lat="45.15884" lon="2.62423">
        <ele>1025</ele>
        <time>2000-01-01T01:56:21.000Z</time>
      </trkpt>
      <trkpt lat="45.15886" lon="2.62438">
        <ele>1031</ele>
        <time>2000-01-01T01:56:31.000Z</time>
      </trkpt>
      <trkpt lat="45.15888" lon="2.62451">
        <ele>1027</ele>
        <time>2000-01-01T01:56:41.000Z</time>
      </trkpt>
      <trkpt lat="45.1589" lon="2.62462">
        <ele>1028</ele>
        <time>2000-01-01T01:56:51.000Z</time>
      </trkpt>
      <trkpt lat="45.15894" lon="2.62474">
        <ele>1032</ele>
        <time>2000-01-01T01:57:01.000Z</time>
      </trkpt>
      <trkpt lat="45.15897" lon="2.62481">
        <ele>1032</ele>
        <time>2000-01-01T01:57:11.000Z</time>
      </trkpt>
      <trkpt lat="45.15902" lon="2.62486">
        <ele>1034</ele>
        <time>2000-01-01T01:57:21.000Z</time>
      </trkpt>
      <trkpt lat="45.15909" lon="2.62492">
        <ele>1033</ele>
        <time>2000-01-01T01:57:31.000Z</time>
      </trkpt>
      <trkpt lat="45.15915" lon="2.625">
        <ele>1044</ele>
        <time>2000-01-01T01:57:41.000Z</time>
      </trkpt>
      <trkpt lat="45.15923" lon="2.6251">
        <ele>1052</ele>
        <time>2000-01-01T01:57:51.000Z</time>
      </trkpt>
      <trkpt lat="45.15926" lon="2.62517">
        <ele>1035</ele>
        <time>2000-01-01T01:58:01.000Z</time>
      </trkpt>
      <trkpt lat="45.15928" lon="2.62525">
        <ele>1058</ele>
        <time>2000-01-01T01:58:11.000Z</time>
      </trkpt>
      <trkpt lat="45.15929" lon="2.62536">
        <ele>1060</ele>
        <time>2000-01-01T01:58:21.000Z</time>
      </trkpt>
      <trkpt lat="45.1593" lon="2.62552">
        <ele>1041</ele>
        <time>2000-01-01T01:58:31.000Z</time>
      </trkpt>
      <trkpt lat="45.15926" lon="2.62563">
        <ele>1061</ele>
        <time>2000-01-01T01:58:41.000Z</time>
      </trkpt>
      <trkpt lat="45.15923" lon="2.62569">
        <ele>1061</ele>
        <time>2000-01-01T01:58:51.000Z</time>
      </trkpt>
      <trkpt lat="45.15917" lon="2.62572">
        <ele>1051</ele>
        <time>2000-01-01T01:59:01.000Z</time>
      </trkpt>
      <trkpt lat="45.15915" lon="2.62572">
        <ele>1052</ele>
        <time>2000-01-01T01:59:11.000Z</time>
      </trkpt>
      <trkpt lat="45.1591" lon="2.62571">
        <ele>1050</ele>
        <time>2000-01-01T01:59:21.000Z</time>
      </trkpt>
      <trkpt lat="45.15905" lon="2.62569">
        <ele>1049</ele>
        <time>2000-01-01T01:59:31.000Z</time>
      </trkpt>
      <trkpt lat="45.15898" lon="2.62567">
        <ele>1057</ele>
        <time>2000-01-01T01:59:41.000Z</time>
      </trkpt>
      <trkpt lat="45.15887" lon="2.62563">
        <ele>1043</ele>
        <time>2000-01-01T01:59:51.000Z</time>
      </trkpt>
      <trkpt lat="45.15882" lon="2.62564">
        <ele>1042</ele>
        <time>2000-01-01T02:00:01.000Z</time>
      </trkpt>
      <trkpt lat="45.15876" lon="2.62573">
        <ele>1057</ele>
        <time>2000-01-01T02:00:11.000Z</time>
      </trkpt>
      <trkpt lat="45.15867" lon="2.62594">
        <ele>1051</ele>
        <time>2000-01-01T02:00:21.000Z</time>
      </trkpt>
      <trkpt lat="45.15863" lon="2.62607">
        <ele>1058</ele>
        <time>2000-01-01T02:00:31.000Z</time>
      </trkpt>
      <trkpt lat="45.1586" lon="2.62619">
        <ele>1052</ele>
        <time>2000-01-01T02:00:41.000Z</time>
      </trkpt>
      <trkpt lat="45.15855" lon="2.6263">
        <ele>1053</ele>
        <time>2000-01-01T02:00:51.000Z</time>
      </trkpt>
      <trkpt lat="45.15851" lon="2.62643">
        <ele>1061</ele>
        <time>2000-01-01T02:01:01.000Z</time>
      </trkpt>
      <trkpt lat="45.15843" lon="2.62664">
        <ele>1053</ele>
        <time>2000-01-01T02:01:11.000Z</time>
      </trkpt>
      <trkpt lat="45.15842" lon="2.62682">
        <ele>1060.5</ele>
        <time>2000-01-01T02:01:21.000Z</time>
      </trkpt>
      <trkpt lat="45.15843" lon="2.62691">
        <ele>1061</ele>
        <time>2000-01-01T02:01:31.000Z</time>
      </trkpt>
      <trkpt lat="45.15845" lon="2.62693">
        <ele>1062</ele>
        <time>2000-01-01T02:01:41.000Z</time>
      </trkpt>
      <trkpt lat="45.15846" lon="2.62689">
        <ele>1061</ele>
        <time>2000-01-01T02:01:51.000Z</time>
      </trkpt>
      <trkpt lat="45.15846" lon="2.62689">
        <ele>1061</ele>
        <time>2000-01-01T02:02:01.000Z</time>
      </trkpt>
      <trkpt lat="45.15845" lon="2.62693">
        <ele>1062</ele>
        <time>2000-01-01T02:02:11.000Z</time>
      </trkpt>
      <trkpt lat="45.15843" lon="2.62691">
        <ele>1061</ele>
        <time>2000-01-01T02:02:21.000Z</time>
      </trkpt>
      <trkpt lat="45.15843" lon="2.62697">
        <ele>1060</ele>
        <time>2000-01-01T02:02:31.000Z</time>
      </trkpt>
      <trkpt lat="45.1585" lon="2.62723">
        <ele>1060</ele>
        <time>2000-01-01T02:02:41.000Z</time>
      </trkpt>
      <trkpt lat="45.15858" lon="2.6275">
        <ele>1063</ele>
        <time>2000-01-01T02:02:51.000Z</time>
      </trkpt>
      <trkpt lat="45.15861" lon="2.62758">
        <ele>1070</ele>
        <time>2000-01-01T02:03:01.000Z</time>
      </trkpt>
      <trkpt lat="45.15862" lon="2.62764">
        <ele>1070</ele>
        <time>2000-01-01T02:03:11.000Z</time>
      </trkpt>
      <trkpt lat="45.15861" lon="2.62769">
        <ele>1070</ele>
        <time>2000-01-01T02:03:21.000Z</time>
      </trkpt>
      <trkpt lat="45.15859" lon="2.62772">
        <ele>1070</ele>
        <time>2000-01-01T02:03:31.000Z</time>
      </trkpt>
      <trkpt lat="45.15855" lon="2.62774">
        <ele>1066</ele>
        <time>2000-01-01T02:03:41.000Z</time>
      </trkpt>
      <trkpt lat="45.1584" lon="2.62784">
        <ele>1069</ele>
        <time>2000-01-01T02:03:51.000Z</time>
      </trkpt>
      <trkpt lat="45.1583" lon="2.62796">
        <ele>1066</ele>
        <time>2000-01-01T02:04:01.000Z</time>
      </trkpt>
      <trkpt lat="45.15812" lon="2.62812">
        <ele>1063</ele>
        <time>2000-01-01T02:04:11.000Z</time>
      </trkpt>
      <trkpt lat="45.158" lon="2.62826">
        <ele>1055</ele>
        <time>2000-01-01T02:04:21.000Z</time>
      </trkpt>
      <trkpt lat="45.15784" lon="2.62847">
        <ele>1061</ele>
        <time>2000-01-01T02:04:31.000Z</time>
      </trkpt>
      <trkpt lat="45.15773" lon="2.62867">
        <ele>1062</ele>
        <time>2000-01-01T02:04:41.000Z</time>
      </trkpt>
      <trkpt lat="45.15766" lon="2.62881">
        <ele>1060.5</ele>
        <time>2000-01-01T02:04:51.000Z</time>
      </trkpt>
      <trkpt lat="45.15758" lon="2.629">
        <ele>1064</ele>
        <time>2000-01-01T02:05:01.000Z</time>
      </trkpt>
      <trkpt lat="45.1575" lon="2.62917">
        <ele>1062.2</ele>
        <time>2000-01-01T02:05:11.000Z</time>
      </trkpt>
      <trkpt lat="45.15736" lon="2.62942">
        <ele>1064</ele>
        <time>2000-01-01T02:05:21.000Z</time>
      </trkpt>
      <trkpt lat="45.15727" lon="2.62964">
        <ele>1063</ele>
        <time>2000-01-01T02:05:31.000Z</time>
      </trkpt>
      <trkpt lat="45.15718" lon="2.6298">
        <ele>1064</ele>
        <time>2000-01-01T02:05:41.000Z</time>
      </trkpt>
      <trkpt lat="45.15709" lon="2.62992">
        <ele>1063</ele>
        <time>2000-01-01T02:05:51.000Z</time>
      </trkpt>
      <trkpt lat="45.15699" lon="2.63004">
        <ele>1067</ele>
        <time>2000-01-01T02:06:01.000Z</time>
      </trkpt>
      <trkpt lat="45.15699" lon="2.63023">
        <ele>1070</ele>
        <time>2000-01-01T02:06:11.000Z</time>
      </trkpt>
      <trkpt lat="45.15701" lon="2.63044">
        <ele>1067</ele>
        <time>2000-01-01T02:06:21.000Z</time>
      </trkpt>
      <trkpt lat="45.15703" lon="2.63083">
        <ele>1072</ele>
        <time>2000-01-01T02:06:31.000Z</time>
      </trkpt>
      <trkpt lat="45.15705" lon="2.6311">
        <ele>1078</ele>
        <time>2000-01-01T02:06:41.000Z</time>
      </trkpt>
      <trkpt lat="45.15709" lon="2.63126">
        <ele>1081</ele>
        <time>2000-01-01T02:06:51.000Z</time>
      </trkpt>
      <trkpt lat="45.15714" lon="2.63145">
        <ele>1080</ele>
        <time>2000-01-01T02:07:01.000Z</time>
      </trkpt>
      <trkpt lat="45.15721" lon="2.63162">
        <ele>1085</ele>
        <time>2000-01-01T02:07:11.000Z</time>
      </trkpt>
      <trkpt lat="45.15726" lon="2.63176">
        <ele>1084</ele>
        <time>2000-01-01T02:07:21.000Z</time>
      </trkpt>
      <trkpt lat="45.15731" lon="2.63186">
        <ele>1086</ele>
        <time>2000-01-01T02:07:31.000Z</time>
      </trkpt>
      <trkpt lat="45.15737" lon="2.63195">
        <ele>1086</ele>
        <time>2000-01-01T02:07:41.000Z</time>
      </trkpt>
      <trkpt lat="45.15741" lon="2.632">
        <ele>1090</ele>
        <time>2000-01-01T02:07:51.000Z</time>
      </trkpt>
      <trkpt lat="45.15741" lon="2.63199">
        <ele>1086</ele>
        <time>2000-01-01T02:08:01.000Z</time>
      </trkpt>
      <trkpt lat="45.15741" lon="2.63199">
        <ele>1086</ele>
        <time>2000-01-01T02:08:11.000Z</time>
      </trkpt>
      <trkpt lat="45.15741" lon="2.632">
        <ele>1086</ele>
        <time>2000-01-01T02:08:21.000Z</time>
      </trkpt>
      <trkpt lat="45.15748" lon="2.63211">
        <ele>1085</ele>
        <time>2000-01-01T02:08:31.000Z</time>
      </trkpt>
      <trkpt lat="45.15756" lon="2.6322">
        <ele>1094</ele>
        <time>2000-01-01T02:08:41.000Z</time>
      </trkpt>
      <trkpt lat="45.15768" lon="2.63228">
        <ele>1103</ele>
        <time>2000-01-01T02:08:51.000Z</time>
      </trkpt>
      <trkpt lat="45.15775" lon="2.63232">
        <ele>1098</ele>
        <time>2000-01-01T02:09:01.000Z</time>
      </trkpt>
      <trkpt lat="45.15784" lon="2.63231">
        <ele>1106</ele>
        <time>2000-01-01T02:09:11.000Z</time>
      </trkpt>
      <trkpt lat="45.15797" lon="2.63227">
        <ele>1101</ele>
        <time>2000-01-01T02:09:21.000Z</time>
      </trkpt>
      <trkpt lat="45.15812" lon="2.63226">
        <ele>1112</ele>
        <time>2000-01-01T02:09:31.000Z</time>
      </trkpt>
      <trkpt lat="45.15825" lon="2.63228">
        <ele>1110</ele>
        <time>2000-01-01T02:09:41.000Z</time>
      </trkpt>
      <trkpt lat="45.15844" lon="2.6323">
        <ele>1129</ele>
        <time>2000-01-01T02:09:51.000Z</time>
      </trkpt>
      <trkpt lat="45.15862" lon="2.63227">
        <ele>1118</ele>
        <time>2000-01-01T02:10:01.000Z</time>
      </trkpt>
      <trkpt lat="45.15878" lon="2.63223">
        <ele>1135</ele>
        <time>2000-01-01T02:10:11.000Z</time>
      </trkpt>
      <trkpt lat="45.1589" lon="2.63222">
        <ele>1129</ele>
        <time>2000-01-01T02:10:21.000Z</time>
      </trkpt>
      <trkpt lat="45.15903" lon="2.63221">
        <ele>1138</ele>
        <time>2000-01-01T02:10:31.000Z</time>
      </trkpt>
      <trkpt lat="45.15912" lon="2.63221">
        <ele>1136</ele>
        <time>2000-01-01T02:10:41.000Z</time>
      </trkpt>
      <trkpt lat="45.15924" lon="2.63223">
        <ele>1155</ele>
        <time>2000-01-01T02:10:51.000Z</time>
      </trkpt>
      <trkpt lat="45.15935" lon="2.63224">
        <ele>1143</ele>
        <time>2000-01-01T02:11:01.000Z</time>
      </trkpt>
      <trkpt lat="45.15949" lon="2.63226">
        <ele>1159</ele>
        <time>2000-01-01T02:11:11.000Z</time>
      </trkpt>
      <trkpt lat="45.15962" lon="2.63236">
        <ele>1151</ele>
        <time>2000-01-01T02:11:21.000Z</time>
      </trkpt>
      <trkpt lat="45.1597" lon="2.63246">
        <ele>1164</ele>
        <time>2000-01-01T02:11:31.000Z</time>
      </trkpt>
      <trkpt lat="45.15979" lon="2.63255">
        <ele>1160</ele>
        <time>2000-01-01T02:11:41.000Z</time>
      </trkpt>
      <trkpt lat="45.15994" lon="2.63274">
        <ele>1164</ele>
        <time>2000-01-01T02:11:51.000Z</time>
      </trkpt>
      <trkpt lat="45.16007" lon="2.63283">
        <ele>1177</ele>
        <time>2000-01-01T02:12:01.000Z</time>
      </trkpt>
      <trkpt lat="45.16021" lon="2.63289">
        <ele>1167</ele>
        <time>2000-01-01T02:12:11.000Z</time>
      </trkpt>
      <trkpt lat="45.16036" lon="2.63295">
        <ele>1180</ele>
        <time>2000-01-01T02:12:21.000Z</time>
      </trkpt>
      <trkpt lat="45.16047" lon="2.63306">
        <ele>1174</ele>
        <time>2000-01-01T02:12:31.000Z</time>
      </trkpt>
      <trkpt lat="45.16059" lon="2.63316">
        <ele>1183</ele>
        <time>2000-01-01T02:12:41.000Z</time>
      </trkpt>
      <trkpt lat="45.16068" lon="2.63325">
        <ele>1177</ele>
        <time>2000-01-01T02:12:51.000Z</time>
      </trkpt>
      <trkpt lat="45.16078" lon="2.63335">
        <ele>1183</ele>
        <time>2000-01-01T02:13:01.000Z</time>
      </trkpt>
      <trkpt lat="45.16095" lon="2.63356">
        <ele>1179</ele>
        <time>2000-01-01T02:13:11.000Z</time>
      </trkpt>
      <trkpt lat="45.16108" lon="2.63374">
        <ele>1198</ele>
        <time>2000-01-01T02:13:21.000Z</time>
      </trkpt>
      <trkpt lat="45.16117" lon="2.63386">
        <ele>1185</ele>
        <time>2000-01-01T02:13:31.000Z</time>
      </trkpt>
      <trkpt lat="45.16126" lon="2.63401">
        <ele>1200</ele>
        <time>2000-01-01T02:13:41.000Z</time>
      </trkpt>
      <trkpt lat="45.16134" lon="2.63411">
        <ele>1189</ele>
        <time>2000-01-01T02:13:51.000Z</time>
      </trkpt>
      <trkpt lat="45.16146" lon="2.63428">
        <ele>1202</ele>
        <time>2000-01-01T02:14:01.000Z</time>
      </trkpt>
      <trkpt lat="45.16149" lon="2.63436">
        <ele>1192</ele>
        <time>2000-01-01T02:14:11.000Z</time>
      </trkpt>
      <trkpt lat="45.16149" lon="2.63451">
        <ele>1201</ele>
        <time>2000-01-01T02:14:21.000Z</time>
      </trkpt>
      <trkpt lat="45.16146" lon="2.63472">
        <ele>1194</ele>
        <time>2000-01-01T02:14:31.000Z</time>
      </trkpt>
      <trkpt lat="45.16146" lon="2.63484">
        <ele>1202</ele>
        <time>2000-01-01T02:14:41.000Z</time>
      </trkpt>
      <trkpt lat="45.16147" lon="2.63499">
        <ele>1204</ele>
        <time>2000-01-01T02:14:51.000Z</time>
      </trkpt>
      <trkpt lat="45.16147" lon="2.63511">
        <ele>1196</ele>
        <time>2000-01-01T02:15:01.000Z</time>
      </trkpt>
      <trkpt lat="45.16147" lon="2.63529">
        <ele>1210</ele>
        <time>2000-01-01T02:15:11.000Z</time>
      </trkpt>
      <trkpt lat="45.16142" lon="2.63538">
        <ele>1199</ele>
        <time>2000-01-01T02:15:21.000Z</time>
      </trkpt>
      <trkpt lat="45.1613" lon="2.63547">
        <ele>1211</ele>
        <time>2000-01-01T02:15:31.000Z</time>
      </trkpt>
      <trkpt lat="45.16123" lon="2.63554">
        <ele>1204</ele>
        <time>2000-01-01T02:15:41.000Z</time>
      </trkpt>
      <trkpt lat="45.16116" lon="2.63565">
        <ele>1211</ele>
        <time>2000-01-01T02:15:51.000Z</time>
      </trkpt>
      <trkpt lat="45.16108" lon="2.63581">
        <ele>1209</ele>
        <time>2000-01-01T02:16:01.000Z</time>
      </trkpt>
      <trkpt lat="45.16103" lon="2.63592">
        <ele>1222</ele>
        <time>2000-01-01T02:16:11.000Z</time>
      </trkpt>
      <trkpt lat="45.16097" lon="2.63596">
        <ele>1221</ele>
        <time>2000-01-01T02:16:21.000Z</time>
      </trkpt>
      <trkpt lat="45.16097" lon="2.63596">
        <ele>1221</ele>
        <time>2000-01-01T02:16:31.000Z</time>
      </trkpt>
      <trkpt lat="45.16097" lon="2.63596">
        <ele>1221</ele>
        <time>2000-01-01T02:16:41.000Z</time>
      </trkpt>
      <trkpt lat="45.16097" lon="2.63596">
        <ele>1221</ele>
        <time>2000-01-01T02:16:51.000Z</time>
      </trkpt>
      <trkpt lat="45.16094" lon="2.63597">
        <ele>1217</ele>
        <time>2000-01-01T02:17:01.000Z</time>
      </trkpt>
      <trkpt lat="45.16084" lon="2.63598">
        <ele>1220</ele>
        <time>2000-01-01T02:17:11.000Z</time>
      </trkpt>
      <trkpt lat="45.16071" lon="2.63596">
        <ele>1219</ele>
        <time>2000-01-01T02:17:21.000Z</time>
      </trkpt>
      <trkpt lat="45.16061" lon="2.63593">
        <ele>1215</ele>
        <time>2000-01-01T02:17:31.000Z</time>
      </trkpt>
      <trkpt lat="45.16048" lon="2.6359">
        <ele>1217</ele>
        <time>2000-01-01T02:17:41.000Z</time>
      </trkpt>
      <trkpt lat="45.16041" lon="2.63586">
        <ele>1214</ele>
        <time>2000-01-01T02:17:51.000Z</time>
      </trkpt>
      <trkpt lat="45.16031" lon="2.63584">
        <ele>1212</ele>
        <time>2000-01-01T02:18:01.000Z</time>
      </trkpt>
      <trkpt lat="45.16017" lon="2.63587">
        <ele>1215</ele>
        <time>2000-01-01T02:18:11.000Z</time>
      </trkpt>
      <trkpt lat="45.16004" lon="2.63588">
        <ele>1204</ele>
        <time>2000-01-01T02:18:21.000Z</time>
      </trkpt>
      <trkpt lat="45.15995" lon="2.6359">
        <ele>1209</ele>
        <time>2000-01-01T02:18:31.000Z</time>
      </trkpt>
      <trkpt lat="45.15991" lon="2.63592">
        <ele>1200</ele>
        <time>2000-01-01T02:18:41.000Z</time>
      </trkpt>
      <trkpt lat="45.15965" lon="2.63598">
        <ele>1206</ele>
        <time>2000-01-01T02:18:51.000Z</time>
      </trkpt>
      <trkpt lat="45.15954" lon="2.63598">
        <ele>1196</ele>
        <time>2000-01-01T02:19:01.000Z</time>
      </trkpt>
      <trkpt lat="45.1595" lon="2.63604">
        <ele>1196</ele>
        <time>2000-01-01T02:19:11.000Z</time>
      </trkpt>
      <trkpt lat="45.15944" lon="2.63616">
        <ele>1202</ele>
        <time>2000-01-01T02:19:21.000Z</time>
      </trkpt>
      <trkpt lat="45.15941" lon="2.63631">
        <ele>1199</ele>
        <time>2000-01-01T02:19:31.000Z</time>
      </trkpt>
      <trkpt lat="45.1594" lon="2.63659">
        <ele>1202</ele>
        <time>2000-01-01T02:19:41.000Z</time>
      </trkpt>
      <trkpt lat="45.15937" lon="2.63676">
        <ele>1212</ele>
        <time>2000-01-01T02:19:51.000Z</time>
      </trkpt>
      <trkpt lat="45.15937" lon="2.6369">
        <ele>1208</ele>
        <time>2000-01-01T02:20:01.000Z</time>
      </trkpt>
      <trkpt lat="45.1594" lon="2.6371">
        <ele>1217</ele>
        <time>2000-01-01T02:20:11.000Z</time>
      </trkpt>
      <trkpt lat="45.1594" lon="2.63718">
        <ele>1212</ele>
        <time>2000-01-01T02:20:21.000Z</time>
      </trkpt>
      <trkpt lat="45.15941" lon="2.6372">
        <ele>1218</ele>
        <time>2000-01-01T02:20:31.000Z</time>
      </trkpt>
      <trkpt lat="45.1595" lon="2.63743">
        <ele>1216</ele>
        <time>2000-01-01T02:20:41.000Z</time>
      </trkpt>
      <trkpt lat="45.15959" lon="2.63767">
        <ele>1221</ele>
        <time>2000-01-01T02:20:51.000Z</time>
      </trkpt>
      <trkpt lat="45.15971" lon="2.63787">
        <ele>1229</ele>
        <time>2000-01-01T02:21:01.000Z</time>
      </trkpt>
      <trkpt lat="45.15981" lon="2.63804">
        <ele>1224</ele>
        <time>2000-01-01T02:21:11.000Z</time>
      </trkpt>
      <trkpt lat="45.15988" lon="2.63822">
        <ele>1234</ele>
        <time>2000-01-01T02:21:21.000Z</time>
      </trkpt>
      <trkpt lat="45.15991" lon="2.63829">
        <ele>1230</ele>
        <time>2000-01-01T02:21:31.000Z</time>
      </trkpt>
      <trkpt lat="45.15995" lon="2.63848">
        <ele>1235</ele>
        <time>2000-01-01T02:21:41.000Z</time>
      </trkpt>
      <trkpt lat="45.15997" lon="2.63885">
        <ele>1233</ele>
        <time>2000-01-01T02:21:51.000Z</time>
      </trkpt>
      <trkpt lat="45.15998" lon="2.63894">
        <ele>1234</ele>
        <time>2000-01-01T02:22:01.000Z</time>
      </trkpt>
      <trkpt lat="45.15997" lon="2.63895">
        <ele>1234</ele>
        <time>2000-01-01T02:22:11.000Z</time>
      </trkpt>
      <trkpt lat="45.15997" lon="2.63895">
        <ele>1234</ele>
        <time>2000-01-01T02:22:21.000Z</time>
      </trkpt>
      <trkpt lat="45.15998" lon="2.63894">
        <ele>1234</ele>
        <time>2000-01-01T02:22:31.000Z</time>
      </trkpt>
      <trkpt lat="45.16001" lon="2.63941">
        <ele>1233</ele>
        <time>2000-01-01T02:22:41.000Z</time>
      </trkpt>
      <trkpt lat="45.16007" lon="2.63989">
        <ele>1234</ele>
        <time>2000-01-01T02:22:51.000Z</time>
      </trkpt>
      <trkpt lat="45.16015" lon="2.64034">
        <ele>1239</ele>
        <time>2000-01-01T02:23:01.000Z</time>
      </trkpt>
      <trkpt lat="45.16024" lon="2.64078">
        <ele>1245</ele>
        <time>2000-01-01T02:23:11.000Z</time>
      </trkpt>
      <trkpt lat="45.16031" lon="2.64112">
        <ele>1247</ele>
        <time>2000-01-01T02:23:21.000Z</time>
      </trkpt>
      <trkpt lat="45.16039" lon="2.6414">
        <ele>1249</ele>
        <time>2000-01-01T02:23:31.000Z</time>
      </trkpt>
      <trkpt lat="45.16042" lon="2.64168">
        <ele>1252</ele>
        <time>2000-01-01T02:23:41.000Z</time>
      </trkpt>
      <trkpt lat="45.1604" lon="2.64191">
        <ele>1272</ele>
        <time>2000-01-01T02:23:51.000Z</time>
      </trkpt>
      <trkpt lat="45.16033" lon="2.64223">
        <ele>1257</ele>
        <time>2000-01-01T02:24:01.000Z</time>
      </trkpt>
      <trkpt lat="45.16024" lon="2.64261">
        <ele>1270</ele>
        <time>2000-01-01T02:24:11.000Z</time>
      </trkpt>
      <trkpt lat="45.16017" lon="2.64287">
        <ele>1278</ele>
        <time>2000-01-01T02:24:21.000Z</time>
      </trkpt>
      <trkpt lat="45.16005" lon="2.64319">
        <ele>1285</ele>
        <time>2000-01-01T02:24:31.000Z</time>
      </trkpt>
      <trkpt lat="45.15987" lon="2.64339">
        <ele>1293</ele>
        <time>2000-01-01T02:24:41.000Z</time>
      </trkpt>
      <trkpt lat="45.15971" lon="2.64361">
        <ele>1297</ele>
        <time>2000-01-01T02:24:51.000Z</time>
      </trkpt>
      <trkpt lat="45.15957" lon="2.64377">
        <ele>1300</ele>
        <time>2000-01-01T02:25:01.000Z</time>
      </trkpt>
      <trkpt lat="45.15952" lon="2.64404">
        <ele>1302</ele>
        <time>2000-01-01T02:25:11.000Z</time>
      </trkpt>
      <trkpt lat="45.15947" lon="2.64426">
        <ele>1310</ele>
        <time>2000-01-01T02:25:21.000Z</time>
      </trkpt>
      <trkpt lat="45.15946" lon="2.64442">
        <ele>1307</ele>
        <time>2000-01-01T02:25:31.000Z</time>
      </trkpt>
      <trkpt lat="45.15949" lon="2.64451">
        <ele>1312</ele>
        <time>2000-01-01T02:25:41.000Z</time>
      </trkpt>
      <trkpt lat="45.15954" lon="2.64458">
        <ele>1314</ele>
        <time>2000-01-01T02:25:51.000Z</time>
      </trkpt>
      <trkpt lat="45.15961" lon="2.64456">
        <ele>1310</ele>
        <time>2000-01-01T02:26:01.000Z</time>
      </trkpt>
      <trkpt lat="45.15969" lon="2.64447">
        <ele>1316</ele>
        <time>2000-01-01T02:26:11.000Z</time>
      </trkpt>
      <trkpt lat="45.15982" lon="2.64432">
        <ele>1317</ele>
        <time>2000-01-01T02:26:21.000Z</time>
      </trkpt>
      <trkpt lat="45.1599" lon="2.64427">
        <ele>1319</ele>
        <time>2000-01-01T02:26:31.000Z</time>
      </trkpt>
      <trkpt lat="45.16005" lon="2.64422">
        <ele>1323</ele>
        <time>2000-01-01T02:26:41.000Z</time>
      </trkpt>
      <trkpt lat="45.16002" lon="2.64446">
        <ele>1337</ele>
        <time>2000-01-01T02:26:51.000Z</time>
      </trkpt>
      <trkpt lat="45.15999" lon="2.64467">
        <ele>1327</ele>
        <time>2000-01-01T02:27:01.000Z</time>
      </trkpt>
      <trkpt lat="45.15997" lon="2.64482">
        <ele>1326</ele>
        <time>2000-01-01T02:27:11.000Z</time>
      </trkpt>
      <trkpt lat="45.15997" lon="2.64498">
        <ele>1332</ele>
        <time>2000-01-01T02:27:21.000Z</time>
      </trkpt>
      <trkpt lat="45.15997" lon="2.64512">
        <ele>1332</ele>
        <time>2000-01-01T02:27:31.000Z</time>
      </trkpt>
      <trkpt lat="45.16002" lon="2.64522">
        <ele>1348</ele>
        <time>2000-01-01T02:27:41.000Z</time>
      </trkpt>
      <trkpt lat="45.1601" lon="2.64508">
        <ele>1335</ele>
        <time>2000-01-01T02:27:51.000Z</time>
      </trkpt>
      <trkpt lat="45.1602" lon="2.64493">
        <ele>1343</ele>
        <time>2000-01-01T02:28:01.000Z</time>
      </trkpt>
      <trkpt lat="45.16028" lon="2.6448">
        <ele>1341</ele>
        <time>2000-01-01T02:28:11.000Z</time>
      </trkpt>
      <trkpt lat="45.16031" lon="2.64478">
        <ele>1345</ele>
        <time>2000-01-01T02:28:21.000Z</time>
      </trkpt>
      <trkpt lat="45.16035" lon="2.64479">
        <ele>1346</ele>
        <time>2000-01-01T02:28:31.000Z</time>
      </trkpt>
      <trkpt lat="45.16036" lon="2.64483">
        <ele>1346</ele>
        <time>2000-01-01T02:28:41.000Z</time>
      </trkpt>
      <trkpt lat="45.16035" lon="2.6449">
        <ele>1346</ele>
        <time>2000-01-01T02:28:51.000Z</time>
      </trkpt>
      <trkpt lat="45.16034" lon="2.64496">
        <ele>1347</ele>
        <time>2000-01-01T02:29:01.000Z</time>
      </trkpt>
      <trkpt lat="45.16032" lon="2.64506">
        <ele>1354</ele>
        <time>2000-01-01T02:29:11.000Z</time>
      </trkpt>
      <trkpt lat="45.16032" lon="2.6452">
        <ele>1355</ele>
        <time>2000-01-01T02:29:21.000Z</time>
      </trkpt>
      <trkpt lat="45.16032" lon="2.64534">
        <ele>1352</ele>
        <time>2000-01-01T02:29:31.000Z</time>
      </trkpt>
      <trkpt lat="45.16033" lon="2.64545">
        <ele>1356</ele>
        <time>2000-01-01T02:29:41.000Z</time>
      </trkpt>
      <trkpt lat="45.16035" lon="2.64549">
        <ele>1357</ele>
        <time>2000-01-01T02:29:51.000Z</time>
      </trkpt>
      <trkpt lat="45.16039" lon="2.6455">
        <ele>1358</ele>
        <time>2000-01-01T02:30:01.000Z</time>
      </trkpt>
      <trkpt lat="45.16044" lon="2.64544">
        <ele>1352</ele>
        <time>2000-01-01T02:30:11.000Z</time>
      </trkpt>
      <trkpt lat="45.16049" lon="2.64533">
        <ele>1359</ele>
        <time>2000-01-01T02:30:21.000Z</time>
      </trkpt>
      <trkpt lat="45.16055" lon="2.6452">
        <ele>1358</ele>
        <time>2000-01-01T02:30:31.000Z</time>
      </trkpt>
      <trkpt lat="45.16064" lon="2.64504">
        <ele>1363</ele>
        <time>2000-01-01T02:30:41.000Z</time>
      </trkpt>
      <trkpt lat="45.16069" lon="2.645">
        <ele>1364</ele>
        <time>2000-01-01T02:30:51.000Z</time>
      </trkpt>
      <trkpt lat="45.16073" lon="2.64503">
        <ele>1366</ele>
        <time>2000-01-01T02:31:01.000Z</time>
      </trkpt>
      <trkpt lat="45.16074" lon="2.64508">
        <ele>1366</ele>
        <time>2000-01-01T02:31:11.000Z</time>
      </trkpt>
      <trkpt lat="45.16071" lon="2.64523">
        <ele>1363</ele>
        <time>2000-01-01T02:31:21.000Z</time>
      </trkpt>
      <trkpt lat="45.16068" lon="2.64545">
        <ele>1368</ele>
        <time>2000-01-01T02:31:31.000Z</time>
      </trkpt>
      <trkpt lat="45.16068" lon="2.64561">
        <ele>1366</ele>
        <time>2000-01-01T02:31:41.000Z</time>
      </trkpt>
      <trkpt lat="45.1607" lon="2.64574">
        <ele>1370</ele>
        <time>2000-01-01T02:31:51.000Z</time>
      </trkpt>
      <trkpt lat="45.16075" lon="2.64586">
        <ele>1376</ele>
        <time>2000-01-01T02:32:01.000Z</time>
      </trkpt>
      <trkpt lat="45.1608" lon="2.64593">
        <ele>1375</ele>
        <time>2000-01-01T02:32:11.000Z</time>
      </trkpt>
      <trkpt lat="45.16084" lon="2.64595">
        <ele>1370</ele>
        <time>2000-01-01T02:32:21.000Z</time>
      </trkpt>
      <trkpt lat="45.16088" lon="2.64594">
        <ele>1386</ele>
        <time>2000-01-01T02:32:31.000Z</time>
      </trkpt>
      <trkpt lat="45.1609" lon="2.64591">
        <ele>1386</ele>
        <time>2000-01-01T02:32:41.000Z</time>
      </trkpt>
      <trkpt lat="45.16091" lon="2.64582">
        <ele>1383</ele>
        <time>2000-01-01T02:32:51.000Z</time>
      </trkpt>
      <trkpt lat="45.16092" lon="2.64569">
        <ele>1377</ele>
        <time>2000-01-01T02:33:01.000Z</time>
      </trkpt>
      <trkpt lat="45.16096" lon="2.64546">
        <ele>1386</ele>
        <time>2000-01-01T02:33:11.000Z</time>
      </trkpt>
      <trkpt lat="45.16103" lon="2.64525">
        <ele>1382</ele>
        <time>2000-01-01T02:33:21.000Z</time>
      </trkpt>
      <trkpt lat="45.16108" lon="2.64516">
        <ele>1385</ele>
        <time>2000-01-01T02:33:31.000Z</time>
      </trkpt>
      <trkpt lat="45.16114" lon="2.6451">
        <ele>1386</ele>
        <time>2000-01-01T02:33:41.000Z</time>
      </trkpt>
      <trkpt lat="45.1612" lon="2.64508">
        <ele>1386</ele>
        <time>2000-01-01T02:33:51.000Z</time>
      </trkpt>
      <trkpt lat="45.16124" lon="2.64507">
        <ele>1388</ele>
        <time>2000-01-01T02:34:01.000Z</time>
      </trkpt>
      <trkpt lat="45.16134" lon="2.64504">
        <ele>1391</ele>
        <time>2000-01-01T02:34:11.000Z</time>
      </trkpt>
      <trkpt lat="45.16148" lon="2.64497">
        <ele>1391</ele>
        <time>2000-01-01T02:34:21.000Z</time>
      </trkpt>
      <trkpt lat="45.16156" lon="2.64492">
        <ele>1389</ele>
        <time>2000-01-01T02:34:31.000Z</time>
      </trkpt>
      <trkpt lat="45.16165" lon="2.64487">
        <ele>1389</ele>
        <time>2000-01-01T02:34:41.000Z</time>
      </trkpt>
      <trkpt lat="45.16175" lon="2.6448">
        <ele>1399</ele>
        <time>2000-01-01T02:34:51.000Z</time>
      </trkpt>
      <trkpt lat="45.16185" lon="2.64473">
        <ele>1402</ele>
        <time>2000-01-01T02:35:01.000Z</time>
      </trkpt>
      <trkpt lat="45.16198" lon="2.64467">
        <ele>1406</ele>
        <time>2000-01-01T02:35:11.000Z</time>
      </trkpt>
      <trkpt lat="45.16211" lon="2.6446">
        <ele>1405</ele>
        <time>2000-01-01T02:35:21.000Z</time>
      </trkpt>
      <trkpt lat="45.16223" lon="2.64452">
        <ele>1410</ele>
        <time>2000-01-01T02:35:31.000Z</time>
      </trkpt>
      <trkpt lat="45.16237" lon="2.64445">
        <ele>1408</ele>
        <time>2000-01-01T02:35:41.000Z</time>
      </trkpt>
      <trkpt lat="45.16249" lon="2.64436">
        <ele>1415</ele>
        <time>2000-01-01T02:35:51.000Z</time>
      </trkpt>
      <trkpt lat="45.16261" lon="2.64423">
        <ele>1420</ele>
        <time>2000-01-01T02:36:01.000Z</time>
      </trkpt>
      <trkpt lat="45.16266" lon="2.64422">
        <ele>1421</ele>
        <time>2000-01-01T02:36:11.000Z</time>
      </trkpt>
      <trkpt lat="45.16269" lon="2.64423">
        <ele>1423</ele>
        <time>2000-01-01T02:36:21.000Z</time>
      </trkpt>
      <trkpt lat="45.16271" lon="2.64426">
        <ele>1424</ele>
        <time>2000-01-01T02:36:31.000Z</time>
      </trkpt>
      <trkpt lat="45.16272" lon="2.6443">
        <ele>1425</ele>
        <time>2000-01-01T02:36:41.000Z</time>
      </trkpt>
      <trkpt lat="45.1627" lon="2.64436">
        <ele>1426</ele>
        <time>2000-01-01T02:36:51.000Z</time>
      </trkpt>
      <trkpt lat="45.16261" lon="2.64452">
        <ele>1423</ele>
        <time>2000-01-01T02:37:01.000Z</time>
      </trkpt>
      <trkpt lat="45.16261" lon="2.64453">
        <ele>1428</ele>
        <time>2000-01-01T02:37:11.000Z</time>
      </trkpt>
      <trkpt lat="45.1626" lon="2.64452">
        <ele>1427</ele>
        <time>2000-01-01T02:37:21.000Z</time>
      </trkpt>
      <trkpt lat="45.1626" lon="2.64452">
        <ele>1427</ele>
        <time>2000-01-01T02:37:31.000Z</time>
      </trkpt>
      <trkpt lat="45.16261" lon="2.64453">
        <ele>1428</ele>
        <time>2000-01-01T02:37:41.000Z</time>
      </trkpt>
      <trkpt lat="45.16255" lon="2.64465">
        <ele>1429</ele>
        <time>2000-01-01T02:37:51.000Z</time>
      </trkpt>
      <trkpt lat="45.16248" lon="2.6448">
        <ele>1428</ele>
        <time>2000-01-01T02:38:01.000Z</time>
      </trkpt>
      <trkpt lat="45.16246" lon="2.64487">
        <ele>1418</ele>
        <time>2000-01-01T02:38:11.000Z</time>
      </trkpt>
      <trkpt lat="45.16245" lon="2.64493">
        <ele>1421</ele>
        <time>2000-01-01T02:38:21.000Z</time>
      </trkpt>
      <trkpt lat="45.16246" lon="2.64496">
        <ele>1423</ele>
        <time>2000-01-01T02:38:31.000Z</time>
      </trkpt>
      <trkpt lat="45.16249" lon="2.64498">
        <ele>1426</ele>
        <time>2000-01-01T02:38:41.000Z</time>
      </trkpt>
      <trkpt lat="45.16252" lon="2.64498">
        <ele>1428</ele>
        <time>2000-01-01T02:38:51.000Z</time>
      </trkpt>
      <trkpt lat="45.16267" lon="2.64487">
        <ele>1430</ele>
        <time>2000-01-01T02:39:01.000Z</time>
      </trkpt>
      <trkpt lat="45.16279" lon="2.64476">
        <ele>1432</ele>
        <time>2000-01-01T02:39:11.000Z</time>
      </trkpt>
      <trkpt lat="45.16293" lon="2.6446">
        <ele>1437</ele>
        <time>2000-01-01T02:39:21.000Z</time>
      </trkpt>
      <trkpt lat="45.16308" lon="2.64439">
        <ele>1442</ele>
        <time>2000-01-01T02:39:31.000Z</time>
      </trkpt>
      <trkpt lat="45.16319" lon="2.64424">
        <ele>1437</ele>
        <time>2000-01-01T02:39:41.000Z</time>
      </trkpt>
      <trkpt lat="45.16331" lon="2.64407">
        <ele>1444</ele>
        <time>2000-01-01T02:39:51.000Z</time>
      </trkpt>
      <trkpt lat="45.16344" lon="2.64391">
        <ele>1442</ele>
        <time>2000-01-01T02:40:01.000Z</time>
      </trkpt>
      <trkpt lat="45.16352" lon="2.64378">
        <ele>1444</ele>
        <time>2000-01-01T02:40:11.000Z</time>
      </trkpt>
      <trkpt lat="45.16358" lon="2.64374">
        <ele>1442</ele>
        <time>2000-01-01T02:40:21.000Z</time>
      </trkpt>
      <trkpt lat="45.16363" lon="2.64372">
        <ele>1442</ele>
        <time>2000-01-01T02:40:31.000Z</time>
      </trkpt>
      <trkpt lat="45.16368" lon="2.64373">
        <ele>1443</ele>
        <time>2000-01-01T02:40:41.000Z</time>
      </trkpt>
      <trkpt lat="45.16374" lon="2.64378">
        <ele>1444</ele>
        <time>2000-01-01T02:40:51.000Z</time>
      </trkpt>
      <trkpt lat="45.16377" lon="2.64382">
        <ele>1444</ele>
        <time>2000-01-01T02:41:01.000Z</time>
      </trkpt>
      <trkpt lat="45.16381" lon="2.64386">
        <ele>1444</ele>
        <time>2000-01-01T02:41:11.000Z</time>
      </trkpt>
      <trkpt lat="45.16384" lon="2.64388">
        <ele>1444</ele>
        <time>2000-01-01T02:41:21.000Z</time>
      </trkpt>
      <trkpt lat="45.16388" lon="2.6439">
        <ele>1445</ele>
        <time>2000-01-01T02:41:31.000Z</time>
      </trkpt>
      <trkpt lat="45.16392" lon="2.6439">
        <ele>1449</ele>
        <time>2000-01-01T02:41:41.000Z</time>
      </trkpt>
      <trkpt lat="45.16394" lon="2.64391">
        <ele>1445</ele>
        <time>2000-01-01T02:41:51.000Z</time>
      </trkpt>
      <trkpt lat="45.16398" lon="2.6439">
        <ele>1445</ele>
        <time>2000-01-01T02:42:01.000Z</time>
      </trkpt>
      <trkpt lat="45.16402" lon="2.6439">
        <ele>1446</ele>
        <time>2000-01-01T02:42:11.000Z</time>
      </trkpt>
      <trkpt lat="45.16407" lon="2.64389">
        <ele>1446</ele>
        <time>2000-01-01T02:42:21.000Z</time>
      </trkpt>
      <trkpt lat="45.16411" lon="2.64389">
        <ele>1453</ele>
        <time>2000-01-01T02:42:31.000Z</time>
      </trkpt>
      <trkpt lat="45.16416" lon="2.64389">
        <ele>1446</ele>
        <time>2000-01-01T02:42:41.000Z</time>
      </trkpt>
      <trkpt lat="45.16421" lon="2.6439">
        <ele>1449</ele>
        <time>2000-01-01T02:42:51.000Z</time>
      </trkpt>
      <trkpt lat="45.16425" lon="2.6439">
        <ele>1449</ele>
        <time>2000-01-01T02:43:01.000Z</time>
      </trkpt>
      <trkpt lat="45.16427" lon="2.6439">
        <ele>1449</ele>
        <time>2000-01-01T02:43:11.000Z</time>
      </trkpt>
      <trkpt lat="45.16432" lon="2.64392">
        <ele>1453</ele>
        <time>2000-01-01T02:43:21.000Z</time>
      </trkpt>
      <trkpt lat="45.16439" lon="2.64394">
        <ele>1449</ele>
        <time>2000-01-01T02:43:31.000Z</time>
      </trkpt>
      <trkpt lat="45.16439" lon="2.64394">
        <ele>1449</ele>
        <time>2000-01-01T02:43:41.000Z</time>
      </trkpt>
      <trkpt lat="45.16448" lon="2.64395">
        <ele>1449</ele>
        <time>2000-01-01T02:43:51.000Z</time>
      </trkpt>
      <trkpt lat="45.16452" lon="2.64397">
        <ele>1453</ele>
        <time>2000-01-01T02:44:01.000Z</time>
      </trkpt>
      <trkpt lat="45.16456" lon="2.644">
        <ele>1448</ele>
        <time>2000-01-01T02:44:11.000Z</time>
      </trkpt>
      <trkpt lat="45.16459" lon="2.64407">
        <ele>1448</ele>
        <time>2000-01-01T02:44:21.000Z</time>
      </trkpt>
      <trkpt lat="45.1646" lon="2.64414">
        <ele>1448</ele>
        <time>2000-01-01T02:44:31.000Z</time>
      </trkpt>
      <trkpt lat="45.16458" lon="2.64422">
        <ele>1452</ele>
        <time>2000-01-01T02:44:41.000Z</time>
      </trkpt>
      <trkpt lat="45.16455" lon="2.6443">
        <ele>1446</ele>
        <time>2000-01-01T02:44:51.000Z</time>
      </trkpt>
      <trkpt lat="45.16452" lon="2.64437">
        <ele>1446</ele>
        <time>2000-01-01T02:45:01.000Z</time>
      </trkpt>
      <trkpt lat="45.16451" lon="2.64445">
        <ele>1446</ele>
        <time>2000-01-01T02:45:11.000Z</time>
      </trkpt>
      <trkpt lat="45.1645" lon="2.64451">
        <ele>1450</ele>
        <time>2000-01-01T02:45:21.000Z</time>
      </trkpt>
      <trkpt lat="45.16449" lon="2.64457">
        <ele>1446</ele>
        <time>2000-01-01T02:45:31.000Z</time>
      </trkpt>
      <trkpt lat="45.16448" lon="2.64463">
        <ele>1446</ele>
        <time>2000-01-01T02:45:41.000Z</time>
      </trkpt>
      <trkpt lat="45.16446" lon="2.64469">
        <ele>1446</ele>
        <time>2000-01-01T02:45:51.000Z</time>
      </trkpt>
      <trkpt lat="45.16445" lon="2.64474">
        <ele>1446</ele>
        <time>2000-01-01T02:46:01.000Z</time>
      </trkpt>
      <trkpt lat="45.16443" lon="2.64481">
        <ele>1450</ele>
        <time>2000-01-01T02:46:11.000Z</time>
      </trkpt>
      <trkpt lat="45.16442" lon="2.64486">
        <ele>1446</ele>
        <time>2000-01-01T02:46:21.000Z</time>
      </trkpt>
      <trkpt lat="45.16441" lon="2.64492">
        <ele>1446</ele>
        <time>2000-01-01T02:46:31.000Z</time>
      </trkpt>
      <trkpt lat="45.16439" lon="2.64497">
        <ele>1446</ele>
        <time>2000-01-01T02:46:41.000Z</time>
      </trkpt>
      <trkpt lat="45.16439" lon="2.64503">
        <ele>1445</ele>
        <time>2000-01-01T02:46:51.000Z</time>
      </trkpt>
      <trkpt lat="45.16441" lon="2.64511">
        <ele>1451</ele>
        <time>2000-01-01T02:47:01.000Z</time>
      </trkpt>
      <trkpt lat="45.16444" lon="2.64517">
        <ele>1445</ele>
        <time>2000-01-01T02:47:11.000Z</time>
      </trkpt>
      <trkpt lat="45.16446" lon="2.64524">
        <ele>1445</ele>
        <time>2000-01-01T02:47:21.000Z</time>
      </trkpt>
      <trkpt lat="45.16448" lon="2.64531">
        <ele>1445</ele>
        <time>2000-01-01T02:47:31.000Z</time>
      </trkpt>
      <trkpt lat="45.16451" lon="2.64538">
        <ele>1452</ele>
        <time>2000-01-01T02:47:41.000Z</time>
      </trkpt>
      <trkpt lat="45.16453" lon="2.64546">
        <ele>1444</ele>
        <time>2000-01-01T02:47:51.000Z</time>
      </trkpt>
      <trkpt lat="45.16456" lon="2.64553">
        <ele>1444</ele>
        <time>2000-01-01T02:48:01.000Z</time>
      </trkpt>
      <trkpt lat="45.16459" lon="2.64559">
        <ele>1444</ele>
        <time>2000-01-01T02:48:11.000Z</time>
      </trkpt>
      <trkpt lat="45.16462" lon="2.64565">
        <ele>1452</ele>
        <time>2000-01-01T02:48:21.000Z</time>
      </trkpt>
      <trkpt lat="45.16464" lon="2.64571">
        <ele>1444</ele>
        <time>2000-01-01T02:48:31.000Z</time>
      </trkpt>
      <trkpt lat="45.16466" lon="2.64577">
        <ele>1444</ele>
        <time>2000-01-01T02:48:41.000Z</time>
      </trkpt>
      <trkpt lat="45.16468" lon="2.64584">
        <ele>1445</ele>
        <time>2000-01-01T02:48:51.000Z</time>
      </trkpt>
      <trkpt lat="45.16469" lon="2.64591">
        <ele>1451</ele>
        <time>2000-01-01T02:49:01.000Z</time>
      </trkpt>
      <trkpt lat="45.16469" lon="2.64599">
        <ele>1445</ele>
        <time>2000-01-01T02:49:11.000Z</time>
      </trkpt>
      <trkpt lat="45.16467" lon="2.64606">
        <ele>1446</ele>
        <time>2000-01-01T02:49:21.000Z</time>
      </trkpt>
      <trkpt lat="45.16466" lon="2.64613">
        <ele>1446</ele>
        <time>2000-01-01T02:49:31.000Z</time>
      </trkpt>
      <trkpt lat="45.16467" lon="2.64621">
        <ele>1449</ele>
        <time>2000-01-01T02:49:41.000Z</time>
      </trkpt>
      <trkpt lat="45.16468" lon="2.64628">
        <ele>1446</ele>
        <time>2000-01-01T02:49:51.000Z</time>
      </trkpt>
      <trkpt lat="45.16469" lon="2.64634">
        <ele>1446</ele>
        <time>2000-01-01T02:50:01.000Z</time>
      </trkpt>
      <trkpt lat="45.1647" lon="2.64641">
        <ele>1446</ele>
        <time>2000-01-01T02:50:11.000Z</time>
      </trkpt>
      <trkpt lat="45.1647" lon="2.64648">
        <ele>1449</ele>
        <time>2000-01-01T02:50:21.000Z</time>
      </trkpt>
      <trkpt lat="45.1647" lon="2.64655">
        <ele>1447</ele>
        <time>2000-01-01T02:50:31.000Z</time>
      </trkpt>
      <trkpt lat="45.1647" lon="2.64662">
        <ele>1447</ele>
        <time>2000-01-01T02:50:41.000Z</time>
      </trkpt>
      <trkpt lat="45.16469" lon="2.64669">
        <ele>1449</ele>
        <time>2000-01-01T02:50:51.000Z</time>
      </trkpt>
      <trkpt lat="45.16468" lon="2.64675">
        <ele>1449</ele>
        <time>2000-01-01T02:51:01.000Z</time>
      </trkpt>
      <trkpt lat="45.16467" lon="2.64682">
        <ele>1449</ele>
        <time>2000-01-01T02:51:11.000Z</time>
      </trkpt>
      <trkpt lat="45.16467" lon="2.64688">
        <ele>1450</ele>
        <time>2000-01-01T02:51:21.000Z</time>
      </trkpt>
      <trkpt lat="45.16468" lon="2.64695">
        <ele>1450</ele>
        <time>2000-01-01T02:51:31.000Z</time>
      </trkpt>
      <trkpt lat="45.16468" lon="2.64701">
        <ele>1450</ele>
        <time>2000-01-01T02:51:41.000Z</time>
      </trkpt>
      <trkpt lat="45.16469" lon="2.64708">
        <ele>1450</ele>
        <time>2000-01-01T02:51:51.000Z</time>
      </trkpt>
      <trkpt lat="45.16469" lon="2.64714">
        <ele>1450</ele>
        <time>2000-01-01T02:52:01.000Z</time>
      </trkpt>
      <trkpt lat="45.1647" lon="2.64723">
        <ele>1451</ele>
        <time>2000-01-01T02:52:11.000Z</time>
      </trkpt>
      <trkpt lat="45.1647" lon="2.6473">
        <ele>1451</ele>
        <time>2000-01-01T02:52:21.000Z</time>
      </trkpt>
      <trkpt lat="45.16471" lon="2.64738">
        <ele>1453</ele>
        <time>2000-01-01T02:52:31.000Z</time>
      </trkpt>
      <trkpt lat="45.16473" lon="2.64745">
        <ele>1451</ele>
        <time>2000-01-01T02:52:41.000Z</time>
      </trkpt>
      <trkpt lat="45.16476" lon="2.64751">
        <ele>1454</ele>
        <time>2000-01-01T02:52:51.000Z</time>
      </trkpt>
      <trkpt lat="45.1648" lon="2.64755">
        <ele>1454</ele>
        <time>2000-01-01T02:53:01.000Z</time>
      </trkpt>
      <trkpt lat="45.16485" lon="2.64759">
        <ele>1455</ele>
        <time>2000-01-01T02:53:11.000Z</time>
      </trkpt>
      <trkpt lat="45.16488" lon="2.64763">
        <ele>1454</ele>
        <time>2000-01-01T02:53:21.000Z</time>
      </trkpt>
      <trkpt lat="45.16491" lon="2.64767">
        <ele>1454</ele>
        <time>2000-01-01T02:53:31.000Z</time>
      </trkpt>
      <trkpt lat="45.16494" lon="2.64771">
        <ele>1455</ele>
        <time>2000-01-01T02:53:41.000Z</time>
      </trkpt>
      <trkpt lat="45.16497" lon="2.64776">
        <ele>1455</ele>
        <time>2000-01-01T02:53:51.000Z</time>
      </trkpt>
      <trkpt lat="45.16499" lon="2.64782">
        <ele>1457</ele>
        <time>2000-01-01T02:54:01.000Z</time>
      </trkpt>
      <trkpt lat="45.16501" lon="2.64787">
        <ele>1454</ele>
        <time>2000-01-01T02:54:11.000Z</time>
      </trkpt>
      <trkpt lat="45.16502" lon="2.64792">
        <ele>1455</ele>
        <time>2000-01-01T02:54:21.000Z</time>
      </trkpt>
      <trkpt lat="45.16504" lon="2.64798">
        <ele>1455</ele>
        <time>2000-01-01T02:54:31.000Z</time>
      </trkpt>
      <trkpt lat="45.16505" lon="2.64804">
        <ele>1456</ele>
        <time>2000-01-01T02:54:41.000Z</time>
      </trkpt>
      <trkpt lat="45.16506" lon="2.64809">
        <ele>1459</ele>
        <time>2000-01-01T02:54:51.000Z</time>
      </trkpt>
      <trkpt lat="45.16508" lon="2.64814">
        <ele>1456</ele>
        <time>2000-01-01T02:55:01.000Z</time>
      </trkpt>
      <trkpt lat="45.16509" lon="2.6482">
        <ele>1457</ele>
        <time>2000-01-01T02:55:11.000Z</time>
      </trkpt>
      <trkpt lat="45.16509" lon="2.64825">
        <ele>1457</ele>
        <time>2000-01-01T02:55:21.000Z</time>
      </trkpt>
      <trkpt lat="45.16509" lon="2.64831">
        <ele>1458</ele>
        <time>2000-01-01T02:55:31.000Z</time>
      </trkpt>
      <trkpt lat="45.16509" lon="2.64836">
        <ele>1460</ele>
        <time>2000-01-01T02:55:41.000Z</time>
      </trkpt>
      <trkpt lat="45.16507" lon="2.64843">
        <ele>1460</ele>
        <time>2000-01-01T02:55:51.000Z</time>
      </trkpt>
      <trkpt lat="45.16506" lon="2.6485">
        <ele>1461</ele>
        <time>2000-01-01T02:56:01.000Z</time>
      </trkpt>
      <trkpt lat="45.16505" lon="2.64856">
        <ele>1462</ele>
        <time>2000-01-01T02:56:11.000Z</time>
      </trkpt>
      <trkpt lat="45.16502" lon="2.64862">
        <ele>1463</ele>
        <time>2000-01-01T02:56:21.000Z</time>
      </trkpt>
      <trkpt lat="45.16501" lon="2.64868">
        <ele>1462</ele>
        <time>2000-01-01T02:56:31.000Z</time>
      </trkpt>
      <trkpt lat="45.165" lon="2.64876">
        <ele>1464</ele>
        <time>2000-01-01T02:56:41.000Z</time>
      </trkpt>
      <trkpt lat="45.165" lon="2.64884">
        <ele>1465</ele>
        <time>2000-01-01T02:56:51.000Z</time>
      </trkpt>
      <trkpt lat="45.16502" lon="2.64891">
        <ele>1465</ele>
        <time>2000-01-01T02:57:01.000Z</time>
      </trkpt>
      <trkpt lat="45.16504" lon="2.64898">
        <ele>1465</ele>
        <time>2000-01-01T02:57:11.000Z</time>
      </trkpt>
      <trkpt lat="45.16507" lon="2.64904">
        <ele>1466</ele>
        <time>2000-01-01T02:57:21.000Z</time>
      </trkpt>
      <trkpt lat="45.16508" lon="2.64907">
        <ele>1466</ele>
        <time>2000-01-01T02:57:31.000Z</time>
      </trkpt>
      <trkpt lat="45.16509" lon="2.64914">
        <ele>1466</ele>
        <time>2000-01-01T02:57:41.000Z</time>
      </trkpt>
      <trkpt lat="45.16507" lon="2.6492">
        <ele>1469</ele>
        <time>2000-01-01T02:57:51.000Z</time>
      </trkpt>
      <trkpt lat="45.16507" lon="2.64926">
        <ele>1470</ele>
        <time>2000-01-01T02:58:01.000Z</time>
      </trkpt>
      <trkpt lat="45.16507" lon="2.64933">
        <ele>1471</ele>
        <time>2000-01-01T02:58:11.000Z</time>
      </trkpt>
      <trkpt lat="45.16507" lon="2.64938">
        <ele>1472</ele>
        <time>2000-01-01T02:58:21.000Z</time>
      </trkpt>
      <trkpt lat="45.16509" lon="2.64943">
        <ele>1472</ele>
        <time>2000-01-01T02:58:31.000Z</time>
      </trkpt>
      <trkpt lat="45.16512" lon="2.6495">
        <ele>1472</ele>
        <time>2000-01-01T02:58:41.000Z</time>
      </trkpt>
      <trkpt lat="45.16514" lon="2.64956">
        <ele>1474</ele>
        <time>2000-01-01T02:58:51.000Z</time>
      </trkpt>
      <trkpt lat="45.16516" lon="2.64962">
        <ele>1475</ele>
        <time>2000-01-01T02:59:01.000Z</time>
      </trkpt>
      <trkpt lat="45.1652" lon="2.64965">
        <ele>1475</ele>
        <time>2000-01-01T02:59:11.000Z</time>
      </trkpt>
      <trkpt lat="45.16525" lon="2.6497">
        <ele>1476</ele>
        <time>2000-01-01T02:59:21.000Z</time>
      </trkpt>
      <trkpt lat="45.16527" lon="2.64974">
        <ele>1476</ele>
        <time>2000-01-01T02:59:31.000Z</time>
      </trkpt>
      <trkpt lat="45.16531" lon="2.64978">
        <ele>1476</ele>
        <time>2000-01-01T02:59:41.000Z</time>
      </trkpt>
      <trkpt lat="45.16534" lon="2.64981">
        <ele>1476</ele>
        <time>2000-01-01T02:59:51.000Z</time>
      </trkpt>
      <trkpt lat="45.16536" lon="2.64985">
        <ele>1476</ele>
        <time>2000-01-01T03:00:01.000Z</time>
      </trkpt>
      <trkpt lat="45.1654" lon="2.64991">
        <ele>1480</ele>
        <time>2000-01-01T03:00:11.000Z</time>
      </trkpt>
      <trkpt lat="45.16543" lon="2.64997">
        <ele>1476</ele>
        <time>2000-01-01T03:00:21.000Z</time>
      </trkpt>
      <trkpt lat="45.16546" lon="2.65002">
        <ele>1484</ele>
        <time>2000-01-01T03:00:31.000Z</time>
      </trkpt>
      <trkpt lat="45.16548" lon="2.65007">
        <ele>1484</ele>
        <time>2000-01-01T03:00:41.000Z</time>
      </trkpt>
      <trkpt lat="45.1655" lon="2.65013">
        <ele>1484</ele>
        <time>2000-01-01T03:00:51.000Z</time>
      </trkpt>
      <trkpt lat="45.16554" lon="2.6502">
        <ele>1483</ele>
        <time>2000-01-01T03:01:01.000Z</time>
      </trkpt>
      <trkpt lat="45.16557" lon="2.65027">
        <ele>1484</ele>
        <time>2000-01-01T03:01:11.000Z</time>
      </trkpt>
      <trkpt lat="45.16559" lon="2.65033">
        <ele>1485</ele>
        <time>2000-01-01T03:01:21.000Z</time>
      </trkpt>
      <trkpt lat="45.1656" lon="2.65038">
        <ele>1485</ele>
        <time>2000-01-01T03:01:31.000Z</time>
      </trkpt>
      <trkpt lat="45.1656" lon="2.65044">
        <ele>1485</ele>
        <time>2000-01-01T03:01:41.000Z</time>
      </trkpt>
      <trkpt lat="45.16559" lon="2.6505">
        <ele>1488</ele>
        <time>2000-01-01T03:01:51.000Z</time>
      </trkpt>
      <trkpt lat="45.16559" lon="2.65054">
        <ele>1486</ele>
        <time>2000-01-01T03:02:01.000Z</time>
      </trkpt>
      <trkpt lat="45.16556" lon="2.6506">
        <ele>1486</ele>
        <time>2000-01-01T03:02:11.000Z</time>
      </trkpt>
      <trkpt lat="45.16552" lon="2.65064">
        <ele>1487</ele>
        <time>2000-01-01T03:02:21.000Z</time>
      </trkpt>
      <trkpt lat="45.16548" lon="2.65068">
        <ele>1487</ele>
        <time>2000-01-01T03:02:31.000Z</time>
      </trkpt>
      <trkpt lat="45.16546" lon="2.65073">
        <ele>1493</ele>
        <time>2000-01-01T03:02:41.000Z</time>
      </trkpt>
      <trkpt lat="45.16542" lon="2.65078">
        <ele>1488</ele>
        <time>2000-01-01T03:02:51.000Z</time>
      </trkpt>
      <trkpt lat="45.16539" lon="2.65082">
        <ele>1488</ele>
        <time>2000-01-01T03:03:01.000Z</time>
      </trkpt>
      <trkpt lat="45.16536" lon="2.65086">
        <ele>1496</ele>
        <time>2000-01-01T03:03:11.000Z</time>
      </trkpt>
      <trkpt lat="45.16533" lon="2.65091">
        <ele>1496</ele>
        <time>2000-01-01T03:03:21.000Z</time>
      </trkpt>
      <trkpt lat="45.1653" lon="2.65096">
        <ele>1497</ele>
        <time>2000-01-01T03:03:31.000Z</time>
      </trkpt>
      <trkpt lat="45.16526" lon="2.65103">
        <ele>1497</ele>
        <time>2000-01-01T03:03:41.000Z</time>
      </trkpt>
      <trkpt lat="45.16524" lon="2.65107">
        <ele>1497</ele>
        <time>2000-01-01T03:03:51.000Z</time>
      </trkpt>
      <trkpt lat="45.1652" lon="2.65113">
        <ele>1497</ele>
        <time>2000-01-01T03:04:01.000Z</time>
      </trkpt>
      <trkpt lat="45.1652" lon="2.65118">
        <ele>1502</ele>
        <time>2000-01-01T03:04:11.000Z</time>
      </trkpt>
      <trkpt lat="45.16519" lon="2.65123">
        <ele>1498</ele>
        <time>2000-01-01T03:04:21.000Z</time>
      </trkpt>
      <trkpt lat="45.16515" lon="2.65131">
        <ele>1499</ele>
        <time>2000-01-01T03:04:31.000Z</time>
      </trkpt>
      <trkpt lat="45.16512" lon="2.6514">
        <ele>1500</ele>
        <time>2000-01-01T03:04:41.000Z</time>
      </trkpt>
      <trkpt lat="45.16509" lon="2.65149">
        <ele>1506</ele>
        <time>2000-01-01T03:04:51.000Z</time>
      </trkpt>
      <trkpt lat="45.16506" lon="2.65157">
        <ele>1504</ele>
        <time>2000-01-01T03:05:01.000Z</time>
      </trkpt>
      <trkpt lat="45.16505" lon="2.65165">
        <ele>1506</ele>
        <time>2000-01-01T03:05:11.000Z</time>
      </trkpt>
      <trkpt lat="45.16503" lon="2.65172">
        <ele>1508</ele>
        <time>2000-01-01T03:05:21.000Z</time>
      </trkpt>
      <trkpt lat="45.16501" lon="2.65178">
        <ele>1511</ele>
        <time>2000-01-01T03:05:31.000Z</time>
      </trkpt>
      <trkpt lat="45.16497" lon="2.65186">
        <ele>1513</ele>
        <time>2000-01-01T03:05:41.000Z</time>
      </trkpt>
      <trkpt lat="45.16495" lon="2.65188">
        <ele>1513</ele>
        <time>2000-01-01T03:05:51.000Z</time>
      </trkpt>
      <trkpt lat="45.16493" lon="2.6519">
        <ele>1513</ele>
        <time>2000-01-01T03:06:01.000Z</time>
      </trkpt>
      <trkpt lat="45.16489" lon="2.65193">
        <ele>1514</ele>
        <time>2000-01-01T03:06:11.000Z</time>
      </trkpt>
      <trkpt lat="45.16487" lon="2.65199">
        <ele>1515</ele>
        <time>2000-01-01T03:06:21.000Z</time>
      </trkpt>
      <trkpt lat="45.16483" lon="2.65204">
        <ele>1515</ele>
        <time>2000-01-01T03:06:31.000Z</time>
      </trkpt>
      <trkpt lat="45.16479" lon="2.65209">
        <ele>1516</ele>
        <time>2000-01-01T03:06:41.000Z</time>
      </trkpt>
      <trkpt lat="45.16475" lon="2.65213">
        <ele>1516</ele>
        <time>2000-01-01T03:06:51.000Z</time>
      </trkpt>
      <trkpt lat="45.16471" lon="2.65217">
        <ele>1519</ele>
        <time>2000-01-01T03:07:01.000Z</time>
      </trkpt>
      <trkpt lat="45.16467" lon="2.65222">
        <ele>1517</ele>
        <time>2000-01-01T03:07:11.000Z</time>
      </trkpt>
      <trkpt lat="45.16464" lon="2.65226">
        <ele>1517</ele>
        <time>2000-01-01T03:07:21.000Z</time>
      </trkpt>
      <trkpt lat="45.16461" lon="2.65231">
        <ele>1518</ele>
        <time>2000-01-01T03:07:31.000Z</time>
      </trkpt>
      <trkpt lat="45.16458" lon="2.65236">
        <ele>1518</ele>
        <time>2000-01-01T03:07:41.000Z</time>
      </trkpt>
      <trkpt lat="45.16455" lon="2.65241">
        <ele>1523</ele>
        <time>2000-01-01T03:07:51.000Z</time>
      </trkpt>
      <trkpt lat="45.16452" lon="2.65246">
        <ele>1519</ele>
        <time>2000-01-01T03:08:01.000Z</time>
      </trkpt>
      <trkpt lat="45.16448" lon="2.6525">
        <ele>1519</ele>
        <time>2000-01-01T03:08:11.000Z</time>
      </trkpt>
      <trkpt lat="45.16444" lon="2.65255">
        <ele>1523</ele>
        <time>2000-01-01T03:08:21.000Z</time>
      </trkpt>
      <trkpt lat="45.16441" lon="2.6526">
        <ele>1526</ele>
        <time>2000-01-01T03:08:31.000Z</time>
      </trkpt>
      <trkpt lat="45.16437" lon="2.65266">
        <ele>1523</ele>
        <time>2000-01-01T03:08:41.000Z</time>
      </trkpt>
      <trkpt lat="45.16434" lon="2.6527">
        <ele>1523</ele>
        <time>2000-01-01T03:08:51.000Z</time>
      </trkpt>
      <trkpt lat="45.16431" lon="2.65275">
        <ele>1523</ele>
        <time>2000-01-01T03:09:01.000Z</time>
      </trkpt>
      <trkpt lat="45.16428" lon="2.65281">
        <ele>1529</ele>
        <time>2000-01-01T03:09:11.000Z</time>
      </trkpt>
      <trkpt lat="45.16425" lon="2.65287">
        <ele>1524</ele>
        <time>2000-01-01T03:09:21.000Z</time>
      </trkpt>
      <trkpt lat="45.16424" lon="2.65289">
        <ele>1524</ele>
        <time>2000-01-01T03:09:31.000Z</time>
      </trkpt>
      <trkpt lat="45.16422" lon="2.65294">
        <ele>1524</ele>
        <time>2000-01-01T03:09:41.000Z</time>
      </trkpt>
      <trkpt lat="45.1642" lon="2.65299">
        <ele>1524</ele>
        <time>2000-01-01T03:09:51.000Z</time>
      </trkpt>
      <trkpt lat="45.16417" lon="2.65304">
        <ele>1532</ele>
        <time>2000-01-01T03:10:01.000Z</time>
      </trkpt>
      <trkpt lat="45.16415" lon="2.65308">
        <ele>1530</ele>
        <time>2000-01-01T03:10:11.000Z</time>
      </trkpt>
      <trkpt lat="45.16412" lon="2.65314">
        <ele>1530</ele>
        <time>2000-01-01T03:10:21.000Z</time>
      </trkpt>
      <trkpt lat="45.1641" lon="2.65319">
        <ele>1530</ele>
        <time>2000-01-01T03:10:31.000Z</time>
      </trkpt>
      <trkpt lat="45.16407" lon="2.65325">
        <ele>1530</ele>
        <time>2000-01-01T03:10:41.000Z</time>
      </trkpt>
      <trkpt lat="45.16404" lon="2.65329">
        <ele>1533</ele>
        <time>2000-01-01T03:10:51.000Z</time>
      </trkpt>
      <trkpt lat="45.164" lon="2.65333">
        <ele>1530</ele>
        <time>2000-01-01T03:11:01.000Z</time>
      </trkpt>
      <trkpt lat="45.16398" lon="2.65339">
        <ele>1532</ele>
        <time>2000-01-01T03:11:11.000Z</time>
      </trkpt>
      <trkpt lat="45.16397" lon="2.65346">
        <ele>1533</ele>
        <time>2000-01-01T03:11:21.000Z</time>
      </trkpt>
      <trkpt lat="45.16396" lon="2.65353">
        <ele>1536</ele>
        <time>2000-01-01T03:11:31.000Z</time>
      </trkpt>
      <trkpt lat="45.16397" lon="2.6536">
        <ele>1533</ele>
        <time>2000-01-01T03:11:41.000Z</time>
      </trkpt>
      <trkpt lat="45.16396" lon="2.65367">
        <ele>1534</ele>
        <time>2000-01-01T03:11:51.000Z</time>
      </trkpt>
      <trkpt lat="45.16395" lon="2.65373">
        <ele>1534</ele>
        <time>2000-01-01T03:12:01.000Z</time>
      </trkpt>
      <trkpt lat="45.16394" lon="2.65376">
        <ele>1534</ele>
        <time>2000-01-01T03:12:11.000Z</time>
      </trkpt>
      <trkpt lat="45.16392" lon="2.6538">
        <ele>1537</ele>
        <time>2000-01-01T03:12:21.000Z</time>
      </trkpt>
      <trkpt lat="45.16389" lon="2.65384">
        <ele>1534</ele>
        <time>2000-01-01T03:12:31.000Z</time>
      </trkpt>
      <trkpt lat="45.16387" lon="2.65386">
        <ele>1534</ele>
        <time>2000-01-01T03:12:41.000Z</time>
      </trkpt>
      <trkpt lat="45.16383" lon="2.65389">
        <ele>1535</ele>
        <time>2000-01-01T03:12:51.000Z</time>
      </trkpt>
      <trkpt lat="45.16379" lon="2.65392">
        <ele>1535</ele>
        <time>2000-01-01T03:13:01.000Z</time>
      </trkpt>
      <trkpt lat="45.16375" lon="2.65394">
        <ele>1537</ele>
        <time>2000-01-01T03:13:11.000Z</time>
      </trkpt>
      <trkpt lat="45.16371" lon="2.65396">
        <ele>1536</ele>
        <time>2000-01-01T03:13:21.000Z</time>
      </trkpt>
      <trkpt lat="45.16366" lon="2.654">
        <ele>1536</ele>
        <time>2000-01-01T03:13:31.000Z</time>
      </trkpt>
      <trkpt lat="45.16362" lon="2.65404">
        <ele>1537</ele>
        <time>2000-01-01T03:13:41.000Z</time>
      </trkpt>
      <trkpt lat="45.16359" lon="2.65408">
        <ele>1537</ele>
        <time>2000-01-01T03:13:51.000Z</time>
      </trkpt>
      <trkpt lat="45.16356" lon="2.65411">
        <ele>1540</ele>
        <time>2000-01-01T03:14:01.000Z</time>
      </trkpt>
      <trkpt lat="45.16352" lon="2.65415">
        <ele>1538</ele>
        <time>2000-01-01T03:14:11.000Z</time>
      </trkpt>
      <trkpt lat="45.16349" lon="2.65417">
        <ele>1539</ele>
        <time>2000-01-01T03:14:21.000Z</time>
      </trkpt>
      <trkpt lat="45.16345" lon="2.65421">
        <ele>1540</ele>
        <time>2000-01-01T03:14:31.000Z</time>
      </trkpt>
      <trkpt lat="45.16342" lon="2.65424">
        <ele>1540</ele>
        <time>2000-01-01T03:14:41.000Z</time>
      </trkpt>
      <trkpt lat="45.16339" lon="2.65427">
        <ele>1542</ele>
        <time>2000-01-01T03:14:51.000Z</time>
      </trkpt>
      <trkpt lat="45.16336" lon="2.6543">
        <ele>1540</ele>
        <time>2000-01-01T03:15:01.000Z</time>
      </trkpt>
      <trkpt lat="45.16332" lon="2.65433">
        <ele>1545</ele>
        <time>2000-01-01T03:15:11.000Z</time>
      </trkpt>
      <trkpt lat="45.16329" lon="2.65437">
        <ele>1546</ele>
        <time>2000-01-01T03:15:21.000Z</time>
      </trkpt>
      <trkpt lat="45.16326" lon="2.6544">
        <ele>1546</ele>
        <time>2000-01-01T03:15:31.000Z</time>
      </trkpt>
      <trkpt lat="45.16322" lon="2.65444">
        <ele>1545</ele>
        <time>2000-01-01T03:15:41.000Z</time>
      </trkpt>
      <trkpt lat="45.16319" lon="2.65447">
        <ele>1547</ele>
        <time>2000-01-01T03:15:51.000Z</time>
      </trkpt>
      <trkpt lat="45.16316" lon="2.65449">
        <ele>1547</ele>
        <time>2000-01-01T03:16:01.000Z</time>
      </trkpt>
      <trkpt lat="45.16312" lon="2.65452">
        <ele>1547</ele>
        <time>2000-01-01T03:16:11.000Z</time>
      </trkpt>
      <trkpt lat="45.16309" lon="2.65456">
        <ele>1548</ele>
        <time>2000-01-01T03:16:21.000Z</time>
      </trkpt>
      <trkpt lat="45.16306" lon="2.6546">
        <ele>1548</ele>
        <time>2000-01-01T03:16:31.000Z</time>
      </trkpt>
      <trkpt lat="45.16303" lon="2.65463">
        <ele>1548</ele>
        <time>2000-01-01T03:16:41.000Z</time>
      </trkpt>
      <trkpt lat="45.163" lon="2.65467">
        <ele>1548</ele>
        <time>2000-01-01T03:16:51.000Z</time>
      </trkpt>
      <trkpt lat="45.16297" lon="2.65471">
        <ele>1549</ele>
        <time>2000-01-01T03:17:01.000Z</time>
      </trkpt>
      <trkpt lat="45.16294" lon="2.65475">
        <ele>1549</ele>
        <time>2000-01-01T03:17:11.000Z</time>
      </trkpt>
      <trkpt lat="45.16293" lon="2.65477">
        <ele>1549</ele>
        <time>2000-01-01T03:17:21.000Z</time>
      </trkpt>
      <trkpt lat="45.1629" lon="2.65482">
        <ele>1551</ele>
        <time>2000-01-01T03:17:31.000Z</time>
      </trkpt>
      <trkpt lat="45.16288" lon="2.65487">
        <ele>1549</ele>
        <time>2000-01-01T03:17:41.000Z</time>
      </trkpt>
      <trkpt lat="45.16286" lon="2.65493">
        <ele>1550</ele>
        <time>2000-01-01T03:17:51.000Z</time>
      </trkpt>
      <trkpt lat="45.16284" lon="2.65498">
        <ele>1550</ele>
        <time>2000-01-01T03:18:01.000Z</time>
      </trkpt>
      <trkpt lat="45.16282" lon="2.65503">
        <ele>1551</ele>
        <time>2000-01-01T03:18:11.000Z</time>
      </trkpt>
      <trkpt lat="45.1628" lon="2.65509">
        <ele>1553</ele>
        <time>2000-01-01T03:18:21.000Z</time>
      </trkpt>
      <trkpt lat="45.16278" lon="2.65514">
        <ele>1551</ele>
        <time>2000-01-01T03:18:31.000Z</time>
      </trkpt>
      <trkpt lat="45.16276" lon="2.6552">
        <ele>1551</ele>
        <time>2000-01-01T03:18:41.000Z</time>
      </trkpt>
      <trkpt lat="45.16275" lon="2.65526">
        <ele>1551</ele>
        <time>2000-01-01T03:18:51.000Z</time>
      </trkpt>
      <trkpt lat="45.16273" lon="2.65532">
        <ele>1551</ele>
        <time>2000-01-01T03:19:01.000Z</time>
      </trkpt>
      <trkpt lat="45.16271" lon="2.65538">
        <ele>1555</ele>
        <time>2000-01-01T03:19:11.000Z</time>
      </trkpt>
      <trkpt lat="45.16269" lon="2.65545">
        <ele>1552</ele>
        <time>2000-01-01T03:19:21.000Z</time>
      </trkpt>
      <trkpt lat="45.16267" lon="2.65551">
        <ele>1552</ele>
        <time>2000-01-01T03:19:31.000Z</time>
      </trkpt>
      <trkpt lat="45.16265" lon="2.65558">
        <ele>1552</ele>
        <time>2000-01-01T03:19:41.000Z</time>
      </trkpt>
      <trkpt lat="45.16262" lon="2.65567">
        <ele>1556</ele>
        <time>2000-01-01T03:19:51.000Z</time>
      </trkpt>
      <trkpt lat="45.1626" lon="2.65572">
        <ele>1554</ele>
        <time>2000-01-01T03:20:01.000Z</time>
      </trkpt>
      <trkpt lat="45.16258" lon="2.65578">
        <ele>1555</ele>
        <time>2000-01-01T03:20:11.000Z</time>
      </trkpt>
      <trkpt lat="45.16256" lon="2.65584">
        <ele>1556</ele>
        <time>2000-01-01T03:20:21.000Z</time>
      </trkpt>
      <trkpt lat="45.16255" lon="2.6559">
        <ele>1556</ele>
        <time>2000-01-01T03:20:31.000Z</time>
      </trkpt>
      <trkpt lat="45.16253" lon="2.65596">
        <ele>1558</ele>
        <time>2000-01-01T03:20:41.000Z</time>
      </trkpt>
      <trkpt lat="45.16251" lon="2.65602">
        <ele>1555</ele>
        <time>2000-01-01T03:20:51.000Z</time>
      </trkpt>
      <trkpt lat="45.1625" lon="2.65608">
        <ele>1555</ele>
        <time>2000-01-01T03:21:01.000Z</time>
      </trkpt>
      <trkpt lat="45.16248" lon="2.65615">
        <ele>1562</ele>
        <time>2000-01-01T03:21:11.000Z</time>
      </trkpt>
      <trkpt lat="45.16246" lon="2.65621">
        <ele>1562</ele>
        <time>2000-01-01T03:21:21.000Z</time>
      </trkpt>
      <trkpt lat="45.16244" lon="2.65627">
        <ele>1559</ele>
        <time>2000-01-01T03:21:31.000Z</time>
      </trkpt>
      <trkpt lat="45.16242" lon="2.65633">
        <ele>1563</ele>
        <time>2000-01-01T03:21:41.000Z</time>
      </trkpt>
      <trkpt lat="45.1624" lon="2.65639">
        <ele>1563</ele>
        <time>2000-01-01T03:21:51.000Z</time>
      </trkpt>
      <trkpt lat="45.16238" lon="2.65645">
        <ele>1563</ele>
        <time>2000-01-01T03:22:01.000Z</time>
      </trkpt>
      <trkpt lat="45.16235" lon="2.6565">
        <ele>1563</ele>
        <time>2000-01-01T03:22:11.000Z</time>
      </trkpt>
      <trkpt lat="45.16233" lon="2.65656">
        <ele>1561</ele>
        <time>2000-01-01T03:22:21.000Z</time>
      </trkpt>
      <trkpt lat="45.1623" lon="2.65661">
        <ele>1563</ele>
        <time>2000-01-01T03:22:31.000Z</time>
      </trkpt>
      <trkpt lat="45.16227" lon="2.65666">
        <ele>1563</ele>
        <time>2000-01-01T03:22:41.000Z</time>
      </trkpt>
      <trkpt lat="45.16224" lon="2.65671">
        <ele>1562</ele>
        <time>2000-01-01T03:22:51.000Z</time>
      </trkpt>
      <trkpt lat="45.16221" lon="2.65676">
        <ele>1562</ele>
        <time>2000-01-01T03:23:01.000Z</time>
      </trkpt>
      <trkpt lat="45.16217" lon="2.65681">
        <ele>1562</ele>
        <time>2000-01-01T03:23:11.000Z</time>
      </trkpt>
      <trkpt lat="45.16214" lon="2.65685">
        <ele>1563</ele>
        <time>2000-01-01T03:23:21.000Z</time>
      </trkpt>
      <trkpt lat="45.16211" lon="2.6569">
        <ele>1563</ele>
        <time>2000-01-01T03:23:31.000Z</time>
      </trkpt>
      <trkpt lat="45.16208" lon="2.65694">
        <ele>1563</ele>
        <time>2000-01-01T03:23:41.000Z</time>
      </trkpt>
      <trkpt lat="45.16205" lon="2.657">
        <ele>1563</ele>
        <time>2000-01-01T03:23:51.000Z</time>
      </trkpt>
      <trkpt lat="45.16203" lon="2.65706">
        <ele>1564</ele>
        <time>2000-01-01T03:24:01.000Z</time>
      </trkpt>
      <trkpt lat="45.16201" lon="2.65714">
        <ele>1562</ele>
        <time>2000-01-01T03:24:11.000Z</time>
      </trkpt>
      <trkpt lat="45.16199" lon="2.65722">
        <ele>1562</ele>
        <time>2000-01-01T03:24:21.000Z</time>
      </trkpt>
      <trkpt lat="45.16198" lon="2.65728">
        <ele>1562</ele>
        <time>2000-01-01T03:24:31.000Z</time>
      </trkpt>
      <trkpt lat="45.16196" lon="2.65734">
        <ele>1565</ele>
        <time>2000-01-01T03:24:41.000Z</time>
      </trkpt>
      <trkpt lat="45.16193" lon="2.6574">
        <ele>1562</ele>
        <time>2000-01-01T03:24:51.000Z</time>
      </trkpt>
      <trkpt lat="45.16189" lon="2.65746">
        <ele>1562</ele>
        <time>2000-01-01T03:25:01.000Z</time>
      </trkpt>
      <trkpt lat="45.16186" lon="2.65751">
        <ele>1560</ele>
        <time>2000-01-01T03:25:11.000Z</time>
      </trkpt>
      <trkpt lat="45.16183" lon="2.65756">
        <ele>1565</ele>
        <time>2000-01-01T03:25:21.000Z</time>
      </trkpt>
      <trkpt lat="45.16179" lon="2.65762">
        <ele>1560</ele>
        <time>2000-01-01T03:25:31.000Z</time>
      </trkpt>
      <trkpt lat="45.16175" lon="2.65767">
        <ele>1560</ele>
        <time>2000-01-01T03:25:41.000Z</time>
      </trkpt>
      <trkpt lat="45.16171" lon="2.65771">
        <ele>1560</ele>
        <time>2000-01-01T03:25:51.000Z</time>
      </trkpt>
      <trkpt lat="45.16167" lon="2.65775">
        <ele>1565</ele>
        <time>2000-01-01T03:26:01.000Z</time>
      </trkpt>
      <trkpt lat="45.16163" lon="2.65779">
        <ele>1563</ele>
        <time>2000-01-01T03:26:11.000Z</time>
      </trkpt>
      <trkpt lat="45.16158" lon="2.65783">
        <ele>1563</ele>
        <time>2000-01-01T03:26:21.000Z</time>
      </trkpt>
      <trkpt lat="45.16154" lon="2.65787">
        <ele>1563</ele>
        <time>2000-01-01T03:26:31.000Z</time>
      </trkpt>
      <trkpt lat="45.16149" lon="2.65791">
        <ele>1565</ele>
        <time>2000-01-01T03:26:41.000Z</time>
      </trkpt>
      <trkpt lat="45.16144" lon="2.65795">
        <ele>1564</ele>
        <time>2000-01-01T03:26:51.000Z</time>
      </trkpt>
      <trkpt lat="45.16139" lon="2.65799">
        <ele>1564</ele>
        <time>2000-01-01T03:27:01.000Z</time>
      </trkpt>
      <trkpt lat="45.16134" lon="2.65803">
        <ele>1564</ele>
        <time>2000-01-01T03:27:11.000Z</time>
      </trkpt>
      <trkpt lat="45.1613" lon="2.65807">
        <ele>1565</ele>
        <time>2000-01-01T03:27:21.000Z</time>
      </trkpt>
      <trkpt lat="45.16125" lon="2.6581">
        <ele>1564</ele>
        <time>2000-01-01T03:27:31.000Z</time>
      </trkpt>
      <trkpt lat="45.1612" lon="2.65814">
        <ele>1564</ele>
        <time>2000-01-01T03:27:41.000Z</time>
      </trkpt>
      <trkpt lat="45.16115" lon="2.65817">
        <ele>1564</ele>
        <time>2000-01-01T03:27:51.000Z</time>
      </trkpt>
      <trkpt lat="45.1611" lon="2.6582">
        <ele>1565</ele>
        <time>2000-01-01T03:28:01.000Z</time>
      </trkpt>
      <trkpt lat="45.16106" lon="2.65824">
        <ele>1565</ele>
        <time>2000-01-01T03:28:11.000Z</time>
      </trkpt>
      <trkpt lat="45.16102" lon="2.65828">
        <ele>1565</ele>
        <time>2000-01-01T03:28:21.000Z</time>
      </trkpt>
      <trkpt lat="45.16098" lon="2.65832">
        <ele>1565</ele>
        <time>2000-01-01T03:28:31.000Z</time>
      </trkpt>
      <trkpt lat="45.16094" lon="2.65836">
        <ele>1565</ele>
        <time>2000-01-01T03:28:41.000Z</time>
      </trkpt>
      <trkpt lat="45.16089" lon="2.65839">
        <ele>1563</ele>
        <time>2000-01-01T03:28:51.000Z</time>
      </trkpt>
      <trkpt lat="45.16085" lon="2.65844">
        <ele>1563</ele>
        <time>2000-01-01T03:29:01.000Z</time>
      </trkpt>
      <trkpt lat="45.16081" lon="2.65848">
        <ele>1564</ele>
        <time>2000-01-01T03:29:11.000Z</time>
      </trkpt>
      <trkpt lat="45.16077" lon="2.65852">
        <ele>1564</ele>
        <time>2000-01-01T03:29:21.000Z</time>
      </trkpt>
      <trkpt lat="45.16076" lon="2.65854">
        <ele>1563</ele>
        <time>2000-01-01T03:29:31.000Z</time>
      </trkpt>
      <trkpt lat="45.16076" lon="2.65855">
        <ele>1563</ele>
        <time>2000-01-01T03:29:41.000Z</time>
      </trkpt>
      <trkpt lat="45.16074" lon="2.65857">
        <ele>1563</ele>
        <time>2000-01-01T03:29:51.000Z</time>
      </trkpt>
      <trkpt lat="45.16071" lon="2.6586">
        <ele>1562</ele>
        <time>2000-01-01T03:30:01.000Z</time>
      </trkpt>
      <trkpt lat="45.16066" lon="2.65862">
        <ele>1562</ele>
        <time>2000-01-01T03:30:11.000Z</time>
      </trkpt>
      <trkpt lat="45.16061" lon="2.65864">
        <ele>1562</ele>
        <time>2000-01-01T03:30:21.000Z</time>
      </trkpt>
      <trkpt lat="45.16057" lon="2.65866">
        <ele>1562</ele>
        <time>2000-01-01T03:30:31.000Z</time>
      </trkpt>
      <trkpt lat="45.16052" lon="2.65867">
        <ele>1562</ele>
        <time>2000-01-01T03:30:41.000Z</time>
      </trkpt>
      <trkpt lat="45.16047" lon="2.65869">
        <ele>1562</ele>
        <time>2000-01-01T03:30:51.000Z</time>
      </trkpt>
      <trkpt lat="45.16041" lon="2.65871">
        <ele>1562</ele>
        <time>2000-01-01T03:31:01.000Z</time>
      </trkpt>
      <trkpt lat="45.16038" lon="2.65872">
        <ele>1561</ele>
        <time>2000-01-01T03:31:11.000Z</time>
      </trkpt>
      <trkpt lat="45.16033" lon="2.65873">
        <ele>1562</ele>
        <time>2000-01-01T03:31:21.000Z</time>
      </trkpt>
      <trkpt lat="45.16027" lon="2.65875">
        <ele>1561</ele>
        <time>2000-01-01T03:31:31.000Z</time>
      </trkpt>
      <trkpt lat="45.16021" lon="2.65876">
        <ele>1561</ele>
        <time>2000-01-01T03:31:41.000Z</time>
      </trkpt>
      <trkpt lat="45.16016" lon="2.65877">
        <ele>1561</ele>
        <time>2000-01-01T03:31:51.000Z</time>
      </trkpt>
      <trkpt lat="45.16011" lon="2.65877">
        <ele>1561</ele>
        <time>2000-01-01T03:32:01.000Z</time>
      </trkpt>
      <trkpt lat="45.16005" lon="2.65878">
        <ele>1561</ele>
        <time>2000-01-01T03:32:11.000Z</time>
      </trkpt>
      <trkpt lat="45.16" lon="2.65879">
        <ele>1562</ele>
        <time>2000-01-01T03:32:21.000Z</time>
      </trkpt>
      <trkpt lat="45.15994" lon="2.6588">
        <ele>1561</ele>
        <time>2000-01-01T03:32:31.000Z</time>
      </trkpt>
      <trkpt lat="45.15989" lon="2.65881">
        <ele>1562</ele>
        <time>2000-01-01T03:32:41.000Z</time>
      </trkpt>
      <trkpt lat="45.15983" lon="2.65882">
        <ele>1562</ele>
        <time>2000-01-01T03:32:51.000Z</time>
      </trkpt>
      <trkpt lat="45.15977" lon="2.65881">
        <ele>1562</ele>
        <time>2000-01-01T03:33:01.000Z</time>
      </trkpt>
      <trkpt lat="45.15972" lon="2.65881">
        <ele>1561</ele>
        <time>2000-01-01T03:33:11.000Z</time>
      </trkpt>
      <trkpt lat="45.15966" lon="2.65882">
        <ele>1562</ele>
        <time>2000-01-01T03:33:21.000Z</time>
      </trkpt>
      <trkpt lat="45.15961" lon="2.65882">
        <ele>1562</ele>
        <time>2000-01-01T03:33:31.000Z</time>
      </trkpt>
      <trkpt lat="45.15955" lon="2.65884">
        <ele>1562</ele>
        <time>2000-01-01T03:33:41.000Z</time>
      </trkpt>
      <trkpt lat="45.15949" lon="2.65885">
        <ele>1561</ele>
        <time>2000-01-01T03:33:51.000Z</time>
      </trkpt>
      <trkpt lat="45.15943" lon="2.65886">
        <ele>1562</ele>
        <time>2000-01-01T03:34:01.000Z</time>
      </trkpt>
      <trkpt lat="45.15938" lon="2.65887">
        <ele>1562</ele>
        <time>2000-01-01T03:34:11.000Z</time>
      </trkpt>
      <trkpt lat="45.15932" lon="2.65888">
        <ele>1562</ele>
        <time>2000-01-01T03:34:21.000Z</time>
      </trkpt>
      <trkpt lat="45.15927" lon="2.65888">
        <ele>1561</ele>
        <time>2000-01-01T03:34:31.000Z</time>
      </trkpt>
      <trkpt lat="45.15922" lon="2.65888">
        <ele>1562</ele>
        <time>2000-01-01T03:34:41.000Z</time>
      </trkpt>
      <trkpt lat="45.15917" lon="2.65888">
        <ele>1562</ele>
        <time>2000-01-01T03:34:51.000Z</time>
      </trkpt>
      <trkpt lat="45.15912" lon="2.65888">
        <ele>1562</ele>
        <time>2000-01-01T03:35:01.000Z</time>
      </trkpt>
      <trkpt lat="45.15907" lon="2.65889">
        <ele>1561</ele>
        <time>2000-01-01T03:35:11.000Z</time>
      </trkpt>
      <trkpt lat="45.15902" lon="2.65893">
        <ele>1562</ele>
        <time>2000-01-01T03:35:21.000Z</time>
      </trkpt>
      <trkpt lat="45.15898" lon="2.65896">
        <ele>1562</ele>
        <time>2000-01-01T03:35:31.000Z</time>
      </trkpt>
      <trkpt lat="45.15894" lon="2.659">
        <ele>1561</ele>
        <time>2000-01-01T03:35:41.000Z</time>
      </trkpt>
      <trkpt lat="45.1589" lon="2.65904">
        <ele>1561</ele>
        <time>2000-01-01T03:35:51.000Z</time>
      </trkpt>
      <trkpt lat="45.15887" lon="2.65907">
        <ele>1561</ele>
        <time>2000-01-01T03:36:01.000Z</time>
      </trkpt>
      <trkpt lat="45.15882" lon="2.65911">
        <ele>1561</ele>
        <time>2000-01-01T03:36:11.000Z</time>
      </trkpt>
      <trkpt lat="45.15876" lon="2.65915">
        <ele>1561</ele>
        <time>2000-01-01T03:36:21.000Z</time>
      </trkpt>
      <trkpt lat="45.15871" lon="2.65918">
        <ele>1558</ele>
        <time>2000-01-01T03:36:31.000Z</time>
      </trkpt>
      <trkpt lat="45.15865" lon="2.65921">
        <ele>1552</ele>
        <time>2000-01-01T03:36:41.000Z</time>
      </trkpt>
      <trkpt lat="45.1586" lon="2.65923">
        <ele>1553</ele>
        <time>2000-01-01T03:36:51.000Z</time>
      </trkpt>
      <trkpt lat="45.15854" lon="2.65926">
        <ele>1553</ele>
        <time>2000-01-01T03:37:01.000Z</time>
      </trkpt>
      <trkpt lat="45.15848" lon="2.65928">
        <ele>1556</ele>
        <time>2000-01-01T03:37:11.000Z</time>
      </trkpt>
      <trkpt lat="45.15842" lon="2.6593">
        <ele>1554</ele>
        <time>2000-01-01T03:37:21.000Z</time>
      </trkpt>
      <trkpt lat="45.15837" lon="2.65933">
        <ele>1554</ele>
        <time>2000-01-01T03:37:31.000Z</time>
      </trkpt>
      <trkpt lat="45.15831" lon="2.65935">
        <ele>1553</ele>
        <time>2000-01-01T03:37:41.000Z</time>
      </trkpt>
      <trkpt lat="45.15826" lon="2.65937">
        <ele>1554</ele>
        <time>2000-01-01T03:37:51.000Z</time>
      </trkpt>
      <trkpt lat="45.1582" lon="2.65939">
        <ele>1551</ele>
        <time>2000-01-01T03:38:01.000Z</time>
      </trkpt>
      <trkpt lat="45.15814" lon="2.6594">
        <ele>1551</ele>
        <time>2000-01-01T03:38:11.000Z</time>
      </trkpt>
      <trkpt lat="45.15808" lon="2.65942">
        <ele>1550</ele>
        <time>2000-01-01T03:38:21.000Z</time>
      </trkpt>
      <trkpt lat="45.15803" lon="2.65942">
        <ele>1553</ele>
        <time>2000-01-01T03:38:31.000Z</time>
      </trkpt>
      <trkpt lat="45.15797" lon="2.65943">
        <ele>1550</ele>
        <time>2000-01-01T03:38:41.000Z</time>
      </trkpt>
      <trkpt lat="45.15792" lon="2.65943">
        <ele>1549</ele>
        <time>2000-01-01T03:38:51.000Z</time>
      </trkpt>
      <trkpt lat="45.15787" lon="2.65942">
        <ele>1549</ele>
        <time>2000-01-01T03:39:01.000Z</time>
      </trkpt>
      <trkpt lat="45.15782" lon="2.65942">
        <ele>1552.5</ele>
        <time>2000-01-01T03:39:11.000Z</time>
      </trkpt>
      <trkpt lat="45.15777" lon="2.65942">
        <ele>1549</ele>
        <time>2000-01-01T03:39:21.000Z</time>
      </trkpt>
      <trkpt lat="45.15772" lon="2.65945">
        <ele>1549</ele>
        <time>2000-01-01T03:39:31.000Z</time>
      </trkpt>
      <trkpt lat="45.15768" lon="2.65949">
        <ele>1549</ele>
        <time>2000-01-01T03:39:41.000Z</time>
      </trkpt>
      <trkpt lat="45.15764" lon="2.65953">
        <ele>1552</ele>
        <time>2000-01-01T03:39:51.000Z</time>
      </trkpt>
      <trkpt lat="45.15759" lon="2.65956">
        <ele>1548</ele>
        <time>2000-01-01T03:40:01.000Z</time>
      </trkpt>
      <trkpt lat="45.15754" lon="2.65958">
        <ele>1548</ele>
        <time>2000-01-01T03:40:11.000Z</time>
      </trkpt>
      <trkpt lat="45.15749" lon="2.6596">
        <ele>1545</ele>
        <time>2000-01-01T03:40:21.000Z</time>
      </trkpt>
      <trkpt lat="45.15744" lon="2.65961">
        <ele>1549</ele>
        <time>2000-01-01T03:40:31.000Z</time>
      </trkpt>
      <trkpt lat="45.15741" lon="2.65961">
        <ele>1545</ele>
        <time>2000-01-01T03:40:41.000Z</time>
      </trkpt>
      <trkpt lat="45.15738" lon="2.6596">
        <ele>1545</ele>
        <time>2000-01-01T03:40:51.000Z</time>
      </trkpt>
      <trkpt lat="45.15733" lon="2.6596">
        <ele>1545</ele>
        <time>2000-01-01T03:41:01.000Z</time>
      </trkpt>
      <trkpt lat="45.15729" lon="2.65961">
        <ele>1544</ele>
        <time>2000-01-01T03:41:11.000Z</time>
      </trkpt>
      <trkpt lat="45.15725" lon="2.65963">
        <ele>1547</ele>
        <time>2000-01-01T03:41:21.000Z</time>
      </trkpt>
      <trkpt lat="45.1572" lon="2.65964">
        <ele>1544</ele>
        <time>2000-01-01T03:41:31.000Z</time>
      </trkpt>
      <trkpt lat="45.15715" lon="2.65966">
        <ele>1544</ele>
        <time>2000-01-01T03:41:41.000Z</time>
      </trkpt>
      <trkpt lat="45.1571" lon="2.65969">
        <ele>1543</ele>
        <time>2000-01-01T03:41:51.000Z</time>
      </trkpt>
      <trkpt lat="45.15705" lon="2.65971">
        <ele>1545</ele>
        <time>2000-01-01T03:42:01.000Z</time>
      </trkpt>
      <trkpt lat="45.157" lon="2.65973">
        <ele>1543</ele>
        <time>2000-01-01T03:42:11.000Z</time>
      </trkpt>
      <trkpt lat="45.15694" lon="2.65974">
        <ele>1543</ele>
        <time>2000-01-01T03:42:21.000Z</time>
      </trkpt>
      <trkpt lat="45.15688" lon="2.65976">
        <ele>1542</ele>
        <time>2000-01-01T03:42:31.000Z</time>
      </trkpt>
      <trkpt lat="45.15683" lon="2.65976">
        <ele>1542</ele>
        <time>2000-01-01T03:42:41.000Z</time>
      </trkpt>
      <trkpt lat="45.15677" lon="2.65977">
        <ele>1541</ele>
        <time>2000-01-01T03:42:51.000Z</time>
      </trkpt>
      <trkpt lat="45.15672" lon="2.6598">
        <ele>1541</ele>
        <time>2000-01-01T03:43:01.000Z</time>
      </trkpt>
      <trkpt lat="45.15667" lon="2.65983">
        <ele>1540</ele>
        <time>2000-01-01T03:43:11.000Z</time>
      </trkpt>
      <trkpt lat="45.15661" lon="2.65986">
        <ele>1539</ele>
        <time>2000-01-01T03:43:21.000Z</time>
      </trkpt>
      <trkpt lat="45.15656" lon="2.65989">
        <ele>1537</ele>
        <time>2000-01-01T03:43:31.000Z</time>
      </trkpt>
      <trkpt lat="45.15651" lon="2.65992">
        <ele>1537</ele>
        <time>2000-01-01T03:43:41.000Z</time>
      </trkpt>
      <trkpt lat="45.15645" lon="2.65995">
        <ele>1537</ele>
        <time>2000-01-01T03:43:51.000Z</time>
      </trkpt>
      <trkpt lat="45.1564" lon="2.65999">
        <ele>1536</ele>
        <time>2000-01-01T03:44:01.000Z</time>
      </trkpt>
      <trkpt lat="45.15635" lon="2.66002">
        <ele>1530</ele>
        <time>2000-01-01T03:44:11.000Z</time>
      </trkpt>
      <trkpt lat="45.15629" lon="2.66004">
        <ele>1530</ele>
        <time>2000-01-01T03:44:21.000Z</time>
      </trkpt>
      <trkpt lat="45.15623" lon="2.66007">
        <ele>1529</ele>
        <time>2000-01-01T03:44:31.000Z</time>
      </trkpt>
      <trkpt lat="45.15617" lon="2.6601">
        <ele>1533</ele>
        <time>2000-01-01T03:44:41.000Z</time>
      </trkpt>
      <trkpt lat="45.15611" lon="2.66012">
        <ele>1529</ele>
        <time>2000-01-01T03:44:51.000Z</time>
      </trkpt>
      <trkpt lat="45.15606" lon="2.66015">
        <ele>1528</ele>
        <time>2000-01-01T03:45:01.000Z</time>
      </trkpt>
      <trkpt lat="45.156" lon="2.66017">
        <ele>1528</ele>
        <time>2000-01-01T03:45:11.000Z</time>
      </trkpt>
      <trkpt lat="45.15595" lon="2.66019">
        <ele>1532</ele>
        <time>2000-01-01T03:45:21.000Z</time>
      </trkpt>
      <trkpt lat="45.15589" lon="2.66021">
        <ele>1528</ele>
        <time>2000-01-01T03:45:31.000Z</time>
      </trkpt>
      <trkpt lat="45.15583" lon="2.66022">
        <ele>1526</ele>
        <time>2000-01-01T03:45:41.000Z</time>
      </trkpt>
      <trkpt lat="45.15578" lon="2.66024">
        <ele>1525</ele>
        <time>2000-01-01T03:45:51.000Z</time>
      </trkpt>
      <trkpt lat="45.15573" lon="2.66027">
        <ele>1530</ele>
        <time>2000-01-01T03:46:01.000Z</time>
      </trkpt>
      <trkpt lat="45.15568" lon="2.66029">
        <ele>1525</ele>
        <time>2000-01-01T03:46:11.000Z</time>
      </trkpt>
      <trkpt lat="45.15562" lon="2.6603">
        <ele>1524</ele>
        <time>2000-01-01T03:46:21.000Z</time>
      </trkpt>
      <trkpt lat="45.15557" lon="2.66031">
        <ele>1524</ele>
        <time>2000-01-01T03:46:31.000Z</time>
      </trkpt>
      <trkpt lat="45.15551" lon="2.66031">
        <ele>1528</ele>
        <time>2000-01-01T03:46:41.000Z</time>
      </trkpt>
      <trkpt lat="45.15549" lon="2.66031">
        <ele>1524</ele>
        <time>2000-01-01T03:46:51.000Z</time>
      </trkpt>
      <trkpt lat="45.15544" lon="2.66032">
        <ele>1524</ele>
        <time>2000-01-01T03:47:01.000Z</time>
      </trkpt>
      <trkpt lat="45.15539" lon="2.66036">
        <ele>1523</ele>
        <time>2000-01-01T03:47:11.000Z</time>
      </trkpt>
      <trkpt lat="45.15534" lon="2.66039">
        <ele>1523</ele>
        <time>2000-01-01T03:47:21.000Z</time>
      </trkpt>
      <trkpt lat="45.15528" lon="2.66042">
        <ele>1527</ele>
        <time>2000-01-01T03:47:31.000Z</time>
      </trkpt>
      <trkpt lat="45.15523" lon="2.66045">
        <ele>1523</ele>
        <time>2000-01-01T03:47:41.000Z</time>
      </trkpt>
      <trkpt lat="45.15517" lon="2.66048">
        <ele>1523</ele>
        <time>2000-01-01T03:47:51.000Z</time>
      </trkpt>
      <trkpt lat="45.15512" lon="2.66051">
        <ele>1522</ele>
        <time>2000-01-01T03:48:01.000Z</time>
      </trkpt>
      <trkpt lat="45.15506" lon="2.66052">
        <ele>1526</ele>
        <time>2000-01-01T03:48:11.000Z</time>
      </trkpt>
      <trkpt lat="45.155" lon="2.66054">
        <ele>1522</ele>
        <time>2000-01-01T03:48:21.000Z</time>
      </trkpt>
      <trkpt lat="45.15495" lon="2.66055">
        <ele>1522</ele>
        <time>2000-01-01T03:48:31.000Z</time>
      </trkpt>
      <trkpt lat="45.15493" lon="2.66056">
        <ele>1522</ele>
        <time>2000-01-01T03:48:41.000Z</time>
      </trkpt>
      <trkpt lat="45.15488" lon="2.66057">
        <ele>1522</ele>
        <time>2000-01-01T03:48:51.000Z</time>
      </trkpt>
      <trkpt lat="45.15483" lon="2.66058">
        <ele>1526</ele>
        <time>2000-01-01T03:49:01.000Z</time>
      </trkpt>
      <trkpt lat="45.15478" lon="2.6606">
        <ele>1522</ele>
        <time>2000-01-01T03:49:11.000Z</time>
      </trkpt>
      <trkpt lat="45.15473" lon="2.66061">
        <ele>1522</ele>
        <time>2000-01-01T03:49:21.000Z</time>
      </trkpt>
      <trkpt lat="45.15468" lon="2.66063">
        <ele>1522</ele>
        <time>2000-01-01T03:49:31.000Z</time>
      </trkpt>
      <trkpt lat="45.15464" lon="2.66065">
        <ele>1526</ele>
        <time>2000-01-01T03:49:41.000Z</time>
      </trkpt>
      <trkpt lat="45.15459" lon="2.66067">
        <ele>1523</ele>
        <time>2000-01-01T03:49:51.000Z</time>
      </trkpt>
      <trkpt lat="45.15455" lon="2.66068">
        <ele>1523</ele>
        <time>2000-01-01T03:50:01.000Z</time>
      </trkpt>
      <trkpt lat="45.15451" lon="2.66068">
        <ele>1523</ele>
        <time>2000-01-01T03:50:11.000Z</time>
      </trkpt>
      <trkpt lat="45.15447" lon="2.6607">
        <ele>1523</ele>
        <time>2000-01-01T03:50:21.000Z</time>
      </trkpt>
      <trkpt lat="45.15443" lon="2.66072">
        <ele>1527</ele>
        <time>2000-01-01T03:50:31.000Z</time>
      </trkpt>
      <trkpt lat="45.15439" lon="2.66075">
        <ele>1523</ele>
        <time>2000-01-01T03:50:41.000Z</time>
      </trkpt>
      <trkpt lat="45.15435" lon="2.66079">
        <ele>1524</ele>
        <time>2000-01-01T03:50:51.000Z</time>
      </trkpt>
      <trkpt lat="45.15431" lon="2.66082">
        <ele>1524</ele>
        <time>2000-01-01T03:51:01.000Z</time>
      </trkpt>
      <trkpt lat="45.15427" lon="2.66085">
        <ele>1523</ele>
        <time>2000-01-01T03:51:11.000Z</time>
      </trkpt>
      <trkpt lat="45.15424" lon="2.66089">
        <ele>1528</ele>
        <time>2000-01-01T03:51:21.000Z</time>
      </trkpt>
      <trkpt lat="45.15421" lon="2.66092">
        <ele>1524</ele>
        <time>2000-01-01T03:51:31.000Z</time>
      </trkpt>
      <trkpt lat="45.15417" lon="2.66096">
        <ele>1523</ele>
        <time>2000-01-01T03:51:41.000Z</time>
      </trkpt>
      <trkpt lat="45.15412" lon="2.66099">
        <ele>1524</ele>
        <time>2000-01-01T03:51:51.000Z</time>
      </trkpt>
      <trkpt lat="45.15408" lon="2.66101">
        <ele>1524</ele>
        <time>2000-01-01T03:52:01.000Z</time>
      </trkpt>
      <trkpt lat="45.15404" lon="2.66104">
        <ele>1529</ele>
        <time>2000-01-01T03:52:11.000Z</time>
      </trkpt>
      <trkpt lat="45.15399" lon="2.66107">
        <ele>1524</ele>
        <time>2000-01-01T03:52:21.000Z</time>
      </trkpt>
      <trkpt lat="45.15394" lon="2.66111">
        <ele>1523</ele>
        <time>2000-01-01T03:52:31.000Z</time>
      </trkpt>
      <trkpt lat="45.1539" lon="2.66117">
        <ele>1523</ele>
        <time>2000-01-01T03:52:41.000Z</time>
      </trkpt>
      <trkpt lat="45.15385" lon="2.6612">
        <ele>1529</ele>
        <time>2000-01-01T03:52:51.000Z</time>
      </trkpt>
      <trkpt lat="45.15379" lon="2.66122">
        <ele>1523</ele>
        <time>2000-01-01T03:53:01.000Z</time>
      </trkpt>
      <trkpt lat="45.15375" lon="2.66126">
        <ele>1524</ele>
        <time>2000-01-01T03:53:11.000Z</time>
      </trkpt>
      <trkpt lat="45.15371" lon="2.6613">
        <ele>1524</ele>
        <time>2000-01-01T03:53:21.000Z</time>
      </trkpt>
      <trkpt lat="45.15366" lon="2.66133">
        <ele>1531</ele>
        <time>2000-01-01T03:53:31.000Z</time>
      </trkpt>
      <trkpt lat="45.15363" lon="2.66137">
        <ele>1524</ele>
        <time>2000-01-01T03:53:41.000Z</time>
      </trkpt>
      <trkpt lat="45.15359" lon="2.66142">
        <ele>1525</ele>
        <time>2000-01-01T03:53:51.000Z</time>
      </trkpt>
      <trkpt lat="45.15356" lon="2.66146">
        <ele>1526</ele>
        <time>2000-01-01T03:54:01.000Z</time>
      </trkpt>
      <trkpt lat="45.15352" lon="2.66149">
        <ele>1526</ele>
        <time>2000-01-01T03:54:11.000Z</time>
      </trkpt>
      <trkpt lat="45.15349" lon="2.66152">
        <ele>1533</ele>
        <time>2000-01-01T03:54:21.000Z</time>
      </trkpt>
      <trkpt lat="45.15344" lon="2.66156">
        <ele>1528</ele>
        <time>2000-01-01T03:54:31.000Z</time>
      </trkpt>
      <trkpt lat="45.1534" lon="2.66159">
        <ele>1530</ele>
        <time>2000-01-01T03:54:41.000Z</time>
      </trkpt>
      <trkpt lat="45.15336" lon="2.66161">
        <ele>1531</ele>
        <time>2000-01-01T03:54:51.000Z</time>
      </trkpt>
      <trkpt lat="45.15332" lon="2.66163">
        <ele>1531</ele>
        <time>2000-01-01T03:55:01.000Z</time>
      </trkpt>
      <trkpt lat="45.15327" lon="2.66165">
        <ele>1536</ele>
        <time>2000-01-01T03:55:11.000Z</time>
      </trkpt>
      <trkpt lat="45.15323" lon="2.66167">
        <ele>1535</ele>
        <time>2000-01-01T03:55:21.000Z</time>
      </trkpt>
      <trkpt lat="45.15319" lon="2.6617">
        <ele>1536</ele>
        <time>2000-01-01T03:55:31.000Z</time>
      </trkpt>
      <trkpt lat="45.15314" lon="2.66172">
        <ele>1536</ele>
        <time>2000-01-01T03:55:41.000Z</time>
      </trkpt>
      <trkpt lat="45.1531" lon="2.66174">
        <ele>1537</ele>
        <time>2000-01-01T03:55:51.000Z</time>
      </trkpt>
      <trkpt lat="45.15307" lon="2.66175">
        <ele>1539</ele>
        <time>2000-01-01T03:56:01.000Z</time>
      </trkpt>
      <trkpt lat="45.15302" lon="2.66177">
        <ele>1537</ele>
        <time>2000-01-01T03:56:11.000Z</time>
      </trkpt>
      <trkpt lat="45.15297" lon="2.6618">
        <ele>1537</ele>
        <time>2000-01-01T03:56:21.000Z</time>
      </trkpt>
      <trkpt lat="45.15293" lon="2.66183">
        <ele>1538</ele>
        <time>2000-01-01T03:56:31.000Z</time>
      </trkpt>
      <trkpt lat="45.15288" lon="2.66184">
        <ele>1543</ele>
        <time>2000-01-01T03:56:41.000Z</time>
      </trkpt>
      <trkpt lat="45.15284" lon="2.66186">
        <ele>1538</ele>
        <time>2000-01-01T03:56:51.000Z</time>
      </trkpt>
      <trkpt lat="45.15279" lon="2.66188">
        <ele>1538</ele>
        <time>2000-01-01T03:57:01.000Z</time>
      </trkpt>
      <trkpt lat="45.15275" lon="2.66191">
        <ele>1538</ele>
        <time>2000-01-01T03:57:11.000Z</time>
      </trkpt>
      <trkpt lat="45.15271" lon="2.66195">
        <ele>1538</ele>
        <time>2000-01-01T03:57:21.000Z</time>
      </trkpt>
      <trkpt lat="45.15267" lon="2.66198">
        <ele>1546</ele>
        <time>2000-01-01T03:57:31.000Z</time>
      </trkpt>
      <trkpt lat="45.15264" lon="2.66202">
        <ele>1539</ele>
        <time>2000-01-01T03:57:41.000Z</time>
      </trkpt>
      <trkpt lat="45.15262" lon="2.66204">
        <ele>1539</ele>
        <time>2000-01-01T03:57:51.000Z</time>
      </trkpt>
      <trkpt lat="45.15258" lon="2.66208">
        <ele>1539</ele>
        <time>2000-01-01T03:58:01.000Z</time>
      </trkpt>
      <trkpt lat="45.15254" lon="2.6621">
        <ele>1540</ele>
        <time>2000-01-01T03:58:11.000Z</time>
      </trkpt>
      <trkpt lat="45.15252" lon="2.66211">
        <ele>1540</ele>
        <time>2000-01-01T03:58:21.000Z</time>
      </trkpt>
      <trkpt lat="45.15254" lon="2.6621">
        <ele>1551</ele>
        <time>2000-01-01T03:58:31.000Z</time>
      </trkpt>
      <trkpt lat="45.15249" lon="2.66214">
        <ele>1531</ele>
        <time>2000-01-01T03:58:41.000Z</time>
      </trkpt>
      <trkpt lat="45.15244" lon="2.66218">
        <ele>1531</ele>
        <time>2000-01-01T03:58:51.000Z</time>
      </trkpt>
      <trkpt lat="45.15241" lon="2.66224">
        <ele>1532</ele>
        <time>2000-01-01T03:59:01.000Z</time>
      </trkpt>
      <trkpt lat="45.1524" lon="2.66226">
        <ele>1532</ele>
        <time>2000-01-01T03:59:11.000Z</time>
      </trkpt>
      <trkpt lat="45.15238" lon="2.66228">
        <ele>1552</ele>
        <time>2000-01-01T03:59:21.000Z</time>
      </trkpt>
      <trkpt lat="45.15236" lon="2.66229">
        <ele>1532</ele>
        <time>2000-01-01T03:59:31.000Z</time>
      </trkpt>
      <trkpt lat="45.15233" lon="2.6623">
        <ele>1532</ele>
        <time>2000-01-01T03:59:41.000Z</time>
      </trkpt>
      <trkpt lat="45.15229" lon="2.66234">
        <ele>1531</ele>
        <time>2000-01-01T03:59:51.000Z</time>
      </trkpt>
      <trkpt lat="45.15225" lon="2.66237">
        <ele>1531</ele>
        <time>2000-01-01T04:00:01.000Z</time>
      </trkpt>
      <trkpt lat="45.1522" lon="2.66241">
        <ele>1548</ele>
        <time>2000-01-01T04:00:11.000Z</time>
      </trkpt>
      <trkpt lat="45.15215" lon="2.66248">
        <ele>1528</ele>
        <time>2000-01-01T04:00:21.000Z</time>
      </trkpt>
      <trkpt lat="45.15214" lon="2.66251">
        <ele>1531</ele>
        <time>2000-01-01T04:00:31.000Z</time>
      </trkpt>
      <trkpt lat="45.15214" lon="2.66258">
        <ele>1531</ele>
        <time>2000-01-01T04:00:41.000Z</time>
      </trkpt>
      <trkpt lat="45.15216" lon="2.66263">
        <ele>1532</ele>
        <time>2000-01-01T04:00:51.000Z</time>
      </trkpt>
      <trkpt lat="45.15216" lon="2.6627">
        <ele>1544</ele>
        <time>2000-01-01T04:01:01.000Z</time>
      </trkpt>
      <trkpt lat="45.15217" lon="2.6628">
        <ele>1532</ele>
        <time>2000-01-01T04:01:11.000Z</time>
      </trkpt>
      <trkpt lat="45.15216" lon="2.66286">
        <ele>1532</ele>
        <time>2000-01-01T04:01:21.000Z</time>
      </trkpt>
      <trkpt lat="45.15215" lon="2.66293">
        <ele>1531</ele>
        <time>2000-01-01T04:01:31.000Z</time>
      </trkpt>
      <trkpt lat="45.15214" lon="2.663">
        <ele>1538</ele>
        <time>2000-01-01T04:01:41.000Z</time>
      </trkpt>
      <trkpt lat="45.15214" lon="2.66308">
        <ele>1532</ele>
        <time>2000-01-01T04:01:51.000Z</time>
      </trkpt>
      <trkpt lat="45.15213" lon="2.66315">
        <ele>1532</ele>
        <time>2000-01-01T04:02:01.000Z</time>
      </trkpt>
      <trkpt lat="45.15211" lon="2.66321">
        <ele>1531</ele>
        <time>2000-01-01T04:02:11.000Z</time>
      </trkpt>
      <trkpt lat="45.1521" lon="2.66328">
        <ele>1538</ele>
        <time>2000-01-01T04:02:21.000Z</time>
      </trkpt>
      <trkpt lat="45.1521" lon="2.66335">
        <ele>1535</ele>
        <time>2000-01-01T04:02:31.000Z</time>
      </trkpt>
      <trkpt lat="45.15209" lon="2.66339">
        <ele>1535</ele>
        <time>2000-01-01T04:02:41.000Z</time>
      </trkpt>
      <trkpt lat="45.15209" lon="2.66342">
        <ele>1535</ele>
        <time>2000-01-01T04:02:51.000Z</time>
      </trkpt>
      <trkpt lat="45.1521" lon="2.66346">
        <ele>1536</ele>
        <time>2000-01-01T04:03:01.000Z</time>
      </trkpt>
      <trkpt lat="45.15208" lon="2.66351">
        <ele>1535</ele>
        <time>2000-01-01T04:03:11.000Z</time>
      </trkpt>
      <trkpt lat="45.15204" lon="2.66355">
        <ele>1539</ele>
        <time>2000-01-01T04:03:21.000Z</time>
      </trkpt>
      <trkpt lat="45.15201" lon="2.66363">
        <ele>1535</ele>
        <time>2000-01-01T04:03:31.000Z</time>
      </trkpt>
      <trkpt lat="45.15199" lon="2.66369">
        <ele>1535</ele>
        <time>2000-01-01T04:03:41.000Z</time>
      </trkpt>
      <trkpt lat="45.15197" lon="2.66376">
        <ele>1535</ele>
        <time>2000-01-01T04:03:51.000Z</time>
      </trkpt>
      <trkpt lat="45.15193" lon="2.66382">
        <ele>1539</ele>
        <time>2000-01-01T04:04:01.000Z</time>
      </trkpt>
      <trkpt lat="45.15189" lon="2.66386">
        <ele>1535</ele>
        <time>2000-01-01T04:04:11.000Z</time>
      </trkpt>
      <trkpt lat="45.15184" lon="2.66388">
        <ele>1534</ele>
        <time>2000-01-01T04:04:21.000Z</time>
      </trkpt>
      <trkpt lat="45.15179" lon="2.6639">
        <ele>1534</ele>
        <time>2000-01-01T04:04:31.000Z</time>
      </trkpt>
      <trkpt lat="45.15176" lon="2.66392">
        <ele>1538</ele>
        <time>2000-01-01T04:04:41.000Z</time>
      </trkpt>
      <trkpt lat="45.15172" lon="2.66395">
        <ele>1533</ele>
        <time>2000-01-01T04:04:51.000Z</time>
      </trkpt>
      <trkpt lat="45.15169" lon="2.66399">
        <ele>1533</ele>
        <time>2000-01-01T04:05:01.000Z</time>
      </trkpt>
      <trkpt lat="45.15165" lon="2.66403">
        <ele>1520</ele>
        <time>2000-01-01T04:05:11.000Z</time>
      </trkpt>
      <trkpt lat="45.1516" lon="2.66407">
        <ele>1521</ele>
        <time>2000-01-01T04:05:21.000Z</time>
      </trkpt>
      <trkpt lat="45.15155" lon="2.66408">
        <ele>1537</ele>
        <time>2000-01-01T04:05:31.000Z</time>
      </trkpt>
      <trkpt lat="45.1515" lon="2.66411">
        <ele>1517</ele>
        <time>2000-01-01T04:05:41.000Z</time>
      </trkpt>
      <trkpt lat="45.15146" lon="2.66414">
        <ele>1516</ele>
        <time>2000-01-01T04:05:51.000Z</time>
      </trkpt>
      <trkpt lat="45.15141" lon="2.66416">
        <ele>1514</ele>
        <time>2000-01-01T04:06:01.000Z</time>
      </trkpt>
      <trkpt lat="45.15137" lon="2.66418">
        <ele>1532</ele>
        <time>2000-01-01T04:06:11.000Z</time>
      </trkpt>
      <trkpt lat="45.15131" lon="2.6642">
        <ele>1526</ele>
        <time>2000-01-01T04:06:21.000Z</time>
      </trkpt>
      <trkpt lat="45.15126" lon="2.66423">
        <ele>1525</ele>
        <time>2000-01-01T04:06:31.000Z</time>
      </trkpt>
      <trkpt lat="45.15121" lon="2.66426">
        <ele>1524</ele>
        <time>2000-01-01T04:06:41.000Z</time>
      </trkpt>
      <trkpt lat="45.15116" lon="2.66429">
        <ele>1526</ele>
        <time>2000-01-01T04:06:51.000Z</time>
      </trkpt>
      <trkpt lat="45.15111" lon="2.66433">
        <ele>1521</ele>
        <time>2000-01-01T04:07:01.000Z</time>
      </trkpt>
      <trkpt lat="45.15106" lon="2.66436">
        <ele>1521</ele>
        <time>2000-01-01T04:07:11.000Z</time>
      </trkpt>
      <trkpt lat="45.15101" lon="2.66439">
        <ele>1520</ele>
        <time>2000-01-01T04:07:21.000Z</time>
      </trkpt>
      <trkpt lat="45.15095" lon="2.66441">
        <ele>1519</ele>
        <time>2000-01-01T04:07:31.000Z</time>
      </trkpt>
      <trkpt lat="45.1509" lon="2.66444">
        <ele>1520</ele>
        <time>2000-01-01T04:07:41.000Z</time>
      </trkpt>
      <trkpt lat="45.15086" lon="2.66447">
        <ele>1520</ele>
        <time>2000-01-01T04:07:51.000Z</time>
      </trkpt>
      <trkpt lat="45.15082" lon="2.66451">
        <ele>1506</ele>
        <time>2000-01-01T04:08:01.000Z</time>
      </trkpt>
      <trkpt lat="45.15077" lon="2.66455">
        <ele>1515</ele>
        <time>2000-01-01T04:08:11.000Z</time>
      </trkpt>
      <trkpt lat="45.15073" lon="2.66459">
        <ele>1508</ele>
        <time>2000-01-01T04:08:21.000Z</time>
      </trkpt>
      <trkpt lat="45.15068" lon="2.66462">
        <ele>1508</ele>
        <time>2000-01-01T04:08:31.000Z</time>
      </trkpt>
      <trkpt lat="45.15064" lon="2.66465">
        <ele>1508</ele>
        <time>2000-01-01T04:08:41.000Z</time>
      </trkpt>
      <trkpt lat="45.1506" lon="2.66468">
        <ele>1515</ele>
        <time>2000-01-01T04:08:51.000Z</time>
      </trkpt>
      <trkpt lat="45.15056" lon="2.6647">
        <ele>1508</ele>
        <time>2000-01-01T04:09:01.000Z</time>
      </trkpt>
      <trkpt lat="45.15052" lon="2.66474">
        <ele>1508</ele>
        <time>2000-01-01T04:09:11.000Z</time>
      </trkpt>
      <trkpt lat="45.1505" lon="2.66476">
        <ele>1508</ele>
        <time>2000-01-01T04:09:21.000Z</time>
      </trkpt>
      <trkpt lat="45.15047" lon="2.66478">
        <ele>1508</ele>
        <time>2000-01-01T04:09:31.000Z</time>
      </trkpt>
      <trkpt lat="45.15042" lon="2.66479">
        <ele>1515</ele>
        <time>2000-01-01T04:09:41.000Z</time>
      </trkpt>
      <trkpt lat="45.15037" lon="2.6648">
        <ele>1507</ele>
        <time>2000-01-01T04:09:51.000Z</time>
      </trkpt>
      <trkpt lat="45.15031" lon="2.66482">
        <ele>1506</ele>
        <time>2000-01-01T04:10:01.000Z</time>
      </trkpt>
      <trkpt lat="45.15026" lon="2.66486">
        <ele>1506</ele>
        <time>2000-01-01T04:10:11.000Z</time>
      </trkpt>
      <trkpt lat="45.15021" lon="2.66489">
        <ele>1515</ele>
        <time>2000-01-01T04:10:21.000Z</time>
      </trkpt>
      <trkpt lat="45.15016" lon="2.66492">
        <ele>1505</ele>
        <time>2000-01-01T04:10:31.000Z</time>
      </trkpt>
      <trkpt lat="45.15011" lon="2.66493">
        <ele>1505</ele>
        <time>2000-01-01T04:10:41.000Z</time>
      </trkpt>
      <trkpt lat="45.15005" lon="2.66495">
        <ele>1505</ele>
        <time>2000-01-01T04:10:51.000Z</time>
      </trkpt>
      <trkpt lat="45.15" lon="2.66498">
        <ele>1513</ele>
        <time>2000-01-01T04:11:01.000Z</time>
      </trkpt>
      <trkpt lat="45.14995" lon="2.665">
        <ele>1504</ele>
        <time>2000-01-01T04:11:11.000Z</time>
      </trkpt>
      <trkpt lat="45.14993" lon="2.66501">
        <ele>1507</ele>
        <time>2000-01-01T04:11:21.000Z</time>
      </trkpt>
      <trkpt lat="45.14987" lon="2.66503">
        <ele>1507</ele>
        <time>2000-01-01T04:11:31.000Z</time>
      </trkpt>
      <trkpt lat="45.14982" lon="2.66505">
        <ele>1508</ele>
        <time>2000-01-01T04:11:41.000Z</time>
      </trkpt>
      <trkpt lat="45.14978" lon="2.66507">
        <ele>1511</ele>
        <time>2000-01-01T04:11:51.000Z</time>
      </trkpt>
      <trkpt lat="45.14974" lon="2.66509">
        <ele>1508</ele>
        <time>2000-01-01T04:12:01.000Z</time>
      </trkpt>
      <trkpt lat="45.14971" lon="2.66514">
        <ele>1509</ele>
        <time>2000-01-01T04:12:11.000Z</time>
      </trkpt>
      <trkpt lat="45.14967" lon="2.66518">
        <ele>1509</ele>
        <time>2000-01-01T04:12:21.000Z</time>
      </trkpt>
      <trkpt lat="45.14962" lon="2.6652">
        <ele>1511.5</ele>
        <time>2000-01-01T04:12:31.000Z</time>
      </trkpt>
      <trkpt lat="45.14957" lon="2.66522">
        <ele>1509</ele>
        <time>2000-01-01T04:12:41.000Z</time>
      </trkpt>
      <trkpt lat="45.14953" lon="2.66524">
        <ele>1509</ele>
        <time>2000-01-01T04:12:51.000Z</time>
      </trkpt>
      <trkpt lat="45.14949" lon="2.66526">
        <ele>1508</ele>
        <time>2000-01-01T04:13:01.000Z</time>
      </trkpt>
      <trkpt lat="45.14945" lon="2.66529">
        <ele>1508</ele>
        <time>2000-01-01T04:13:11.000Z</time>
      </trkpt>
      <trkpt lat="45.14941" lon="2.66532">
        <ele>1512</ele>
        <time>2000-01-01T04:13:21.000Z</time>
      </trkpt>
      <trkpt lat="45.14936" lon="2.66535">
        <ele>1509</ele>
        <time>2000-01-01T04:13:31.000Z</time>
      </trkpt>
      <trkpt lat="45.14931" lon="2.66536">
        <ele>1508</ele>
        <time>2000-01-01T04:13:41.000Z</time>
      </trkpt>
      <trkpt lat="45.14927" lon="2.66539">
        <ele>1509</ele>
        <time>2000-01-01T04:13:51.000Z</time>
      </trkpt>
      <trkpt lat="45.14923" lon="2.66542">
        <ele>1509</ele>
        <time>2000-01-01T04:14:01.000Z</time>
      </trkpt>
      <trkpt lat="45.14919" lon="2.66544">
        <ele>1513</ele>
        <time>2000-01-01T04:14:11.000Z</time>
      </trkpt>
      <trkpt lat="45.14914" lon="2.66545">
        <ele>1498</ele>
        <time>2000-01-01T04:14:21.000Z</time>
      </trkpt>
      <trkpt lat="45.14911" lon="2.66546">
        <ele>1499</ele>
        <time>2000-01-01T04:14:31.000Z</time>
      </trkpt>
      <trkpt lat="45.14906" lon="2.66548">
        <ele>1499</ele>
        <time>2000-01-01T04:14:41.000Z</time>
      </trkpt>
      <trkpt lat="45.14901" lon="2.66551">
        <ele>1499</ele>
        <time>2000-01-01T04:14:51.000Z</time>
      </trkpt>
      <trkpt lat="45.14896" lon="2.66553">
        <ele>1512.5</ele>
        <time>2000-01-01T04:15:01.000Z</time>
      </trkpt>
      <trkpt lat="45.14891" lon="2.66554">
        <ele>1498</ele>
        <time>2000-01-01T04:15:11.000Z</time>
      </trkpt>
      <trkpt lat="45.14887" lon="2.66558">
        <ele>1498</ele>
        <time>2000-01-01T04:15:21.000Z</time>
      </trkpt>
      <trkpt lat="45.14884" lon="2.66562">
        <ele>1498</ele>
        <time>2000-01-01T04:15:31.000Z</time>
      </trkpt>
      <trkpt lat="45.14879" lon="2.66566">
        <ele>1512</ele>
        <time>2000-01-01T04:15:41.000Z</time>
      </trkpt>
      <trkpt lat="45.14875" lon="2.66568">
        <ele>1497</ele>
        <time>2000-01-01T04:15:51.000Z</time>
      </trkpt>
      <trkpt lat="45.14873" lon="2.66569">
        <ele>1497</ele>
        <time>2000-01-01T04:16:01.000Z</time>
      </trkpt>
      <trkpt lat="45.14871" lon="2.6657">
        <ele>1497</ele>
        <time>2000-01-01T04:16:11.000Z</time>
      </trkpt>
      <trkpt lat="45.14869" lon="2.6657">
        <ele>1496</ele>
        <time>2000-01-01T04:16:21.000Z</time>
      </trkpt>
      <trkpt lat="45.14869" lon="2.66574">
        <ele>1497</ele>
        <time>2000-01-01T04:16:31.000Z</time>
      </trkpt>
      <trkpt lat="45.14865" lon="2.66577">
        <ele>1496</ele>
        <time>2000-01-01T04:16:41.000Z</time>
      </trkpt>
      <trkpt lat="45.14861" lon="2.6658">
        <ele>1512</ele>
        <time>2000-01-01T04:16:51.000Z</time>
      </trkpt>
      <trkpt lat="45.14857" lon="2.66583">
        <ele>1496</ele>
        <time>2000-01-01T04:17:01.000Z</time>
      </trkpt>
      <trkpt lat="45.14854" lon="2.66584">
        <ele>1507</ele>
        <time>2000-01-01T04:17:11.000Z</time>
      </trkpt>
      <trkpt lat="45.14849" lon="2.66587">
        <ele>1505</ele>
        <time>2000-01-01T04:17:21.000Z</time>
      </trkpt>
      <trkpt lat="45.14844" lon="2.66588">
        <ele>1503</ele>
        <time>2000-01-01T04:17:31.000Z</time>
      </trkpt>
      <trkpt lat="45.14839" lon="2.66592">
        <ele>1511</ele>
        <time>2000-01-01T04:17:41.000Z</time>
      </trkpt>
      <trkpt lat="45.14836" lon="2.66596">
        <ele>1504</ele>
        <time>2000-01-01T04:17:51.000Z</time>
      </trkpt>
      <trkpt lat="45.14832" lon="2.666">
        <ele>1497</ele>
        <time>2000-01-01T04:18:01.000Z</time>
      </trkpt>
      <trkpt lat="45.14828" lon="2.66604">
        <ele>1498</ele>
        <time>2000-01-01T04:18:11.000Z</time>
      </trkpt>
      <trkpt lat="45.14823" lon="2.66606">
        <ele>1509</ele>
        <time>2000-01-01T04:18:21.000Z</time>
      </trkpt>
      <trkpt lat="45.1482" lon="2.66606">
        <ele>1498</ele>
        <time>2000-01-01T04:18:31.000Z</time>
      </trkpt>
      <trkpt lat="45.14814" lon="2.66608">
        <ele>1498</ele>
        <time>2000-01-01T04:18:41.000Z</time>
      </trkpt>
      <trkpt lat="45.14812" lon="2.66609">
        <ele>1498</ele>
        <time>2000-01-01T04:18:51.000Z</time>
      </trkpt>
      <trkpt lat="45.14807" lon="2.66613">
        <ele>1498</ele>
        <time>2000-01-01T04:19:01.000Z</time>
      </trkpt>
      <trkpt lat="45.14804" lon="2.66619">
        <ele>1509</ele>
        <time>2000-01-01T04:19:11.000Z</time>
      </trkpt>
      <trkpt lat="45.148" lon="2.66625">
        <ele>1499</ele>
        <time>2000-01-01T04:19:21.000Z</time>
      </trkpt>
      <trkpt lat="45.14796" lon="2.66629">
        <ele>1499</ele>
        <time>2000-01-01T04:19:31.000Z</time>
      </trkpt>
      <trkpt lat="45.14793" lon="2.66635">
        <ele>1500</ele>
        <time>2000-01-01T04:19:41.000Z</time>
      </trkpt>
      <trkpt lat="45.14789" lon="2.66642">
        <ele>1510.5</ele>
        <time>2000-01-01T04:19:51.000Z</time>
      </trkpt>
      <trkpt lat="45.14786" lon="2.66647">
        <ele>1501</ele>
        <time>2000-01-01T04:20:01.000Z</time>
      </trkpt>
      <trkpt lat="45.14784" lon="2.6665">
        <ele>1501</ele>
        <time>2000-01-01T04:20:11.000Z</time>
      </trkpt>
      <trkpt lat="45.14782" lon="2.66655">
        <ele>1501</ele>
        <time>2000-01-01T04:20:21.000Z</time>
      </trkpt>
      <trkpt lat="45.14779" lon="2.6666">
        <ele>1501</ele>
        <time>2000-01-01T04:20:31.000Z</time>
      </trkpt>
      <trkpt lat="45.14774" lon="2.66664">
        <ele>1512</ele>
        <time>2000-01-01T04:20:41.000Z</time>
      </trkpt>
      <trkpt lat="45.14771" lon="2.66669">
        <ele>1514</ele>
        <time>2000-01-01T04:20:51.000Z</time>
      </trkpt>
      <trkpt lat="45.14767" lon="2.66673">
        <ele>1513</ele>
        <time>2000-01-01T04:21:01.000Z</time>
      </trkpt>
      <trkpt lat="45.14762" lon="2.66676">
        <ele>1512</ele>
        <time>2000-01-01T04:21:11.000Z</time>
      </trkpt>
      <trkpt lat="45.14758" lon="2.66677">
        <ele>1515</ele>
        <time>2000-01-01T04:21:21.000Z</time>
      </trkpt>
      <trkpt lat="45.14754" lon="2.6668">
        <ele>1512</ele>
        <time>2000-01-01T04:21:31.000Z</time>
      </trkpt>
      <trkpt lat="45.1475" lon="2.66682">
        <ele>1512</ele>
        <time>2000-01-01T04:21:41.000Z</time>
      </trkpt>
      <trkpt lat="45.14746" lon="2.66685">
        <ele>1507</ele>
        <time>2000-01-01T04:21:51.000Z</time>
      </trkpt>
      <trkpt lat="45.14742" lon="2.66687">
        <ele>1508</ele>
        <time>2000-01-01T04:22:01.000Z</time>
      </trkpt>
      <trkpt lat="45.14738" lon="2.66689">
        <ele>1517</ele>
        <time>2000-01-01T04:22:11.000Z</time>
      </trkpt>
      <trkpt lat="45.14734" lon="2.66691">
        <ele>1508</ele>
        <time>2000-01-01T04:22:21.000Z</time>
      </trkpt>
      <trkpt lat="45.1473" lon="2.66695">
        <ele>1508</ele>
        <time>2000-01-01T04:22:31.000Z</time>
      </trkpt>
      <trkpt lat="45.14726" lon="2.66698">
        <ele>1509</ele>
        <time>2000-01-01T04:22:41.000Z</time>
      </trkpt>
      <trkpt lat="45.14721" lon="2.667">
        <ele>1509</ele>
        <time>2000-01-01T04:22:51.000Z</time>
      </trkpt>
      <trkpt lat="45.14716" lon="2.66702">
        <ele>1518</ele>
        <time>2000-01-01T04:23:01.000Z</time>
      </trkpt>
      <trkpt lat="45.14711" lon="2.66704">
        <ele>1509</ele>
        <time>2000-01-01T04:23:11.000Z</time>
      </trkpt>
      <trkpt lat="45.14709" lon="2.66704">
        <ele>1508</ele>
        <time>2000-01-01T04:23:21.000Z</time>
      </trkpt>
      <trkpt lat="45.14703" lon="2.66707">
        <ele>1508</ele>
        <time>2000-01-01T04:23:31.000Z</time>
      </trkpt>
      <trkpt lat="45.14699" lon="2.6671">
        <ele>1509</ele>
        <time>2000-01-01T04:23:41.000Z</time>
      </trkpt>
      <trkpt lat="45.14694" lon="2.66712">
        <ele>1518</ele>
        <time>2000-01-01T04:23:51.000Z</time>
      </trkpt>
      <trkpt lat="45.14689" lon="2.66714">
        <ele>1508</ele>
        <time>2000-01-01T04:24:01.000Z</time>
      </trkpt>
      <trkpt lat="45.14684" lon="2.66716">
        <ele>1509</ele>
        <time>2000-01-01T04:24:11.000Z</time>
      </trkpt>
      <trkpt lat="45.14679" lon="2.66717">
        <ele>1509</ele>
        <time>2000-01-01T04:24:21.000Z</time>
      </trkpt>
      <trkpt lat="45.14677" lon="2.66717">
        <ele>1508</ele>
        <time>2000-01-01T04:24:31.000Z</time>
      </trkpt>
      <trkpt lat="45.14673" lon="2.66718">
        <ele>1518</ele>
        <time>2000-01-01T04:24:41.000Z</time>
      </trkpt>
      <trkpt lat="45.14668" lon="2.6672">
        <ele>1509</ele>
        <time>2000-01-01T04:24:51.000Z</time>
      </trkpt>
      <trkpt lat="45.14663" lon="2.66722">
        <ele>1502</ele>
        <time>2000-01-01T04:25:01.000Z</time>
      </trkpt>
      <trkpt lat="45.14659" lon="2.66725">
        <ele>1502</ele>
        <time>2000-01-01T04:25:11.000Z</time>
      </trkpt>
      <trkpt lat="45.14654" lon="2.66727">
        <ele>1514</ele>
        <time>2000-01-01T04:25:21.000Z</time>
      </trkpt>
      <trkpt lat="45.14649" lon="2.66729">
        <ele>1502</ele>
        <time>2000-01-01T04:25:31.000Z</time>
      </trkpt>
      <trkpt lat="45.14645" lon="2.66732">
        <ele>1502</ele>
        <time>2000-01-01T04:25:41.000Z</time>
      </trkpt>
      <trkpt lat="45.1464" lon="2.66735">
        <ele>1501</ele>
        <time>2000-01-01T04:25:51.000Z</time>
      </trkpt>
      <trkpt lat="45.14635" lon="2.66737">
        <ele>1513</ele>
        <time>2000-01-01T04:26:01.000Z</time>
      </trkpt>
      <trkpt lat="45.1463" lon="2.6674">
        <ele>1500</ele>
        <time>2000-01-01T04:26:11.000Z</time>
      </trkpt>
      <trkpt lat="45.14625" lon="2.66742">
        <ele>1500</ele>
        <time>2000-01-01T04:26:21.000Z</time>
      </trkpt>
      <trkpt lat="45.1462" lon="2.66745">
        <ele>1499</ele>
        <time>2000-01-01T04:26:31.000Z</time>
      </trkpt>
      <trkpt lat="45.14616" lon="2.66748">
        <ele>1511</ele>
        <time>2000-01-01T04:26:41.000Z</time>
      </trkpt>
      <trkpt lat="45.1461" lon="2.66749">
        <ele>1499</ele>
        <time>2000-01-01T04:26:51.000Z</time>
      </trkpt>
      <trkpt lat="45.14605" lon="2.66751">
        <ele>1501</ele>
        <time>2000-01-01T04:27:01.000Z</time>
      </trkpt>
      <trkpt lat="45.14601" lon="2.66751">
        <ele>1501</ele>
        <time>2000-01-01T04:27:11.000Z</time>
      </trkpt>
      <trkpt lat="45.14596" lon="2.66752">
        <ele>1508</ele>
        <time>2000-01-01T04:27:21.000Z</time>
      </trkpt>
      <trkpt lat="45.14592" lon="2.66752">
        <ele>1500</ele>
        <time>2000-01-01T04:27:31.000Z</time>
      </trkpt>
      <trkpt lat="45.14587" lon="2.66752">
        <ele>1499</ele>
        <time>2000-01-01T04:27:41.000Z</time>
      </trkpt>
      <trkpt lat="45.14582" lon="2.66753">
        <ele>1498</ele>
        <time>2000-01-01T04:27:51.000Z</time>
      </trkpt>
      <trkpt lat="45.14577" lon="2.66754">
        <ele>1507</ele>
        <time>2000-01-01T04:28:01.000Z</time>
      </trkpt>
      <trkpt lat="45.14572" lon="2.66756">
        <ele>1497</ele>
        <time>2000-01-01T04:28:11.000Z</time>
      </trkpt>
      <trkpt lat="45.14571" lon="2.66757">
        <ele>1496</ele>
        <time>2000-01-01T04:28:21.000Z</time>
      </trkpt>
      <trkpt lat="45.14568" lon="2.66759">
        <ele>1496</ele>
        <time>2000-01-01T04:28:31.000Z</time>
      </trkpt>
      <trkpt lat="45.14566" lon="2.66761">
        <ele>1496</ele>
        <time>2000-01-01T04:28:41.000Z</time>
      </trkpt>
      <trkpt lat="45.14566" lon="2.66761">
        <ele>1496</ele>
        <time>2000-01-01T04:28:51.000Z</time>
      </trkpt>
      <trkpt lat="45.14561" lon="2.66762">
        <ele>1495</ele>
        <time>2000-01-01T04:29:01.000Z</time>
      </trkpt>
      <trkpt lat="45.14557" lon="2.66761">
        <ele>1505</ele>
        <time>2000-01-01T04:29:11.000Z</time>
      </trkpt>
      <trkpt lat="45.14552" lon="2.6676">
        <ele>1495</ele>
        <time>2000-01-01T04:29:21.000Z</time>
      </trkpt>
      <trkpt lat="45.14547" lon="2.66759">
        <ele>1495</ele>
        <time>2000-01-01T04:29:31.000Z</time>
      </trkpt>
      <trkpt lat="45.14542" lon="2.66759">
        <ele>1495</ele>
        <time>2000-01-01T04:29:41.000Z</time>
      </trkpt>
      <trkpt lat="45.14538" lon="2.66759">
        <ele>1504</ele>
        <time>2000-01-01T04:29:51.000Z</time>
      </trkpt>
      <trkpt lat="45.14533" lon="2.66758">
        <ele>1495</ele>
        <time>2000-01-01T04:30:01.000Z</time>
      </trkpt>
      <trkpt lat="45.14529" lon="2.66757">
        <ele>1495</ele>
        <time>2000-01-01T04:30:11.000Z</time>
      </trkpt>
      <trkpt lat="45.14525" lon="2.66756">
        <ele>1495</ele>
        <time>2000-01-01T04:30:21.000Z</time>
      </trkpt>
      <trkpt lat="45.14521" lon="2.66755">
        <ele>1495</ele>
        <time>2000-01-01T04:30:31.000Z</time>
      </trkpt>
      <trkpt lat="45.14517" lon="2.66756">
        <ele>1503</ele>
        <time>2000-01-01T04:30:41.000Z</time>
      </trkpt>
      <trkpt lat="45.14512" lon="2.66756">
        <ele>1496</ele>
        <time>2000-01-01T04:30:51.000Z</time>
      </trkpt>
      <trkpt lat="45.1451" lon="2.66756">
        <ele>1496</ele>
        <time>2000-01-01T04:31:01.000Z</time>
      </trkpt>
      <trkpt lat="45.14506" lon="2.66754">
        <ele>1497</ele>
        <time>2000-01-01T04:31:11.000Z</time>
      </trkpt>
      <trkpt lat="45.14501" lon="2.66754">
        <ele>1497</ele>
        <time>2000-01-01T04:31:21.000Z</time>
      </trkpt>
      <trkpt lat="45.14497" lon="2.66754">
        <ele>1503</ele>
        <time>2000-01-01T04:31:31.000Z</time>
      </trkpt>
      <trkpt lat="45.14492" lon="2.66754">
        <ele>1496</ele>
        <time>2000-01-01T04:31:41.000Z</time>
      </trkpt>
      <trkpt lat="45.14487" lon="2.66754">
        <ele>1496</ele>
        <time>2000-01-01T04:31:51.000Z</time>
      </trkpt>
      <trkpt lat="45.14482" lon="2.66754">
        <ele>1496</ele>
        <time>2000-01-01T04:32:01.000Z</time>
      </trkpt>
      <trkpt lat="45.14477" lon="2.66755">
        <ele>1503</ele>
        <time>2000-01-01T04:32:11.000Z</time>
      </trkpt>
      <trkpt lat="45.14472" lon="2.66756">
        <ele>1495</ele>
        <time>2000-01-01T04:32:21.000Z</time>
      </trkpt>
      <trkpt lat="45.14467" lon="2.66756">
        <ele>1495</ele>
        <time>2000-01-01T04:32:31.000Z</time>
      </trkpt>
      <trkpt lat="45.14462" lon="2.66757">
        <ele>1495</ele>
        <time>2000-01-01T04:32:41.000Z</time>
      </trkpt>
      <trkpt lat="45.14457" lon="2.66758">
        <ele>1503</ele>
        <time>2000-01-01T04:32:51.000Z</time>
      </trkpt>
      <trkpt lat="45.14452" lon="2.66758">
        <ele>1495</ele>
        <time>2000-01-01T04:33:01.000Z</time>
      </trkpt>
      <trkpt lat="45.14447" lon="2.66759">
        <ele>1496</ele>
        <time>2000-01-01T04:33:11.000Z</time>
      </trkpt>
      <trkpt lat="45.14442" lon="2.6676">
        <ele>1496</ele>
        <time>2000-01-01T04:33:21.000Z</time>
      </trkpt>
      <trkpt lat="45.14439" lon="2.66762">
        <ele>1496</ele>
        <time>2000-01-01T04:33:31.000Z</time>
      </trkpt>
      <trkpt lat="45.14434" lon="2.66761">
        <ele>1503</ele>
        <time>2000-01-01T04:33:41.000Z</time>
      </trkpt>
      <trkpt lat="45.14429" lon="2.66759">
        <ele>1498</ele>
        <time>2000-01-01T04:33:51.000Z</time>
      </trkpt>
      <trkpt lat="45.14425" lon="2.66759">
        <ele>1498</ele>
        <time>2000-01-01T04:34:01.000Z</time>
      </trkpt>
      <trkpt lat="45.14422" lon="2.6676">
        <ele>1498</ele>
        <time>2000-01-01T04:34:11.000Z</time>
      </trkpt>
      <trkpt lat="45.1442" lon="2.6676">
        <ele>1499</ele>
        <time>2000-01-01T04:34:21.000Z</time>
      </trkpt>
      <trkpt lat="45.14411" lon="2.66761">
        <ele>1503</ele>
        <time>2000-01-01T04:34:31.000Z</time>
      </trkpt>
      <trkpt lat="45.14406" lon="2.66763">
        <ele>1499</ele>
        <time>2000-01-01T04:34:41.000Z</time>
      </trkpt>
      <trkpt lat="45.144" lon="2.66763">
        <ele>1499</ele>
        <time>2000-01-01T04:34:51.000Z</time>
      </trkpt>
      <trkpt lat="45.14395" lon="2.66763">
        <ele>1498</ele>
        <time>2000-01-01T04:35:01.000Z</time>
      </trkpt>
      <trkpt lat="45.14388" lon="2.66765">
        <ele>1503</ele>
        <time>2000-01-01T04:35:11.000Z</time>
      </trkpt>
      <trkpt lat="45.1438" lon="2.66765">
        <ele>1498</ele>
        <time>2000-01-01T04:35:21.000Z</time>
      </trkpt>
      <trkpt lat="45.14374" lon="2.66765">
        <ele>1498</ele>
        <time>2000-01-01T04:35:31.000Z</time>
      </trkpt>
      <trkpt lat="45.14364" lon="2.66764">
        <ele>1503</ele>
        <time>2000-01-01T04:35:41.000Z</time>
      </trkpt>
      <trkpt lat="45.14356" lon="2.66763">
        <ele>1500</ele>
        <time>2000-01-01T04:35:51.000Z</time>
      </trkpt>
      <trkpt lat="45.1435" lon="2.66763">
        <ele>1501</ele>
        <time>2000-01-01T04:36:01.000Z</time>
      </trkpt>
      <trkpt lat="45.14344" lon="2.66765">
        <ele>1503</ele>
        <time>2000-01-01T04:36:11.000Z</time>
      </trkpt>
      <trkpt lat="45.14337" lon="2.66768">
        <ele>1501</ele>
        <time>2000-01-01T04:36:21.000Z</time>
      </trkpt>
      <trkpt lat="45.14328" lon="2.66768">
        <ele>1505</ele>
        <time>2000-01-01T04:36:31.000Z</time>
      </trkpt>
      <trkpt lat="45.1432" lon="2.66769">
        <ele>1505</ele>
        <time>2000-01-01T04:36:41.000Z</time>
      </trkpt>
      <trkpt lat="45.14312" lon="2.66769">
        <ele>1504</ele>
        <time>2000-01-01T04:36:51.000Z</time>
      </trkpt>
      <trkpt lat="45.14305" lon="2.66771">
        <ele>1504</ele>
        <time>2000-01-01T04:37:01.000Z</time>
      </trkpt>
      <trkpt lat="45.14296" lon="2.66773">
        <ele>1507</ele>
        <time>2000-01-01T04:37:11.000Z</time>
      </trkpt>
      <trkpt lat="45.14288" lon="2.66776">
        <ele>1505</ele>
        <time>2000-01-01T04:37:21.000Z</time>
      </trkpt>
      <trkpt lat="45.14282" lon="2.66779">
        <ele>1505</ele>
        <time>2000-01-01T04:37:31.000Z</time>
      </trkpt>
      <trkpt lat="45.14275" lon="2.66781">
        <ele>1510</ele>
        <time>2000-01-01T04:37:41.000Z</time>
      </trkpt>
      <trkpt lat="45.1427" lon="2.66787">
        <ele>1505</ele>
        <time>2000-01-01T04:37:51.000Z</time>
      </trkpt>
      <trkpt lat="45.14264" lon="2.66792">
        <ele>1505</ele>
        <time>2000-01-01T04:38:01.000Z</time>
      </trkpt>
      <trkpt lat="45.14259" lon="2.66797">
        <ele>1511</ele>
        <time>2000-01-01T04:38:11.000Z</time>
      </trkpt>
      <trkpt lat="45.14253" lon="2.66801">
        <ele>1506</ele>
        <time>2000-01-01T04:38:21.000Z</time>
      </trkpt>
      <trkpt lat="45.14248" lon="2.66806">
        <ele>1510</ele>
        <time>2000-01-01T04:38:31.000Z</time>
      </trkpt>
      <trkpt lat="45.14243" lon="2.66809">
        <ele>1510</ele>
        <time>2000-01-01T04:38:41.000Z</time>
      </trkpt>
      <trkpt lat="45.14237" lon="2.66814">
        <ele>1510.5</ele>
        <time>2000-01-01T04:38:51.000Z</time>
      </trkpt>
      <trkpt lat="45.14231" lon="2.66815">
        <ele>1510</ele>
        <time>2000-01-01T04:39:01.000Z</time>
      </trkpt>
      <trkpt lat="45.14226" lon="2.66819">
        <ele>1510</ele>
        <time>2000-01-01T04:39:11.000Z</time>
      </trkpt>
      <trkpt lat="45.1422" lon="2.66824">
        <ele>1511</ele>
        <time>2000-01-01T04:39:21.000Z</time>
      </trkpt>
      <trkpt lat="45.14215" lon="2.66827">
        <ele>1510</ele>
        <time>2000-01-01T04:39:31.000Z</time>
      </trkpt>
      <trkpt lat="45.14207" lon="2.6683">
        <ele>1511</ele>
        <time>2000-01-01T04:39:41.000Z</time>
      </trkpt>
      <trkpt lat="45.14201" lon="2.66833">
        <ele>1512</ele>
        <time>2000-01-01T04:39:51.000Z</time>
      </trkpt>
      <trkpt lat="45.14192" lon="2.66837">
        <ele>1509</ele>
        <time>2000-01-01T04:40:01.000Z</time>
      </trkpt>
      <trkpt lat="45.14186" lon="2.66838">
        <ele>1505</ele>
        <time>2000-01-01T04:40:11.000Z</time>
      </trkpt>
      <trkpt lat="45.14176" lon="2.6684">
        <ele>1508</ele>
        <time>2000-01-01T04:40:21.000Z</time>
      </trkpt>
      <trkpt lat="45.14168" lon="2.66841">
        <ele>1509</ele>
        <time>2000-01-01T04:40:31.000Z</time>
      </trkpt>
      <trkpt lat="45.14159" lon="2.66842">
        <ele>1509</ele>
        <time>2000-01-01T04:40:41.000Z</time>
      </trkpt>
      <trkpt lat="45.14151" lon="2.66846">
        <ele>1507</ele>
        <time>2000-01-01T04:40:51.000Z</time>
      </trkpt>
      <trkpt lat="45.14144" lon="2.66847">
        <ele>1510</ele>
        <time>2000-01-01T04:41:01.000Z</time>
      </trkpt>
      <trkpt lat="45.14136" lon="2.66845">
        <ele>1505</ele>
        <time>2000-01-01T04:41:11.000Z</time>
      </trkpt>
      <trkpt lat="45.1413" lon="2.66845">
        <ele>1505</ele>
        <time>2000-01-01T04:41:21.000Z</time>
      </trkpt>
      <trkpt lat="45.14125" lon="2.66846">
        <ele>1510</ele>
        <time>2000-01-01T04:41:31.000Z</time>
      </trkpt>
      <trkpt lat="45.14125" lon="2.66846">
        <ele>1504</ele>
        <time>2000-01-01T04:41:41.000Z</time>
      </trkpt>
      <trkpt lat="45.14123" lon="2.66846">
        <ele>1504</ele>
        <time>2000-01-01T04:41:51.000Z</time>
      </trkpt>
      <trkpt lat="45.14118" lon="2.66846">
        <ele>1504</ele>
        <time>2000-01-01T04:42:01.000Z</time>
      </trkpt>
      <trkpt lat="45.14113" lon="2.66847">
        <ele>1504</ele>
        <time>2000-01-01T04:42:11.000Z</time>
      </trkpt>
      <trkpt lat="45.14107" lon="2.6685">
        <ele>1504</ele>
        <time>2000-01-01T04:42:21.000Z</time>
      </trkpt>
      <trkpt lat="45.14102" lon="2.6685">
        <ele>1510</ele>
        <time>2000-01-01T04:42:31.000Z</time>
      </trkpt>
      <trkpt lat="45.14098" lon="2.66849">
        <ele>1504</ele>
        <time>2000-01-01T04:42:41.000Z</time>
      </trkpt>
      <trkpt lat="45.14095" lon="2.6685">
        <ele>1504</ele>
        <time>2000-01-01T04:42:51.000Z</time>
      </trkpt>
      <trkpt lat="45.14089" lon="2.66853">
        <ele>1504</ele>
        <time>2000-01-01T04:43:01.000Z</time>
      </trkpt>
      <trkpt lat="45.14084" lon="2.66856">
        <ele>1508</ele>
        <time>2000-01-01T04:43:11.000Z</time>
      </trkpt>
      <trkpt lat="45.14078" lon="2.66857">
        <ele>1503</ele>
        <time>2000-01-01T04:43:21.000Z</time>
      </trkpt>
      <trkpt lat="45.14073" lon="2.66861">
        <ele>1502</ele>
        <time>2000-01-01T04:43:31.000Z</time>
      </trkpt>
      <trkpt lat="45.14069" lon="2.66865">
        <ele>1502</ele>
        <time>2000-01-01T04:43:41.000Z</time>
      </trkpt>
      <trkpt lat="45.14064" lon="2.66867">
        <ele>1506</ele>
        <time>2000-01-01T04:43:51.000Z</time>
      </trkpt>
      <trkpt lat="45.1406" lon="2.6687">
        <ele>1501</ele>
        <time>2000-01-01T04:44:01.000Z</time>
      </trkpt>
      <trkpt lat="45.14055" lon="2.66874">
        <ele>1501</ele>
        <time>2000-01-01T04:44:11.000Z</time>
      </trkpt>
      <trkpt lat="45.14051" lon="2.66878">
        <ele>1501</ele>
        <time>2000-01-01T04:44:21.000Z</time>
      </trkpt>
      <trkpt lat="45.14047" lon="2.66882">
        <ele>1505</ele>
        <time>2000-01-01T04:44:31.000Z</time>
      </trkpt>
      <trkpt lat="45.14044" lon="2.66887">
        <ele>1501</ele>
        <time>2000-01-01T04:44:41.000Z</time>
      </trkpt>
      <trkpt lat="45.14041" lon="2.66892">
        <ele>1501</ele>
        <time>2000-01-01T04:44:51.000Z</time>
      </trkpt>
      <trkpt lat="45.14039" lon="2.66894">
        <ele>1501</ele>
        <time>2000-01-01T04:45:01.000Z</time>
      </trkpt>
      <trkpt lat="45.14036" lon="2.66898">
        <ele>1501</ele>
        <time>2000-01-01T04:45:11.000Z</time>
      </trkpt>
      <trkpt lat="45.14032" lon="2.66903">
        <ele>1505</ele>
        <time>2000-01-01T04:45:21.000Z</time>
      </trkpt>
      <trkpt lat="45.14028" lon="2.66907">
        <ele>1502</ele>
        <time>2000-01-01T04:45:31.000Z</time>
      </trkpt>
      <trkpt lat="45.14025" lon="2.66912">
        <ele>1502</ele>
        <time>2000-01-01T04:45:41.000Z</time>
      </trkpt>
      <trkpt lat="45.14023" lon="2.66914">
        <ele>1502</ele>
        <time>2000-01-01T04:45:51.000Z</time>
      </trkpt>
      <trkpt lat="45.14019" lon="2.66919">
        <ele>1499</ele>
        <time>2000-01-01T04:46:01.000Z</time>
      </trkpt>
      <trkpt lat="45.14015" lon="2.66924">
        <ele>1505</ele>
        <time>2000-01-01T04:46:11.000Z</time>
      </trkpt>
      <trkpt lat="45.14011" lon="2.66929">
        <ele>1499</ele>
        <time>2000-01-01T04:46:21.000Z</time>
      </trkpt>
      <trkpt lat="45.14007" lon="2.66933">
        <ele>1499</ele>
        <time>2000-01-01T04:46:31.000Z</time>
      </trkpt>
      <trkpt lat="45.14003" lon="2.66938">
        <ele>1498</ele>
        <time>2000-01-01T04:46:41.000Z</time>
      </trkpt>
      <trkpt lat="45.13999" lon="2.66942">
        <ele>1505</ele>
        <time>2000-01-01T04:46:51.000Z</time>
      </trkpt>
      <trkpt lat="45.13995" lon="2.66946">
        <ele>1502</ele>
        <time>2000-01-01T04:47:01.000Z</time>
      </trkpt>
      <trkpt lat="45.13991" lon="2.66951">
        <ele>1501</ele>
        <time>2000-01-01T04:47:11.000Z</time>
      </trkpt>
      <trkpt lat="45.13988" lon="2.66956">
        <ele>1501</ele>
        <time>2000-01-01T04:47:21.000Z</time>
      </trkpt>
      <trkpt lat="45.13986" lon="2.66959">
        <ele>1500</ele>
        <time>2000-01-01T04:47:31.000Z</time>
      </trkpt>
      <trkpt lat="45.13982" lon="2.66963">
        <ele>1504</ele>
        <time>2000-01-01T04:47:41.000Z</time>
      </trkpt>
      <trkpt lat="45.13978" lon="2.66968">
        <ele>1500</ele>
        <time>2000-01-01T04:47:51.000Z</time>
      </trkpt>
      <trkpt lat="45.13974" lon="2.66974">
        <ele>1500</ele>
        <time>2000-01-01T04:48:01.000Z</time>
      </trkpt>
      <trkpt lat="45.13971" lon="2.66979">
        <ele>1499</ele>
        <time>2000-01-01T04:48:11.000Z</time>
      </trkpt>
      <trkpt lat="45.13968" lon="2.66985">
        <ele>1504</ele>
        <time>2000-01-01T04:48:21.000Z</time>
      </trkpt>
      <trkpt lat="45.13965" lon="2.66991">
        <ele>1499</ele>
        <time>2000-01-01T04:48:31.000Z</time>
      </trkpt>
      <trkpt lat="45.13962" lon="2.66997">
        <ele>1500</ele>
        <time>2000-01-01T04:48:41.000Z</time>
      </trkpt>
      <trkpt lat="45.1396" lon="2.67002">
        <ele>1495</ele>
        <time>2000-01-01T04:48:51.000Z</time>
      </trkpt>
      <trkpt lat="45.13956" lon="2.67007">
        <ele>1503</ele>
        <time>2000-01-01T04:49:01.000Z</time>
      </trkpt>
      <trkpt lat="45.13953" lon="2.67013">
        <ele>1495</ele>
        <time>2000-01-01T04:49:11.000Z</time>
      </trkpt>
      <trkpt lat="45.1395" lon="2.67019">
        <ele>1495</ele>
        <time>2000-01-01T04:49:21.000Z</time>
      </trkpt>
      <trkpt lat="45.13947" lon="2.67025">
        <ele>1495</ele>
        <time>2000-01-01T04:49:31.000Z</time>
      </trkpt>
      <trkpt lat="45.13944" lon="2.67029">
        <ele>1502</ele>
        <time>2000-01-01T04:49:41.000Z</time>
      </trkpt>
      <trkpt lat="45.13941" lon="2.67034">
        <ele>1496</ele>
        <time>2000-01-01T04:49:51.000Z</time>
      </trkpt>
      <trkpt lat="45.1394" lon="2.67036">
        <ele>1495</ele>
        <time>2000-01-01T04:50:01.000Z</time>
      </trkpt>
      <trkpt lat="45.13934" lon="2.67038">
        <ele>1496</ele>
        <time>2000-01-01T04:50:11.000Z</time>
      </trkpt>
      <trkpt lat="45.13934" lon="2.67038">
        <ele>1496</ele>
        <time>2000-01-01T04:50:21.000Z</time>
      </trkpt>
      <trkpt lat="45.13928" lon="2.67044">
        <ele>1502.5</ele>
        <time>2000-01-01T04:50:31.000Z</time>
      </trkpt>
      <trkpt lat="45.13925" lon="2.67046">
        <ele>1496</ele>
        <time>2000-01-01T04:50:41.000Z</time>
      </trkpt>
      <trkpt lat="45.13921" lon="2.67051">
        <ele>1496</ele>
        <time>2000-01-01T04:50:51.000Z</time>
      </trkpt>
      <trkpt lat="45.13918" lon="2.67056">
        <ele>1497</ele>
        <time>2000-01-01T04:51:01.000Z</time>
      </trkpt>
      <trkpt lat="45.13917" lon="2.67057">
        <ele>1497</ele>
        <time>2000-01-01T04:51:11.000Z</time>
      </trkpt>
      <trkpt lat="45.13915" lon="2.67059">
        <ele>1500</ele>
        <time>2000-01-01T04:51:21.000Z</time>
      </trkpt>
      <trkpt lat="45.1391" lon="2.67064">
        <ele>1503</ele>
        <time>2000-01-01T04:51:31.000Z</time>
      </trkpt>
      <trkpt lat="45.13901" lon="2.67071">
        <ele>1500</ele>
        <time>2000-01-01T04:51:41.000Z</time>
      </trkpt>
      <trkpt lat="45.13893" lon="2.67078">
        <ele>1499</ele>
        <time>2000-01-01T04:51:51.000Z</time>
      </trkpt>
      <trkpt lat="45.13886" lon="2.67082">
        <ele>1505</ele>
        <time>2000-01-01T04:52:01.000Z</time>
      </trkpt>
      <trkpt lat="45.1388" lon="2.67086">
        <ele>1501</ele>
        <time>2000-01-01T04:52:11.000Z</time>
      </trkpt>
      <trkpt lat="45.13873" lon="2.67089">
        <ele>1502</ele>
        <time>2000-01-01T04:52:21.000Z</time>
      </trkpt>
      <trkpt lat="45.13866" lon="2.67093">
        <ele>1509</ele>
        <time>2000-01-01T04:52:31.000Z</time>
      </trkpt>
      <trkpt lat="45.1386" lon="2.67097">
        <ele>1502</ele>
        <time>2000-01-01T04:52:41.000Z</time>
      </trkpt>
      <trkpt lat="45.13853" lon="2.671">
        <ele>1502</ele>
        <time>2000-01-01T04:52:51.000Z</time>
      </trkpt>
      <trkpt lat="45.13844" lon="2.67105">
        <ele>1513</ele>
        <time>2000-01-01T04:53:01.000Z</time>
      </trkpt>
      <trkpt lat="45.13837" lon="2.67108">
        <ele>1503</ele>
        <time>2000-01-01T04:53:11.000Z</time>
      </trkpt>
      <trkpt lat="45.13828" lon="2.67113">
        <ele>1506</ele>
        <time>2000-01-01T04:53:21.000Z</time>
      </trkpt>
      <trkpt lat="45.13821" lon="2.67118">
        <ele>1514</ele>
        <time>2000-01-01T04:53:31.000Z</time>
      </trkpt>
      <trkpt lat="45.13815" lon="2.67123">
        <ele>1508</ele>
        <time>2000-01-01T04:53:41.000Z</time>
      </trkpt>
      <trkpt lat="45.13806" lon="2.67131">
        <ele>1509</ele>
        <time>2000-01-01T04:53:51.000Z</time>
      </trkpt>
      <trkpt lat="45.138" lon="2.67137">
        <ele>1514</ele>
        <time>2000-01-01T04:54:01.000Z</time>
      </trkpt>
      <trkpt lat="45.13796" lon="2.6714">
        <ele>1509</ele>
        <time>2000-01-01T04:54:11.000Z</time>
      </trkpt>
      <trkpt lat="45.13796" lon="2.67141">
        <ele>1509</ele>
        <time>2000-01-01T04:54:21.000Z</time>
      </trkpt>
      <trkpt lat="45.13794" lon="2.67143">
        <ele>1510</ele>
        <time>2000-01-01T04:54:31.000Z</time>
      </trkpt>
      <trkpt lat="45.1379" lon="2.67146">
        <ele>1510</ele>
        <time>2000-01-01T04:54:41.000Z</time>
      </trkpt>
      <trkpt lat="45.13786" lon="2.67149">
        <ele>1510</ele>
        <time>2000-01-01T04:54:51.000Z</time>
      </trkpt>
      <trkpt lat="45.13782" lon="2.67151">
        <ele>1515</ele>
        <time>2000-01-01T04:55:01.000Z</time>
      </trkpt>
      <trkpt lat="45.13778" lon="2.67155">
        <ele>1511</ele>
        <time>2000-01-01T04:55:11.000Z</time>
      </trkpt>
      <trkpt lat="45.13775" lon="2.67158">
        <ele>1512</ele>
        <time>2000-01-01T04:55:21.000Z</time>
      </trkpt>
      <trkpt lat="45.13771" lon="2.67161">
        <ele>1512</ele>
        <time>2000-01-01T04:55:31.000Z</time>
      </trkpt>
      <trkpt lat="45.13768" lon="2.67164">
        <ele>1513</ele>
        <time>2000-01-01T04:55:41.000Z</time>
      </trkpt>
      <trkpt lat="45.13764" lon="2.67167">
        <ele>1516</ele>
        <time>2000-01-01T04:55:51.000Z</time>
      </trkpt>
      <trkpt lat="45.13762" lon="2.67171">
        <ele>1520</ele>
        <time>2000-01-01T04:56:01.000Z</time>
      </trkpt>
      <trkpt lat="45.13759" lon="2.67172">
        <ele>1520</ele>
        <time>2000-01-01T04:56:11.000Z</time>
      </trkpt>
      <trkpt lat="45.13756" lon="2.67173">
        <ele>1520</ele>
        <time>2000-01-01T04:56:21.000Z</time>
      </trkpt>
      <trkpt lat="45.13749" lon="2.67175">
        <ele>1521</ele>
        <time>2000-01-01T04:56:31.000Z</time>
      </trkpt>
      <trkpt lat="45.13742" lon="2.67178">
        <ele>1521</ele>
        <time>2000-01-01T04:56:41.000Z</time>
      </trkpt>
      <trkpt lat="45.13737" lon="2.6718">
        <ele>1523</ele>
        <time>2000-01-01T04:56:51.000Z</time>
      </trkpt>
      <trkpt lat="45.1373" lon="2.67185">
        <ele>1524</ele>
        <time>2000-01-01T04:57:01.000Z</time>
      </trkpt>
      <trkpt lat="45.13724" lon="2.6719">
        <ele>1523</ele>
        <time>2000-01-01T04:57:11.000Z</time>
      </trkpt>
      <trkpt lat="45.13717" lon="2.67194">
        <ele>1525</ele>
        <time>2000-01-01T04:57:21.000Z</time>
      </trkpt>
      <trkpt lat="45.1371" lon="2.67197">
        <ele>1526</ele>
        <time>2000-01-01T04:57:31.000Z</time>
      </trkpt>
      <trkpt lat="45.13703" lon="2.67199">
        <ele>1527</ele>
        <time>2000-01-01T04:57:41.000Z</time>
      </trkpt>
      <trkpt lat="45.13697" lon="2.672">
        <ele>1526</ele>
        <time>2000-01-01T04:57:51.000Z</time>
      </trkpt>
      <trkpt lat="45.13691" lon="2.67202">
        <ele>1526</ele>
        <time>2000-01-01T04:58:01.000Z</time>
      </trkpt>
      <trkpt lat="45.13685" lon="2.67204">
        <ele>1526</ele>
        <time>2000-01-01T04:58:11.000Z</time>
      </trkpt>
      <trkpt lat="45.13678" lon="2.67205">
        <ele>1530</ele>
        <time>2000-01-01T04:58:21.000Z</time>
      </trkpt>
      <trkpt lat="45.13672" lon="2.67207">
        <ele>1527</ele>
        <time>2000-01-01T04:58:31.000Z</time>
      </trkpt>
      <trkpt lat="45.13668" lon="2.67207">
        <ele>1527</ele>
        <time>2000-01-01T04:58:41.000Z</time>
      </trkpt>
      <trkpt lat="45.13664" lon="2.67208">
        <ele>1527</ele>
        <time>2000-01-01T04:58:51.000Z</time>
      </trkpt>
      <trkpt lat="45.13661" lon="2.67211">
        <ele>1528</ele>
        <time>2000-01-01T04:59:01.000Z</time>
      </trkpt>
      <trkpt lat="45.13657" lon="2.67214">
        <ele>1532</ele>
        <time>2000-01-01T04:59:11.000Z</time>
      </trkpt>
      <trkpt lat="45.13651" lon="2.67217">
        <ele>1529</ele>
        <time>2000-01-01T04:59:21.000Z</time>
      </trkpt>
      <trkpt lat="45.13644" lon="2.67217">
        <ele>1529</ele>
        <time>2000-01-01T04:59:31.000Z</time>
      </trkpt>
      <trkpt lat="45.13638" lon="2.67218">
        <ele>1529</ele>
        <time>2000-01-01T04:59:41.000Z</time>
      </trkpt>
      <trkpt lat="45.13633" lon="2.67219">
        <ele>1535</ele>
        <time>2000-01-01T04:59:51.000Z</time>
      </trkpt>
      <trkpt lat="45.13627" lon="2.67221">
        <ele>1529</ele>
        <time>2000-01-01T05:00:01.000Z</time>
      </trkpt>
      <trkpt lat="45.1362" lon="2.67225">
        <ele>1530</ele>
        <time>2000-01-01T05:00:11.000Z</time>
      </trkpt>
      <trkpt lat="45.13612" lon="2.6723">
        <ele>1538</ele>
        <time>2000-01-01T05:00:21.000Z</time>
      </trkpt>
      <trkpt lat="45.13606" lon="2.67236">
        <ele>1532</ele>
        <time>2000-01-01T05:00:31.000Z</time>
      </trkpt>
      <trkpt lat="45.136" lon="2.67241">
        <ele>1534</ele>
        <time>2000-01-01T05:00:41.000Z</time>
      </trkpt>
      <trkpt lat="45.13595" lon="2.67245">
        <ele>1543</ele>
        <time>2000-01-01T05:00:51.000Z</time>
      </trkpt>
      <trkpt lat="45.13589" lon="2.67249">
        <ele>1538</ele>
        <time>2000-01-01T05:01:01.000Z</time>
      </trkpt>
      <trkpt lat="45.13583" lon="2.67251">
        <ele>1540</ele>
        <time>2000-01-01T05:01:11.000Z</time>
      </trkpt>
      <trkpt lat="45.13578" lon="2.67254">
        <ele>1539</ele>
        <time>2000-01-01T05:01:21.000Z</time>
      </trkpt>
      <trkpt lat="45.13574" lon="2.67259">
        <ele>1547</ele>
        <time>2000-01-01T05:01:31.000Z</time>
      </trkpt>
      <trkpt lat="45.13569" lon="2.67261">
        <ele>1538</ele>
        <time>2000-01-01T05:01:41.000Z</time>
      </trkpt>
      <trkpt lat="45.13564" lon="2.67264">
        <ele>1537</ele>
        <time>2000-01-01T05:01:51.000Z</time>
      </trkpt>
      <trkpt lat="45.13557" lon="2.67266">
        <ele>1537</ele>
        <time>2000-01-01T05:02:01.000Z</time>
      </trkpt>
      <trkpt lat="45.1355" lon="2.6727">
        <ele>1547</ele>
        <time>2000-01-01T05:02:11.000Z</time>
      </trkpt>
      <trkpt lat="45.13543" lon="2.67271">
        <ele>1537</ele>
        <time>2000-01-01T05:02:21.000Z</time>
      </trkpt>
      <trkpt lat="45.13536" lon="2.67273">
        <ele>1537</ele>
        <time>2000-01-01T05:02:31.000Z</time>
      </trkpt>
      <trkpt lat="45.13529" lon="2.67276">
        <ele>1550</ele>
        <time>2000-01-01T05:02:41.000Z</time>
      </trkpt>
      <trkpt lat="45.13524" lon="2.67278">
        <ele>1537</ele>
        <time>2000-01-01T05:02:51.000Z</time>
      </trkpt>
      <trkpt lat="45.13516" lon="2.67276">
        <ele>1537</ele>
        <time>2000-01-01T05:03:01.000Z</time>
      </trkpt>
      <trkpt lat="45.1351" lon="2.67274">
        <ele>1552</ele>
        <time>2000-01-01T05:03:11.000Z</time>
      </trkpt>
      <trkpt lat="45.13506" lon="2.67271">
        <ele>1539</ele>
        <time>2000-01-01T05:03:21.000Z</time>
      </trkpt>
      <trkpt lat="45.135" lon="2.67268">
        <ele>1540</ele>
        <time>2000-01-01T05:03:31.000Z</time>
      </trkpt>
      <trkpt lat="45.13495" lon="2.67265">
        <ele>1541</ele>
        <time>2000-01-01T05:03:41.000Z</time>
      </trkpt>
      <trkpt lat="45.1349" lon="2.67261">
        <ele>1554</ele>
        <time>2000-01-01T05:03:51.000Z</time>
      </trkpt>
      <trkpt lat="45.1349" lon="2.6726">
        <ele>1541</ele>
        <time>2000-01-01T05:04:01.000Z</time>
      </trkpt>
      <trkpt lat="45.1349" lon="2.6726">
        <ele>1541</ele>
        <time>2000-01-01T05:04:11.000Z</time>
      </trkpt>
      <trkpt lat="45.13487" lon="2.67255">
        <ele>1541</ele>
        <time>2000-01-01T05:04:21.000Z</time>
      </trkpt>
      <trkpt lat="45.13482" lon="2.67249">
        <ele>1540</ele>
        <time>2000-01-01T05:04:31.000Z</time>
      </trkpt>
      <trkpt lat="45.13477" lon="2.67244">
        <ele>1539</ele>
        <time>2000-01-01T05:04:41.000Z</time>
      </trkpt>
      <trkpt lat="45.13473" lon="2.67241">
        <ele>1555</ele>
        <time>2000-01-01T05:04:51.000Z</time>
      </trkpt>
      <trkpt lat="45.13466" lon="2.67237">
        <ele>1538</ele>
        <time>2000-01-01T05:05:01.000Z</time>
      </trkpt>
      <trkpt lat="45.1346" lon="2.67233">
        <ele>1537</ele>
        <time>2000-01-01T05:05:11.000Z</time>
      </trkpt>
      <trkpt lat="45.13456" lon="2.6723">
        <ele>1537</ele>
        <time>2000-01-01T05:05:21.000Z</time>
      </trkpt>
      <trkpt lat="45.13448" lon="2.67227">
        <ele>1555</ele>
        <time>2000-01-01T05:05:31.000Z</time>
      </trkpt>
      <trkpt lat="45.13443" lon="2.67226">
        <ele>1537</ele>
        <time>2000-01-01T05:05:41.000Z</time>
      </trkpt>
      <trkpt lat="45.13438" lon="2.67223">
        <ele>1537</ele>
        <time>2000-01-01T05:05:51.000Z</time>
      </trkpt>
      <trkpt lat="45.13432" lon="2.6722">
        <ele>1537</ele>
        <time>2000-01-01T05:06:01.000Z</time>
      </trkpt>
      <trkpt lat="45.13427" lon="2.67217">
        <ele>1553</ele>
        <time>2000-01-01T05:06:11.000Z</time>
      </trkpt>
      <trkpt lat="45.13421" lon="2.67216">
        <ele>1537</ele>
        <time>2000-01-01T05:06:21.000Z</time>
      </trkpt>
      <trkpt lat="45.13415" lon="2.67215">
        <ele>1537</ele>
        <time>2000-01-01T05:06:31.000Z</time>
      </trkpt>
      <trkpt lat="45.13408" lon="2.67216">
        <ele>1537</ele>
        <time>2000-01-01T05:06:41.000Z</time>
      </trkpt>
      <trkpt lat="45.13402" lon="2.67217">
        <ele>1550</ele>
        <time>2000-01-01T05:06:51.000Z</time>
      </trkpt>
      <trkpt lat="45.13396" lon="2.6722">
        <ele>1538</ele>
        <time>2000-01-01T05:07:01.000Z</time>
      </trkpt>
      <trkpt lat="45.13391" lon="2.67221">
        <ele>1538</ele>
        <time>2000-01-01T05:07:11.000Z</time>
      </trkpt>
      <trkpt lat="45.13385" lon="2.67222">
        <ele>1537</ele>
        <time>2000-01-01T05:07:21.000Z</time>
      </trkpt>
      <trkpt lat="45.13378" lon="2.67222">
        <ele>1549</ele>
        <time>2000-01-01T05:07:31.000Z</time>
      </trkpt>
      <trkpt lat="45.13372" lon="2.67222">
        <ele>1537</ele>
        <time>2000-01-01T05:07:41.000Z</time>
      </trkpt>
      <trkpt lat="45.13366" lon="2.67223">
        <ele>1537</ele>
        <time>2000-01-01T05:07:51.000Z</time>
      </trkpt>
      <trkpt lat="45.13362" lon="2.67223">
        <ele>1537</ele>
        <time>2000-01-01T05:08:01.000Z</time>
      </trkpt>
      <trkpt lat="45.13357" lon="2.67224">
        <ele>1548</ele>
        <time>2000-01-01T05:08:11.000Z</time>
      </trkpt>
      <trkpt lat="45.13354" lon="2.6722">
        <ele>1537</ele>
        <time>2000-01-01T05:08:21.000Z</time>
      </trkpt>
      <trkpt lat="45.13354" lon="2.6722">
        <ele>1537</ele>
        <time>2000-01-01T05:08:31.000Z</time>
      </trkpt>
      <trkpt lat="45.13353" lon="2.67217">
        <ele>1536</ele>
        <time>2000-01-01T05:08:41.000Z</time>
      </trkpt>
      <trkpt lat="45.13351" lon="2.6721">
        <ele>1536</ele>
        <time>2000-01-01T05:08:51.000Z</time>
      </trkpt>
      <trkpt lat="45.1335" lon="2.67207">
        <ele>1535</ele>
        <time>2000-01-01T05:09:01.000Z</time>
      </trkpt>
      <trkpt lat="45.1335" lon="2.67207">
        <ele>1535</ele>
        <time>2000-01-01T05:09:11.000Z</time>
      </trkpt>
      <trkpt lat="45.1335" lon="2.67206">
        <ele>1535</ele>
        <time>2000-01-01T05:09:21.000Z</time>
      </trkpt>
      <trkpt lat="45.13348" lon="2.67202">
        <ele>1535</ele>
        <time>2000-01-01T05:09:31.000Z</time>
      </trkpt>
      <trkpt lat="45.13345" lon="2.672">
        <ele>1547</ele>
        <time>2000-01-01T05:09:41.000Z</time>
      </trkpt>
      <trkpt lat="45.13338" lon="2.67202">
        <ele>1535</ele>
        <time>2000-01-01T05:09:51.000Z</time>
      </trkpt>
      <trkpt lat="45.13331" lon="2.67206">
        <ele>1533</ele>
        <time>2000-01-01T05:10:01.000Z</time>
      </trkpt>
      <trkpt lat="45.13323" lon="2.6721">
        <ele>1545</ele>
        <time>2000-01-01T05:10:11.000Z</time>
      </trkpt>
      <trkpt lat="45.13316" lon="2.67212">
        <ele>1533</ele>
        <time>2000-01-01T05:10:21.000Z</time>
      </trkpt>
      <trkpt lat="45.13309" lon="2.67214">
        <ele>1533</ele>
        <time>2000-01-01T05:10:31.000Z</time>
      </trkpt>
      <trkpt lat="45.133" lon="2.67216">
        <ele>1543</ele>
        <time>2000-01-01T05:10:41.000Z</time>
      </trkpt>
      <trkpt lat="45.13294" lon="2.67219">
        <ele>1533</ele>
        <time>2000-01-01T05:10:51.000Z</time>
      </trkpt>
      <trkpt lat="45.13287" lon="2.67221">
        <ele>1533</ele>
        <time>2000-01-01T05:11:01.000Z</time>
      </trkpt>
      <trkpt lat="45.13283" lon="2.67222">
        <ele>1533</ele>
        <time>2000-01-01T05:11:11.000Z</time>
      </trkpt>
      <trkpt lat="45.13276" lon="2.67224">
        <ele>1541</ele>
        <time>2000-01-01T05:11:21.000Z</time>
      </trkpt>
      <trkpt lat="45.13268" lon="2.67225">
        <ele>1533</ele>
        <time>2000-01-01T05:11:31.000Z</time>
      </trkpt>
      <trkpt lat="45.13262" lon="2.67227">
        <ele>1533</ele>
        <time>2000-01-01T05:11:41.000Z</time>
      </trkpt>
      <trkpt lat="45.13256" lon="2.67227">
        <ele>1538</ele>
        <time>2000-01-01T05:11:51.000Z</time>
      </trkpt>
      <trkpt lat="45.1325" lon="2.67228">
        <ele>1533</ele>
        <time>2000-01-01T05:12:01.000Z</time>
      </trkpt>
      <trkpt lat="45.13244" lon="2.67231">
        <ele>1530</ele>
        <time>2000-01-01T05:12:11.000Z</time>
      </trkpt>
      <trkpt lat="45.13238" lon="2.67231">
        <ele>1529</ele>
        <time>2000-01-01T05:12:21.000Z</time>
      </trkpt>
      <trkpt lat="45.13233" lon="2.6723">
        <ele>1535</ele>
        <time>2000-01-01T05:12:31.000Z</time>
      </trkpt>
      <trkpt lat="45.13229" lon="2.67231">
        <ele>1529</ele>
        <time>2000-01-01T05:12:41.000Z</time>
      </trkpt>
      <trkpt lat="45.13225" lon="2.67233">
        <ele>1529</ele>
        <time>2000-01-01T05:12:51.000Z</time>
      </trkpt>
      <trkpt lat="45.13218" lon="2.67234">
        <ele>1528</ele>
        <time>2000-01-01T05:13:01.000Z</time>
      </trkpt>
      <trkpt lat="45.13211" lon="2.67235">
        <ele>1530</ele>
        <time>2000-01-01T05:13:11.000Z</time>
      </trkpt>
      <trkpt lat="45.13205" lon="2.67236">
        <ele>1528</ele>
        <time>2000-01-01T05:13:21.000Z</time>
      </trkpt>
      <trkpt lat="45.13199" lon="2.67236">
        <ele>1527</ele>
        <time>2000-01-01T05:13:31.000Z</time>
      </trkpt>
      <trkpt lat="45.1319" lon="2.67237">
        <ele>1527</ele>
        <time>2000-01-01T05:13:41.000Z</time>
      </trkpt>
      <trkpt lat="45.13185" lon="2.67237">
        <ele>1527</ele>
        <time>2000-01-01T05:13:51.000Z</time>
      </trkpt>
      <trkpt lat="45.1318" lon="2.67235">
        <ele>1527</ele>
        <time>2000-01-01T05:14:01.000Z</time>
      </trkpt>
      <trkpt lat="45.13175" lon="2.67233">
        <ele>1527</ele>
        <time>2000-01-01T05:14:11.000Z</time>
      </trkpt>
      <trkpt lat="45.13169" lon="2.67231">
        <ele>1524</ele>
        <time>2000-01-01T05:14:21.000Z</time>
      </trkpt>
      <trkpt lat="45.13162" lon="2.67229">
        <ele>1525</ele>
        <time>2000-01-01T05:14:31.000Z</time>
      </trkpt>
      <trkpt lat="45.13156" lon="2.67228">
        <ele>1525</ele>
        <time>2000-01-01T05:14:41.000Z</time>
      </trkpt>
      <trkpt lat="45.13149" lon="2.67227">
        <ele>1523</ele>
        <time>2000-01-01T05:14:51.000Z</time>
      </trkpt>
      <trkpt lat="45.13141" lon="2.67227">
        <ele>1524</ele>
        <time>2000-01-01T05:15:01.000Z</time>
      </trkpt>
      <trkpt lat="45.13135" lon="2.67227">
        <ele>1524</ele>
        <time>2000-01-01T05:15:11.000Z</time>
      </trkpt>
      <trkpt lat="45.13128" lon="2.67226">
        <ele>1522</ele>
        <time>2000-01-01T05:15:21.000Z</time>
      </trkpt>
      <trkpt lat="45.13123" lon="2.67225">
        <ele>1524</ele>
        <time>2000-01-01T05:15:31.000Z</time>
      </trkpt>
      <trkpt lat="45.13117" lon="2.67225">
        <ele>1524</ele>
        <time>2000-01-01T05:15:41.000Z</time>
      </trkpt>
      <trkpt lat="45.13112" lon="2.67225">
        <ele>1524</ele>
        <time>2000-01-01T05:15:51.000Z</time>
      </trkpt>
      <trkpt lat="45.13105" lon="2.67226">
        <ele>1522</ele>
        <time>2000-01-01T05:16:01.000Z</time>
      </trkpt>
      <trkpt lat="45.13099" lon="2.67226">
        <ele>1524</ele>
        <time>2000-01-01T05:16:11.000Z</time>
      </trkpt>
      <trkpt lat="45.13096" lon="2.67227">
        <ele>1525</ele>
        <time>2000-01-01T05:16:21.000Z</time>
      </trkpt>
      <trkpt lat="45.13091" lon="2.67226">
        <ele>1525</ele>
        <time>2000-01-01T05:16:31.000Z</time>
      </trkpt>
      <trkpt lat="45.13086" lon="2.67224">
        <ele>1523</ele>
        <time>2000-01-01T05:16:41.000Z</time>
      </trkpt>
      <trkpt lat="45.1308" lon="2.67224">
        <ele>1525</ele>
        <time>2000-01-01T05:16:51.000Z</time>
      </trkpt>
      <trkpt lat="45.13074" lon="2.67226">
        <ele>1526</ele>
        <time>2000-01-01T05:17:01.000Z</time>
      </trkpt>
      <trkpt lat="45.13068" lon="2.67227">
        <ele>1526</ele>
        <time>2000-01-01T05:17:11.000Z</time>
      </trkpt>
      <trkpt lat="45.13062" lon="2.67228">
        <ele>1524</ele>
        <time>2000-01-01T05:17:21.000Z</time>
      </trkpt>
      <trkpt lat="45.13055" lon="2.67229">
        <ele>1526</ele>
        <time>2000-01-01T05:17:31.000Z</time>
      </trkpt>
      <trkpt lat="45.13048" lon="2.6723">
        <ele>1526</ele>
        <time>2000-01-01T05:17:41.000Z</time>
      </trkpt>
      <trkpt lat="45.13043" lon="2.67231">
        <ele>1526</ele>
        <time>2000-01-01T05:17:51.000Z</time>
      </trkpt>
      <trkpt lat="45.13038" lon="2.67233">
        <ele>1527</ele>
        <time>2000-01-01T05:18:01.000Z</time>
      </trkpt>
      <trkpt lat="45.13033" lon="2.67234">
        <ele>1527</ele>
        <time>2000-01-01T05:18:11.000Z</time>
      </trkpt>
      <trkpt lat="45.13025" lon="2.67236">
        <ele>1528</ele>
        <time>2000-01-01T05:18:21.000Z</time>
      </trkpt>
      <trkpt lat="45.13018" lon="2.67236">
        <ele>1528</ele>
        <time>2000-01-01T05:18:31.000Z</time>
      </trkpt>
      <trkpt lat="45.13013" lon="2.67237">
        <ele>1529</ele>
        <time>2000-01-01T05:18:41.000Z</time>
      </trkpt>
      <trkpt lat="45.13006" lon="2.67239">
        <ele>1531</ele>
        <time>2000-01-01T05:18:51.000Z</time>
      </trkpt>
      <trkpt lat="45.13" lon="2.6724">
        <ele>1531</ele>
        <time>2000-01-01T05:19:01.000Z</time>
      </trkpt>
      <trkpt lat="45.12994" lon="2.67242">
        <ele>1531</ele>
        <time>2000-01-01T05:19:11.000Z</time>
      </trkpt>
      <trkpt lat="45.12988" lon="2.67244">
        <ele>1532</ele>
        <time>2000-01-01T05:19:21.000Z</time>
      </trkpt>
      <trkpt lat="45.12981" lon="2.67244">
        <ele>1532</ele>
        <time>2000-01-01T05:19:31.000Z</time>
      </trkpt>
      <trkpt lat="45.12976" lon="2.67247">
        <ele>1532</ele>
        <time>2000-01-01T05:19:41.000Z</time>
      </trkpt>
      <trkpt lat="45.1297" lon="2.67249">
        <ele>1537</ele>
        <time>2000-01-01T05:19:51.000Z</time>
      </trkpt>
      <trkpt lat="45.12963" lon="2.67251">
        <ele>1539</ele>
        <time>2000-01-01T05:20:01.000Z</time>
      </trkpt>
      <trkpt lat="45.12958" lon="2.67252">
        <ele>1539</ele>
        <time>2000-01-01T05:20:11.000Z</time>
      </trkpt>
      <trkpt lat="45.12953" lon="2.67254">
        <ele>1539</ele>
        <time>2000-01-01T05:20:21.000Z</time>
      </trkpt>
      <trkpt lat="45.12948" lon="2.67255">
        <ele>1541</ele>
        <time>2000-01-01T05:20:31.000Z</time>
      </trkpt>
      <trkpt lat="45.12943" lon="2.67257">
        <ele>1540</ele>
        <time>2000-01-01T05:20:41.000Z</time>
      </trkpt>
      <trkpt lat="45.12937" lon="2.67258">
        <ele>1540</ele>
        <time>2000-01-01T05:20:51.000Z</time>
      </trkpt>
      <trkpt lat="45.12932" lon="2.67259">
        <ele>1540</ele>
        <time>2000-01-01T05:21:01.000Z</time>
      </trkpt>
      <trkpt lat="45.12927" lon="2.67259">
        <ele>1544</ele>
        <time>2000-01-01T05:21:11.000Z</time>
      </trkpt>
      <trkpt lat="45.12922" lon="2.67259">
        <ele>1541</ele>
        <time>2000-01-01T05:21:21.000Z</time>
      </trkpt>
      <trkpt lat="45.12917" lon="2.67258">
        <ele>1541</ele>
        <time>2000-01-01T05:21:31.000Z</time>
      </trkpt>
      <trkpt lat="45.12911" lon="2.67259">
        <ele>1545</ele>
        <time>2000-01-01T05:21:41.000Z</time>
      </trkpt>
      <trkpt lat="45.12906" lon="2.6726">
        <ele>1546</ele>
        <time>2000-01-01T05:21:51.000Z</time>
      </trkpt>
      <trkpt lat="45.129" lon="2.67263">
        <ele>1548</ele>
        <time>2000-01-01T05:22:01.000Z</time>
      </trkpt>
      <trkpt lat="45.12895" lon="2.67267">
        <ele>1549</ele>
        <time>2000-01-01T05:22:11.000Z</time>
      </trkpt>
      <trkpt lat="45.12894" lon="2.67267">
        <ele>1549</ele>
        <time>2000-01-01T05:22:21.000Z</time>
      </trkpt>
      <trkpt lat="45.12889" lon="2.67269">
        <ele>1550</ele>
        <time>2000-01-01T05:22:31.000Z</time>
      </trkpt>
      <trkpt lat="45.12885" lon="2.67269">
        <ele>1549</ele>
        <time>2000-01-01T05:22:41.000Z</time>
      </trkpt>
      <trkpt lat="45.12881" lon="2.67269">
        <ele>1551</ele>
        <time>2000-01-01T05:22:51.000Z</time>
      </trkpt>
      <trkpt lat="45.12877" lon="2.67269">
        <ele>1552</ele>
        <time>2000-01-01T05:23:01.000Z</time>
      </trkpt>
      <trkpt lat="45.12871" lon="2.6727">
        <ele>1553</ele>
        <time>2000-01-01T05:23:11.000Z</time>
      </trkpt>
      <trkpt lat="45.12868" lon="2.6727">
        <ele>1553</ele>
        <time>2000-01-01T05:23:21.000Z</time>
      </trkpt>
      <trkpt lat="45.12864" lon="2.6727">
        <ele>1553</ele>
        <time>2000-01-01T05:23:31.000Z</time>
      </trkpt>
      <trkpt lat="45.12859" lon="2.6727">
        <ele>1554</ele>
        <time>2000-01-01T05:23:41.000Z</time>
      </trkpt>
      <trkpt lat="45.12854" lon="2.67269">
        <ele>1555</ele>
        <time>2000-01-01T05:23:51.000Z</time>
      </trkpt>
      <trkpt lat="45.12849" lon="2.67269">
        <ele>1555</ele>
        <time>2000-01-01T05:24:01.000Z</time>
      </trkpt>
      <trkpt lat="45.12845" lon="2.67268">
        <ele>1555</ele>
        <time>2000-01-01T05:24:11.000Z</time>
      </trkpt>
      <trkpt lat="45.1284" lon="2.67267">
        <ele>1557</ele>
        <time>2000-01-01T05:24:21.000Z</time>
      </trkpt>
      <trkpt lat="45.12836" lon="2.67266">
        <ele>1556</ele>
        <time>2000-01-01T05:24:31.000Z</time>
      </trkpt>
      <trkpt lat="45.12831" lon="2.67263">
        <ele>1565</ele>
        <time>2000-01-01T05:24:41.000Z</time>
      </trkpt>
      <trkpt lat="45.12827" lon="2.67261">
        <ele>1565</ele>
        <time>2000-01-01T05:24:51.000Z</time>
      </trkpt>
      <trkpt lat="45.12822" lon="2.67259">
        <ele>1561</ele>
        <time>2000-01-01T05:25:01.000Z</time>
      </trkpt>
      <trkpt lat="45.12817" lon="2.67256">
        <ele>1567</ele>
        <time>2000-01-01T05:25:11.000Z</time>
      </trkpt>
      <trkpt lat="45.12812" lon="2.67254">
        <ele>1569</ele>
        <time>2000-01-01T05:25:21.000Z</time>
      </trkpt>
      <trkpt lat="45.12808" lon="2.67251">
        <ele>1570</ele>
        <time>2000-01-01T05:25:31.000Z</time>
      </trkpt>
      <trkpt lat="45.12803" lon="2.67248">
        <ele>1565</ele>
        <time>2000-01-01T05:25:41.000Z</time>
      </trkpt>
      <trkpt lat="45.12799" lon="2.67245">
        <ele>1565</ele>
        <time>2000-01-01T05:25:51.000Z</time>
      </trkpt>
      <trkpt lat="45.12797" lon="2.67242">
        <ele>1566</ele>
        <time>2000-01-01T05:26:01.000Z</time>
      </trkpt>
      <trkpt lat="45.12793" lon="2.67238">
        <ele>1567</ele>
        <time>2000-01-01T05:26:11.000Z</time>
      </trkpt>
      <trkpt lat="45.1279" lon="2.67237">
        <ele>1567</ele>
        <time>2000-01-01T05:26:21.000Z</time>
      </trkpt>
      <trkpt lat="45.12787" lon="2.67234">
        <ele>1568</ele>
        <time>2000-01-01T05:26:31.000Z</time>
      </trkpt>
      <trkpt lat="45.12784" lon="2.67228">
        <ele>1568</ele>
        <time>2000-01-01T05:26:41.000Z</time>
      </trkpt>
      <trkpt lat="45.1278" lon="2.67223">
        <ele>1568</ele>
        <time>2000-01-01T05:26:51.000Z</time>
      </trkpt>
      <trkpt lat="45.12777" lon="2.67218">
        <ele>1568</ele>
        <time>2000-01-01T05:27:01.000Z</time>
      </trkpt>
      <trkpt lat="45.12773" lon="2.67214">
        <ele>1569</ele>
        <time>2000-01-01T05:27:11.000Z</time>
      </trkpt>
      <trkpt lat="45.12768" lon="2.6721">
        <ele>1569</ele>
        <time>2000-01-01T05:27:21.000Z</time>
      </trkpt>
      <trkpt lat="45.12764" lon="2.67205">
        <ele>1569</ele>
        <time>2000-01-01T05:27:31.000Z</time>
      </trkpt>
      <trkpt lat="45.12761" lon="2.672">
        <ele>1570</ele>
        <time>2000-01-01T05:27:41.000Z</time>
      </trkpt>
      <trkpt lat="45.12759" lon="2.67192">
        <ele>1570</ele>
        <time>2000-01-01T05:27:51.000Z</time>
      </trkpt>
      <trkpt lat="45.12756" lon="2.67185">
        <ele>1570</ele>
        <time>2000-01-01T05:28:01.000Z</time>
      </trkpt>
      <trkpt lat="45.12755" lon="2.6718">
        <ele>1572</ele>
        <time>2000-01-01T05:28:11.000Z</time>
      </trkpt>
      <trkpt lat="45.12755" lon="2.67174">
        <ele>1573</ele>
        <time>2000-01-01T05:28:21.000Z</time>
      </trkpt>
      <trkpt lat="45.12754" lon="2.67169">
        <ele>1575</ele>
        <time>2000-01-01T05:28:31.000Z</time>
      </trkpt>
      <trkpt lat="45.12752" lon="2.67165">
        <ele>1574</ele>
        <time>2000-01-01T05:28:41.000Z</time>
      </trkpt>
      <trkpt lat="45.12749" lon="2.67163">
        <ele>1579</ele>
        <time>2000-01-01T05:28:51.000Z</time>
      </trkpt>
      <trkpt lat="45.12745" lon="2.67158">
        <ele>1571</ele>
        <time>2000-01-01T05:29:01.000Z</time>
      </trkpt>
      <trkpt lat="45.12743" lon="2.6715">
        <ele>1583</ele>
        <time>2000-01-01T05:29:11.000Z</time>
      </trkpt>
      <trkpt lat="45.12742" lon="2.67145">
        <ele>1584</ele>
        <time>2000-01-01T05:29:21.000Z</time>
      </trkpt>
      <trkpt lat="45.1274" lon="2.67139">
        <ele>1585</ele>
        <time>2000-01-01T05:29:31.000Z</time>
      </trkpt>
      <trkpt lat="45.1274" lon="2.67131">
        <ele>1576</ele>
        <time>2000-01-01T05:29:41.000Z</time>
      </trkpt>
      <trkpt lat="45.12739" lon="2.67124">
        <ele>1584</ele>
        <time>2000-01-01T05:29:51.000Z</time>
      </trkpt>
      <trkpt lat="45.12738" lon="2.67117">
        <ele>1583</ele>
        <time>2000-01-01T05:30:01.000Z</time>
      </trkpt>
      <trkpt lat="45.12738" lon="2.6711">
        <ele>1582</ele>
        <time>2000-01-01T05:30:11.000Z</time>
      </trkpt>
      <trkpt lat="45.12736" lon="2.67103">
        <ele>1577</ele>
        <time>2000-01-01T05:30:21.000Z</time>
      </trkpt>
      <trkpt lat="45.12734" lon="2.67099">
        <ele>1580</ele>
        <time>2000-01-01T05:30:31.000Z</time>
      </trkpt>
      <trkpt lat="45.12732" lon="2.67094">
        <ele>1579</ele>
        <time>2000-01-01T05:30:41.000Z</time>
      </trkpt>
      <trkpt lat="45.12729" lon="2.6709">
        <ele>1580</ele>
        <time>2000-01-01T05:30:51.000Z</time>
      </trkpt>
      <trkpt lat="45.12726" lon="2.67086">
        <ele>1581</ele>
        <time>2000-01-01T05:31:01.000Z</time>
      </trkpt>
      <trkpt lat="45.12724" lon="2.67081">
        <ele>1577</ele>
        <time>2000-01-01T05:31:11.000Z</time>
      </trkpt>
      <trkpt lat="45.1272" lon="2.67076">
        <ele>1576</ele>
        <time>2000-01-01T05:31:21.000Z</time>
      </trkpt>
      <trkpt lat="45.12717" lon="2.6707">
        <ele>1576</ele>
        <time>2000-01-01T05:31:31.000Z</time>
      </trkpt>
      <trkpt lat="45.12712" lon="2.67064">
        <ele>1578</ele>
        <time>2000-01-01T05:31:41.000Z</time>
      </trkpt>
      <trkpt lat="45.1271" lon="2.67061">
        <ele>1582</ele>
        <time>2000-01-01T05:31:51.000Z</time>
      </trkpt>
      <trkpt lat="45.12707" lon="2.67056">
        <ele>1579</ele>
        <time>2000-01-01T05:32:01.000Z</time>
      </trkpt>
      <trkpt lat="45.12705" lon="2.67049">
        <ele>1578</ele>
        <time>2000-01-01T05:32:11.000Z</time>
      </trkpt>
      <trkpt lat="45.12702" lon="2.67042">
        <ele>1579</ele>
        <time>2000-01-01T05:32:21.000Z</time>
      </trkpt>
      <trkpt lat="45.12701" lon="2.67039">
        <ele>1579</ele>
        <time>2000-01-01T05:32:31.000Z</time>
      </trkpt>
      <trkpt lat="45.12697" lon="2.67033">
        <ele>1585</ele>
        <time>2000-01-01T05:32:41.000Z</time>
      </trkpt>
      <trkpt lat="45.12694" lon="2.67028">
        <ele>1579</ele>
        <time>2000-01-01T05:32:51.000Z</time>
      </trkpt>
      <trkpt lat="45.12691" lon="2.67023">
        <ele>1580</ele>
        <time>2000-01-01T05:33:01.000Z</time>
      </trkpt>
      <trkpt lat="45.12689" lon="2.67019">
        <ele>1581</ele>
        <time>2000-01-01T05:33:11.000Z</time>
      </trkpt>
      <trkpt lat="45.12686" lon="2.67014">
        <ele>1582</ele>
        <time>2000-01-01T05:33:21.000Z</time>
      </trkpt>
      <trkpt lat="45.12683" lon="2.6701">
        <ele>1588</ele>
        <time>2000-01-01T05:33:31.000Z</time>
      </trkpt>
      <trkpt lat="45.12681" lon="2.67006">
        <ele>1584</ele>
        <time>2000-01-01T05:33:41.000Z</time>
      </trkpt>
      <trkpt lat="45.12678" lon="2.67001">
        <ele>1585</ele>
        <time>2000-01-01T05:33:51.000Z</time>
      </trkpt>
      <trkpt lat="45.12678" lon="2.67001">
        <ele>1585</ele>
        <time>2000-01-01T05:34:01.000Z</time>
      </trkpt>
      <trkpt lat="45.12676" lon="2.66994">
        <ele>1578</ele>
        <time>2000-01-01T05:34:11.000Z</time>
      </trkpt>
      <trkpt lat="45.12671" lon="2.66985">
        <ele>1590</ele>
        <time>2000-01-01T05:34:21.000Z</time>
      </trkpt>
      <trkpt lat="45.12666" lon="2.66978">
        <ele>1586</ele>
        <time>2000-01-01T05:34:31.000Z</time>
      </trkpt>
      <trkpt lat="45.12663" lon="2.66974">
        <ele>1586</ele>
        <time>2000-01-01T05:34:41.000Z</time>
      </trkpt>
      <trkpt lat="45.12658" lon="2.6697">
        <ele>1585</ele>
        <time>2000-01-01T05:34:51.000Z</time>
      </trkpt>
      <trkpt lat="45.12652" lon="2.66965">
        <ele>1590</ele>
        <time>2000-01-01T05:35:01.000Z</time>
      </trkpt>
      <trkpt lat="45.12647" lon="2.66963">
        <ele>1584</ele>
        <time>2000-01-01T05:35:11.000Z</time>
      </trkpt>
      <trkpt lat="45.1264" lon="2.6696">
        <ele>1584</ele>
        <time>2000-01-01T05:35:21.000Z</time>
      </trkpt>
      <trkpt lat="45.12634" lon="2.66959">
        <ele>1584</ele>
        <time>2000-01-01T05:35:31.000Z</time>
      </trkpt>
      <trkpt lat="45.12626" lon="2.66957">
        <ele>1591</ele>
        <time>2000-01-01T05:35:41.000Z</time>
      </trkpt>
      <trkpt lat="45.12619" lon="2.66956">
        <ele>1585</ele>
        <time>2000-01-01T05:35:51.000Z</time>
      </trkpt>
      <trkpt lat="45.12612" lon="2.66957">
        <ele>1586</ele>
        <time>2000-01-01T05:36:01.000Z</time>
      </trkpt>
      <trkpt lat="45.12605" lon="2.66957">
        <ele>1594</ele>
        <time>2000-01-01T05:36:11.000Z</time>
      </trkpt>
      <trkpt lat="45.12597" lon="2.66959">
        <ele>1587</ele>
        <time>2000-01-01T05:36:21.000Z</time>
      </trkpt>
      <trkpt lat="45.12589" lon="2.6696">
        <ele>1588</ele>
        <time>2000-01-01T05:36:31.000Z</time>
      </trkpt>
      <trkpt lat="45.12583" lon="2.66961">
        <ele>1595</ele>
        <time>2000-01-01T05:36:41.000Z</time>
      </trkpt>
      <trkpt lat="45.12577" lon="2.66962">
        <ele>1593</ele>
        <time>2000-01-01T05:36:51.000Z</time>
      </trkpt>
      <trkpt lat="45.12572" lon="2.66963">
        <ele>1593</ele>
        <time>2000-01-01T05:37:01.000Z</time>
      </trkpt>
      <trkpt lat="45.12564" lon="2.66965">
        <ele>1593</ele>
        <time>2000-01-01T05:37:11.000Z</time>
      </trkpt>
      <trkpt lat="45.12556" lon="2.66966">
        <ele>1596</ele>
        <time>2000-01-01T05:37:21.000Z</time>
      </trkpt>
      <trkpt lat="45.12548" lon="2.66967">
        <ele>1593</ele>
        <time>2000-01-01T05:37:31.000Z</time>
      </trkpt>
      <trkpt lat="45.12536" lon="2.66969">
        <ele>1596</ele>
        <time>2000-01-01T05:37:41.000Z</time>
      </trkpt>
      <trkpt lat="45.1253" lon="2.66969">
        <ele>1594</ele>
        <time>2000-01-01T05:37:51.000Z</time>
      </trkpt>
      <trkpt lat="45.12524" lon="2.6697">
        <ele>1594</ele>
        <time>2000-01-01T05:38:01.000Z</time>
      </trkpt>
      <trkpt lat="45.12516" lon="2.6697">
        <ele>1597</ele>
        <time>2000-01-01T05:38:11.000Z</time>
      </trkpt>
      <trkpt lat="45.12511" lon="2.6697">
        <ele>1595</ele>
        <time>2000-01-01T05:38:21.000Z</time>
      </trkpt>
      <trkpt lat="45.12504" lon="2.66969">
        <ele>1595</ele>
        <time>2000-01-01T05:38:31.000Z</time>
      </trkpt>
      <trkpt lat="45.12499" lon="2.66969">
        <ele>1595</ele>
        <time>2000-01-01T05:38:41.000Z</time>
      </trkpt>
      <trkpt lat="45.12492" lon="2.66968">
        <ele>1597</ele>
        <time>2000-01-01T05:38:51.000Z</time>
      </trkpt>
      <trkpt lat="45.12486" lon="2.6697">
        <ele>1595</ele>
        <time>2000-01-01T05:39:01.000Z</time>
      </trkpt>
      <trkpt lat="45.12479" lon="2.66971">
        <ele>1595</ele>
        <time>2000-01-01T05:39:11.000Z</time>
      </trkpt>
      <trkpt lat="45.12479" lon="2.66971">
        <ele>1595</ele>
        <time>2000-01-01T05:39:21.000Z</time>
      </trkpt>
      <trkpt lat="45.12475" lon="2.66969">
        <ele>1594</ele>
        <time>2000-01-01T05:39:31.000Z</time>
      </trkpt>
      <trkpt lat="45.12468" lon="2.66967">
        <ele>1598</ele>
        <time>2000-01-01T05:39:41.000Z</time>
      </trkpt>
      <trkpt lat="45.12459" lon="2.66967">
        <ele>1594</ele>
        <time>2000-01-01T05:39:51.000Z</time>
      </trkpt>
      <trkpt lat="45.12451" lon="2.66967">
        <ele>1594</ele>
        <time>2000-01-01T05:40:01.000Z</time>
      </trkpt>
      <trkpt lat="45.12441" lon="2.6697">
        <ele>1598</ele>
        <time>2000-01-01T05:40:11.000Z</time>
      </trkpt>
      <trkpt lat="45.12436" lon="2.66971">
        <ele>1595</ele>
        <time>2000-01-01T05:40:21.000Z</time>
      </trkpt>
      <trkpt lat="45.1243" lon="2.66973">
        <ele>1595</ele>
        <time>2000-01-01T05:40:31.000Z</time>
      </trkpt>
      <trkpt lat="45.12423" lon="2.66973">
        <ele>1596</ele>
        <time>2000-01-01T05:40:41.000Z</time>
      </trkpt>
      <trkpt lat="45.12417" lon="2.66976">
        <ele>1599</ele>
        <time>2000-01-01T05:40:51.000Z</time>
      </trkpt>
      <trkpt lat="45.1241" lon="2.66978">
        <ele>1595</ele>
        <time>2000-01-01T05:41:01.000Z</time>
      </trkpt>
      <trkpt lat="45.12404" lon="2.66981">
        <ele>1595</ele>
        <time>2000-01-01T05:41:11.000Z</time>
      </trkpt>
      <trkpt lat="45.12398" lon="2.66986">
        <ele>1599</ele>
        <time>2000-01-01T05:41:21.000Z</time>
      </trkpt>
      <trkpt lat="45.12394" lon="2.66987">
        <ele>1595</ele>
        <time>2000-01-01T05:41:31.000Z</time>
      </trkpt>
      <trkpt lat="45.12388" lon="2.6699">
        <ele>1594</ele>
        <time>2000-01-01T05:41:41.000Z</time>
      </trkpt>
      <trkpt lat="45.12383" lon="2.66993">
        <ele>1594</ele>
        <time>2000-01-01T05:41:51.000Z</time>
      </trkpt>
      <trkpt lat="45.12379" lon="2.66994">
        <ele>1599</ele>
        <time>2000-01-01T05:42:01.000Z</time>
      </trkpt>
      <trkpt lat="45.12376" lon="2.66997">
        <ele>1594</ele>
        <time>2000-01-01T05:42:11.000Z</time>
      </trkpt>
      <trkpt lat="45.1237" lon="2.66996">
        <ele>1594</ele>
        <time>2000-01-01T05:42:21.000Z</time>
      </trkpt>
      <trkpt lat="45.12364" lon="2.66996">
        <ele>1594</ele>
        <time>2000-01-01T05:42:31.000Z</time>
      </trkpt>
      <trkpt lat="45.12357" lon="2.66994">
        <ele>1600</ele>
        <time>2000-01-01T05:42:41.000Z</time>
      </trkpt>
      <trkpt lat="45.12351" lon="2.66994">
        <ele>1595</ele>
        <time>2000-01-01T05:42:51.000Z</time>
      </trkpt>
      <trkpt lat="45.12345" lon="2.66995">
        <ele>1596</ele>
        <time>2000-01-01T05:43:01.000Z</time>
      </trkpt>
      <trkpt lat="45.1234" lon="2.66995">
        <ele>1597</ele>
        <time>2000-01-01T05:43:11.000Z</time>
      </trkpt>
      <trkpt lat="45.12334" lon="2.66994">
        <ele>1600</ele>
        <time>2000-01-01T05:43:21.000Z</time>
      </trkpt>
      <trkpt lat="45.1233" lon="2.66993">
        <ele>1598</ele>
        <time>2000-01-01T05:43:31.000Z</time>
      </trkpt>
      <trkpt lat="45.12325" lon="2.66991">
        <ele>1597</ele>
        <time>2000-01-01T05:43:41.000Z</time>
      </trkpt>
      <trkpt lat="45.12321" lon="2.66988">
        <ele>1596</ele>
        <time>2000-01-01T05:43:51.000Z</time>
      </trkpt>
      <trkpt lat="45.12315" lon="2.66986">
        <ele>1602</ele>
        <time>2000-01-01T05:44:01.000Z</time>
      </trkpt>
      <trkpt lat="45.1231" lon="2.66985">
        <ele>1594</ele>
        <time>2000-01-01T05:44:11.000Z</time>
      </trkpt>
      <trkpt lat="45.12303" lon="2.66982">
        <ele>1594</ele>
        <time>2000-01-01T05:44:21.000Z</time>
      </trkpt>
      <trkpt lat="45.12295" lon="2.66978">
        <ele>1603</ele>
        <time>2000-01-01T05:44:31.000Z</time>
      </trkpt>
      <trkpt lat="45.1229" lon="2.66977">
        <ele>1594</ele>
        <time>2000-01-01T05:44:41.000Z</time>
      </trkpt>
      <trkpt lat="45.12285" lon="2.66975">
        <ele>1594</ele>
        <time>2000-01-01T05:44:51.000Z</time>
      </trkpt>
      <trkpt lat="45.12279" lon="2.66971">
        <ele>1594</ele>
        <time>2000-01-01T05:45:01.000Z</time>
      </trkpt>
      <trkpt lat="45.12272" lon="2.66967">
        <ele>1604</ele>
        <time>2000-01-01T05:45:11.000Z</time>
      </trkpt>
      <trkpt lat="45.12266" lon="2.66964">
        <ele>1593</ele>
        <time>2000-01-01T05:45:21.000Z</time>
      </trkpt>
      <trkpt lat="45.12261" lon="2.66963">
        <ele>1593</ele>
        <time>2000-01-01T05:45:31.000Z</time>
      </trkpt>
      <trkpt lat="45.12256" lon="2.66959">
        <ele>1592</ele>
        <time>2000-01-01T05:45:41.000Z</time>
      </trkpt>
      <trkpt lat="45.12249" lon="2.66955">
        <ele>1604</ele>
        <time>2000-01-01T05:45:51.000Z</time>
      </trkpt>
      <trkpt lat="45.12244" lon="2.66954">
        <ele>1600</ele>
        <time>2000-01-01T05:46:01.000Z</time>
      </trkpt>
      <trkpt lat="45.12239" lon="2.66953">
        <ele>1600</ele>
        <time>2000-01-01T05:46:11.000Z</time>
      </trkpt>
      <trkpt lat="45.12236" lon="2.66953">
        <ele>1601</ele>
        <time>2000-01-01T05:46:21.000Z</time>
      </trkpt>
      <trkpt lat="45.12231" lon="2.66953">
        <ele>1601</ele>
        <time>2000-01-01T05:46:31.000Z</time>
      </trkpt>
      <trkpt lat="45.12226" lon="2.6695">
        <ele>1602</ele>
        <time>2000-01-01T05:46:41.000Z</time>
      </trkpt>
      <trkpt lat="45.1222" lon="2.66948">
        <ele>1601</ele>
        <time>2000-01-01T05:46:51.000Z</time>
      </trkpt>
      <trkpt lat="45.12215" lon="2.66946">
        <ele>1602</ele>
        <time>2000-01-01T05:47:01.000Z</time>
      </trkpt>
      <trkpt lat="45.12209" lon="2.66942">
        <ele>1602</ele>
        <time>2000-01-01T05:47:11.000Z</time>
      </trkpt>
      <trkpt lat="45.12205" lon="2.66941">
        <ele>1600</ele>
        <time>2000-01-01T05:47:21.000Z</time>
      </trkpt>
      <trkpt lat="45.12201" lon="2.66939">
        <ele>1602</ele>
        <time>2000-01-01T05:47:31.000Z</time>
      </trkpt>
      <trkpt lat="45.12196" lon="2.66934">
        <ele>1602</ele>
        <time>2000-01-01T05:47:41.000Z</time>
      </trkpt>
      <trkpt lat="45.12189" lon="2.6693">
        <ele>1602</ele>
        <time>2000-01-01T05:47:51.000Z</time>
      </trkpt>
      <trkpt lat="45.12183" lon="2.66926">
        <ele>1599</ele>
        <time>2000-01-01T05:48:01.000Z</time>
      </trkpt>
      <trkpt lat="45.12176" lon="2.66919">
        <ele>1601</ele>
        <time>2000-01-01T05:48:11.000Z</time>
      </trkpt>
      <trkpt lat="45.1217" lon="2.66914">
        <ele>1596</ele>
        <time>2000-01-01T05:48:21.000Z</time>
      </trkpt>
      <trkpt lat="45.12164" lon="2.66909">
        <ele>1599</ele>
        <time>2000-01-01T05:48:31.000Z</time>
      </trkpt>
      <trkpt lat="45.12158" lon="2.66903">
        <ele>1597</ele>
        <time>2000-01-01T05:48:41.000Z</time>
      </trkpt>
      <trkpt lat="45.12152" lon="2.66898">
        <ele>1596</ele>
        <time>2000-01-01T05:48:51.000Z</time>
      </trkpt>
      <trkpt lat="45.12148" lon="2.66892">
        <ele>1597</ele>
        <time>2000-01-01T05:49:01.000Z</time>
      </trkpt>
      <trkpt lat="45.12143" lon="2.66886">
        <ele>1594</ele>
        <time>2000-01-01T05:49:11.000Z</time>
      </trkpt>
      <trkpt lat="45.12139" lon="2.66884">
        <ele>1594</ele>
        <time>2000-01-01T05:49:21.000Z</time>
      </trkpt>
      <trkpt lat="45.12139" lon="2.66883">
        <ele>1594</ele>
        <time>2000-01-01T05:49:31.000Z</time>
      </trkpt>
      <trkpt lat="45.12138" lon="2.6688">
        <ele>1593</ele>
        <time>2000-01-01T05:49:41.000Z</time>
      </trkpt>
      <trkpt lat="45.12137" lon="2.66872">
        <ele>1597</ele>
        <time>2000-01-01T05:49:51.000Z</time>
      </trkpt>
      <trkpt lat="45.12133" lon="2.66865">
        <ele>1591</ele>
        <time>2000-01-01T05:50:01.000Z</time>
      </trkpt>
      <trkpt lat="45.12129" lon="2.6686">
        <ele>1591</ele>
        <time>2000-01-01T05:50:11.000Z</time>
      </trkpt>
      <trkpt lat="45.12125" lon="2.66856">
        <ele>1590</ele>
        <time>2000-01-01T05:50:21.000Z</time>
      </trkpt>
      <trkpt lat="45.12121" lon="2.66852">
        <ele>1593</ele>
        <time>2000-01-01T05:50:31.000Z</time>
      </trkpt>
      <trkpt lat="45.12116" lon="2.66848">
        <ele>1590</ele>
        <time>2000-01-01T05:50:41.000Z</time>
      </trkpt>
      <trkpt lat="45.12112" lon="2.66845">
        <ele>1590</ele>
        <time>2000-01-01T05:50:51.000Z</time>
      </trkpt>
      <trkpt lat="45.12107" lon="2.66842">
        <ele>1590</ele>
        <time>2000-01-01T05:51:01.000Z</time>
      </trkpt>
      <trkpt lat="45.12102" lon="2.66839">
        <ele>1593</ele>
        <time>2000-01-01T05:51:11.000Z</time>
      </trkpt>
      <trkpt lat="45.12098" lon="2.66836">
        <ele>1589</ele>
        <time>2000-01-01T05:51:21.000Z</time>
      </trkpt>
      <trkpt lat="45.12093" lon="2.66833">
        <ele>1580</ele>
        <time>2000-01-01T05:51:31.000Z</time>
      </trkpt>
      <trkpt lat="45.12089" lon="2.6683">
        <ele>1582</ele>
        <time>2000-01-01T05:51:41.000Z</time>
      </trkpt>
      <trkpt lat="45.12084" lon="2.66828">
        <ele>1582</ele>
        <time>2000-01-01T05:51:51.000Z</time>
      </trkpt>
      <trkpt lat="45.1208" lon="2.66825">
        <ele>1591.5</ele>
        <time>2000-01-01T05:52:01.000Z</time>
      </trkpt>
      <trkpt lat="45.12076" lon="2.66823">
        <ele>1581</ele>
        <time>2000-01-01T05:52:11.000Z</time>
      </trkpt>
      <trkpt lat="45.12072" lon="2.66819">
        <ele>1579</ele>
        <time>2000-01-01T05:52:21.000Z</time>
      </trkpt>
      <trkpt lat="45.12068" lon="2.66813">
        <ele>1577</ele>
        <time>2000-01-01T05:52:31.000Z</time>
      </trkpt>
      <trkpt lat="45.12067" lon="2.66811">
        <ele>1576</ele>
        <time>2000-01-01T05:52:41.000Z</time>
      </trkpt>
      <trkpt lat="45.12063" lon="2.66809">
        <ele>1590</ele>
        <time>2000-01-01T05:52:51.000Z</time>
      </trkpt>
      <trkpt lat="45.1206" lon="2.66808">
        <ele>1575</ele>
        <time>2000-01-01T05:53:01.000Z</time>
      </trkpt>
      <trkpt lat="45.12054" lon="2.6681">
        <ele>1575</ele>
        <time>2000-01-01T05:53:11.000Z</time>
      </trkpt>
      <trkpt lat="45.12049" lon="2.66815">
        <ele>1576</ele>
        <time>2000-01-01T05:53:21.000Z</time>
      </trkpt>
      <trkpt lat="45.12044" lon="2.66816">
        <ele>1588.5</ele>
        <time>2000-01-01T05:53:31.000Z</time>
      </trkpt>
      <trkpt lat="45.12039" lon="2.66818">
        <ele>1576</ele>
        <time>2000-01-01T05:53:41.000Z</time>
      </trkpt>
      <trkpt lat="45.12036" lon="2.66821">
        <ele>1576</ele>
        <time>2000-01-01T05:53:51.000Z</time>
      </trkpt>
      <trkpt lat="45.12033" lon="2.66824">
        <ele>1577</ele>
        <time>2000-01-01T05:54:01.000Z</time>
      </trkpt>
      <trkpt lat="45.12031" lon="2.66828">
        <ele>1578</ele>
        <time>2000-01-01T05:54:11.000Z</time>
      </trkpt>
      <trkpt lat="45.12027" lon="2.66831">
        <ele>1590.7</ele>
        <time>2000-01-01T05:54:21.000Z</time>
      </trkpt>
      <trkpt lat="45.12023" lon="2.66835">
        <ele>1597</ele>
        <time>2000-01-01T05:54:31.000Z</time>
      </trkpt>
      <trkpt lat="45.12019" lon="2.66837">
        <ele>1596</ele>
        <time>2000-01-01T05:54:41.000Z</time>
      </trkpt>
      <trkpt lat="45.12013" lon="2.66836">
        <ele>1594</ele>
        <time>2000-01-01T05:54:51.000Z</time>
      </trkpt>
      <trkpt lat="45.12009" lon="2.66836">
        <ele>1593</ele>
        <time>2000-01-01T05:55:01.000Z</time>
      </trkpt>
      <trkpt lat="45.12005" lon="2.66837">
        <ele>1592</ele>
        <time>2000-01-01T05:55:11.000Z</time>
      </trkpt>
      <trkpt lat="45.11999" lon="2.66836">
        <ele>1590</ele>
        <time>2000-01-01T05:55:21.000Z</time>
      </trkpt>
      <trkpt lat="45.11994" lon="2.66836">
        <ele>1593</ele>
        <time>2000-01-01T05:55:31.000Z</time>
      </trkpt>
      <trkpt lat="45.11988" lon="2.66836">
        <ele>1595</ele>
        <time>2000-01-01T05:55:41.000Z</time>
      </trkpt>
      <trkpt lat="45.11982" lon="2.66835">
        <ele>1599</ele>
        <time>2000-01-01T05:55:51.000Z</time>
      </trkpt>
      <trkpt lat="45.11978" lon="2.66832">
        <ele>1581</ele>
        <time>2000-01-01T05:56:01.000Z</time>
      </trkpt>
      <trkpt lat="45.11973" lon="2.6683">
        <ele>1581</ele>
        <time>2000-01-01T05:56:11.000Z</time>
      </trkpt>
      <trkpt lat="45.11968" lon="2.66831">
        <ele>1595</ele>
        <time>2000-01-01T05:56:21.000Z</time>
      </trkpt>
      <trkpt lat="45.11961" lon="2.6683">
        <ele>1580</ele>
        <time>2000-01-01T05:56:31.000Z</time>
      </trkpt>
      <trkpt lat="45.11957" lon="2.6683">
        <ele>1581</ele>
        <time>2000-01-01T05:56:41.000Z</time>
      </trkpt>
      <trkpt lat="45.11949" lon="2.6683">
        <ele>1582</ele>
        <time>2000-01-01T05:56:51.000Z</time>
      </trkpt>
      <trkpt lat="45.11944" lon="2.66829">
        <ele>1595</ele>
        <time>2000-01-01T05:57:01.000Z</time>
      </trkpt>
      <trkpt lat="45.11938" lon="2.66827">
        <ele>1583</ele>
        <time>2000-01-01T05:57:11.000Z</time>
      </trkpt>
      <trkpt lat="45.11933" lon="2.66824">
        <ele>1584</ele>
        <time>2000-01-01T05:57:21.000Z</time>
      </trkpt>
      <trkpt lat="45.11926" lon="2.66823">
        <ele>1586</ele>
        <time>2000-01-01T05:57:31.000Z</time>
      </trkpt>
      <trkpt lat="45.11918" lon="2.66821">
        <ele>1595</ele>
        <time>2000-01-01T05:57:41.000Z</time>
      </trkpt>
      <trkpt lat="45.11914" lon="2.66819">
        <ele>1589</ele>
        <time>2000-01-01T05:57:51.000Z</time>
      </trkpt>
      <trkpt lat="45.11909" lon="2.66819">
        <ele>1589</ele>
        <time>2000-01-01T05:58:01.000Z</time>
      </trkpt>
      <trkpt lat="45.11903" lon="2.66819">
        <ele>1588</ele>
        <time>2000-01-01T05:58:11.000Z</time>
      </trkpt>
      <trkpt lat="45.11898" lon="2.6682">
        <ele>1595</ele>
        <time>2000-01-01T05:58:21.000Z</time>
      </trkpt>
      <trkpt lat="45.11892" lon="2.66819">
        <ele>1587</ele>
        <time>2000-01-01T05:58:31.000Z</time>
      </trkpt>
      <trkpt lat="45.11884" lon="2.66818">
        <ele>1587</ele>
        <time>2000-01-01T05:58:41.000Z</time>
      </trkpt>
      <trkpt lat="45.11879" lon="2.66819">
        <ele>1597</ele>
        <time>2000-01-01T05:58:51.000Z</time>
      </trkpt>
      <trkpt lat="45.11873" lon="2.66817">
        <ele>1588</ele>
        <time>2000-01-01T05:59:01.000Z</time>
      </trkpt>
      <trkpt lat="45.1187" lon="2.66818">
        <ele>1588</ele>
        <time>2000-01-01T05:59:11.000Z</time>
      </trkpt>
      <trkpt lat="45.11862" lon="2.66817">
        <ele>1590</ele>
        <time>2000-01-01T05:59:21.000Z</time>
      </trkpt>
      <trkpt lat="45.11857" lon="2.66818">
        <ele>1599</ele>
        <time>2000-01-01T05:59:31.000Z</time>
      </trkpt>
      <trkpt lat="45.1185" lon="2.66818">
        <ele>1593</ele>
        <time>2000-01-01T05:59:41.000Z</time>
      </trkpt>
      <trkpt lat="45.11845" lon="2.66816">
        <ele>1594</ele>
        <time>2000-01-01T05:59:51.000Z</time>
      </trkpt>
      <trkpt lat="45.11838" lon="2.66816">
        <ele>1602</ele>
        <time>2000-01-01T06:00:01.000Z</time>
      </trkpt>
      <trkpt lat="45.11832" lon="2.66814">
        <ele>1598</ele>
        <time>2000-01-01T06:00:11.000Z</time>
      </trkpt>
      <trkpt lat="45.11826" lon="2.66813">
        <ele>1598</ele>
        <time>2000-01-01T06:00:21.000Z</time>
      </trkpt>
      <trkpt lat="45.11826" lon="2.66813">
        <ele>1598</ele>
        <time>2000-01-01T06:00:31.000Z</time>
      </trkpt>
      <trkpt lat="45.11826" lon="2.66813">
        <ele>1598</ele>
        <time>2000-01-01T06:00:41.000Z</time>
      </trkpt>
      <trkpt lat="45.11822" lon="2.66809">
        <ele>1596</ele>
        <time>2000-01-01T06:00:51.000Z</time>
      </trkpt>
      <trkpt lat="45.11818" lon="2.66806">
        <ele>1603</ele>
        <time>2000-01-01T06:01:01.000Z</time>
      </trkpt>
      <trkpt lat="45.11812" lon="2.66805">
        <ele>1594</ele>
        <time>2000-01-01T06:01:11.000Z</time>
      </trkpt>
      <trkpt lat="45.11806" lon="2.66804">
        <ele>1593</ele>
        <time>2000-01-01T06:01:21.000Z</time>
      </trkpt>
      <trkpt lat="45.11802" lon="2.66803">
        <ele>1593</ele>
        <time>2000-01-01T06:01:31.000Z</time>
      </trkpt>
      <trkpt lat="45.11796" lon="2.66802">
        <ele>1603</ele>
        <time>2000-01-01T06:01:41.000Z</time>
      </trkpt>
      <trkpt lat="45.11789" lon="2.66802">
        <ele>1593</ele>
        <time>2000-01-01T06:01:51.000Z</time>
      </trkpt>
      <trkpt lat="45.11783" lon="2.66801">
        <ele>1593</ele>
        <time>2000-01-01T06:02:01.000Z</time>
      </trkpt>
      <trkpt lat="45.11777" lon="2.66798">
        <ele>1593</ele>
        <time>2000-01-01T06:02:11.000Z</time>
      </trkpt>
      <trkpt lat="45.11771" lon="2.66793">
        <ele>1607</ele>
        <time>2000-01-01T06:02:21.000Z</time>
      </trkpt>
      <trkpt lat="45.11767" lon="2.6679">
        <ele>1591</ele>
        <time>2000-01-01T06:02:31.000Z</time>
      </trkpt>
      <trkpt lat="45.11763" lon="2.66788">
        <ele>1591</ele>
        <time>2000-01-01T06:02:41.000Z</time>
      </trkpt>
      <trkpt lat="45.11758" lon="2.66787">
        <ele>1591</ele>
        <time>2000-01-01T06:02:51.000Z</time>
      </trkpt>
      <trkpt lat="45.11753" lon="2.66787">
        <ele>1607.5</ele>
        <time>2000-01-01T06:03:01.000Z</time>
      </trkpt>
      <trkpt lat="45.11747" lon="2.66791">
        <ele>1584</ele>
        <time>2000-01-01T06:03:11.000Z</time>
      </trkpt>
      <trkpt lat="45.11743" lon="2.66797">
        <ele>1585</ele>
        <time>2000-01-01T06:03:21.000Z</time>
      </trkpt>
      <trkpt lat="45.11741" lon="2.66802">
        <ele>1586</ele>
        <time>2000-01-01T06:03:31.000Z</time>
      </trkpt>
      <trkpt lat="45.11739" lon="2.6681">
        <ele>1608</ele>
        <time>2000-01-01T06:03:41.000Z</time>
      </trkpt>
      <trkpt lat="45.11736" lon="2.66819">
        <ele>1591</ele>
        <time>2000-01-01T06:03:51.000Z</time>
      </trkpt>
      <trkpt lat="45.11734" lon="2.66828">
        <ele>1593</ele>
        <time>2000-01-01T06:04:01.000Z</time>
      </trkpt>
      <trkpt lat="45.11732" lon="2.66835">
        <ele>1603</ele>
        <time>2000-01-01T06:04:11.000Z</time>
      </trkpt>
      <trkpt lat="45.11729" lon="2.66842">
        <ele>1609</ele>
        <time>2000-01-01T06:04:21.000Z</time>
      </trkpt>
      <trkpt lat="45.11726" lon="2.66849">
        <ele>1602</ele>
        <time>2000-01-01T06:04:31.000Z</time>
      </trkpt>
      <trkpt lat="45.11723" lon="2.66858">
        <ele>1601</ele>
        <time>2000-01-01T06:04:41.000Z</time>
      </trkpt>
      <trkpt lat="45.11721" lon="2.66867">
        <ele>1609</ele>
        <time>2000-01-01T06:04:51.000Z</time>
      </trkpt>
      <trkpt lat="45.11717" lon="2.66875">
        <ele>1602</ele>
        <time>2000-01-01T06:05:01.000Z</time>
      </trkpt>
      <trkpt lat="45.11713" lon="2.66881">
        <ele>1602</ele>
        <time>2000-01-01T06:05:11.000Z</time>
      </trkpt>
      <trkpt lat="45.11709" lon="2.66888">
        <ele>1602</ele>
        <time>2000-01-01T06:05:21.000Z</time>
      </trkpt>
      <trkpt lat="45.11709" lon="2.66888">
        <ele>1602</ele>
        <time>2000-01-01T06:05:31.000Z</time>
      </trkpt>
      <trkpt lat="45.11706" lon="2.66894">
        <ele>1609</ele>
        <time>2000-01-01T06:05:41.000Z</time>
      </trkpt>
      <trkpt lat="45.11703" lon="2.66901">
        <ele>1601</ele>
        <time>2000-01-01T06:05:51.000Z</time>
      </trkpt>
      <trkpt lat="45.117" lon="2.66908">
        <ele>1601</ele>
        <time>2000-01-01T06:06:01.000Z</time>
      </trkpt>
      <trkpt lat="45.11696" lon="2.66916">
        <ele>1600</ele>
        <time>2000-01-01T06:06:11.000Z</time>
      </trkpt>
      <trkpt lat="45.11692" lon="2.66924">
        <ele>1605</ele>
        <time>2000-01-01T06:06:21.000Z</time>
      </trkpt>
      <trkpt lat="45.1169" lon="2.66933">
        <ele>1609</ele>
        <time>2000-01-01T06:06:31.000Z</time>
      </trkpt>
      <trkpt lat="45.11687" lon="2.6694">
        <ele>1610</ele>
        <time>2000-01-01T06:06:41.000Z</time>
      </trkpt>
      <trkpt lat="45.11684" lon="2.66947">
        <ele>1611</ele>
        <time>2000-01-01T06:06:51.000Z</time>
      </trkpt>
      <trkpt lat="45.1168" lon="2.66955">
        <ele>1605</ele>
        <time>2000-01-01T06:07:01.000Z</time>
      </trkpt>
      <trkpt lat="45.11675" lon="2.66964">
        <ele>1612</ele>
        <time>2000-01-01T06:07:11.000Z</time>
      </trkpt>
      <trkpt lat="45.1167" lon="2.66973">
        <ele>1612</ele>
        <time>2000-01-01T06:07:21.000Z</time>
      </trkpt>
      <trkpt lat="45.11666" lon="2.66981">
        <ele>1607</ele>
        <time>2000-01-01T06:07:31.000Z</time>
      </trkpt>
      <trkpt lat="45.11662" lon="2.66989">
        <ele>1598</ele>
        <time>2000-01-01T06:07:41.000Z</time>
      </trkpt>
      <trkpt lat="45.11659" lon="2.66996">
        <ele>1600</ele>
        <time>2000-01-01T06:07:51.000Z</time>
      </trkpt>
      <trkpt lat="45.11655" lon="2.67003">
        <ele>1602</ele>
        <time>2000-01-01T06:08:01.000Z</time>
      </trkpt>
      <trkpt lat="45.11651" lon="2.67008">
        <ele>1609</ele>
        <time>2000-01-01T06:08:11.000Z</time>
      </trkpt>
      <trkpt lat="45.11648" lon="2.67012">
        <ele>1599</ele>
        <time>2000-01-01T06:08:21.000Z</time>
      </trkpt>
      <trkpt lat="45.11645" lon="2.67016">
        <ele>1598</ele>
        <time>2000-01-01T06:08:31.000Z</time>
      </trkpt>
      <trkpt lat="45.11642" lon="2.6702">
        <ele>1597</ele>
        <time>2000-01-01T06:08:41.000Z</time>
      </trkpt>
      <trkpt lat="45.11639" lon="2.67027">
        <ele>1596</ele>
        <time>2000-01-01T06:08:51.000Z</time>
      </trkpt>
      <trkpt lat="45.11636" lon="2.67037">
        <ele>1610</ele>
        <time>2000-01-01T06:09:01.000Z</time>
      </trkpt>
      <trkpt lat="45.11632" lon="2.67046">
        <ele>1595</ele>
        <time>2000-01-01T06:09:11.000Z</time>
      </trkpt>
      <trkpt lat="45.1163" lon="2.67053">
        <ele>1595</ele>
        <time>2000-01-01T06:09:21.000Z</time>
      </trkpt>
      <trkpt lat="45.11627" lon="2.67057">
        <ele>1595</ele>
        <time>2000-01-01T06:09:31.000Z</time>
      </trkpt>
      <trkpt lat="45.11624" lon="2.67063">
        <ele>1610.5</ele>
        <time>2000-01-01T06:09:41.000Z</time>
      </trkpt>
      <trkpt lat="45.1162" lon="2.67067">
        <ele>1595</ele>
        <time>2000-01-01T06:09:51.000Z</time>
      </trkpt>
      <trkpt lat="45.11617" lon="2.6707">
        <ele>1594</ele>
        <time>2000-01-01T06:10:01.000Z</time>
      </trkpt>
      <trkpt lat="45.11612" lon="2.67074">
        <ele>1594</ele>
        <time>2000-01-01T06:10:11.000Z</time>
      </trkpt>
      <trkpt lat="45.11612" lon="2.67075">
        <ele>1594</ele>
        <time>2000-01-01T06:10:21.000Z</time>
      </trkpt>
      <trkpt lat="45.1161" lon="2.67075">
        <ele>1594</ele>
        <time>2000-01-01T06:10:31.000Z</time>
      </trkpt>
      <trkpt lat="45.11606" lon="2.6708">
        <ele>1609.2</ele>
        <time>2000-01-01T06:10:41.000Z</time>
      </trkpt>
      <trkpt lat="45.11602" lon="2.67084">
        <ele>1589</ele>
        <time>2000-01-01T06:10:51.000Z</time>
      </trkpt>
      <trkpt lat="45.11598" lon="2.67088">
        <ele>1589</ele>
        <time>2000-01-01T06:11:01.000Z</time>
      </trkpt>
      <trkpt lat="45.11594" lon="2.67091">
        <ele>1590</ele>
        <time>2000-01-01T06:11:11.000Z</time>
      </trkpt>
      <trkpt lat="45.11589" lon="2.67095">
        <ele>1608</ele>
        <time>2000-01-01T06:11:21.000Z</time>
      </trkpt>
      <trkpt lat="45.11586" lon="2.671">
        <ele>1588</ele>
        <time>2000-01-01T06:11:31.000Z</time>
      </trkpt>
      <trkpt lat="45.11581" lon="2.67104">
        <ele>1583</ele>
        <time>2000-01-01T06:11:41.000Z</time>
      </trkpt>
      <trkpt lat="45.11577" lon="2.67108">
        <ele>1581</ele>
        <time>2000-01-01T06:11:51.000Z</time>
      </trkpt>
      <trkpt lat="45.11572" lon="2.67111">
        <ele>1608</ele>
        <time>2000-01-01T06:12:01.000Z</time>
      </trkpt>
      <trkpt lat="45.11568" lon="2.67114">
        <ele>1579</ele>
        <time>2000-01-01T06:12:11.000Z</time>
      </trkpt>
      <trkpt lat="45.11563" lon="2.67117">
        <ele>1578</ele>
        <time>2000-01-01T06:12:21.000Z</time>
      </trkpt>
      <trkpt lat="45.11559" lon="2.67119">
        <ele>1578</ele>
        <time>2000-01-01T06:12:31.000Z</time>
      </trkpt>
      <trkpt lat="45.11554" lon="2.67123">
        <ele>1608</ele>
        <time>2000-01-01T06:12:41.000Z</time>
      </trkpt>
      <trkpt lat="45.1155" lon="2.67125">
        <ele>1576</ele>
        <time>2000-01-01T06:12:51.000Z</time>
      </trkpt>
      <trkpt lat="45.11546" lon="2.67123">
        <ele>1576</ele>
        <time>2000-01-01T06:13:01.000Z</time>
      </trkpt>
      <trkpt lat="45.11541" lon="2.67122">
        <ele>1576</ele>
        <time>2000-01-01T06:13:11.000Z</time>
      </trkpt>
      <trkpt lat="45.11537" lon="2.67123">
        <ele>1576</ele>
        <time>2000-01-01T06:13:21.000Z</time>
      </trkpt>
      <trkpt lat="45.11534" lon="2.67125">
        <ele>1605</ele>
        <time>2000-01-01T06:13:31.000Z</time>
      </trkpt>
      <trkpt lat="45.1153" lon="2.67129">
        <ele>1575</ele>
        <time>2000-01-01T06:13:41.000Z</time>
      </trkpt>
      <trkpt lat="45.11523" lon="2.67135">
        <ele>1575</ele>
        <time>2000-01-01T06:13:51.000Z</time>
      </trkpt>
      <trkpt lat="45.1152" lon="2.67138">
        <ele>1574</ele>
        <time>2000-01-01T06:14:01.000Z</time>
      </trkpt>
      <trkpt lat="45.11516" lon="2.6714">
        <ele>1598</ele>
        <time>2000-01-01T06:14:11.000Z</time>
      </trkpt>
      <trkpt lat="45.1151" lon="2.67139">
        <ele>1574</ele>
        <time>2000-01-01T06:14:21.000Z</time>
      </trkpt>
      <trkpt lat="45.11506" lon="2.67135">
        <ele>1574</ele>
        <time>2000-01-01T06:14:31.000Z</time>
      </trkpt>
      <trkpt lat="45.11502" lon="2.67133">
        <ele>1574</ele>
        <time>2000-01-01T06:14:41.000Z</time>
      </trkpt>
      <trkpt lat="45.11499" lon="2.67133">
        <ele>1570</ele>
        <time>2000-01-01T06:14:51.000Z</time>
      </trkpt>
      <trkpt lat="45.11494" lon="2.67133">
        <ele>1596</ele>
        <time>2000-01-01T06:15:01.000Z</time>
      </trkpt>
      <trkpt lat="45.11489" lon="2.67136">
        <ele>1570</ele>
        <time>2000-01-01T06:15:11.000Z</time>
      </trkpt>
      <trkpt lat="45.11484" lon="2.67141">
        <ele>1570</ele>
        <time>2000-01-01T06:15:21.000Z</time>
      </trkpt>
      <trkpt lat="45.11481" lon="2.67144">
        <ele>1570</ele>
        <time>2000-01-01T06:15:31.000Z</time>
      </trkpt>
      <trkpt lat="45.11478" lon="2.67146">
        <ele>1591</ele>
        <time>2000-01-01T06:15:41.000Z</time>
      </trkpt>
      <trkpt lat="45.11474" lon="2.67147">
        <ele>1570</ele>
        <time>2000-01-01T06:15:51.000Z</time>
      </trkpt>
      <trkpt lat="45.11469" lon="2.67147">
        <ele>1570</ele>
        <time>2000-01-01T06:16:01.000Z</time>
      </trkpt>
      <trkpt lat="45.11468" lon="2.6715">
        <ele>1570</ele>
        <time>2000-01-01T06:16:11.000Z</time>
      </trkpt>
      <trkpt lat="45.11468" lon="2.67151">
        <ele>1570</ele>
        <time>2000-01-01T06:16:21.000Z</time>
      </trkpt>
      <trkpt lat="45.11464" lon="2.67153">
        <ele>1570</ele>
        <time>2000-01-01T06:16:31.000Z</time>
      </trkpt>
      <trkpt lat="45.11462" lon="2.67153">
        <ele>1571</ele>
        <time>2000-01-01T06:16:41.000Z</time>
      </trkpt>
      <trkpt lat="45.11457" lon="2.67155">
        <ele>1591</ele>
        <time>2000-01-01T06:16:51.000Z</time>
      </trkpt>
      <trkpt lat="45.11453" lon="2.67156">
        <ele>1571</ele>
        <time>2000-01-01T06:17:01.000Z</time>
      </trkpt>
      <trkpt lat="45.11448" lon="2.67158">
        <ele>1571</ele>
        <time>2000-01-01T06:17:11.000Z</time>
      </trkpt>
      <trkpt lat="45.11444" lon="2.6716">
        <ele>1572</ele>
        <time>2000-01-01T06:17:21.000Z</time>
      </trkpt>
      <trkpt lat="45.1144" lon="2.67162">
        <ele>1573</ele>
        <time>2000-01-01T06:17:31.000Z</time>
      </trkpt>
      <trkpt lat="45.11435" lon="2.67163">
        <ele>1591</ele>
        <time>2000-01-01T06:17:41.000Z</time>
      </trkpt>
      <trkpt lat="45.11431" lon="2.67165">
        <ele>1574</ele>
        <time>2000-01-01T06:17:51.000Z</time>
      </trkpt>
      <trkpt lat="45.11426" lon="2.67165">
        <ele>1576</ele>
        <time>2000-01-01T06:18:01.000Z</time>
      </trkpt>
      <trkpt lat="45.11427" lon="2.6716">
        <ele>1575</ele>
        <time>2000-01-01T06:18:11.000Z</time>
      </trkpt>
      <trkpt lat="45.1143" lon="2.67154">
        <ele>1573</ele>
        <time>2000-01-01T06:18:21.000Z</time>
      </trkpt>
      <trkpt lat="45.11434" lon="2.67148">
        <ele>1588</ele>
        <time>2000-01-01T06:18:31.000Z</time>
      </trkpt>
      <trkpt lat="45.11441" lon="2.67142">
        <ele>1570</ele>
        <time>2000-01-01T06:18:41.000Z</time>
      </trkpt>
      <trkpt lat="45.11445" lon="2.67138">
        <ele>1570</ele>
        <time>2000-01-01T06:18:51.000Z</time>
      </trkpt>
      <trkpt lat="45.11449" lon="2.67135">
        <ele>1569</ele>
        <time>2000-01-01T06:19:01.000Z</time>
      </trkpt>
      <trkpt lat="45.11455" lon="2.67129">
        <ele>1585</ele>
        <time>2000-01-01T06:19:11.000Z</time>
      </trkpt>
      <trkpt lat="45.11459" lon="2.67125">
        <ele>1569</ele>
        <time>2000-01-01T06:19:21.000Z</time>
      </trkpt>
      <trkpt lat="45.11465" lon="2.67119">
        <ele>1569</ele>
        <time>2000-01-01T06:19:31.000Z</time>
      </trkpt>
      <trkpt lat="45.1147" lon="2.67115">
        <ele>1569</ele>
        <time>2000-01-01T06:19:41.000Z</time>
      </trkpt>
      <trkpt lat="45.11475" lon="2.67109">
        <ele>1582</ele>
        <time>2000-01-01T06:19:51.000Z</time>
      </trkpt>
      <trkpt lat="45.11479" lon="2.67105">
        <ele>1569</ele>
        <time>2000-01-01T06:20:01.000Z</time>
      </trkpt>
      <trkpt lat="45.11482" lon="2.67101">
        <ele>1569</ele>
        <time>2000-01-01T06:20:11.000Z</time>
      </trkpt>
      <trkpt lat="45.11487" lon="2.67096">
        <ele>1570</ele>
        <time>2000-01-01T06:20:21.000Z</time>
      </trkpt>
      <trkpt lat="45.11491" lon="2.67091">
        <ele>1579</ele>
        <time>2000-01-01T06:20:31.000Z</time>
      </trkpt>
      <trkpt lat="45.11495" lon="2.67084">
        <ele>1571</ele>
        <time>2000-01-01T06:20:41.000Z</time>
      </trkpt>
      <trkpt lat="45.115" lon="2.67078">
        <ele>1572</ele>
        <time>2000-01-01T06:20:51.000Z</time>
      </trkpt>
      <trkpt lat="45.11505" lon="2.67071">
        <ele>1575</ele>
        <time>2000-01-01T06:21:01.000Z</time>
      </trkpt>
      <trkpt lat="45.11509" lon="2.67065">
        <ele>1571</ele>
        <time>2000-01-01T06:21:11.000Z</time>
      </trkpt>
      <trkpt lat="45.11513" lon="2.6706">
        <ele>1570</ele>
        <time>2000-01-01T06:21:21.000Z</time>
      </trkpt>
      <trkpt lat="45.11517" lon="2.67052">
        <ele>1570</ele>
        <time>2000-01-01T06:21:31.000Z</time>
      </trkpt>
      <trkpt lat="45.11521" lon="2.67046">
        <ele>1573</ele>
        <time>2000-01-01T06:21:41.000Z</time>
      </trkpt>
      <trkpt lat="45.11525" lon="2.6704">
        <ele>1569</ele>
        <time>2000-01-01T06:21:51.000Z</time>
      </trkpt>
      <trkpt lat="45.11529" lon="2.67033">
        <ele>1568</ele>
        <time>2000-01-01T06:22:01.000Z</time>
      </trkpt>
      <trkpt lat="45.11532" lon="2.67029">
        <ele>1568</ele>
        <time>2000-01-01T06:22:11.000Z</time>
      </trkpt>
      <trkpt lat="45.11534" lon="2.67026">
        <ele>1569</ele>
        <time>2000-01-01T06:22:21.000Z</time>
      </trkpt>
      <trkpt lat="45.11537" lon="2.67022">
        <ele>1568</ele>
        <time>2000-01-01T06:22:31.000Z</time>
      </trkpt>
      <trkpt lat="45.1154" lon="2.67016">
        <ele>1568</ele>
        <time>2000-01-01T06:22:41.000Z</time>
      </trkpt>
      <trkpt lat="45.11543" lon="2.6701">
        <ele>1568</ele>
        <time>2000-01-01T06:22:51.000Z</time>
      </trkpt>
      <trkpt lat="45.11547" lon="2.67004">
        <ele>1566</ele>
        <time>2000-01-01T06:23:01.000Z</time>
      </trkpt>
      <trkpt lat="45.1155" lon="2.66997">
        <ele>1555</ele>
        <time>2000-01-01T06:23:11.000Z</time>
      </trkpt>
      <trkpt lat="45.11554" lon="2.6699">
        <ele>1556</ele>
        <time>2000-01-01T06:23:21.000Z</time>
      </trkpt>
      <trkpt lat="45.11557" lon="2.66984">
        <ele>1556</ele>
        <time>2000-01-01T06:23:31.000Z</time>
      </trkpt>
      <trkpt lat="45.11561" lon="2.66978">
        <ele>1564</ele>
        <time>2000-01-01T06:23:41.000Z</time>
      </trkpt>
      <trkpt lat="45.11564" lon="2.66971">
        <ele>1555</ele>
        <time>2000-01-01T06:23:51.000Z</time>
      </trkpt>
      <trkpt lat="45.11567" lon="2.66965">
        <ele>1554</ele>
        <time>2000-01-01T06:24:01.000Z</time>
      </trkpt>
      <trkpt lat="45.1157" lon="2.66958">
        <ele>1553</ele>
        <time>2000-01-01T06:24:11.000Z</time>
      </trkpt>
      <trkpt lat="45.11571" lon="2.66954">
        <ele>1560</ele>
        <time>2000-01-01T06:24:21.000Z</time>
      </trkpt>
      <trkpt lat="45.11574" lon="2.66947">
        <ele>1552</ele>
        <time>2000-01-01T06:24:31.000Z</time>
      </trkpt>
      <trkpt lat="45.11577" lon="2.6694">
        <ele>1551</ele>
        <time>2000-01-01T06:24:41.000Z</time>
      </trkpt>
      <trkpt lat="45.11579" lon="2.66933">
        <ele>1551</ele>
        <time>2000-01-01T06:24:51.000Z</time>
      </trkpt>
      <trkpt lat="45.11581" lon="2.66927">
        <ele>1557</ele>
        <time>2000-01-01T06:25:01.000Z</time>
      </trkpt>
      <trkpt lat="45.11584" lon="2.6692">
        <ele>1556</ele>
        <time>2000-01-01T06:25:11.000Z</time>
      </trkpt>
      <trkpt lat="45.11586" lon="2.66913">
        <ele>1553</ele>
        <time>2000-01-01T06:25:21.000Z</time>
      </trkpt>
      <trkpt lat="45.11589" lon="2.66907">
        <ele>1555</ele>
        <time>2000-01-01T06:25:31.000Z</time>
      </trkpt>
      <trkpt lat="45.11592" lon="2.669">
        <ele>1554</ele>
        <time>2000-01-01T06:25:41.000Z</time>
      </trkpt>
      <trkpt lat="45.11595" lon="2.66892">
        <ele>1556</ele>
        <time>2000-01-01T06:25:51.000Z</time>
      </trkpt>
      <trkpt lat="45.11598" lon="2.66886">
        <ele>1557</ele>
        <time>2000-01-01T06:26:01.000Z</time>
      </trkpt>
      <trkpt lat="45.11599" lon="2.6688">
        <ele>1556</ele>
        <time>2000-01-01T06:26:11.000Z</time>
      </trkpt>
      <trkpt lat="45.11589" lon="2.66888">
        <ele>1551</ele>
        <time>2000-01-01T06:26:21.000Z</time>
      </trkpt>
      <trkpt lat="45.11585" lon="2.6689">
        <ele>1555</ele>
        <time>2000-01-01T06:26:31.000Z</time>
      </trkpt>
      <trkpt lat="45.11581" lon="2.66894">
        <ele>1537</ele>
        <time>2000-01-01T06:26:41.000Z</time>
      </trkpt>
      <trkpt lat="45.11576" lon="2.66897">
        <ele>1538</ele>
        <time>2000-01-01T06:26:51.000Z</time>
      </trkpt>
      <trkpt lat="45.11572" lon="2.66901">
        <ele>1547</ele>
        <time>2000-01-01T06:27:01.000Z</time>
      </trkpt>
      <trkpt lat="45.11568" lon="2.66904">
        <ele>1538</ele>
        <time>2000-01-01T06:27:11.000Z</time>
      </trkpt>
      <trkpt lat="45.11566" lon="2.66906">
        <ele>1538</ele>
        <time>2000-01-01T06:27:21.000Z</time>
      </trkpt>
      <trkpt lat="45.11562" lon="2.66911">
        <ele>1537</ele>
        <time>2000-01-01T06:27:31.000Z</time>
      </trkpt>
      <trkpt lat="45.1156" lon="2.66913">
        <ele>1536</ele>
        <time>2000-01-01T06:27:41.000Z</time>
      </trkpt>
      <trkpt lat="45.11558" lon="2.66915">
        <ele>1536</ele>
        <time>2000-01-01T06:27:51.000Z</time>
      </trkpt>
      <trkpt lat="45.11553" lon="2.66917">
        <ele>1542</ele>
        <time>2000-01-01T06:28:01.000Z</time>
      </trkpt>
      <trkpt lat="45.11549" lon="2.6692">
        <ele>1546</ele>
        <time>2000-01-01T06:28:11.000Z</time>
      </trkpt>
      <trkpt lat="45.11545" lon="2.66923">
        <ele>1545</ele>
        <time>2000-01-01T06:28:21.000Z</time>
      </trkpt>
      <trkpt lat="45.11543" lon="2.66924">
        <ele>1545</ele>
        <time>2000-01-01T06:28:31.000Z</time>
      </trkpt>
      <trkpt lat="45.11538" lon="2.66926">
        <ele>1544</ele>
        <time>2000-01-01T06:28:41.000Z</time>
      </trkpt>
      <trkpt lat="45.11534" lon="2.66926">
        <ele>1538</ele>
        <time>2000-01-01T06:28:51.000Z</time>
      </trkpt>
      <trkpt lat="45.11529" lon="2.66927">
        <ele>1541</ele>
        <time>2000-01-01T06:29:01.000Z</time>
      </trkpt>
      <trkpt lat="45.11527" lon="2.66928">
        <ele>1541</ele>
        <time>2000-01-01T06:29:11.000Z</time>
      </trkpt>
      <trkpt lat="45.11523" lon="2.6693">
        <ele>1540</ele>
        <time>2000-01-01T06:29:21.000Z</time>
      </trkpt>
      <trkpt lat="45.11519" lon="2.66932">
        <ele>1539</ele>
        <time>2000-01-01T06:29:31.000Z</time>
      </trkpt>
      <trkpt lat="45.11515" lon="2.66934">
        <ele>1534</ele>
        <time>2000-01-01T06:29:41.000Z</time>
      </trkpt>
      <trkpt lat="45.11513" lon="2.66935">
        <ele>1538</ele>
        <time>2000-01-01T06:29:51.000Z</time>
      </trkpt>
      <trkpt lat="45.11509" lon="2.66938">
        <ele>1538</ele>
        <time>2000-01-01T06:30:01.000Z</time>
      </trkpt>
      <trkpt lat="45.11508" lon="2.66941">
        <ele>1539</ele>
        <time>2000-01-01T06:30:11.000Z</time>
      </trkpt>
      <trkpt lat="45.11504" lon="2.66943">
        <ele>1539</ele>
        <time>2000-01-01T06:30:21.000Z</time>
      </trkpt>
      <trkpt lat="45.11499" lon="2.66942">
        <ele>1523</ele>
        <time>2000-01-01T06:30:31.000Z</time>
      </trkpt>
      <trkpt lat="45.11495" lon="2.66942">
        <ele>1531</ele>
        <time>2000-01-01T06:30:41.000Z</time>
      </trkpt>
      <trkpt lat="45.1149" lon="2.66943">
        <ele>1523</ele>
        <time>2000-01-01T06:30:51.000Z</time>
      </trkpt>
      <trkpt lat="45.11484" lon="2.66944">
        <ele>1523</ele>
        <time>2000-01-01T06:31:01.000Z</time>
      </trkpt>
      <trkpt lat="45.11479" lon="2.66947">
        <ele>1523</ele>
        <time>2000-01-01T06:31:11.000Z</time>
      </trkpt>
      <trkpt lat="45.11474" lon="2.6695">
        <ele>1527</ele>
        <time>2000-01-01T06:31:21.000Z</time>
      </trkpt>
      <trkpt lat="45.11472" lon="2.66952">
        <ele>1522</ele>
        <time>2000-01-01T06:31:31.000Z</time>
      </trkpt>
      <trkpt lat="45.11467" lon="2.66955">
        <ele>1522</ele>
        <time>2000-01-01T06:31:41.000Z</time>
      </trkpt>
      <trkpt lat="45.11464" lon="2.66954">
        <ele>1522</ele>
        <time>2000-01-01T06:31:51.000Z</time>
      </trkpt>
      <trkpt lat="45.11459" lon="2.66955">
        <ele>1521</ele>
        <time>2000-01-01T06:32:01.000Z</time>
      </trkpt>
      <trkpt lat="45.11454" lon="2.66957">
        <ele>1520</ele>
        <time>2000-01-01T06:32:11.000Z</time>
      </trkpt>
      <trkpt lat="45.11451" lon="2.66959">
        <ele>1521</ele>
        <time>2000-01-01T06:32:21.000Z</time>
      </trkpt>
      <trkpt lat="45.11445" lon="2.66961">
        <ele>1520</ele>
        <time>2000-01-01T06:32:31.000Z</time>
      </trkpt>
      <trkpt lat="45.11439" lon="2.66963">
        <ele>1520</ele>
        <time>2000-01-01T06:32:41.000Z</time>
      </trkpt>
      <trkpt lat="45.11435" lon="2.66968">
        <ele>1518</ele>
        <time>2000-01-01T06:32:51.000Z</time>
      </trkpt>
      <trkpt lat="45.1143" lon="2.66969">
        <ele>1520</ele>
        <time>2000-01-01T06:33:01.000Z</time>
      </trkpt>
      <trkpt lat="45.11426" lon="2.66971">
        <ele>1520</ele>
        <time>2000-01-01T06:33:11.000Z</time>
      </trkpt>
      <trkpt lat="45.11422" lon="2.66972">
        <ele>1520</ele>
        <time>2000-01-01T06:33:21.000Z</time>
      </trkpt>
      <trkpt lat="45.11417" lon="2.66975">
        <ele>1520</ele>
        <time>2000-01-01T06:33:31.000Z</time>
      </trkpt>
      <trkpt lat="45.11413" lon="2.66975">
        <ele>1516</ele>
        <time>2000-01-01T06:33:41.000Z</time>
      </trkpt>
      <trkpt lat="45.11408" lon="2.66977">
        <ele>1511</ele>
        <time>2000-01-01T06:33:51.000Z</time>
      </trkpt>
      <trkpt lat="45.11404" lon="2.66977">
        <ele>1510</ele>
        <time>2000-01-01T06:34:01.000Z</time>
      </trkpt>
      <trkpt lat="45.11399" lon="2.66979">
        <ele>1510</ele>
        <time>2000-01-01T06:34:11.000Z</time>
      </trkpt>
      <trkpt lat="45.11395" lon="2.66981">
        <ele>1510</ele>
        <time>2000-01-01T06:34:21.000Z</time>
      </trkpt>
      <trkpt lat="45.11391" lon="2.66982">
        <ele>1512</ele>
        <time>2000-01-01T06:34:31.000Z</time>
      </trkpt>
      <trkpt lat="45.11387" lon="2.66983">
        <ele>1509</ele>
        <time>2000-01-01T06:34:41.000Z</time>
      </trkpt>
      <trkpt lat="45.11383" lon="2.66985">
        <ele>1509</ele>
        <time>2000-01-01T06:34:51.000Z</time>
      </trkpt>
      <trkpt lat="45.11379" lon="2.66985">
        <ele>1508</ele>
        <time>2000-01-01T06:35:01.000Z</time>
      </trkpt>
      <trkpt lat="45.11374" lon="2.66988">
        <ele>1508</ele>
        <time>2000-01-01T06:35:11.000Z</time>
      </trkpt>
      <trkpt lat="45.1137" lon="2.66988">
        <ele>1510</ele>
        <time>2000-01-01T06:35:21.000Z</time>
      </trkpt>
      <trkpt lat="45.11364" lon="2.66987">
        <ele>1507</ele>
        <time>2000-01-01T06:35:31.000Z</time>
      </trkpt>
      <trkpt lat="45.11359" lon="2.66984">
        <ele>1507</ele>
        <time>2000-01-01T06:35:41.000Z</time>
      </trkpt>
      <trkpt lat="45.11352" lon="2.66984">
        <ele>1507</ele>
        <time>2000-01-01T06:35:51.000Z</time>
      </trkpt>
      <trkpt lat="45.11349" lon="2.66983">
        <ele>1507</ele>
        <time>2000-01-01T06:36:01.000Z</time>
      </trkpt>
      <trkpt lat="45.11347" lon="2.66982">
        <ele>1507</ele>
        <time>2000-01-01T06:36:11.000Z</time>
      </trkpt>
      <trkpt lat="45.11342" lon="2.66982">
        <ele>1507</ele>
        <time>2000-01-01T06:36:21.000Z</time>
      </trkpt>
      <trkpt lat="45.1134" lon="2.66983">
        <ele>1507</ele>
        <time>2000-01-01T06:36:31.000Z</time>
      </trkpt>
      <trkpt lat="45.11338" lon="2.66984">
        <ele>1508</ele>
        <time>2000-01-01T06:36:41.000Z</time>
      </trkpt>
      <trkpt lat="45.11336" lon="2.66982">
        <ele>1507</ele>
        <time>2000-01-01T06:36:51.000Z</time>
      </trkpt>
      <trkpt lat="45.11334" lon="2.66983">
        <ele>1508</ele>
        <time>2000-01-01T06:37:01.000Z</time>
      </trkpt>
      <trkpt lat="45.11332" lon="2.66983">
        <ele>1503</ele>
        <time>2000-01-01T06:37:11.000Z</time>
      </trkpt>
      <trkpt lat="45.11328" lon="2.66982">
        <ele>1504</ele>
        <time>2000-01-01T06:37:21.000Z</time>
      </trkpt>
      <trkpt lat="45.11323" lon="2.66981">
        <ele>1502</ele>
        <time>2000-01-01T06:37:31.000Z</time>
      </trkpt>
      <trkpt lat="45.11318" lon="2.6698">
        <ele>1501</ele>
        <time>2000-01-01T06:37:41.000Z</time>
      </trkpt>
      <trkpt lat="45.11313" lon="2.6698">
        <ele>1500</ele>
        <time>2000-01-01T06:37:51.000Z</time>
      </trkpt>
      <trkpt lat="45.11306" lon="2.66981">
        <ele>1504</ele>
        <time>2000-01-01T06:38:01.000Z</time>
      </trkpt>
      <trkpt lat="45.11302" lon="2.66983">
        <ele>1499</ele>
        <time>2000-01-01T06:38:11.000Z</time>
      </trkpt>
      <trkpt lat="45.11299" lon="2.66986">
        <ele>1499</ele>
        <time>2000-01-01T06:38:21.000Z</time>
      </trkpt>
      <trkpt lat="45.11296" lon="2.66988">
        <ele>1499</ele>
        <time>2000-01-01T06:38:31.000Z</time>
      </trkpt>
      <trkpt lat="45.11293" lon="2.66992">
        <ele>1499</ele>
        <time>2000-01-01T06:38:41.000Z</time>
      </trkpt>
      <trkpt lat="45.11292" lon="2.66993">
        <ele>1499</ele>
        <time>2000-01-01T06:38:51.000Z</time>
      </trkpt>
      <trkpt lat="45.11288" lon="2.66996">
        <ele>1504</ele>
        <time>2000-01-01T06:39:01.000Z</time>
      </trkpt>
      <trkpt lat="45.11283" lon="2.66998">
        <ele>1499</ele>
        <time>2000-01-01T06:39:11.000Z</time>
      </trkpt>
      <trkpt lat="45.1128" lon="2.66999">
        <ele>1499</ele>
        <time>2000-01-01T06:39:21.000Z</time>
      </trkpt>
      <trkpt lat="45.11275" lon="2.67001">
        <ele>1515</ele>
        <time>2000-01-01T06:39:31.000Z</time>
      </trkpt>
      <trkpt lat="45.11272" lon="2.67006">
        <ele>1515</ele>
        <time>2000-01-01T06:39:41.000Z</time>
      </trkpt>
      <trkpt lat="45.11268" lon="2.67008">
        <ele>1504</ele>
        <time>2000-01-01T06:39:51.000Z</time>
      </trkpt>
      <trkpt lat="45.11264" lon="2.6701">
        <ele>1513</ele>
        <time>2000-01-01T06:40:01.000Z</time>
      </trkpt>
      <trkpt lat="45.11262" lon="2.67011">
        <ele>1513</ele>
        <time>2000-01-01T06:40:11.000Z</time>
      </trkpt>
      <trkpt lat="45.1126" lon="2.67012">
        <ele>1513</ele>
        <time>2000-01-01T06:40:21.000Z</time>
      </trkpt>
      <trkpt lat="45.11256" lon="2.67011">
        <ele>1511</ele>
        <time>2000-01-01T06:40:31.000Z</time>
      </trkpt>
      <trkpt lat="45.11254" lon="2.67011">
        <ele>1511</ele>
        <time>2000-01-01T06:40:41.000Z</time>
      </trkpt>
      <trkpt lat="45.11252" lon="2.67009">
        <ele>1510</ele>
        <time>2000-01-01T06:40:51.000Z</time>
      </trkpt>
      <trkpt lat="45.11248" lon="2.6701">
        <ele>1504</ele>
        <time>2000-01-01T06:41:01.000Z</time>
      </trkpt>
      <trkpt lat="45.11243" lon="2.6701">
        <ele>1510</ele>
        <time>2000-01-01T06:41:11.000Z</time>
      </trkpt>
      <trkpt lat="45.11241" lon="2.6701">
        <ele>1510</ele>
        <time>2000-01-01T06:41:21.000Z</time>
      </trkpt>
      <trkpt lat="45.1124" lon="2.67008">
        <ele>1510</ele>
        <time>2000-01-01T06:41:31.000Z</time>
      </trkpt>
      <trkpt lat="45.11236" lon="2.67005">
        <ele>1510</ele>
        <time>2000-01-01T06:41:41.000Z</time>
      </trkpt>
      <trkpt lat="45.11231" lon="2.67001">
        <ele>1511</ele>
        <time>2000-01-01T06:41:51.000Z</time>
      </trkpt>
      <trkpt lat="45.11227" lon="2.67">
        <ele>1504</ele>
        <time>2000-01-01T06:42:01.000Z</time>
      </trkpt>
      <trkpt lat="45.11223" lon="2.66997">
        <ele>1494</ele>
        <time>2000-01-01T06:42:11.000Z</time>
      </trkpt>
      <trkpt lat="45.11218" lon="2.66993">
        <ele>1493</ele>
        <time>2000-01-01T06:42:21.000Z</time>
      </trkpt>
      <trkpt lat="45.11213" lon="2.6699">
        <ele>1492</ele>
        <time>2000-01-01T06:42:31.000Z</time>
      </trkpt>
      <trkpt lat="45.11208" lon="2.66986">
        <ele>1503</ele>
        <time>2000-01-01T06:42:41.000Z</time>
      </trkpt>
      <trkpt lat="45.11205" lon="2.66986">
        <ele>1491</ele>
        <time>2000-01-01T06:42:51.000Z</time>
      </trkpt>
      <trkpt lat="45.11202" lon="2.66985">
        <ele>1491</ele>
        <time>2000-01-01T06:43:01.000Z</time>
      </trkpt>
      <trkpt lat="45.11198" lon="2.66987">
        <ele>1492</ele>
        <time>2000-01-01T06:43:11.000Z</time>
      </trkpt>
      <trkpt lat="45.11194" lon="2.66989">
        <ele>1492</ele>
        <time>2000-01-01T06:43:21.000Z</time>
      </trkpt>
      <trkpt lat="45.11191" lon="2.6699">
        <ele>1493</ele>
        <time>2000-01-01T06:43:31.000Z</time>
      </trkpt>
      <trkpt lat="45.11187" lon="2.66992">
        <ele>1503</ele>
        <time>2000-01-01T06:43:41.000Z</time>
      </trkpt>
      <trkpt lat="45.11182" lon="2.66991">
        <ele>1494</ele>
        <time>2000-01-01T06:43:51.000Z</time>
      </trkpt>
      <trkpt lat="45.11177" lon="2.66992">
        <ele>1496</ele>
        <time>2000-01-01T06:44:01.000Z</time>
      </trkpt>
      <trkpt lat="45.11171" lon="2.66993">
        <ele>1497</ele>
        <time>2000-01-01T06:44:11.000Z</time>
      </trkpt>
      <trkpt lat="45.11166" lon="2.66993">
        <ele>1503.5</ele>
        <time>2000-01-01T06:44:21.000Z</time>
      </trkpt>
      <trkpt lat="45.11161" lon="2.66994">
        <ele>1495</ele>
        <time>2000-01-01T06:44:31.000Z</time>
      </trkpt>
      <trkpt lat="45.11156" lon="2.66994">
        <ele>1492</ele>
        <time>2000-01-01T06:44:41.000Z</time>
      </trkpt>
      <trkpt lat="45.11153" lon="2.66993">
        <ele>1490</ele>
        <time>2000-01-01T06:44:51.000Z</time>
      </trkpt>
      <trkpt lat="45.11147" lon="2.66992">
        <ele>1501.7</ele>
        <time>2000-01-01T06:45:01.000Z</time>
      </trkpt>
      <trkpt lat="45.11141" lon="2.66993">
        <ele>1486</ele>
        <time>2000-01-01T06:45:11.000Z</time>
      </trkpt>
      <trkpt lat="45.11135" lon="2.66994">
        <ele>1484</ele>
        <time>2000-01-01T06:45:21.000Z</time>
      </trkpt>
      <trkpt lat="45.11131" lon="2.66997">
        <ele>1483</ele>
        <time>2000-01-01T06:45:31.000Z</time>
      </trkpt>
      <trkpt lat="45.11127" lon="2.66996">
        <ele>1500</ele>
        <time>2000-01-01T06:45:41.000Z</time>
      </trkpt>
      <trkpt lat="45.11121" lon="2.66997">
        <ele>1482</ele>
        <time>2000-01-01T06:45:51.000Z</time>
      </trkpt>
      <trkpt lat="45.11116" lon="2.66998">
        <ele>1482</ele>
        <time>2000-01-01T06:46:01.000Z</time>
      </trkpt>
      <trkpt lat="45.1111" lon="2.67002">
        <ele>1502</ele>
        <time>2000-01-01T06:46:11.000Z</time>
      </trkpt>
      <trkpt lat="45.11107" lon="2.67005">
        <ele>1497</ele>
        <time>2000-01-01T06:46:21.000Z</time>
      </trkpt>
      <trkpt lat="45.11103" lon="2.67007">
        <ele>1500</ele>
        <time>2000-01-01T06:46:31.000Z</time>
      </trkpt>
      <trkpt lat="45.11098" lon="2.67009">
        <ele>1499</ele>
        <time>2000-01-01T06:46:41.000Z</time>
      </trkpt>
      <trkpt lat="45.11094" lon="2.67011">
        <ele>1498</ele>
        <time>2000-01-01T06:46:51.000Z</time>
      </trkpt>
      <trkpt lat="45.11089" lon="2.67012">
        <ele>1497</ele>
        <time>2000-01-01T06:47:01.000Z</time>
      </trkpt>
      <trkpt lat="45.11086" lon="2.67011">
        <ele>1497</ele>
        <time>2000-01-01T06:47:11.000Z</time>
      </trkpt>
      <trkpt lat="45.11082" lon="2.6701">
        <ele>1490</ele>
        <time>2000-01-01T06:47:21.000Z</time>
      </trkpt>
      <trkpt lat="45.11077" lon="2.6701">
        <ele>1490</ele>
        <time>2000-01-01T06:47:31.000Z</time>
      </trkpt>
      <trkpt lat="45.11072" lon="2.67013">
        <ele>1492</ele>
        <time>2000-01-01T06:47:41.000Z</time>
      </trkpt>
      <trkpt lat="45.11067" lon="2.67012">
        <ele>1496</ele>
        <time>2000-01-01T06:47:51.000Z</time>
      </trkpt>
      <trkpt lat="45.11062" lon="2.67014">
        <ele>1493</ele>
        <time>2000-01-01T06:48:01.000Z</time>
      </trkpt>
      <trkpt lat="45.11057" lon="2.67016">
        <ele>1493</ele>
        <time>2000-01-01T06:48:11.000Z</time>
      </trkpt>
      <trkpt lat="45.11056" lon="2.67021">
        <ele>1494</ele>
        <time>2000-01-01T06:48:21.000Z</time>
      </trkpt>
      <trkpt lat="45.11053" lon="2.67019">
        <ele>1493</ele>
        <time>2000-01-01T06:48:31.000Z</time>
      </trkpt>
      <trkpt lat="45.11047" lon="2.67018">
        <ele>1495</ele>
        <time>2000-01-01T06:48:41.000Z</time>
      </trkpt>
      <trkpt lat="45.11042" lon="2.67018">
        <ele>1492</ele>
        <time>2000-01-01T06:48:51.000Z</time>
      </trkpt>
      <trkpt lat="45.11038" lon="2.67021">
        <ele>1493</ele>
        <time>2000-01-01T06:49:01.000Z</time>
      </trkpt>
      <trkpt lat="45.11033" lon="2.67022">
        <ele>1492</ele>
        <time>2000-01-01T06:49:11.000Z</time>
      </trkpt>
      <trkpt lat="45.11033" lon="2.67022">
        <ele>1492</ele>
        <time>2000-01-01T06:49:21.000Z</time>
      </trkpt>
      <trkpt lat="45.11029" lon="2.67024">
        <ele>1493</ele>
        <time>2000-01-01T06:49:31.000Z</time>
      </trkpt>
      <trkpt lat="45.11023" lon="2.67024">
        <ele>1491</ele>
        <time>2000-01-01T06:49:41.000Z</time>
      </trkpt>
      <trkpt lat="45.11021" lon="2.67023">
        <ele>1490</ele>
        <time>2000-01-01T06:49:51.000Z</time>
      </trkpt>
      <trkpt lat="45.11018" lon="2.6702">
        <ele>1488</ele>
        <time>2000-01-01T06:50:01.000Z</time>
      </trkpt>
      <trkpt lat="45.11014" lon="2.6702">
        <ele>1487</ele>
        <time>2000-01-01T06:50:11.000Z</time>
      </trkpt>
      <trkpt lat="45.1101" lon="2.67021">
        <ele>1493</ele>
        <time>2000-01-01T06:50:21.000Z</time>
      </trkpt>
      <trkpt lat="45.11005" lon="2.67023">
        <ele>1487</ele>
        <time>2000-01-01T06:50:31.000Z</time>
      </trkpt>
      <trkpt lat="45.11001" lon="2.67026">
        <ele>1488</ele>
        <time>2000-01-01T06:50:41.000Z</time>
      </trkpt>
      <trkpt lat="45.10998" lon="2.67029">
        <ele>1486</ele>
        <time>2000-01-01T06:50:51.000Z</time>
      </trkpt>
      <trkpt lat="45.10993" lon="2.6703">
        <ele>1486</ele>
        <time>2000-01-01T06:51:01.000Z</time>
      </trkpt>
      <trkpt lat="45.10988" lon="2.6703">
        <ele>1489</ele>
        <time>2000-01-01T06:51:11.000Z</time>
      </trkpt>
      <trkpt lat="45.10984" lon="2.6703">
        <ele>1487</ele>
        <time>2000-01-01T06:51:21.000Z</time>
      </trkpt>
      <trkpt lat="45.10981" lon="2.67031">
        <ele>1487</ele>
        <time>2000-01-01T06:51:31.000Z</time>
      </trkpt>
      <trkpt lat="45.10977" lon="2.67034">
        <ele>1489</ele>
        <time>2000-01-01T06:51:41.000Z</time>
      </trkpt>
      <trkpt lat="45.10973" lon="2.67036">
        <ele>1489</ele>
        <time>2000-01-01T06:51:51.000Z</time>
      </trkpt>
      <trkpt lat="45.10969" lon="2.67039">
        <ele>1489</ele>
        <time>2000-01-01T06:52:01.000Z</time>
      </trkpt>
      <trkpt lat="45.10967" lon="2.6704">
        <ele>1490</ele>
        <time>2000-01-01T06:52:11.000Z</time>
      </trkpt>
      <trkpt lat="45.10965" lon="2.67041">
        <ele>1491</ele>
        <time>2000-01-01T06:52:21.000Z</time>
      </trkpt>
      <trkpt lat="45.10961" lon="2.67042">
        <ele>1491</ele>
        <time>2000-01-01T06:52:31.000Z</time>
      </trkpt>
      <trkpt lat="45.10959" lon="2.67043">
        <ele>1491</ele>
        <time>2000-01-01T06:52:41.000Z</time>
      </trkpt>
      <trkpt lat="45.10956" lon="2.67045">
        <ele>1492</ele>
        <time>2000-01-01T06:52:51.000Z</time>
      </trkpt>
      <trkpt lat="45.10954" lon="2.67048">
        <ele>1493</ele>
        <time>2000-01-01T06:53:01.000Z</time>
      </trkpt>
      <trkpt lat="45.1095" lon="2.67051">
        <ele>1493</ele>
        <time>2000-01-01T06:53:11.000Z</time>
      </trkpt>
      <trkpt lat="45.10947" lon="2.67054">
        <ele>1494</ele>
        <time>2000-01-01T06:53:21.000Z</time>
      </trkpt>
      <trkpt lat="45.10943" lon="2.67056">
        <ele>1495</ele>
        <time>2000-01-01T06:53:31.000Z</time>
      </trkpt>
      <trkpt lat="45.10938" lon="2.67057">
        <ele>1496</ele>
        <time>2000-01-01T06:53:41.000Z</time>
      </trkpt>
      <trkpt lat="45.10933" lon="2.67058">
        <ele>1497</ele>
        <time>2000-01-01T06:53:51.000Z</time>
      </trkpt>
      <trkpt lat="45.10929" lon="2.67059">
        <ele>1499</ele>
        <time>2000-01-01T06:54:01.000Z</time>
      </trkpt>
      <trkpt lat="45.10924" lon="2.6706">
        <ele>1498</ele>
        <time>2000-01-01T06:54:11.000Z</time>
      </trkpt>
      <trkpt lat="45.10924" lon="2.67057">
        <ele>1497</ele>
        <time>2000-01-01T06:54:21.000Z</time>
      </trkpt>
      <trkpt lat="45.10921" lon="2.67052">
        <ele>1495</ele>
        <time>2000-01-01T06:54:31.000Z</time>
      </trkpt>
      <trkpt lat="45.10917" lon="2.67051">
        <ele>1495</ele>
        <time>2000-01-01T06:54:41.000Z</time>
      </trkpt>
      <trkpt lat="45.10913" lon="2.67052">
        <ele>1499</ele>
        <time>2000-01-01T06:54:51.000Z</time>
      </trkpt>
      <trkpt lat="45.10908" lon="2.67051">
        <ele>1498.5</ele>
        <time>2000-01-01T06:55:01.000Z</time>
      </trkpt>
      <trkpt lat="45.10904" lon="2.67051">
        <ele>1499</ele>
        <time>2000-01-01T06:55:11.000Z</time>
      </trkpt>
      <trkpt lat="45.109" lon="2.67049">
        <ele>1498</ele>
        <time>2000-01-01T06:55:21.000Z</time>
      </trkpt>
      <trkpt lat="45.10896" lon="2.67045">
        <ele>1497</ele>
        <time>2000-01-01T06:55:31.000Z</time>
      </trkpt>
      <trkpt lat="45.10888" lon="2.67043">
        <ele>1498</ele>
        <time>2000-01-01T06:55:41.000Z</time>
      </trkpt>
      <trkpt lat="45.10885" lon="2.67043">
        <ele>1497</ele>
        <time>2000-01-01T06:55:51.000Z</time>
      </trkpt>
      <trkpt lat="45.10881" lon="2.67045">
        <ele>1498</ele>
        <time>2000-01-01T06:56:01.000Z</time>
      </trkpt>
      <trkpt lat="45.10876" lon="2.67043">
        <ele>1497</ele>
        <time>2000-01-01T06:56:11.000Z</time>
      </trkpt>
      <trkpt lat="45.10874" lon="2.67042">
        <ele>1497</ele>
        <time>2000-01-01T06:56:21.000Z</time>
      </trkpt>
      <trkpt lat="45.10872" lon="2.67042">
        <ele>1497</ele>
        <time>2000-01-01T06:56:31.000Z</time>
      </trkpt>
      <trkpt lat="45.10869" lon="2.67042">
        <ele>1496.5</ele>
        <time>2000-01-01T06:56:41.000Z</time>
      </trkpt>
      <trkpt lat="45.10866" lon="2.67045">
        <ele>1498</ele>
        <time>2000-01-01T06:56:51.000Z</time>
      </trkpt>
      <trkpt lat="45.10864" lon="2.67045">
        <ele>1499</ele>
        <time>2000-01-01T06:57:01.000Z</time>
      </trkpt>
      <trkpt lat="45.1086" lon="2.67041">
        <ele>1498</ele>
        <time>2000-01-01T06:57:11.000Z</time>
      </trkpt>
      <trkpt lat="45.10856" lon="2.67037">
        <ele>1497</ele>
        <time>2000-01-01T06:57:21.000Z</time>
      </trkpt>
      <trkpt lat="45.10853" lon="2.67034">
        <ele>1496.2</ele>
        <time>2000-01-01T06:57:31.000Z</time>
      </trkpt>
      <trkpt lat="45.10847" lon="2.67033">
        <ele>1495</ele>
        <time>2000-01-01T06:57:41.000Z</time>
      </trkpt>
      <trkpt lat="45.10844" lon="2.67029">
        <ele>1494</ele>
        <time>2000-01-01T06:57:51.000Z</time>
      </trkpt>
      <trkpt lat="45.10841" lon="2.67026">
        <ele>1493</ele>
        <time>2000-01-01T06:58:01.000Z</time>
      </trkpt>
      <trkpt lat="45.10837" lon="2.67024">
        <ele>1492</ele>
        <time>2000-01-01T06:58:11.000Z</time>
      </trkpt>
      <trkpt lat="45.10831" lon="2.67021">
        <ele>1496</ele>
        <time>2000-01-01T06:58:21.000Z</time>
      </trkpt>
      <trkpt lat="45.10826" lon="2.67019">
        <ele>1497</ele>
        <time>2000-01-01T06:58:31.000Z</time>
      </trkpt>
      <trkpt lat="45.10821" lon="2.67019">
        <ele>1498</ele>
        <time>2000-01-01T06:58:41.000Z</time>
      </trkpt>
      <trkpt lat="45.10818" lon="2.67019">
        <ele>1499</ele>
        <time>2000-01-01T06:58:51.000Z</time>
      </trkpt>
      <trkpt lat="45.10813" lon="2.67017">
        <ele>1500</ele>
        <time>2000-01-01T06:59:01.000Z</time>
      </trkpt>
      <trkpt lat="45.10809" lon="2.67013">
        <ele>1493</ele>
        <time>2000-01-01T06:59:11.000Z</time>
      </trkpt>
      <trkpt lat="45.10804" lon="2.67008">
        <ele>1500</ele>
        <time>2000-01-01T06:59:21.000Z</time>
      </trkpt>
      <trkpt lat="45.10797" lon="2.67006">
        <ele>1501</ele>
        <time>2000-01-01T06:59:31.000Z</time>
      </trkpt>
      <trkpt lat="45.10794" lon="2.67003">
        <ele>1501</ele>
        <time>2000-01-01T06:59:41.000Z</time>
      </trkpt>
      <trkpt lat="45.10788" lon="2.67002">
        <ele>1491</ele>
        <time>2000-01-01T06:59:51.000Z</time>
      </trkpt>
      <trkpt lat="45.10788" lon="2.67002">
        <ele>1502</ele>
        <time>2000-01-01T07:00:01.000Z</time>
      </trkpt>
      <trkpt lat="45.10783" lon="2.67002">
        <ele>1502</ele>
        <time>2000-01-01T07:00:11.000Z</time>
      </trkpt>
      <trkpt lat="45.10779" lon="2.67005">
        <ele>1503</ele>
        <time>2000-01-01T07:00:21.000Z</time>
      </trkpt>
      <trkpt lat="45.10774" lon="2.67005">
        <ele>1503</ele>
        <time>2000-01-01T07:00:31.000Z</time>
      </trkpt>
      <trkpt lat="45.10772" lon="2.67005">
        <ele>1502</ele>
        <time>2000-01-01T07:00:41.000Z</time>
      </trkpt>
      <trkpt lat="45.10768" lon="2.67001">
        <ele>1488</ele>
        <time>2000-01-01T07:00:51.000Z</time>
      </trkpt>
      <trkpt lat="45.10765" lon="2.66997">
        <ele>1485</ele>
        <time>2000-01-01T07:01:01.000Z</time>
      </trkpt>
      <trkpt lat="45.10762" lon="2.66993">
        <ele>1485</ele>
        <time>2000-01-01T07:01:11.000Z</time>
      </trkpt>
      <trkpt lat="45.10759" lon="2.66987">
        <ele>1484</ele>
        <time>2000-01-01T07:01:21.000Z</time>
      </trkpt>
      <trkpt lat="45.10756" lon="2.66981">
        <ele>1482</ele>
        <time>2000-01-01T07:01:31.000Z</time>
      </trkpt>
      <trkpt lat="45.10752" lon="2.66975">
        <ele>1486</ele>
        <time>2000-01-01T07:01:41.000Z</time>
      </trkpt>
      <trkpt lat="45.10748" lon="2.66968">
        <ele>1495</ele>
        <time>2000-01-01T07:01:51.000Z</time>
      </trkpt>
      <trkpt lat="45.10745" lon="2.66961">
        <ele>1494</ele>
        <time>2000-01-01T07:02:01.000Z</time>
      </trkpt>
      <trkpt lat="45.10741" lon="2.66955">
        <ele>1493</ele>
        <time>2000-01-01T07:02:11.000Z</time>
      </trkpt>
      <trkpt lat="45.10737" lon="2.66949">
        <ele>1481</ele>
        <time>2000-01-01T07:02:21.000Z</time>
      </trkpt>
      <trkpt lat="45.10734" lon="2.66942">
        <ele>1490</ele>
        <time>2000-01-01T07:02:31.000Z</time>
      </trkpt>
      <trkpt lat="45.1073" lon="2.66937">
        <ele>1489</ele>
        <time>2000-01-01T07:02:41.000Z</time>
      </trkpt>
      <trkpt lat="45.10727" lon="2.66931">
        <ele>1489</ele>
        <time>2000-01-01T07:02:51.000Z</time>
      </trkpt>
      <trkpt lat="45.10726" lon="2.66926">
        <ele>1479</ele>
        <time>2000-01-01T07:03:01.000Z</time>
      </trkpt>
      <trkpt lat="45.10724" lon="2.6692">
        <ele>1488</ele>
        <time>2000-01-01T07:03:11.000Z</time>
      </trkpt>
      <trkpt lat="45.10723" lon="2.66915">
        <ele>1471</ele>
        <time>2000-01-01T07:03:21.000Z</time>
      </trkpt>
      <trkpt lat="45.10721" lon="2.66908">
        <ele>1472</ele>
        <time>2000-01-01T07:03:31.000Z</time>
      </trkpt>
      <trkpt lat="45.1072" lon="2.66903">
        <ele>1471</ele>
        <time>2000-01-01T07:03:41.000Z</time>
      </trkpt>
      <trkpt lat="45.10717" lon="2.66897">
        <ele>1478</ele>
        <time>2000-01-01T07:03:51.000Z</time>
      </trkpt>
      <trkpt lat="45.10716" lon="2.66892">
        <ele>1471</ele>
        <time>2000-01-01T07:04:01.000Z</time>
      </trkpt>
      <trkpt lat="45.10714" lon="2.66885">
        <ele>1471</ele>
        <time>2000-01-01T07:04:11.000Z</time>
      </trkpt>
      <trkpt lat="45.10712" lon="2.66878">
        <ele>1470</ele>
        <time>2000-01-01T07:04:21.000Z</time>
      </trkpt>
      <trkpt lat="45.10709" lon="2.66873">
        <ele>1473</ele>
        <time>2000-01-01T07:04:31.000Z</time>
      </trkpt>
      <trkpt lat="45.10706" lon="2.66867">
        <ele>1469</ele>
        <time>2000-01-01T07:04:41.000Z</time>
      </trkpt>
      <trkpt lat="45.10702" lon="2.66863">
        <ele>1469</ele>
        <time>2000-01-01T07:04:51.000Z</time>
      </trkpt>
      <trkpt lat="45.107" lon="2.66856">
        <ele>1469</ele>
        <time>2000-01-01T07:05:01.000Z</time>
      </trkpt>
      <trkpt lat="45.10697" lon="2.6685">
        <ele>1469</ele>
        <time>2000-01-01T07:05:11.000Z</time>
      </trkpt>
      <trkpt lat="45.10694" lon="2.66843">
        <ele>1468</ele>
        <time>2000-01-01T07:05:21.000Z</time>
      </trkpt>
      <trkpt lat="45.10691" lon="2.66837">
        <ele>1469</ele>
        <time>2000-01-01T07:05:31.000Z</time>
      </trkpt>
      <trkpt lat="45.10689" lon="2.6683">
        <ele>1455</ele>
        <time>2000-01-01T07:05:41.000Z</time>
      </trkpt>
      <trkpt lat="45.10687" lon="2.66825">
        <ele>1466</ele>
        <time>2000-01-01T07:05:51.000Z</time>
      </trkpt>
      <trkpt lat="45.10684" lon="2.6682">
        <ele>1456</ele>
        <time>2000-01-01T07:06:01.000Z</time>
      </trkpt>
      <trkpt lat="45.1068" lon="2.66817">
        <ele>1456</ele>
        <time>2000-01-01T07:06:11.000Z</time>
      </trkpt>
      <trkpt lat="45.10675" lon="2.66812">
        <ele>1455</ele>
        <time>2000-01-01T07:06:21.000Z</time>
      </trkpt>
      <trkpt lat="45.10672" lon="2.66807">
        <ele>1461</ele>
        <time>2000-01-01T07:06:31.000Z</time>
      </trkpt>
      <trkpt lat="45.10668" lon="2.66802">
        <ele>1453</ele>
        <time>2000-01-01T07:06:41.000Z</time>
      </trkpt>
      <trkpt lat="45.10666" lon="2.66796">
        <ele>1473</ele>
        <time>2000-01-01T07:06:51.000Z</time>
      </trkpt>
      <trkpt lat="45.10663" lon="2.66789">
        <ele>1472</ele>
        <time>2000-01-01T07:07:01.000Z</time>
      </trkpt>
      <trkpt lat="45.1066" lon="2.66782">
        <ele>1461</ele>
        <time>2000-01-01T07:07:11.000Z</time>
      </trkpt>
      <trkpt lat="45.10657" lon="2.66777">
        <ele>1469</ele>
        <time>2000-01-01T07:07:21.000Z</time>
      </trkpt>
      <trkpt lat="45.10653" lon="2.66774">
        <ele>1469</ele>
        <time>2000-01-01T07:07:31.000Z</time>
      </trkpt>
      <trkpt lat="45.10651" lon="2.66772">
        <ele>1469</ele>
        <time>2000-01-01T07:07:41.000Z</time>
      </trkpt>
      <trkpt lat="45.10649" lon="2.66767">
        <ele>1468</ele>
        <time>2000-01-01T07:07:51.000Z</time>
      </trkpt>
      <trkpt lat="45.10646" lon="2.66761">
        <ele>1456</ele>
        <time>2000-01-01T07:08:01.000Z</time>
      </trkpt>
      <trkpt lat="45.10643" lon="2.66756">
        <ele>1469</ele>
        <time>2000-01-01T07:08:11.000Z</time>
      </trkpt>
      <trkpt lat="45.10641" lon="2.66748">
        <ele>1458</ele>
        <time>2000-01-01T07:08:21.000Z</time>
      </trkpt>
      <trkpt lat="45.1064" lon="2.6674">
        <ele>1459</ele>
        <time>2000-01-01T07:08:31.000Z</time>
      </trkpt>
      <trkpt lat="45.10636" lon="2.66733">
        <ele>1454</ele>
        <time>2000-01-01T07:08:41.000Z</time>
      </trkpt>
      <trkpt lat="45.10635" lon="2.66727">
        <ele>1460</ele>
        <time>2000-01-01T07:08:51.000Z</time>
      </trkpt>
      <trkpt lat="45.10635" lon="2.66723">
        <ele>1460</ele>
        <time>2000-01-01T07:09:01.000Z</time>
      </trkpt>
      <trkpt lat="45.10634" lon="2.66717">
        <ele>1459</ele>
        <time>2000-01-01T07:09:11.000Z</time>
      </trkpt>
      <trkpt lat="45.10632" lon="2.66713">
        <ele>1460</ele>
        <time>2000-01-01T07:09:21.000Z</time>
      </trkpt>
      <trkpt lat="45.1063" lon="2.66708">
        <ele>1450</ele>
        <time>2000-01-01T07:09:31.000Z</time>
      </trkpt>
      <trkpt lat="45.10629" lon="2.66702">
        <ele>1459</ele>
        <time>2000-01-01T07:09:41.000Z</time>
      </trkpt>
      <trkpt lat="45.10627" lon="2.66696">
        <ele>1459</ele>
        <time>2000-01-01T07:09:51.000Z</time>
      </trkpt>
      <trkpt lat="45.10626" lon="2.6669">
        <ele>1459</ele>
        <time>2000-01-01T07:10:01.000Z</time>
      </trkpt>
      <trkpt lat="45.10627" lon="2.66684">
        <ele>1458</ele>
        <time>2000-01-01T07:10:11.000Z</time>
      </trkpt>
      <trkpt lat="45.10627" lon="2.66678">
        <ele>1447</ele>
        <time>2000-01-01T07:10:21.000Z</time>
      </trkpt>
      <trkpt lat="45.10627" lon="2.66672">
        <ele>1457</ele>
        <time>2000-01-01T07:10:31.000Z</time>
      </trkpt>
      <trkpt lat="45.10627" lon="2.66669">
        <ele>1457</ele>
        <time>2000-01-01T07:10:41.000Z</time>
      </trkpt>
      <trkpt lat="45.10629" lon="2.66665">
        <ele>1447</ele>
        <time>2000-01-01T07:10:51.000Z</time>
      </trkpt>
      <trkpt lat="45.10629" lon="2.66659">
        <ele>1446</ele>
        <time>2000-01-01T07:11:01.000Z</time>
      </trkpt>
      <trkpt lat="45.10628" lon="2.66653">
        <ele>1447</ele>
        <time>2000-01-01T07:11:11.000Z</time>
      </trkpt>
      <trkpt lat="45.10628" lon="2.66645">
        <ele>1444</ele>
        <time>2000-01-01T07:11:21.000Z</time>
      </trkpt>
      <trkpt lat="45.10628" lon="2.66639">
        <ele>1446</ele>
        <time>2000-01-01T07:11:31.000Z</time>
      </trkpt>
      <trkpt lat="45.10629" lon="2.66632">
        <ele>1445</ele>
        <time>2000-01-01T07:11:41.000Z</time>
      </trkpt>
      <trkpt lat="45.1063" lon="2.66626">
        <ele>1445</ele>
        <time>2000-01-01T07:11:51.000Z</time>
      </trkpt>
      <trkpt lat="45.1063" lon="2.66619">
        <ele>1440</ele>
        <time>2000-01-01T07:12:01.000Z</time>
      </trkpt>
      <trkpt lat="45.10629" lon="2.66611">
        <ele>1444</ele>
        <time>2000-01-01T07:12:11.000Z</time>
      </trkpt>
      <trkpt lat="45.10627" lon="2.66604">
        <ele>1444</ele>
        <time>2000-01-01T07:12:21.000Z</time>
      </trkpt>
      <trkpt lat="45.10625" lon="2.66596">
        <ele>1444</ele>
        <time>2000-01-01T07:12:31.000Z</time>
      </trkpt>
      <trkpt lat="45.10622" lon="2.66591">
        <ele>1434</ele>
        <time>2000-01-01T07:12:41.000Z</time>
      </trkpt>
      <trkpt lat="45.10619" lon="2.66585">
        <ele>1447</ele>
        <time>2000-01-01T07:12:51.000Z</time>
      </trkpt>
      <trkpt lat="45.10615" lon="2.66578">
        <ele>1441</ele>
        <time>2000-01-01T07:13:01.000Z</time>
      </trkpt>
      <trkpt lat="45.10612" lon="2.66572">
        <ele>1441</ele>
        <time>2000-01-01T07:13:11.000Z</time>
      </trkpt>
      <trkpt lat="45.10608" lon="2.66567">
        <ele>1434</ele>
        <time>2000-01-01T07:13:21.000Z</time>
      </trkpt>
      <trkpt lat="45.10607" lon="2.66561">
        <ele>1441</ele>
        <time>2000-01-01T07:13:31.000Z</time>
      </trkpt>
      <trkpt lat="45.10605" lon="2.66556">
        <ele>1441</ele>
        <time>2000-01-01T07:13:41.000Z</time>
      </trkpt>
      <trkpt lat="45.10606" lon="2.66549">
        <ele>1439</ele>
        <time>2000-01-01T07:13:51.000Z</time>
      </trkpt>
      <trkpt lat="45.10607" lon="2.66542">
        <ele>1438</ele>
        <time>2000-01-01T07:14:01.000Z</time>
      </trkpt>
      <trkpt lat="45.10606" lon="2.66536">
        <ele>1434.5</ele>
        <time>2000-01-01T07:14:11.000Z</time>
      </trkpt>
      <trkpt lat="45.10606" lon="2.66528">
        <ele>1437</ele>
        <time>2000-01-01T07:14:21.000Z</time>
      </trkpt>
      <trkpt lat="45.10605" lon="2.66519">
        <ele>1437</ele>
        <time>2000-01-01T07:14:31.000Z</time>
      </trkpt>
      <trkpt lat="45.10601" lon="2.66513">
        <ele>1439</ele>
        <time>2000-01-01T07:14:41.000Z</time>
      </trkpt>
      <trkpt lat="45.10598" lon="2.66508">
        <ele>1435</ele>
        <time>2000-01-01T07:14:51.000Z</time>
      </trkpt>
      <trkpt lat="45.10595" lon="2.66503">
        <ele>1441</ele>
        <time>2000-01-01T07:15:01.000Z</time>
      </trkpt>
      <trkpt lat="45.10593" lon="2.66496">
        <ele>1439</ele>
        <time>2000-01-01T07:15:11.000Z</time>
      </trkpt>
      <trkpt lat="45.1059" lon="2.6649">
        <ele>1438</ele>
        <time>2000-01-01T07:15:21.000Z</time>
      </trkpt>
      <trkpt lat="45.10587" lon="2.66484">
        <ele>1436</ele>
        <time>2000-01-01T07:15:31.000Z</time>
      </trkpt>
      <trkpt lat="45.10584" lon="2.6648">
        <ele>1435</ele>
        <time>2000-01-01T07:15:41.000Z</time>
      </trkpt>
      <trkpt lat="45.10582" lon="2.66474">
        <ele>1460</ele>
        <time>2000-01-01T07:15:51.000Z</time>
      </trkpt>
      <trkpt lat="45.1058" lon="2.66468">
        <ele>1461</ele>
        <time>2000-01-01T07:16:01.000Z</time>
      </trkpt>
      <trkpt lat="45.10578" lon="2.66464">
        <ele>1462</ele>
        <time>2000-01-01T07:16:11.000Z</time>
      </trkpt>
      <trkpt lat="45.10577" lon="2.66458">
        <ele>1441</ele>
        <time>2000-01-01T07:16:21.000Z</time>
      </trkpt>
      <trkpt lat="45.10574" lon="2.66453">
        <ele>1462</ele>
        <time>2000-01-01T07:16:31.000Z</time>
      </trkpt>
      <trkpt lat="45.10572" lon="2.66448">
        <ele>1461</ele>
        <time>2000-01-01T07:16:41.000Z</time>
      </trkpt>
      <trkpt lat="45.1057" lon="2.66441">
        <ele>1460</ele>
        <time>2000-01-01T07:16:51.000Z</time>
      </trkpt>
      <trkpt lat="45.10568" lon="2.66436">
        <ele>1459</ele>
        <time>2000-01-01T07:17:01.000Z</time>
      </trkpt>
      <trkpt lat="45.10566" lon="2.66431">
        <ele>1442</ele>
        <time>2000-01-01T07:17:11.000Z</time>
      </trkpt>
      <trkpt lat="45.10564" lon="2.66426">
        <ele>1458</ele>
        <time>2000-01-01T07:17:21.000Z</time>
      </trkpt>
      <trkpt lat="45.10561" lon="2.66419">
        <ele>1459</ele>
        <time>2000-01-01T07:17:31.000Z</time>
      </trkpt>
      <trkpt lat="45.1056" lon="2.66412">
        <ele>1456</ele>
        <time>2000-01-01T07:17:41.000Z</time>
      </trkpt>
      <trkpt lat="45.10558" lon="2.66405">
        <ele>1443</ele>
        <time>2000-01-01T07:17:51.000Z</time>
      </trkpt>
      <trkpt lat="45.10556" lon="2.66399">
        <ele>1458</ele>
        <time>2000-01-01T07:18:01.000Z</time>
      </trkpt>
      <trkpt lat="45.10554" lon="2.66392">
        <ele>1460</ele>
        <time>2000-01-01T07:18:11.000Z</time>
      </trkpt>
      <trkpt lat="45.10552" lon="2.66387">
        <ele>1461</ele>
        <time>2000-01-01T07:18:21.000Z</time>
      </trkpt>
      <trkpt lat="45.10551" lon="2.6638">
        <ele>1447</ele>
        <time>2000-01-01T07:18:31.000Z</time>
      </trkpt>
      <trkpt lat="45.10549" lon="2.66375">
        <ele>1462</ele>
        <time>2000-01-01T07:18:41.000Z</time>
      </trkpt>
      <trkpt lat="45.10548" lon="2.66368">
        <ele>1462</ele>
        <time>2000-01-01T07:18:51.000Z</time>
      </trkpt>
      <trkpt lat="45.10546" lon="2.66362">
        <ele>1462</ele>
        <time>2000-01-01T07:19:01.000Z</time>
      </trkpt>
      <trkpt lat="45.10546" lon="2.66355">
        <ele>1462</ele>
        <time>2000-01-01T07:19:11.000Z</time>
      </trkpt>
      <trkpt lat="45.10545" lon="2.66349">
        <ele>1451</ele>
        <time>2000-01-01T07:19:21.000Z</time>
      </trkpt>
      <trkpt lat="45.10545" lon="2.66343">
        <ele>1462</ele>
        <time>2000-01-01T07:19:31.000Z</time>
      </trkpt>
      <trkpt lat="45.10545" lon="2.66338">
        <ele>1462</ele>
        <time>2000-01-01T07:19:41.000Z</time>
      </trkpt>
      <trkpt lat="45.10545" lon="2.6633">
        <ele>1467</ele>
        <time>2000-01-01T07:19:51.000Z</time>
      </trkpt>
      <trkpt lat="45.10545" lon="2.66324">
        <ele>1467</ele>
        <time>2000-01-01T07:20:01.000Z</time>
      </trkpt>
      <trkpt lat="45.10543" lon="2.66319">
        <ele>1455</ele>
        <time>2000-01-01T07:20:11.000Z</time>
      </trkpt>
      <trkpt lat="45.10542" lon="2.66317">
        <ele>1469</ele>
        <time>2000-01-01T07:20:21.000Z</time>
      </trkpt>
      <trkpt lat="45.1054" lon="2.66313">
        <ele>1470</ele>
        <time>2000-01-01T07:20:31.000Z</time>
      </trkpt>
      <trkpt lat="45.10538" lon="2.66308">
        <ele>1471</ele>
        <time>2000-01-01T07:20:41.000Z</time>
      </trkpt>
      <trkpt lat="45.10536" lon="2.66302">
        <ele>1472</ele>
        <time>2000-01-01T07:20:51.000Z</time>
      </trkpt>
      <trkpt lat="45.10535" lon="2.66298">
        <ele>1473</ele>
        <time>2000-01-01T07:21:01.000Z</time>
      </trkpt>
      <trkpt lat="45.10536" lon="2.66295">
        <ele>1462</ele>
        <time>2000-01-01T07:21:11.000Z</time>
      </trkpt>
      <trkpt lat="45.10538" lon="2.66292">
        <ele>1472</ele>
        <time>2000-01-01T07:21:21.000Z</time>
      </trkpt>
      <trkpt lat="45.1054" lon="2.66289">
        <ele>1472</ele>
        <time>2000-01-01T07:21:31.000Z</time>
      </trkpt>
      <trkpt lat="45.10543" lon="2.66286">
        <ele>1471</ele>
        <time>2000-01-01T07:21:41.000Z</time>
      </trkpt>
      <trkpt lat="45.10545" lon="2.66282">
        <ele>1471</ele>
        <time>2000-01-01T07:21:51.000Z</time>
      </trkpt>
      <trkpt lat="45.10547" lon="2.66277">
        <ele>1471</ele>
        <time>2000-01-01T07:22:01.000Z</time>
      </trkpt>
      <trkpt lat="45.10547" lon="2.66271">
        <ele>1465</ele>
        <time>2000-01-01T07:22:11.000Z</time>
      </trkpt>
      <trkpt lat="45.10547" lon="2.66265">
        <ele>1472</ele>
        <time>2000-01-01T07:22:21.000Z</time>
      </trkpt>
      <trkpt lat="45.10547" lon="2.66265">
        <ele>1472</ele>
        <time>2000-01-01T07:22:31.000Z</time>
      </trkpt>
      <trkpt lat="45.10547" lon="2.66258">
        <ele>1472</ele>
        <time>2000-01-01T07:22:41.000Z</time>
      </trkpt>
      <trkpt lat="45.10543" lon="2.66261">
        <ele>1473</ele>
        <time>2000-01-01T07:22:51.000Z</time>
      </trkpt>
      <trkpt lat="45.1054" lon="2.66265">
        <ele>1474</ele>
        <time>2000-01-01T07:23:01.000Z</time>
      </trkpt>
      <trkpt lat="45.10538" lon="2.66266">
        <ele>1471</ele>
        <time>2000-01-01T07:23:11.000Z</time>
      </trkpt>
      <trkpt lat="45.10536" lon="2.66267">
        <ele>1475</ele>
        <time>2000-01-01T07:23:21.000Z</time>
      </trkpt>
      <trkpt lat="45.10534" lon="2.66261">
        <ele>1476</ele>
        <time>2000-01-01T07:23:31.000Z</time>
      </trkpt>
      <trkpt lat="45.10535" lon="2.66254">
        <ele>1476</ele>
        <time>2000-01-01T07:23:41.000Z</time>
      </trkpt>
      <trkpt lat="45.10536" lon="2.66246">
        <ele>1486</ele>
        <time>2000-01-01T07:23:51.000Z</time>
      </trkpt>
      <trkpt lat="45.10536" lon="2.6624">
        <ele>1478</ele>
        <time>2000-01-01T07:24:01.000Z</time>
      </trkpt>
      <trkpt lat="45.10536" lon="2.66233">
        <ele>1486</ele>
        <time>2000-01-01T07:24:11.000Z</time>
      </trkpt>
      <trkpt lat="45.10537" lon="2.66228">
        <ele>1486</ele>
        <time>2000-01-01T07:24:21.000Z</time>
      </trkpt>
      <trkpt lat="45.10538" lon="2.66223">
        <ele>1487</ele>
        <time>2000-01-01T07:24:31.000Z</time>
      </trkpt>
      <trkpt lat="45.10539" lon="2.66216">
        <ele>1487</ele>
        <time>2000-01-01T07:24:41.000Z</time>
      </trkpt>
      <trkpt lat="45.10541" lon="2.66209">
        <ele>1482</ele>
        <time>2000-01-01T07:24:51.000Z</time>
      </trkpt>
      <trkpt lat="45.10543" lon="2.66202">
        <ele>1487</ele>
        <time>2000-01-01T07:25:01.000Z</time>
      </trkpt>
      <trkpt lat="45.10545" lon="2.66194">
        <ele>1488</ele>
        <time>2000-01-01T07:25:11.000Z</time>
      </trkpt>
      <trkpt lat="45.10547" lon="2.66187">
        <ele>1488</ele>
        <time>2000-01-01T07:25:21.000Z</time>
      </trkpt>
      <trkpt lat="45.10549" lon="2.66179">
        <ele>1484</ele>
        <time>2000-01-01T07:25:31.000Z</time>
      </trkpt>
      <trkpt lat="45.1055" lon="2.66176">
        <ele>1487</ele>
        <time>2000-01-01T07:25:41.000Z</time>
      </trkpt>
      <trkpt lat="45.1055" lon="2.66173">
        <ele>1487</ele>
        <time>2000-01-01T07:25:51.000Z</time>
      </trkpt>
      <trkpt lat="45.10548" lon="2.66171">
        <ele>1488</ele>
        <time>2000-01-01T07:26:01.000Z</time>
      </trkpt>
      <trkpt lat="45.10544" lon="2.66172">
        <ele>1489</ele>
        <time>2000-01-01T07:26:11.000Z</time>
      </trkpt>
      <trkpt lat="45.1054" lon="2.66174">
        <ele>1491</ele>
        <time>2000-01-01T07:26:21.000Z</time>
      </trkpt>
      <trkpt lat="45.10535" lon="2.66175">
        <ele>1487</ele>
        <time>2000-01-01T07:26:31.000Z</time>
      </trkpt>
      <trkpt lat="45.10531" lon="2.66175">
        <ele>1494</ele>
        <time>2000-01-01T07:26:41.000Z</time>
      </trkpt>
      <trkpt lat="45.10527" lon="2.66177">
        <ele>1495</ele>
        <time>2000-01-01T07:26:51.000Z</time>
      </trkpt>
      <trkpt lat="45.10523" lon="2.66178">
        <ele>1497</ele>
        <time>2000-01-01T07:27:01.000Z</time>
      </trkpt>
      <trkpt lat="45.10519" lon="2.6618">
        <ele>1498</ele>
        <time>2000-01-01T07:27:11.000Z</time>
      </trkpt>
      <trkpt lat="45.10516" lon="2.66182">
        <ele>1493</ele>
        <time>2000-01-01T07:27:21.000Z</time>
      </trkpt>
      <trkpt lat="45.10514" lon="2.66183">
        <ele>1499</ele>
        <time>2000-01-01T07:27:31.000Z</time>
      </trkpt>
      <trkpt lat="45.1051" lon="2.66187">
        <ele>1499</ele>
        <time>2000-01-01T07:27:41.000Z</time>
      </trkpt>
      <trkpt lat="45.10508" lon="2.66193">
        <ele>1497</ele>
        <time>2000-01-01T07:27:51.000Z</time>
      </trkpt>
      <trkpt lat="45.10504" lon="2.66197">
        <ele>1497</ele>
        <time>2000-01-01T07:28:01.000Z</time>
      </trkpt>
      <trkpt lat="45.105" lon="2.66198">
        <ele>1500</ele>
        <time>2000-01-01T07:28:11.000Z</time>
      </trkpt>
      <trkpt lat="45.10496" lon="2.66202">
        <ele>1512</ele>
        <time>2000-01-01T07:28:21.000Z</time>
      </trkpt>
      <trkpt lat="45.10493" lon="2.66206">
        <ele>1511</ele>
        <time>2000-01-01T07:28:31.000Z</time>
      </trkpt>
      <trkpt lat="45.10491" lon="2.66208">
        <ele>1511</ele>
        <time>2000-01-01T07:28:41.000Z</time>
      </trkpt>
      <trkpt lat="45.10488" lon="2.66205">
        <ele>1512</ele>
        <time>2000-01-01T07:28:51.000Z</time>
      </trkpt>
      <trkpt lat="45.10485" lon="2.662">
        <ele>1504</ele>
        <time>2000-01-01T07:29:01.000Z</time>
      </trkpt>
      <trkpt lat="45.10483" lon="2.66194">
        <ele>1513</ele>
        <time>2000-01-01T07:29:11.000Z</time>
      </trkpt>
      <trkpt lat="45.10482" lon="2.66189">
        <ele>1513</ele>
        <time>2000-01-01T07:29:21.000Z</time>
      </trkpt>
      <trkpt lat="45.10479" lon="2.66184">
        <ele>1514</ele>
        <time>2000-01-01T07:29:31.000Z</time>
      </trkpt>
      <trkpt lat="45.10477" lon="2.66178">
        <ele>1514</ele>
        <time>2000-01-01T07:29:41.000Z</time>
      </trkpt>
      <trkpt lat="45.10477" lon="2.66172">
        <ele>1509</ele>
        <time>2000-01-01T07:29:51.000Z</time>
      </trkpt>
      <trkpt lat="45.10478" lon="2.66166">
        <ele>1521</ele>
        <time>2000-01-01T07:30:01.000Z</time>
      </trkpt>
      <trkpt lat="45.10479" lon="2.66161">
        <ele>1521</ele>
        <time>2000-01-01T07:30:11.000Z</time>
      </trkpt>
      <trkpt lat="45.1048" lon="2.66154">
        <ele>1521</ele>
        <time>2000-01-01T07:30:21.000Z</time>
      </trkpt>
      <trkpt lat="45.1048" lon="2.66154">
        <ele>1521</ele>
        <time>2000-01-01T07:30:31.000Z</time>
      </trkpt>
      <trkpt lat="45.10478" lon="2.6615">
        <ele>1522</ele>
        <time>2000-01-01T07:30:41.000Z</time>
      </trkpt>
      <trkpt lat="45.10474" lon="2.66152">
        <ele>1516</ele>
        <time>2000-01-01T07:30:51.000Z</time>
      </trkpt>
      <trkpt lat="45.1047" lon="2.66156">
        <ele>1522</ele>
        <time>2000-01-01T07:31:01.000Z</time>
      </trkpt>
      <trkpt lat="45.10466" lon="2.66159">
        <ele>1523</ele>
        <time>2000-01-01T07:31:11.000Z</time>
      </trkpt>
      <trkpt lat="45.10463" lon="2.66163">
        <ele>1523</ele>
        <time>2000-01-01T07:31:21.000Z</time>
      </trkpt>
      <trkpt lat="45.10459" lon="2.66168">
        <ele>1515</ele>
        <time>2000-01-01T07:31:31.000Z</time>
      </trkpt>
      <trkpt lat="45.10456" lon="2.66173">
        <ele>1521</ele>
        <time>2000-01-01T07:31:41.000Z</time>
      </trkpt>
      <trkpt lat="45.10453" lon="2.66178">
        <ele>1516</ele>
        <time>2000-01-01T07:31:51.000Z</time>
      </trkpt>
      <trkpt lat="45.10451" lon="2.66183">
        <ele>1515</ele>
        <time>2000-01-01T07:32:01.000Z</time>
      </trkpt>
      <trkpt lat="45.10448" lon="2.66189">
        <ele>1515</ele>
        <time>2000-01-01T07:32:11.000Z</time>
      </trkpt>
      <trkpt lat="45.10446" lon="2.66194">
        <ele>1515</ele>
        <time>2000-01-01T07:32:21.000Z</time>
      </trkpt>
      <trkpt lat="45.10445" lon="2.66197">
        <ele>1525</ele>
        <time>2000-01-01T07:32:31.000Z</time>
      </trkpt>
      <trkpt lat="45.10443" lon="2.66199">
        <ele>1515</ele>
        <time>2000-01-01T07:32:41.000Z</time>
      </trkpt>
      <trkpt lat="45.1044" lon="2.66197">
        <ele>1515</ele>
        <time>2000-01-01T07:32:51.000Z</time>
      </trkpt>
      <trkpt lat="45.10439" lon="2.6619">
        <ele>1516</ele>
        <time>2000-01-01T07:33:01.000Z</time>
      </trkpt>
      <trkpt lat="45.10438" lon="2.66184">
        <ele>1517</ele>
        <time>2000-01-01T07:33:11.000Z</time>
      </trkpt>
      <trkpt lat="45.10438" lon="2.66178">
        <ele>1529</ele>
        <time>2000-01-01T07:33:21.000Z</time>
      </trkpt>
      <trkpt lat="45.10438" lon="2.66174">
        <ele>1518</ele>
        <time>2000-01-01T07:33:31.000Z</time>
      </trkpt>
      <trkpt lat="45.10439" lon="2.66171">
        <ele>1518</ele>
        <time>2000-01-01T07:33:41.000Z</time>
      </trkpt>
      <trkpt lat="45.10437" lon="2.66165">
        <ele>1524</ele>
        <time>2000-01-01T07:33:51.000Z</time>
      </trkpt>
      <trkpt lat="45.10437" lon="2.66158">
        <ele>1524</ele>
        <time>2000-01-01T07:34:01.000Z</time>
      </trkpt>
      <trkpt lat="45.10438" lon="2.66151">
        <ele>1531</ele>
        <time>2000-01-01T07:34:11.000Z</time>
      </trkpt>
      <trkpt lat="45.10439" lon="2.66145">
        <ele>1525</ele>
        <time>2000-01-01T07:34:21.000Z</time>
      </trkpt>
      <trkpt lat="45.10439" lon="2.66139">
        <ele>1525</ele>
        <time>2000-01-01T07:34:31.000Z</time>
      </trkpt>
      <trkpt lat="45.10439" lon="2.66133">
        <ele>1526</ele>
        <time>2000-01-01T07:34:41.000Z</time>
      </trkpt>
      <trkpt lat="45.10436" lon="2.66128">
        <ele>1526</ele>
        <time>2000-01-01T07:34:51.000Z</time>
      </trkpt>
      <trkpt lat="45.10434" lon="2.66122">
        <ele>1533</ele>
        <time>2000-01-01T07:35:01.000Z</time>
      </trkpt>
      <trkpt lat="45.10431" lon="2.66117">
        <ele>1528</ele>
        <time>2000-01-01T07:35:11.000Z</time>
      </trkpt>
      <trkpt lat="45.10428" lon="2.66112">
        <ele>1529</ele>
        <time>2000-01-01T07:35:21.000Z</time>
      </trkpt>
      <trkpt lat="45.10426" lon="2.66106">
        <ele>1530</ele>
        <time>2000-01-01T07:35:31.000Z</time>
      </trkpt>
      <trkpt lat="45.10425" lon="2.66098">
        <ele>1537</ele>
        <time>2000-01-01T07:35:41.000Z</time>
      </trkpt>
      <trkpt lat="45.10425" lon="2.66092">
        <ele>1532</ele>
        <time>2000-01-01T07:35:51.000Z</time>
      </trkpt>
      <trkpt lat="45.10425" lon="2.66086">
        <ele>1534</ele>
        <time>2000-01-01T07:36:01.000Z</time>
      </trkpt>
      <trkpt lat="45.10426" lon="2.66081">
        <ele>1539</ele>
        <time>2000-01-01T07:36:11.000Z</time>
      </trkpt>
      <trkpt lat="45.10425" lon="2.66073">
        <ele>1539</ele>
        <time>2000-01-01T07:36:21.000Z</time>
      </trkpt>
      <trkpt lat="45.10421" lon="2.66064">
        <ele>1540</ele>
        <time>2000-01-01T07:36:31.000Z</time>
      </trkpt>
      <trkpt lat="45.10419" lon="2.66059">
        <ele>1541</ele>
        <time>2000-01-01T07:36:41.000Z</time>
      </trkpt>
      <trkpt lat="45.10417" lon="2.66055">
        <ele>1542</ele>
        <time>2000-01-01T07:36:51.000Z</time>
      </trkpt>
      <trkpt lat="45.10416" lon="2.66045">
        <ele>1533</ele>
        <time>2000-01-01T07:37:01.000Z</time>
      </trkpt>
      <trkpt lat="45.10415" lon="2.66037">
        <ele>1545</ele>
        <time>2000-01-01T07:37:11.000Z</time>
      </trkpt>
      <trkpt lat="45.10414" lon="2.66027">
        <ele>1537</ele>
        <time>2000-01-01T07:37:21.000Z</time>
      </trkpt>
      <trkpt lat="45.10413" lon="2.66018">
        <ele>1541</ele>
        <time>2000-01-01T07:37:31.000Z</time>
      </trkpt>
      <trkpt lat="45.10412" lon="2.6601">
        <ele>1548</ele>
        <time>2000-01-01T07:37:41.000Z</time>
      </trkpt>
      <trkpt lat="45.10411" lon="2.66003">
        <ele>1549</ele>
        <time>2000-01-01T07:37:51.000Z</time>
      </trkpt>
      <trkpt lat="45.10409" lon="2.65996">
        <ele>1554</ele>
        <time>2000-01-01T07:38:01.000Z</time>
      </trkpt>
      <trkpt lat="45.10407" lon="2.6599">
        <ele>1554</ele>
        <time>2000-01-01T07:38:11.000Z</time>
      </trkpt>
      <trkpt lat="45.10404" lon="2.65984">
        <ele>1554</ele>
        <time>2000-01-01T07:38:21.000Z</time>
      </trkpt>
      <trkpt lat="45.104" lon="2.65979">
        <ele>1553</ele>
        <time>2000-01-01T07:38:31.000Z</time>
      </trkpt>
      <trkpt lat="45.10398" lon="2.65973">
        <ele>1553</ele>
        <time>2000-01-01T07:38:41.000Z</time>
      </trkpt>
      <trkpt lat="45.10397" lon="2.65967">
        <ele>1554</ele>
        <time>2000-01-01T07:38:51.000Z</time>
      </trkpt>
      <trkpt lat="45.10395" lon="2.65961">
        <ele>1558</ele>
        <time>2000-01-01T07:39:01.000Z</time>
      </trkpt>
      <trkpt lat="45.10394" lon="2.65955">
        <ele>1555</ele>
        <time>2000-01-01T07:39:11.000Z</time>
      </trkpt>
      <trkpt lat="45.10393" lon="2.65949">
        <ele>1556</ele>
        <time>2000-01-01T07:39:21.000Z</time>
      </trkpt>
      <trkpt lat="45.10391" lon="2.65944">
        <ele>1557</ele>
        <time>2000-01-01T07:39:31.000Z</time>
      </trkpt>
      <trkpt lat="45.10389" lon="2.65939">
        <ele>1558</ele>
        <time>2000-01-01T07:39:41.000Z</time>
      </trkpt>
      <trkpt lat="45.10387" lon="2.65933">
        <ele>1560</ele>
        <time>2000-01-01T07:39:51.000Z</time>
      </trkpt>
      <trkpt lat="45.10384" lon="2.65928">
        <ele>1558</ele>
        <time>2000-01-01T07:40:01.000Z</time>
      </trkpt>
      <trkpt lat="45.10381" lon="2.65923">
        <ele>1557</ele>
        <time>2000-01-01T07:40:11.000Z</time>
      </trkpt>
      <trkpt lat="45.1038" lon="2.65916">
        <ele>1574</ele>
        <time>2000-01-01T07:40:21.000Z</time>
      </trkpt>
      <trkpt lat="45.1038" lon="2.6591">
        <ele>1575</ele>
        <time>2000-01-01T07:40:31.000Z</time>
      </trkpt>
      <trkpt lat="45.10379" lon="2.65904">
        <ele>1566</ele>
        <time>2000-01-01T07:40:41.000Z</time>
      </trkpt>
      <trkpt lat="45.10377" lon="2.65896">
        <ele>1575</ele>
        <time>2000-01-01T07:40:51.000Z</time>
      </trkpt>
      <trkpt lat="45.10375" lon="2.65894">
        <ele>1575</ele>
        <time>2000-01-01T07:41:01.000Z</time>
      </trkpt>
      <trkpt lat="45.1037" lon="2.65891">
        <ele>1574</ele>
        <time>2000-01-01T07:41:11.000Z</time>
      </trkpt>
      <trkpt lat="45.10366" lon="2.6589">
        <ele>1573</ele>
        <time>2000-01-01T07:41:21.000Z</time>
      </trkpt>
      <trkpt lat="45.10362" lon="2.65888">
        <ele>1570</ele>
        <time>2000-01-01T07:41:31.000Z</time>
      </trkpt>
      <trkpt lat="45.10359" lon="2.65881">
        <ele>1573</ele>
        <time>2000-01-01T07:41:41.000Z</time>
      </trkpt>
      <trkpt lat="45.10356" lon="2.65877">
        <ele>1573</ele>
        <time>2000-01-01T07:41:51.000Z</time>
      </trkpt>
      <trkpt lat="45.10353" lon="2.65872">
        <ele>1573</ele>
        <time>2000-01-01T07:42:01.000Z</time>
      </trkpt>
      <trkpt lat="45.1035" lon="2.65868">
        <ele>1573</ele>
        <time>2000-01-01T07:42:11.000Z</time>
      </trkpt>
      <trkpt lat="45.10347" lon="2.65864">
        <ele>1570</ele>
        <time>2000-01-01T07:42:21.000Z</time>
      </trkpt>
      <trkpt lat="45.10344" lon="2.65859">
        <ele>1573</ele>
        <time>2000-01-01T07:42:31.000Z</time>
      </trkpt>
      <trkpt lat="45.10343" lon="2.65857">
        <ele>1573</ele>
        <time>2000-01-01T07:42:41.000Z</time>
      </trkpt>
      <trkpt lat="45.10339" lon="2.65853">
        <ele>1573</ele>
        <time>2000-01-01T07:42:51.000Z</time>
      </trkpt>
      <trkpt lat="45.10339" lon="2.65846">
        <ele>1573</ele>
        <time>2000-01-01T07:43:01.000Z</time>
      </trkpt>
      <trkpt lat="45.10339" lon="2.65843">
        <ele>1573</ele>
        <time>2000-01-01T07:43:11.000Z</time>
      </trkpt>
      <trkpt lat="45.10338" lon="2.65836">
        <ele>1576</ele>
        <time>2000-01-01T07:43:21.000Z</time>
      </trkpt>
      <trkpt lat="45.10338" lon="2.6583">
        <ele>1577</ele>
        <time>2000-01-01T07:43:31.000Z</time>
      </trkpt>
      <trkpt lat="45.10339" lon="2.65824">
        <ele>1582</ele>
        <time>2000-01-01T07:43:41.000Z</time>
      </trkpt>
      <trkpt lat="45.10339" lon="2.65819">
        <ele>1585</ele>
        <time>2000-01-01T07:43:51.000Z</time>
      </trkpt>
      <trkpt lat="45.10337" lon="2.65813">
        <ele>1588</ele>
        <time>2000-01-01T07:44:01.000Z</time>
      </trkpt>
      <trkpt lat="45.10336" lon="2.65805">
        <ele>1577.5</ele>
        <time>2000-01-01T07:44:11.000Z</time>
      </trkpt>
      <trkpt lat="45.10336" lon="2.65799">
        <ele>1594</ele>
        <time>2000-01-01T07:44:21.000Z</time>
      </trkpt>
      <trkpt lat="45.10336" lon="2.65792">
        <ele>1596</ele>
        <time>2000-01-01T07:44:31.000Z</time>
      </trkpt>
      <trkpt lat="45.10336" lon="2.65789">
        <ele>1597</ele>
        <time>2000-01-01T07:44:41.000Z</time>
      </trkpt>
      <trkpt lat="45.10336" lon="2.65783">
        <ele>1598</ele>
        <time>2000-01-01T07:44:51.000Z</time>
      </trkpt>
      <trkpt lat="45.10334" lon="2.65777">
        <ele>1576.7</ele>
        <time>2000-01-01T07:45:01.000Z</time>
      </trkpt>
      <trkpt lat="45.10332" lon="2.65771">
        <ele>1573</ele>
        <time>2000-01-01T07:45:11.000Z</time>
      </trkpt>
      <trkpt lat="45.1033" lon="2.65765">
        <ele>1577</ele>
        <time>2000-01-01T07:45:21.000Z</time>
      </trkpt>
      <trkpt lat="45.10328" lon="2.6576">
        <ele>1581</ele>
        <time>2000-01-01T07:45:31.000Z</time>
      </trkpt>
      <trkpt lat="45.10327" lon="2.65753">
        <ele>1585</ele>
        <time>2000-01-01T07:45:41.000Z</time>
      </trkpt>
      <trkpt lat="45.10326" lon="2.65747">
        <ele>1578.8</ele>
        <time>2000-01-01T07:45:51.000Z</time>
      </trkpt>
      <trkpt lat="45.10325" lon="2.65741">
        <ele>1589</ele>
        <time>2000-01-01T07:46:01.000Z</time>
      </trkpt>
      <trkpt lat="45.10324" lon="2.65734">
        <ele>1587</ele>
        <time>2000-01-01T07:46:11.000Z</time>
      </trkpt>
      <trkpt lat="45.10323" lon="2.6573">
        <ele>1586</ele>
        <time>2000-01-01T07:46:21.000Z</time>
      </trkpt>
      <trkpt lat="45.10318" lon="2.65723">
        <ele>1578.4</ele>
        <time>2000-01-01T07:46:31.000Z</time>
      </trkpt>
      <trkpt lat="45.10316" lon="2.65718">
        <ele>1584</ele>
        <time>2000-01-01T07:46:41.000Z</time>
      </trkpt>
      <trkpt lat="45.10313" lon="2.65713">
        <ele>1584</ele>
        <time>2000-01-01T07:46:51.000Z</time>
      </trkpt>
      <trkpt lat="45.10311" lon="2.65708">
        <ele>1584</ele>
        <time>2000-01-01T07:47:01.000Z</time>
      </trkpt>
      <trkpt lat="45.10308" lon="2.65702">
        <ele>1584</ele>
        <time>2000-01-01T07:47:11.000Z</time>
      </trkpt>
      <trkpt lat="45.10307" lon="2.65695">
        <ele>1578</ele>
        <time>2000-01-01T07:47:21.000Z</time>
      </trkpt>
      <trkpt lat="45.10306" lon="2.65688">
        <ele>1586</ele>
        <time>2000-01-01T07:47:31.000Z</time>
      </trkpt>
      <trkpt lat="45.10305" lon="2.65682">
        <ele>1587</ele>
        <time>2000-01-01T07:47:41.000Z</time>
      </trkpt>
      <trkpt lat="45.10304" lon="2.65675">
        <ele>1588</ele>
        <time>2000-01-01T07:47:51.000Z</time>
      </trkpt>
      <trkpt lat="45.10302" lon="2.65669">
        <ele>1576.5</ele>
        <time>2000-01-01T07:48:01.000Z</time>
      </trkpt>
      <trkpt lat="45.10301" lon="2.65663">
        <ele>1600</ele>
        <time>2000-01-01T07:48:11.000Z</time>
      </trkpt>
      <trkpt lat="45.103" lon="2.65656">
        <ele>1600</ele>
        <time>2000-01-01T07:48:21.000Z</time>
      </trkpt>
      <trkpt lat="45.103" lon="2.65651">
        <ele>1600</ele>
        <time>2000-01-01T07:48:31.000Z</time>
      </trkpt>
      <trkpt lat="45.10298" lon="2.65644">
        <ele>1600</ele>
        <time>2000-01-01T07:48:41.000Z</time>
      </trkpt>
      <trkpt lat="45.10296" lon="2.65638">
        <ele>1577.7</ele>
        <time>2000-01-01T07:48:51.000Z</time>
      </trkpt>
      <trkpt lat="45.10293" lon="2.65629">
        <ele>1599</ele>
        <time>2000-01-01T07:49:01.000Z</time>
      </trkpt>
      <trkpt lat="45.10292" lon="2.65624">
        <ele>1599</ele>
        <time>2000-01-01T07:49:11.000Z</time>
      </trkpt>
      <trkpt lat="45.10289" lon="2.65619">
        <ele>1599</ele>
        <time>2000-01-01T07:49:21.000Z</time>
      </trkpt>
      <trkpt lat="45.10287" lon="2.65614">
        <ele>1599</ele>
        <time>2000-01-01T07:49:31.000Z</time>
      </trkpt>
      <trkpt lat="45.10286" lon="2.65609">
        <ele>1579</ele>
        <time>2000-01-01T07:49:41.000Z</time>
      </trkpt>
      <trkpt lat="45.10287" lon="2.65603">
        <ele>1600</ele>
        <time>2000-01-01T07:49:51.000Z</time>
      </trkpt>
      <trkpt lat="45.10286" lon="2.65601">
        <ele>1600</ele>
        <time>2000-01-01T07:50:01.000Z</time>
      </trkpt>
      <trkpt lat="45.10285" lon="2.65593">
        <ele>1599</ele>
        <time>2000-01-01T07:50:11.000Z</time>
      </trkpt>
      <trkpt lat="45.10283" lon="2.65588">
        <ele>1599</ele>
        <time>2000-01-01T07:50:21.000Z</time>
      </trkpt>
      <trkpt lat="45.1028" lon="2.65582">
        <ele>1580</ele>
        <time>2000-01-01T07:50:31.000Z</time>
      </trkpt>
      <trkpt lat="45.10277" lon="2.65576">
        <ele>1607</ele>
        <time>2000-01-01T07:50:41.000Z</time>
      </trkpt>
      <trkpt lat="45.10275" lon="2.6557">
        <ele>1607</ele>
        <time>2000-01-01T07:50:51.000Z</time>
      </trkpt>
      <trkpt lat="45.10274" lon="2.65564">
        <ele>1608</ele>
        <time>2000-01-01T07:51:01.000Z</time>
      </trkpt>
      <trkpt lat="45.10274" lon="2.65561">
        <ele>1609</ele>
        <time>2000-01-01T07:51:11.000Z</time>
      </trkpt>
      <trkpt lat="45.10273" lon="2.65554">
        <ele>1584</ele>
        <time>2000-01-01T07:51:21.000Z</time>
      </trkpt>
      <trkpt lat="45.1027" lon="2.65549">
        <ele>1610</ele>
        <time>2000-01-01T07:51:31.000Z</time>
      </trkpt>
      <trkpt lat="45.10267" lon="2.65544">
        <ele>1611</ele>
        <time>2000-01-01T07:51:41.000Z</time>
      </trkpt>
      <trkpt lat="45.10267" lon="2.65537">
        <ele>1612</ele>
        <time>2000-01-01T07:51:51.000Z</time>
      </trkpt>
      <trkpt lat="45.10266" lon="2.65532">
        <ele>1612</ele>
        <time>2000-01-01T07:52:01.000Z</time>
      </trkpt>
      <trkpt lat="45.10265" lon="2.65527">
        <ele>1590</ele>
        <time>2000-01-01T07:52:11.000Z</time>
      </trkpt>
      <trkpt lat="45.10264" lon="2.65521">
        <ele>1613</ele>
        <time>2000-01-01T07:52:21.000Z</time>
      </trkpt>
      <trkpt lat="45.10264" lon="2.65513">
        <ele>1613</ele>
        <time>2000-01-01T07:52:31.000Z</time>
      </trkpt>
      <trkpt lat="45.10263" lon="2.65506">
        <ele>1612</ele>
        <time>2000-01-01T07:52:41.000Z</time>
      </trkpt>
      <trkpt lat="45.10262" lon="2.655">
        <ele>1595</ele>
        <time>2000-01-01T07:52:51.000Z</time>
      </trkpt>
      <trkpt lat="45.10261" lon="2.65494">
        <ele>1618</ele>
        <time>2000-01-01T07:53:01.000Z</time>
      </trkpt>
      <trkpt lat="45.1026" lon="2.65489">
        <ele>1619</ele>
        <time>2000-01-01T07:53:11.000Z</time>
      </trkpt>
      <trkpt lat="45.10259" lon="2.65483">
        <ele>1621</ele>
        <time>2000-01-01T07:53:21.000Z</time>
      </trkpt>
      <trkpt lat="45.10257" lon="2.65478">
        <ele>1622</ele>
        <time>2000-01-01T07:53:31.000Z</time>
      </trkpt>
      <trkpt lat="45.10256" lon="2.65471">
        <ele>1603</ele>
        <time>2000-01-01T07:53:41.000Z</time>
      </trkpt>
      <trkpt lat="45.10255" lon="2.65466">
        <ele>1626</ele>
        <time>2000-01-01T07:53:51.000Z</time>
      </trkpt>
      <trkpt lat="45.10255" lon="2.65463">
        <ele>1626</ele>
        <time>2000-01-01T07:54:01.000Z</time>
      </trkpt>
      <trkpt lat="45.10255" lon="2.65458">
        <ele>1627</ele>
        <time>2000-01-01T07:54:11.000Z</time>
      </trkpt>
      <trkpt lat="45.10257" lon="2.65453">
        <ele>1628</ele>
        <time>2000-01-01T07:54:21.000Z</time>
      </trkpt>
      <trkpt lat="45.10258" lon="2.65448">
        <ele>1629</ele>
        <time>2000-01-01T07:54:31.000Z</time>
      </trkpt>
      <trkpt lat="45.10257" lon="2.65446">
        <ele>1609</ele>
        <time>2000-01-01T07:54:41.000Z</time>
      </trkpt>
      <trkpt lat="45.10254" lon="2.65443">
        <ele>1630</ele>
        <time>2000-01-01T07:54:51.000Z</time>
      </trkpt>
      <trkpt lat="45.1025" lon="2.6544">
        <ele>1623</ele>
        <time>2000-01-01T07:55:01.000Z</time>
      </trkpt>
      <trkpt lat="45.10246" lon="2.65436">
        <ele>1624</ele>
        <time>2000-01-01T07:55:11.000Z</time>
      </trkpt>
      <trkpt lat="45.10242" lon="2.65433">
        <ele>1625</ele>
        <time>2000-01-01T07:55:21.000Z</time>
      </trkpt>
      <trkpt lat="45.1024" lon="2.65433">
        <ele>1618</ele>
        <time>2000-01-01T07:55:31.000Z</time>
      </trkpt>
      <trkpt lat="45.10236" lon="2.65431">
        <ele>1624</ele>
        <time>2000-01-01T07:55:41.000Z</time>
      </trkpt>
      <trkpt lat="45.10234" lon="2.65431">
        <ele>1624</ele>
        <time>2000-01-01T07:55:51.000Z</time>
      </trkpt>
      <trkpt lat="45.10232" lon="2.6543">
        <ele>1624</ele>
        <time>2000-01-01T07:56:01.000Z</time>
      </trkpt>
      <trkpt lat="45.10232" lon="2.65426">
        <ele>1625</ele>
        <time>2000-01-01T07:56:11.000Z</time>
      </trkpt>
      <trkpt lat="45.10234" lon="2.65419">
        <ele>1626</ele>
        <time>2000-01-01T07:56:21.000Z</time>
      </trkpt>
      <trkpt lat="45.10235" lon="2.65413">
        <ele>1625</ele>
        <time>2000-01-01T07:56:31.000Z</time>
      </trkpt>
      <trkpt lat="45.10235" lon="2.65407">
        <ele>1632</ele>
        <time>2000-01-01T07:56:41.000Z</time>
      </trkpt>
      <trkpt lat="45.10238" lon="2.65402">
        <ele>1632</ele>
        <time>2000-01-01T07:56:51.000Z</time>
      </trkpt>
      <trkpt lat="45.10239" lon="2.65395">
        <ele>1632</ele>
        <time>2000-01-01T07:57:01.000Z</time>
      </trkpt>
      <trkpt lat="45.1024" lon="2.6539">
        <ele>1632</ele>
        <time>2000-01-01T07:57:11.000Z</time>
      </trkpt>
      <trkpt lat="45.10242" lon="2.65388">
        <ele>1633</ele>
        <time>2000-01-01T07:57:21.000Z</time>
      </trkpt>
      <trkpt lat="45.10243" lon="2.65385">
        <ele>1632</ele>
        <time>2000-01-01T07:57:31.000Z</time>
      </trkpt>
      <trkpt lat="45.10247" lon="2.65383">
        <ele>1632</ele>
        <time>2000-01-01T07:57:41.000Z</time>
      </trkpt>
      <trkpt lat="45.10251" lon="2.6538">
        <ele>1631</ele>
        <time>2000-01-01T07:57:51.000Z</time>
      </trkpt>
      <trkpt lat="45.10256" lon="2.65378">
        <ele>1631</ele>
        <time>2000-01-01T07:58:01.000Z</time>
      </trkpt>
      <trkpt lat="45.10258" lon="2.65377">
        <ele>1631</ele>
        <time>2000-01-01T07:58:11.000Z</time>
      </trkpt>
      <trkpt lat="45.10262" lon="2.65373">
        <ele>1635</ele>
        <time>2000-01-01T07:58:21.000Z</time>
      </trkpt>
      <trkpt lat="45.10266" lon="2.6537">
        <ele>1631</ele>
        <time>2000-01-01T07:58:31.000Z</time>
      </trkpt>
      <trkpt lat="45.1027" lon="2.65367">
        <ele>1631</ele>
        <time>2000-01-01T07:58:41.000Z</time>
      </trkpt>
      <trkpt lat="45.10273" lon="2.65365">
        <ele>1631</ele>
        <time>2000-01-01T07:58:51.000Z</time>
      </trkpt>
      <trkpt lat="45.10277" lon="2.65363">
        <ele>1631</ele>
        <time>2000-01-01T07:59:01.000Z</time>
      </trkpt>
      <trkpt lat="45.10279" lon="2.65363">
        <ele>1631</ele>
        <time>2000-01-01T07:59:11.000Z</time>
      </trkpt>
      <trkpt lat="45.10283" lon="2.65361">
        <ele>1633.5</ele>
        <time>2000-01-01T07:59:21.000Z</time>
      </trkpt>
      <trkpt lat="45.10287" lon="2.65358">
        <ele>1631</ele>
        <time>2000-01-01T07:59:31.000Z</time>
      </trkpt>
      <trkpt lat="45.10291" lon="2.65355">
        <ele>1630</ele>
        <time>2000-01-01T07:59:41.000Z</time>
      </trkpt>
      <trkpt lat="45.10296" lon="2.65352">
        <ele>1630</ele>
        <time>2000-01-01T07:59:51.000Z</time>
      </trkpt>
      <trkpt lat="45.103" lon="2.6535">
        <ele>1632</ele>
        <time>2000-01-01T08:00:01.000Z</time>
      </trkpt>
      <trkpt lat="45.10305" lon="2.65347">
        <ele>1630</ele>
        <time>2000-01-01T08:00:11.000Z</time>
      </trkpt>
      <trkpt lat="45.10309" lon="2.65344">
        <ele>1630</ele>
        <time>2000-01-01T08:00:21.000Z</time>
      </trkpt>
      <trkpt lat="45.10313" lon="2.6534">
        <ele>1629</ele>
        <time>2000-01-01T08:00:31.000Z</time>
      </trkpt>
      <trkpt lat="45.10317" lon="2.65338">
        <ele>1629</ele>
        <time>2000-01-01T08:00:41.000Z</time>
      </trkpt>
      <trkpt lat="45.10321" lon="2.65336">
        <ele>1630</ele>
        <time>2000-01-01T08:00:51.000Z</time>
      </trkpt>
      <trkpt lat="45.10326" lon="2.65332">
        <ele>1623</ele>
        <time>2000-01-01T08:01:01.000Z</time>
      </trkpt>
      <trkpt lat="45.1033" lon="2.65329">
        <ele>1624</ele>
        <time>2000-01-01T08:01:11.000Z</time>
      </trkpt>
      <trkpt lat="45.10335" lon="2.65325">
        <ele>1621</ele>
        <time>2000-01-01T08:01:21.000Z</time>
      </trkpt>
      <trkpt lat="45.10339" lon="2.65321">
        <ele>1626</ele>
        <time>2000-01-01T08:01:31.000Z</time>
      </trkpt>
      <trkpt lat="45.10344" lon="2.65319">
        <ele>1616</ele>
        <time>2000-01-01T08:01:41.000Z</time>
      </trkpt>
      <trkpt lat="45.10348" lon="2.65316">
        <ele>1615</ele>
        <time>2000-01-01T08:01:51.000Z</time>
      </trkpt>
      <trkpt lat="45.10352" lon="2.65312">
        <ele>1613</ele>
        <time>2000-01-01T08:02:01.000Z</time>
      </trkpt>
      <trkpt lat="45.10355" lon="2.65308">
        <ele>1624</ele>
        <time>2000-01-01T08:02:11.000Z</time>
      </trkpt>
      <trkpt lat="45.10359" lon="2.65304">
        <ele>1611</ele>
        <time>2000-01-01T08:02:21.000Z</time>
      </trkpt>
      <trkpt lat="45.10362" lon="2.653">
        <ele>1610</ele>
        <time>2000-01-01T08:02:31.000Z</time>
      </trkpt>
      <trkpt lat="45.10366" lon="2.65296">
        <ele>1609</ele>
        <time>2000-01-01T08:02:41.000Z</time>
      </trkpt>
      <trkpt lat="45.1037" lon="2.65294">
        <ele>1609</ele>
        <time>2000-01-01T08:02:51.000Z</time>
      </trkpt>
      <trkpt lat="45.10373" lon="2.65291">
        <ele>1622</ele>
        <time>2000-01-01T08:03:01.000Z</time>
      </trkpt>
      <trkpt lat="45.10377" lon="2.65288">
        <ele>1608</ele>
        <time>2000-01-01T08:03:11.000Z</time>
      </trkpt>
      <trkpt lat="45.10381" lon="2.65284">
        <ele>1607</ele>
        <time>2000-01-01T08:03:21.000Z</time>
      </trkpt>
      <trkpt lat="45.10385" lon="2.65279">
        <ele>1606</ele>
        <time>2000-01-01T08:03:31.000Z</time>
      </trkpt>
      <trkpt lat="45.10389" lon="2.65275">
        <ele>1619</ele>
        <time>2000-01-01T08:03:41.000Z</time>
      </trkpt>
      <trkpt lat="45.10393" lon="2.65272">
        <ele>1605</ele>
        <time>2000-01-01T08:03:51.000Z</time>
      </trkpt>
      <trkpt lat="45.10395" lon="2.6527">
        <ele>1605</ele>
        <time>2000-01-01T08:04:01.000Z</time>
      </trkpt>
      <trkpt lat="45.10396" lon="2.65268">
        <ele>1604</ele>
        <time>2000-01-01T08:04:11.000Z</time>
      </trkpt>
      <trkpt lat="45.104" lon="2.65266">
        <ele>1604</ele>
        <time>2000-01-01T08:04:21.000Z</time>
      </trkpt>
      <trkpt lat="45.10404" lon="2.65262">
        <ele>1603</ele>
        <time>2000-01-01T08:04:31.000Z</time>
      </trkpt>
      <trkpt lat="45.10409" lon="2.65258">
        <ele>1615</ele>
        <time>2000-01-01T08:04:41.000Z</time>
      </trkpt>
      <trkpt lat="45.10413" lon="2.65254">
        <ele>1600</ele>
        <time>2000-01-01T08:04:51.000Z</time>
      </trkpt>
      <trkpt lat="45.10417" lon="2.65249">
        <ele>1598</ele>
        <time>2000-01-01T08:05:01.000Z</time>
      </trkpt>
      <trkpt lat="45.10421" lon="2.65243">
        <ele>1597</ele>
        <time>2000-01-01T08:05:11.000Z</time>
      </trkpt>
      <trkpt lat="45.10424" lon="2.65236">
        <ele>1611</ele>
        <time>2000-01-01T08:05:21.000Z</time>
      </trkpt>
      <trkpt lat="45.10427" lon="2.65229">
        <ele>1595</ele>
        <time>2000-01-01T08:05:31.000Z</time>
      </trkpt>
      <trkpt lat="45.1043" lon="2.65223">
        <ele>1595</ele>
        <time>2000-01-01T08:05:41.000Z</time>
      </trkpt>
      <trkpt lat="45.10433" lon="2.65217">
        <ele>1594</ele>
        <time>2000-01-01T08:05:51.000Z</time>
      </trkpt>
      <trkpt lat="45.10436" lon="2.6521">
        <ele>1607</ele>
        <time>2000-01-01T08:06:01.000Z</time>
      </trkpt>
      <trkpt lat="45.10439" lon="2.65204">
        <ele>1594</ele>
        <time>2000-01-01T08:06:11.000Z</time>
      </trkpt>
      <trkpt lat="45.10442" lon="2.652">
        <ele>1594</ele>
        <time>2000-01-01T08:06:21.000Z</time>
      </trkpt>
      <trkpt lat="45.10445" lon="2.65194">
        <ele>1594</ele>
        <time>2000-01-01T08:06:31.000Z</time>
      </trkpt>
      <trkpt lat="45.10448" lon="2.65188">
        <ele>1604</ele>
        <time>2000-01-01T08:06:41.000Z</time>
      </trkpt>
      <trkpt lat="45.10451" lon="2.65182">
        <ele>1594</ele>
        <time>2000-01-01T08:06:51.000Z</time>
      </trkpt>
      <trkpt lat="45.10455" lon="2.65176">
        <ele>1594</ele>
        <time>2000-01-01T08:07:01.000Z</time>
      </trkpt>
      <trkpt lat="45.10458" lon="2.6517">
        <ele>1594</ele>
        <time>2000-01-01T08:07:11.000Z</time>
      </trkpt>
      <trkpt lat="45.10462" lon="2.65164">
        <ele>1601</ele>
        <time>2000-01-01T08:07:21.000Z</time>
      </trkpt>
      <trkpt lat="45.10465" lon="2.65158">
        <ele>1592</ele>
        <time>2000-01-01T08:07:31.000Z</time>
      </trkpt>
      <trkpt lat="45.10468" lon="2.65153">
        <ele>1592</ele>
        <time>2000-01-01T08:07:41.000Z</time>
      </trkpt>
      <trkpt lat="45.10472" lon="2.65146">
        <ele>1591</ele>
        <time>2000-01-01T08:07:51.000Z</time>
      </trkpt>
      <trkpt lat="45.10476" lon="2.65141">
        <ele>1600.5</ele>
        <time>2000-01-01T08:08:01.000Z</time>
      </trkpt>
      <trkpt lat="45.10478" lon="2.65139">
        <ele>1591</ele>
        <time>2000-01-01T08:08:11.000Z</time>
      </trkpt>
      <trkpt lat="45.10482" lon="2.65134">
        <ele>1591</ele>
        <time>2000-01-01T08:08:21.000Z</time>
      </trkpt>
      <trkpt lat="45.10485" lon="2.6513">
        <ele>1591</ele>
        <time>2000-01-01T08:08:31.000Z</time>
      </trkpt>
      <trkpt lat="45.1049" lon="2.65125">
        <ele>1591</ele>
        <time>2000-01-01T08:08:41.000Z</time>
      </trkpt>
      <trkpt lat="45.10493" lon="2.65121">
        <ele>1601.7</ele>
        <time>2000-01-01T08:08:51.000Z</time>
      </trkpt>
      <trkpt lat="45.10495" lon="2.65118">
        <ele>1592</ele>
        <time>2000-01-01T08:09:01.000Z</time>
      </trkpt>
      <trkpt lat="45.10497" lon="2.65116">
        <ele>1592</ele>
        <time>2000-01-01T08:09:11.000Z</time>
      </trkpt>
      <trkpt lat="45.10499" lon="2.65115">
        <ele>1592</ele>
        <time>2000-01-01T08:09:21.000Z</time>
      </trkpt>
      <trkpt lat="45.10503" lon="2.65114">
        <ele>1589</ele>
        <time>2000-01-01T08:09:31.000Z</time>
      </trkpt>
      <trkpt lat="45.10506" lon="2.65111">
        <ele>1589</ele>
        <time>2000-01-01T08:09:41.000Z</time>
      </trkpt>
      <trkpt lat="45.1051" lon="2.65104">
        <ele>1603</ele>
        <time>2000-01-01T08:09:51.000Z</time>
      </trkpt>
      <trkpt lat="45.10513" lon="2.65099">
        <ele>1589</ele>
        <time>2000-01-01T08:10:01.000Z</time>
      </trkpt>
      <trkpt lat="45.10515" lon="2.65092">
        <ele>1590</ele>
        <time>2000-01-01T08:10:11.000Z</time>
      </trkpt>
      <trkpt lat="45.10518" lon="2.65085">
        <ele>1589</ele>
        <time>2000-01-01T08:10:21.000Z</time>
      </trkpt>
      <trkpt lat="45.10522" lon="2.6508">
        <ele>1605</ele>
        <time>2000-01-01T08:10:31.000Z</time>
      </trkpt>
      <trkpt lat="45.10526" lon="2.65075">
        <ele>1587</ele>
        <time>2000-01-01T08:10:41.000Z</time>
      </trkpt>
      <trkpt lat="45.10531" lon="2.65072">
        <ele>1587</ele>
        <time>2000-01-01T08:10:51.000Z</time>
      </trkpt>
      <trkpt lat="45.10534" lon="2.6507">
        <ele>1586</ele>
        <time>2000-01-01T08:11:01.000Z</time>
      </trkpt>
      <trkpt lat="45.1054" lon="2.65065">
        <ele>1605</ele>
        <time>2000-01-01T08:11:11.000Z</time>
      </trkpt>
      <trkpt lat="45.10543" lon="2.65064">
        <ele>1585</ele>
        <time>2000-01-01T08:11:21.000Z</time>
      </trkpt>
      <trkpt lat="45.10547" lon="2.65062">
        <ele>1585</ele>
        <time>2000-01-01T08:11:31.000Z</time>
      </trkpt>
      <trkpt lat="45.10551" lon="2.6506">
        <ele>1585</ele>
        <time>2000-01-01T08:11:41.000Z</time>
      </trkpt>
      <trkpt lat="45.10556" lon="2.65057">
        <ele>1584</ele>
        <time>2000-01-01T08:11:51.000Z</time>
      </trkpt>
      <trkpt lat="45.1056" lon="2.65054">
        <ele>1605</ele>
        <time>2000-01-01T08:12:01.000Z</time>
      </trkpt>
      <trkpt lat="45.10563" lon="2.65049">
        <ele>1584</ele>
        <time>2000-01-01T08:12:11.000Z</time>
      </trkpt>
      <trkpt lat="45.10566" lon="2.65044">
        <ele>1584</ele>
        <time>2000-01-01T08:12:21.000Z</time>
      </trkpt>
      <trkpt lat="45.10571" lon="2.6504">
        <ele>1584</ele>
        <time>2000-01-01T08:12:31.000Z</time>
      </trkpt>
      <trkpt lat="45.10575" lon="2.65036">
        <ele>1603</ele>
        <time>2000-01-01T08:12:41.000Z</time>
      </trkpt>
      <trkpt lat="45.10579" lon="2.65031">
        <ele>1585</ele>
        <time>2000-01-01T08:12:51.000Z</time>
      </trkpt>
      <trkpt lat="45.10583" lon="2.65027">
        <ele>1585</ele>
        <time>2000-01-01T08:13:01.000Z</time>
      </trkpt>
      <trkpt lat="45.10587" lon="2.65022">
        <ele>1581</ele>
        <time>2000-01-01T08:13:11.000Z</time>
      </trkpt>
      <trkpt lat="45.10592" lon="2.65017">
        <ele>1600</ele>
        <time>2000-01-01T08:13:21.000Z</time>
      </trkpt>
      <trkpt lat="45.10596" lon="2.65011">
        <ele>1582</ele>
        <time>2000-01-01T08:13:31.000Z</time>
      </trkpt>
      <trkpt lat="45.106" lon="2.65006">
        <ele>1582</ele>
        <time>2000-01-01T08:13:41.000Z</time>
      </trkpt>
      <trkpt lat="45.10603" lon="2.65001">
        <ele>1581</ele>
        <time>2000-01-01T08:13:51.000Z</time>
      </trkpt>
      <trkpt lat="45.10607" lon="2.64995">
        <ele>1599</ele>
        <time>2000-01-01T08:14:01.000Z</time>
      </trkpt>
      <trkpt lat="45.1061" lon="2.64989">
        <ele>1581</ele>
        <time>2000-01-01T08:14:11.000Z</time>
      </trkpt>
      <trkpt lat="45.10613" lon="2.64984">
        <ele>1581</ele>
        <time>2000-01-01T08:14:21.000Z</time>
      </trkpt>
      <trkpt lat="45.10616" lon="2.64978">
        <ele>1580</ele>
        <time>2000-01-01T08:14:31.000Z</time>
      </trkpt>
      <trkpt lat="45.10619" lon="2.64972">
        <ele>1598</ele>
        <time>2000-01-01T08:14:41.000Z</time>
      </trkpt>
      <trkpt lat="45.10622" lon="2.64966">
        <ele>1580</ele>
        <time>2000-01-01T08:14:51.000Z</time>
      </trkpt>
      <trkpt lat="45.10624" lon="2.6496">
        <ele>1580</ele>
        <time>2000-01-01T08:15:01.000Z</time>
      </trkpt>
      <trkpt lat="45.10626" lon="2.64955">
        <ele>1579</ele>
        <time>2000-01-01T08:15:11.000Z</time>
      </trkpt>
      <trkpt lat="45.10629" lon="2.6495">
        <ele>1579</ele>
        <time>2000-01-01T08:15:21.000Z</time>
      </trkpt>
      <trkpt lat="45.10631" lon="2.64945">
        <ele>1595</ele>
        <time>2000-01-01T08:15:31.000Z</time>
      </trkpt>
      <trkpt lat="45.10634" lon="2.64939">
        <ele>1579</ele>
        <time>2000-01-01T08:15:41.000Z</time>
      </trkpt>
      <trkpt lat="45.10637" lon="2.64931">
        <ele>1579</ele>
        <time>2000-01-01T08:15:51.000Z</time>
      </trkpt>
      <trkpt lat="45.1064" lon="2.64926">
        <ele>1579</ele>
        <time>2000-01-01T08:16:01.000Z</time>
      </trkpt>
      <trkpt lat="45.10641" lon="2.6492">
        <ele>1592</ele>
        <time>2000-01-01T08:16:11.000Z</time>
      </trkpt>
      <trkpt lat="45.10644" lon="2.64915">
        <ele>1574</ele>
        <time>2000-01-01T08:16:21.000Z</time>
      </trkpt>
      <trkpt lat="45.10646" lon="2.6491">
        <ele>1574</ele>
        <time>2000-01-01T08:16:31.000Z</time>
      </trkpt>
      <trkpt lat="45.10649" lon="2.64904">
        <ele>1573</ele>
        <time>2000-01-01T08:16:41.000Z</time>
      </trkpt>
      <trkpt lat="45.10651" lon="2.64898">
        <ele>1573</ele>
        <time>2000-01-01T08:16:51.000Z</time>
      </trkpt>
      <trkpt lat="45.10654" lon="2.6489">
        <ele>1587</ele>
        <time>2000-01-01T08:17:01.000Z</time>
      </trkpt>
      <trkpt lat="45.10656" lon="2.64885">
        <ele>1572</ele>
        <time>2000-01-01T08:17:11.000Z</time>
      </trkpt>
      <trkpt lat="45.10658" lon="2.6488">
        <ele>1571</ele>
        <time>2000-01-01T08:17:21.000Z</time>
      </trkpt>
      <trkpt lat="45.1066" lon="2.64874">
        <ele>1571</ele>
        <time>2000-01-01T08:17:31.000Z</time>
      </trkpt>
      <trkpt lat="45.10663" lon="2.64868">
        <ele>1570</ele>
        <time>2000-01-01T08:17:41.000Z</time>
      </trkpt>
      <trkpt lat="45.10666" lon="2.64862">
        <ele>1583</ele>
        <time>2000-01-01T08:17:51.000Z</time>
      </trkpt>
      <trkpt lat="45.10669" lon="2.64857">
        <ele>1561</ele>
        <time>2000-01-01T08:18:01.000Z</time>
      </trkpt>
      <trkpt lat="45.10671" lon="2.64851">
        <ele>1562</ele>
        <time>2000-01-01T08:18:11.000Z</time>
      </trkpt>
      <trkpt lat="45.10673" lon="2.64845">
        <ele>1562</ele>
        <time>2000-01-01T08:18:21.000Z</time>
      </trkpt>
      <trkpt lat="45.10674" lon="2.64839">
        <ele>1563</ele>
        <time>2000-01-01T08:18:31.000Z</time>
      </trkpt>
      <trkpt lat="45.10677" lon="2.64834">
        <ele>1579</ele>
        <time>2000-01-01T08:18:41.000Z</time>
      </trkpt>
      <trkpt lat="45.10679" lon="2.64827">
        <ele>1561</ele>
        <time>2000-01-01T08:18:51.000Z</time>
      </trkpt>
      <trkpt lat="45.10681" lon="2.64821">
        <ele>1560</ele>
        <time>2000-01-01T08:19:01.000Z</time>
      </trkpt>
      <trkpt lat="45.10683" lon="2.64815">
        <ele>1559</ele>
        <time>2000-01-01T08:19:11.000Z</time>
      </trkpt>
      <trkpt lat="45.10685" lon="2.64811">
        <ele>1558</ele>
        <time>2000-01-01T08:19:21.000Z</time>
      </trkpt>
      <trkpt lat="45.10688" lon="2.64805">
        <ele>1574</ele>
        <time>2000-01-01T08:19:31.000Z</time>
      </trkpt>
      <trkpt lat="45.1069" lon="2.648">
        <ele>1557</ele>
        <time>2000-01-01T08:19:41.000Z</time>
      </trkpt>
      <trkpt lat="45.10691" lon="2.64795">
        <ele>1556</ele>
        <time>2000-01-01T08:19:51.000Z</time>
      </trkpt>
      <trkpt lat="45.10694" lon="2.6479">
        <ele>1556</ele>
        <time>2000-01-01T08:20:01.000Z</time>
      </trkpt>
      <trkpt lat="45.10697" lon="2.64785">
        <ele>1556</ele>
        <time>2000-01-01T08:20:11.000Z</time>
      </trkpt>
      <trkpt lat="45.107" lon="2.6478">
        <ele>1568</ele>
        <time>2000-01-01T08:20:21.000Z</time>
      </trkpt>
      <trkpt lat="45.10703" lon="2.64774">
        <ele>1555</ele>
        <time>2000-01-01T08:20:31.000Z</time>
      </trkpt>
      <trkpt lat="45.10706" lon="2.64769">
        <ele>1555</ele>
        <time>2000-01-01T08:20:41.000Z</time>
      </trkpt>
      <trkpt lat="45.1071" lon="2.64764">
        <ele>1555</ele>
        <time>2000-01-01T08:20:51.000Z</time>
      </trkpt>
      <trkpt lat="45.10713" lon="2.64758">
        <ele>1564</ele>
        <time>2000-01-01T08:21:01.000Z</time>
      </trkpt>
      <trkpt lat="45.10718" lon="2.64752">
        <ele>1555</ele>
        <time>2000-01-01T08:21:11.000Z</time>
      </trkpt>
      <trkpt lat="45.10723" lon="2.64746">
        <ele>1550</ele>
        <time>2000-01-01T08:21:21.000Z</time>
      </trkpt>
      <trkpt lat="45.10727" lon="2.6474">
        <ele>1550</ele>
        <time>2000-01-01T08:21:31.000Z</time>
      </trkpt>
      <trkpt lat="45.10731" lon="2.64734">
        <ele>1561</ele>
        <time>2000-01-01T08:21:41.000Z</time>
      </trkpt>
      <trkpt lat="45.10735" lon="2.64728">
        <ele>1550</ele>
        <time>2000-01-01T08:21:51.000Z</time>
      </trkpt>
      <trkpt lat="45.10739" lon="2.64722">
        <ele>1549</ele>
        <time>2000-01-01T08:22:01.000Z</time>
      </trkpt>
      <trkpt lat="45.10744" lon="2.64717">
        <ele>1549</ele>
        <time>2000-01-01T08:22:11.000Z</time>
      </trkpt>
      <trkpt lat="45.10748" lon="2.64712">
        <ele>1558</ele>
        <time>2000-01-01T08:22:21.000Z</time>
      </trkpt>
      <trkpt lat="45.10752" lon="2.64706">
        <ele>1542</ele>
        <time>2000-01-01T08:22:31.000Z</time>
      </trkpt>
      <trkpt lat="45.10755" lon="2.64701">
        <ele>1542</ele>
        <time>2000-01-01T08:22:41.000Z</time>
      </trkpt>
      <trkpt lat="45.10759" lon="2.64695">
        <ele>1541</ele>
        <time>2000-01-01T08:22:51.000Z</time>
      </trkpt>
      <trkpt lat="45.10762" lon="2.64689">
        <ele>1557</ele>
        <time>2000-01-01T08:23:01.000Z</time>
      </trkpt>
      <trkpt lat="45.10764" lon="2.64683">
        <ele>1541</ele>
        <time>2000-01-01T08:23:11.000Z</time>
      </trkpt>
      <trkpt lat="45.10767" lon="2.64677">
        <ele>1541</ele>
        <time>2000-01-01T08:23:21.000Z</time>
      </trkpt>
      <trkpt lat="45.10766" lon="2.64679">
        <ele>1541</ele>
        <time>2000-01-01T08:23:31.000Z</time>
      </trkpt>
      <trkpt lat="45.1077" lon="2.64673">
        <ele>1541</ele>
        <time>2000-01-01T08:23:41.000Z</time>
      </trkpt>
      <trkpt lat="45.10773" lon="2.64667">
        <ele>1556</ele>
        <time>2000-01-01T08:23:51.000Z</time>
      </trkpt>
      <trkpt lat="45.10778" lon="2.64662">
        <ele>1542</ele>
        <time>2000-01-01T08:24:01.000Z</time>
      </trkpt>
      <trkpt lat="45.10783" lon="2.64659">
        <ele>1542</ele>
        <time>2000-01-01T08:24:11.000Z</time>
      </trkpt>
      <trkpt lat="45.10788" lon="2.64655">
        <ele>1542</ele>
        <time>2000-01-01T08:24:21.000Z</time>
      </trkpt>
      <trkpt lat="45.10792" lon="2.64652">
        <ele>1555.5</ele>
        <time>2000-01-01T08:24:31.000Z</time>
      </trkpt>
      <trkpt lat="45.10796" lon="2.64649">
        <ele>1541</ele>
        <time>2000-01-01T08:24:41.000Z</time>
      </trkpt>
      <trkpt lat="45.108" lon="2.64646">
        <ele>1541</ele>
        <time>2000-01-01T08:24:51.000Z</time>
      </trkpt>
      <trkpt lat="45.10804" lon="2.64643">
        <ele>1541</ele>
        <time>2000-01-01T08:25:01.000Z</time>
      </trkpt>
      <trkpt lat="45.10809" lon="2.6464">
        <ele>1555</ele>
        <time>2000-01-01T08:25:11.000Z</time>
      </trkpt>
      <trkpt lat="45.10813" lon="2.64636">
        <ele>1542</ele>
        <time>2000-01-01T08:25:21.000Z</time>
      </trkpt>
      <trkpt lat="45.10816" lon="2.6463">
        <ele>1542</ele>
        <time>2000-01-01T08:25:31.000Z</time>
      </trkpt>
      <trkpt lat="45.10819" lon="2.64625">
        <ele>1542</ele>
        <time>2000-01-01T08:25:41.000Z</time>
      </trkpt>
      <trkpt lat="45.10823" lon="2.6462">
        <ele>1555</ele>
        <time>2000-01-01T08:25:51.000Z</time>
      </trkpt>
      <trkpt lat="45.10826" lon="2.64614">
        <ele>1543</ele>
        <time>2000-01-01T08:26:01.000Z</time>
      </trkpt>
      <trkpt lat="45.10829" lon="2.64607">
        <ele>1543</ele>
        <time>2000-01-01T08:26:11.000Z</time>
      </trkpt>
      <trkpt lat="45.10831" lon="2.646">
        <ele>1544</ele>
        <time>2000-01-01T08:26:21.000Z</time>
      </trkpt>
      <trkpt lat="45.10833" lon="2.64592">
        <ele>1555.5</ele>
        <time>2000-01-01T08:26:31.000Z</time>
      </trkpt>
      <trkpt lat="45.10835" lon="2.64586">
        <ele>1545</ele>
        <time>2000-01-01T08:26:41.000Z</time>
      </trkpt>
      <trkpt lat="45.10837" lon="2.64579">
        <ele>1545</ele>
        <time>2000-01-01T08:26:51.000Z</time>
      </trkpt>
      <trkpt lat="45.10839" lon="2.64573">
        <ele>1544</ele>
        <time>2000-01-01T08:27:01.000Z</time>
      </trkpt>
      <trkpt lat="45.10839" lon="2.64567">
        <ele>1556</ele>
        <time>2000-01-01T08:27:11.000Z</time>
      </trkpt>
      <trkpt lat="45.10838" lon="2.6456">
        <ele>1542</ele>
        <time>2000-01-01T08:27:21.000Z</time>
      </trkpt>
      <trkpt lat="45.10838" lon="2.64558">
        <ele>1542</ele>
        <time>2000-01-01T08:27:31.000Z</time>
      </trkpt>
      <trkpt lat="45.10834" lon="2.64556">
        <ele>1542</ele>
        <time>2000-01-01T08:27:41.000Z</time>
      </trkpt>
      <trkpt lat="45.10831" lon="2.64553">
        <ele>1538</ele>
        <time>2000-01-01T08:27:51.000Z</time>
      </trkpt>
      <trkpt lat="45.10829" lon="2.64547">
        <ele>1538</ele>
        <time>2000-01-01T08:28:01.000Z</time>
      </trkpt>
      <trkpt lat="45.10829" lon="2.64541">
        <ele>1556</ele>
        <time>2000-01-01T08:28:11.000Z</time>
      </trkpt>
      <trkpt lat="45.1083" lon="2.64534">
        <ele>1537</ele>
        <time>2000-01-01T08:28:21.000Z</time>
      </trkpt>
      <trkpt lat="45.10831" lon="2.64528">
        <ele>1537</ele>
        <time>2000-01-01T08:28:31.000Z</time>
      </trkpt>
      <trkpt lat="45.10833" lon="2.64521">
        <ele>1537</ele>
        <time>2000-01-01T08:28:41.000Z</time>
      </trkpt>
      <trkpt lat="45.10835" lon="2.64515">
        <ele>1551</ele>
        <time>2000-01-01T08:28:51.000Z</time>
      </trkpt>
      <trkpt lat="45.10837" lon="2.64508">
        <ele>1541</ele>
        <time>2000-01-01T08:29:01.000Z</time>
      </trkpt>
      <trkpt lat="45.1084" lon="2.64502">
        <ele>1541</ele>
        <time>2000-01-01T08:29:11.000Z</time>
      </trkpt>
      <trkpt lat="45.10842" lon="2.64495">
        <ele>1541</ele>
        <time>2000-01-01T08:29:21.000Z</time>
      </trkpt>
      <trkpt lat="45.10844" lon="2.64489">
        <ele>1548</ele>
        <time>2000-01-01T08:29:31.000Z</time>
      </trkpt>
      <trkpt lat="45.10846" lon="2.64483">
        <ele>1541</ele>
        <time>2000-01-01T08:29:41.000Z</time>
      </trkpt>
      <trkpt lat="45.10848" lon="2.64477">
        <ele>1541</ele>
        <time>2000-01-01T08:29:51.000Z</time>
      </trkpt>
      <trkpt lat="45.1085" lon="2.6447">
        <ele>1540</ele>
        <time>2000-01-01T08:30:01.000Z</time>
      </trkpt>
      <trkpt lat="45.10852" lon="2.64463">
        <ele>1546</ele>
        <time>2000-01-01T08:30:11.000Z</time>
      </trkpt>
      <trkpt lat="45.10854" lon="2.64457">
        <ele>1540</ele>
        <time>2000-01-01T08:30:21.000Z</time>
      </trkpt>
      <trkpt lat="45.10856" lon="2.6445">
        <ele>1539</ele>
        <time>2000-01-01T08:30:31.000Z</time>
      </trkpt>
      <trkpt lat="45.10857" lon="2.64444">
        <ele>1539</ele>
        <time>2000-01-01T08:30:41.000Z</time>
      </trkpt>
      <trkpt lat="45.1086" lon="2.64438">
        <ele>1546</ele>
        <time>2000-01-01T08:30:51.000Z</time>
      </trkpt>
      <trkpt lat="45.10863" lon="2.64431">
        <ele>1539</ele>
        <time>2000-01-01T08:31:01.000Z</time>
      </trkpt>
      <trkpt lat="45.10865" lon="2.64425">
        <ele>1539</ele>
        <time>2000-01-01T08:31:11.000Z</time>
      </trkpt>
      <trkpt lat="45.10868" lon="2.64418">
        <ele>1540</ele>
        <time>2000-01-01T08:31:21.000Z</time>
      </trkpt>
      <trkpt lat="45.10871" lon="2.64412">
        <ele>1545</ele>
        <time>2000-01-01T08:31:31.000Z</time>
      </trkpt>
      <trkpt lat="45.10873" lon="2.64405">
        <ele>1538</ele>
        <time>2000-01-01T08:31:41.000Z</time>
      </trkpt>
      <trkpt lat="45.10876" lon="2.64399">
        <ele>1538</ele>
        <time>2000-01-01T08:31:51.000Z</time>
      </trkpt>
      <trkpt lat="45.10879" lon="2.64393">
        <ele>1539</ele>
        <time>2000-01-01T08:32:01.000Z</time>
      </trkpt>
      <trkpt lat="45.10881" lon="2.64387">
        <ele>1545</ele>
        <time>2000-01-01T08:32:11.000Z</time>
      </trkpt>
      <trkpt lat="45.10884" lon="2.6438">
        <ele>1539</ele>
        <time>2000-01-01T08:32:21.000Z</time>
      </trkpt>
      <trkpt lat="45.10886" lon="2.64374">
        <ele>1539</ele>
        <time>2000-01-01T08:32:31.000Z</time>
      </trkpt>
      <trkpt lat="45.1089" lon="2.64368">
        <ele>1540</ele>
        <time>2000-01-01T08:32:41.000Z</time>
      </trkpt>
      <trkpt lat="45.10893" lon="2.64364">
        <ele>1545</ele>
        <time>2000-01-01T08:32:51.000Z</time>
      </trkpt>
      <trkpt lat="45.10896" lon="2.64358">
        <ele>1541</ele>
        <time>2000-01-01T08:33:01.000Z</time>
      </trkpt>
      <trkpt lat="45.10898" lon="2.64352">
        <ele>1541</ele>
        <time>2000-01-01T08:33:11.000Z</time>
      </trkpt>
      <trkpt lat="45.109" lon="2.64345">
        <ele>1543</ele>
        <time>2000-01-01T08:33:21.000Z</time>
      </trkpt>
      <trkpt lat="45.10903" lon="2.64339">
        <ele>1545</ele>
        <time>2000-01-01T08:33:31.000Z</time>
      </trkpt>
      <trkpt lat="45.10905" lon="2.64332">
        <ele>1543</ele>
        <time>2000-01-01T08:33:41.000Z</time>
      </trkpt>
      <trkpt lat="45.10907" lon="2.64326">
        <ele>1543</ele>
        <time>2000-01-01T08:33:51.000Z</time>
      </trkpt>
      <trkpt lat="45.10909" lon="2.64319">
        <ele>1541</ele>
        <time>2000-01-01T08:34:01.000Z</time>
      </trkpt>
      <trkpt lat="45.10912" lon="2.64314">
        <ele>1545</ele>
        <time>2000-01-01T08:34:11.000Z</time>
      </trkpt>
      <trkpt lat="45.10915" lon="2.6431">
        <ele>1539</ele>
        <time>2000-01-01T08:34:21.000Z</time>
      </trkpt>
      <trkpt lat="45.10919" lon="2.64305">
        <ele>1560</ele>
        <time>2000-01-01T08:34:31.000Z</time>
      </trkpt>
      <trkpt lat="45.10921" lon="2.643">
        <ele>1561</ele>
        <time>2000-01-01T08:34:41.000Z</time>
      </trkpt>
      <trkpt lat="45.10923" lon="2.64296">
        <ele>1561</ele>
        <time>2000-01-01T08:34:51.000Z</time>
      </trkpt>
      <trkpt lat="45.10922" lon="2.64289">
        <ele>1545</ele>
        <time>2000-01-01T08:35:01.000Z</time>
      </trkpt>
      <trkpt lat="45.10919" lon="2.64281">
        <ele>1559</ele>
        <time>2000-01-01T08:35:11.000Z</time>
      </trkpt>
      <trkpt lat="45.10917" lon="2.64275">
        <ele>1558</ele>
        <time>2000-01-01T08:35:21.000Z</time>
      </trkpt>
      <trkpt lat="45.10914" lon="2.64269">
        <ele>1538</ele>
        <time>2000-01-01T08:35:31.000Z</time>
      </trkpt>
      <trkpt lat="45.10913" lon="2.64263">
        <ele>1544</ele>
        <time>2000-01-01T08:35:41.000Z</time>
      </trkpt>
      <trkpt lat="45.10912" lon="2.64258">
        <ele>1541</ele>
        <time>2000-01-01T08:35:51.000Z</time>
      </trkpt>
      <trkpt lat="45.10912" lon="2.64251">
        <ele>1542</ele>
        <time>2000-01-01T08:36:01.000Z</time>
      </trkpt>
      <trkpt lat="45.10911" lon="2.64245">
        <ele>1540</ele>
        <time>2000-01-01T08:36:11.000Z</time>
      </trkpt>
      <trkpt lat="45.10911" lon="2.64238">
        <ele>1537</ele>
        <time>2000-01-01T08:36:21.000Z</time>
      </trkpt>
      <trkpt lat="45.10911" lon="2.64231">
        <ele>1544</ele>
        <time>2000-01-01T08:36:31.000Z</time>
      </trkpt>
      <trkpt lat="45.10912" lon="2.64225">
        <ele>1534</ele>
        <time>2000-01-01T08:36:41.000Z</time>
      </trkpt>
      <trkpt lat="45.10913" lon="2.64218">
        <ele>1533</ele>
        <time>2000-01-01T08:36:51.000Z</time>
      </trkpt>
      <trkpt lat="45.10914" lon="2.64211">
        <ele>1533</ele>
        <time>2000-01-01T08:37:01.000Z</time>
      </trkpt>
      <trkpt lat="45.10914" lon="2.64204">
        <ele>1544</ele>
        <time>2000-01-01T08:37:11.000Z</time>
      </trkpt>
      <trkpt lat="45.10915" lon="2.64198">
        <ele>1533</ele>
        <time>2000-01-01T08:37:21.000Z</time>
      </trkpt>
      <trkpt lat="45.10917" lon="2.64191">
        <ele>1558</ele>
        <time>2000-01-01T08:37:31.000Z</time>
      </trkpt>
      <trkpt lat="45.10917" lon="2.64185">
        <ele>1556</ele>
        <time>2000-01-01T08:37:41.000Z</time>
      </trkpt>
      <trkpt lat="45.10918" lon="2.64179">
        <ele>1553</ele>
        <time>2000-01-01T08:37:51.000Z</time>
      </trkpt>
      <trkpt lat="45.1092" lon="2.64172">
        <ele>1547</ele>
        <time>2000-01-01T08:38:01.000Z</time>
      </trkpt>
      <trkpt lat="45.10921" lon="2.64169">
        <ele>1549</ele>
        <time>2000-01-01T08:38:11.000Z</time>
      </trkpt>
      <trkpt lat="45.10922" lon="2.64162">
        <ele>1550</ele>
        <time>2000-01-01T08:38:21.000Z</time>
      </trkpt>
      <trkpt lat="45.10922" lon="2.64155">
        <ele>1553</ele>
        <time>2000-01-01T08:38:31.000Z</time>
      </trkpt>
      <trkpt lat="45.10924" lon="2.64149">
        <ele>1556</ele>
        <time>2000-01-01T08:38:41.000Z</time>
      </trkpt>
      <trkpt lat="45.10925" lon="2.64142">
        <ele>1547</ele>
        <time>2000-01-01T08:38:51.000Z</time>
      </trkpt>
      <trkpt lat="45.10928" lon="2.64135">
        <ele>1559</ele>
        <time>2000-01-01T08:39:01.000Z</time>
      </trkpt>
      <trkpt lat="45.10929" lon="2.64127">
        <ele>1560</ele>
        <time>2000-01-01T08:39:11.000Z</time>
      </trkpt>
      <trkpt lat="45.1093" lon="2.6412">
        <ele>1560</ele>
        <time>2000-01-01T08:39:21.000Z</time>
      </trkpt>
      <trkpt lat="45.10931" lon="2.64113">
        <ele>1548</ele>
        <time>2000-01-01T08:39:31.000Z</time>
      </trkpt>
      <trkpt lat="45.10932" lon="2.64107">
        <ele>1558</ele>
        <time>2000-01-01T08:39:41.000Z</time>
      </trkpt>
      <trkpt lat="45.10933" lon="2.64099">
        <ele>1557</ele>
        <time>2000-01-01T08:39:51.000Z</time>
      </trkpt>
      <trkpt lat="45.10935" lon="2.64093">
        <ele>1556</ele>
        <time>2000-01-01T08:40:01.000Z</time>
      </trkpt>
      <trkpt lat="45.10936" lon="2.64085">
        <ele>1548</ele>
        <time>2000-01-01T08:40:11.000Z</time>
      </trkpt>
      <trkpt lat="45.10938" lon="2.64077">
        <ele>1555</ele>
        <time>2000-01-01T08:40:21.000Z</time>
      </trkpt>
      <trkpt lat="45.10939" lon="2.6407">
        <ele>1556</ele>
        <time>2000-01-01T08:40:31.000Z</time>
      </trkpt>
      <trkpt lat="45.10941" lon="2.64062">
        <ele>1558</ele>
        <time>2000-01-01T08:40:41.000Z</time>
      </trkpt>
      <trkpt lat="45.10942" lon="2.64054">
        <ele>1548</ele>
        <time>2000-01-01T08:40:51.000Z</time>
      </trkpt>
      <trkpt lat="45.10944" lon="2.64047">
        <ele>1559</ele>
        <time>2000-01-01T08:41:01.000Z</time>
      </trkpt>
      <trkpt lat="45.10947" lon="2.64041">
        <ele>1560</ele>
        <time>2000-01-01T08:41:11.000Z</time>
      </trkpt>
      <trkpt lat="45.10948" lon="2.64035">
        <ele>1560</ele>
        <time>2000-01-01T08:41:21.000Z</time>
      </trkpt>
      <trkpt lat="45.10949" lon="2.64032">
        <ele>1560</ele>
        <time>2000-01-01T08:41:31.000Z</time>
      </trkpt>
      <trkpt lat="45.1095" lon="2.64026">
        <ele>1548</ele>
        <time>2000-01-01T08:41:41.000Z</time>
      </trkpt>
      <trkpt lat="45.10951" lon="2.64018">
        <ele>1560</ele>
        <time>2000-01-01T08:41:51.000Z</time>
      </trkpt>
      <trkpt lat="45.10952" lon="2.64012">
        <ele>1560</ele>
        <time>2000-01-01T08:42:01.000Z</time>
      </trkpt>
      <trkpt lat="45.10953" lon="2.64007">
        <ele>1560</ele>
        <time>2000-01-01T08:42:11.000Z</time>
      </trkpt>
      <trkpt lat="45.10955" lon="2.64001">
        <ele>1561</ele>
        <time>2000-01-01T08:42:21.000Z</time>
      </trkpt>
      <trkpt lat="45.10956" lon="2.63996">
        <ele>1552</ele>
        <time>2000-01-01T08:42:31.000Z</time>
      </trkpt>
      <trkpt lat="45.10956" lon="2.6399">
        <ele>1558</ele>
        <time>2000-01-01T08:42:41.000Z</time>
      </trkpt>
      <trkpt lat="45.10957" lon="2.63985">
        <ele>1559</ele>
        <time>2000-01-01T08:42:51.000Z</time>
      </trkpt>
      <trkpt lat="45.10958" lon="2.63979">
        <ele>1559</ele>
        <time>2000-01-01T08:43:01.000Z</time>
      </trkpt>
      <trkpt lat="45.10961" lon="2.63971">
        <ele>1560</ele>
        <time>2000-01-01T08:43:11.000Z</time>
      </trkpt>
      <trkpt lat="45.10961" lon="2.63968">
        <ele>1554</ele>
        <time>2000-01-01T08:43:21.000Z</time>
      </trkpt>
      <trkpt lat="45.10962" lon="2.63962">
        <ele>1560</ele>
        <time>2000-01-01T08:43:31.000Z</time>
      </trkpt>
      <trkpt lat="45.10963" lon="2.63956">
        <ele>1560</ele>
        <time>2000-01-01T08:43:41.000Z</time>
      </trkpt>
      <trkpt lat="45.10966" lon="2.6395">
        <ele>1560</ele>
        <time>2000-01-01T08:43:51.000Z</time>
      </trkpt>
      <trkpt lat="45.10969" lon="2.63943">
        <ele>1556</ele>
        <time>2000-01-01T08:44:01.000Z</time>
      </trkpt>
      <trkpt lat="45.10971" lon="2.63936">
        <ele>1562</ele>
        <time>2000-01-01T08:44:11.000Z</time>
      </trkpt>
      <trkpt lat="45.10974" lon="2.63929">
        <ele>1563</ele>
        <time>2000-01-01T08:44:21.000Z</time>
      </trkpt>
      <trkpt lat="45.10976" lon="2.63923">
        <ele>1565</ele>
        <time>2000-01-01T08:44:31.000Z</time>
      </trkpt>
      <trkpt lat="45.10978" lon="2.63916">
        <ele>1558</ele>
        <time>2000-01-01T08:44:41.000Z</time>
      </trkpt>
      <trkpt lat="45.10979" lon="2.63908">
        <ele>1565</ele>
        <time>2000-01-01T08:44:51.000Z</time>
      </trkpt>
      <trkpt lat="45.1098" lon="2.639">
        <ele>1564</ele>
        <time>2000-01-01T08:45:01.000Z</time>
      </trkpt>
      <trkpt lat="45.10982" lon="2.63893">
        <ele>1563</ele>
        <time>2000-01-01T08:45:11.000Z</time>
      </trkpt>
      <trkpt lat="45.10983" lon="2.63885">
        <ele>1560</ele>
        <time>2000-01-01T08:45:21.000Z</time>
      </trkpt>
      <trkpt lat="45.10985" lon="2.63878">
        <ele>1563</ele>
        <time>2000-01-01T08:45:31.000Z</time>
      </trkpt>
      <trkpt lat="45.10988" lon="2.63871">
        <ele>1563</ele>
        <time>2000-01-01T08:45:41.000Z</time>
      </trkpt>
      <trkpt lat="45.10988" lon="2.63865">
        <ele>1563</ele>
        <time>2000-01-01T08:45:51.000Z</time>
      </trkpt>
      <trkpt lat="45.10987" lon="2.63859">
        <ele>1563</ele>
        <time>2000-01-01T08:46:01.000Z</time>
      </trkpt>
      <trkpt lat="45.10987" lon="2.63853">
        <ele>1564</ele>
        <time>2000-01-01T08:46:11.000Z</time>
      </trkpt>
      <trkpt lat="45.10989" lon="2.63847">
        <ele>1565</ele>
        <time>2000-01-01T08:46:21.000Z</time>
      </trkpt>
      <trkpt lat="45.10989" lon="2.6384">
        <ele>1567</ele>
        <time>2000-01-01T08:46:31.000Z</time>
      </trkpt>
      <trkpt lat="45.10989" lon="2.63833">
        <ele>1568</ele>
        <time>2000-01-01T08:46:41.000Z</time>
      </trkpt>
      <trkpt lat="45.1099" lon="2.63829">
        <ele>1569</ele>
        <time>2000-01-01T08:46:51.000Z</time>
      </trkpt>
      <trkpt lat="45.1099" lon="2.63822">
        <ele>1567</ele>
        <time>2000-01-01T08:47:01.000Z</time>
      </trkpt>
      <trkpt lat="45.10988" lon="2.63814">
        <ele>1566</ele>
        <time>2000-01-01T08:47:11.000Z</time>
      </trkpt>
      <trkpt lat="45.10989" lon="2.63807">
        <ele>1565</ele>
        <time>2000-01-01T08:47:21.000Z</time>
      </trkpt>
      <trkpt lat="45.10992" lon="2.63802">
        <ele>1572</ele>
        <time>2000-01-01T08:47:31.000Z</time>
      </trkpt>
      <trkpt lat="45.10994" lon="2.63796">
        <ele>1565</ele>
        <time>2000-01-01T08:47:41.000Z</time>
      </trkpt>
      <trkpt lat="45.10994" lon="2.63796">
        <ele>1565</ele>
        <time>2000-01-01T08:47:51.000Z</time>
      </trkpt>
      <trkpt lat="45.10996" lon="2.63791">
        <ele>1564</ele>
        <time>2000-01-01T08:48:01.000Z</time>
      </trkpt>
      <trkpt lat="45.10999" lon="2.63786">
        <ele>1564</ele>
        <time>2000-01-01T08:48:11.000Z</time>
      </trkpt>
      <trkpt lat="45.11001" lon="2.63781">
        <ele>1563</ele>
        <time>2000-01-01T08:48:21.000Z</time>
      </trkpt>
      <trkpt lat="45.11002" lon="2.63775">
        <ele>1569.5</ele>
        <time>2000-01-01T08:48:31.000Z</time>
      </trkpt>
      <trkpt lat="45.11006" lon="2.63771">
        <ele>1563</ele>
        <time>2000-01-01T08:48:41.000Z</time>
      </trkpt>
      <trkpt lat="45.1101" lon="2.63768">
        <ele>1563</ele>
        <time>2000-01-01T08:48:51.000Z</time>
      </trkpt>
      <trkpt lat="45.11015" lon="2.63763">
        <ele>1562</ele>
        <time>2000-01-01T08:49:01.000Z</time>
      </trkpt>
      <trkpt lat="45.1102" lon="2.6376">
        <ele>1567</ele>
        <time>2000-01-01T08:49:11.000Z</time>
      </trkpt>
      <trkpt lat="45.11026" lon="2.63758">
        <ele>1560</ele>
        <time>2000-01-01T08:49:21.000Z</time>
      </trkpt>
      <trkpt lat="45.11031" lon="2.63759">
        <ele>1559</ele>
        <time>2000-01-01T08:49:31.000Z</time>
      </trkpt>
      <trkpt lat="45.11034" lon="2.63759">
        <ele>1559</ele>
        <time>2000-01-01T08:49:41.000Z</time>
      </trkpt>
      <trkpt lat="45.11039" lon="2.63761">
        <ele>1561</ele>
        <time>2000-01-01T08:49:51.000Z</time>
      </trkpt>
      <trkpt lat="45.11042" lon="2.63765">
        <ele>1557</ele>
        <time>2000-01-01T08:50:01.000Z</time>
      </trkpt>
      <trkpt lat="45.11046" lon="2.6377">
        <ele>1557</ele>
        <time>2000-01-01T08:50:11.000Z</time>
      </trkpt>
      <trkpt lat="45.11051" lon="2.63776">
        <ele>1556</ele>
        <time>2000-01-01T08:50:21.000Z</time>
      </trkpt>
      <trkpt lat="45.11055" lon="2.63783">
        <ele>1554</ele>
        <time>2000-01-01T08:50:31.000Z</time>
      </trkpt>
      <trkpt lat="45.11061" lon="2.63786">
        <ele>1556</ele>
        <time>2000-01-01T08:50:41.000Z</time>
      </trkpt>
      <trkpt lat="45.11063" lon="2.6379">
        <ele>1556</ele>
        <time>2000-01-01T08:50:51.000Z</time>
      </trkpt>
      <trkpt lat="45.11066" lon="2.63795">
        <ele>1556</ele>
        <time>2000-01-01T08:51:01.000Z</time>
      </trkpt>
      <trkpt lat="45.1107" lon="2.63798">
        <ele>1555</ele>
        <time>2000-01-01T08:51:11.000Z</time>
      </trkpt>
      <trkpt lat="45.11073" lon="2.63802">
        <ele>1550</ele>
        <time>2000-01-01T08:51:21.000Z</time>
      </trkpt>
      <trkpt lat="45.11076" lon="2.63806">
        <ele>1555</ele>
        <time>2000-01-01T08:51:31.000Z</time>
      </trkpt>
      <trkpt lat="45.1108" lon="2.63809">
        <ele>1555</ele>
        <time>2000-01-01T08:51:41.000Z</time>
      </trkpt>
      <trkpt lat="45.11085" lon="2.63811">
        <ele>1539</ele>
        <time>2000-01-01T08:51:51.000Z</time>
      </trkpt>
      <trkpt lat="45.1109" lon="2.63814">
        <ele>1546</ele>
        <time>2000-01-01T08:52:01.000Z</time>
      </trkpt>
      <trkpt lat="45.11094" lon="2.63815">
        <ele>1539</ele>
        <time>2000-01-01T08:52:11.000Z</time>
      </trkpt>
      <trkpt lat="45.111" lon="2.63817">
        <ele>1538</ele>
        <time>2000-01-01T08:52:21.000Z</time>
      </trkpt>
      <trkpt lat="45.11105" lon="2.63819">
        <ele>1537</ele>
        <time>2000-01-01T08:52:31.000Z</time>
      </trkpt>
      <trkpt lat="45.11111" lon="2.6382">
        <ele>1542</ele>
        <time>2000-01-01T08:52:41.000Z</time>
      </trkpt>
      <trkpt lat="45.11115" lon="2.63824">
        <ele>1534</ele>
        <time>2000-01-01T08:52:51.000Z</time>
      </trkpt>
      <trkpt lat="45.1112" lon="2.63827">
        <ele>1533</ele>
        <time>2000-01-01T08:53:01.000Z</time>
      </trkpt>
      <trkpt lat="45.11124" lon="2.63829">
        <ele>1532</ele>
        <time>2000-01-01T08:53:11.000Z</time>
      </trkpt>
      <trkpt lat="45.1113" lon="2.63836">
        <ele>1537</ele>
        <time>2000-01-01T08:53:21.000Z</time>
      </trkpt>
      <trkpt lat="45.11134" lon="2.63839">
        <ele>1542</ele>
        <time>2000-01-01T08:53:31.000Z</time>
      </trkpt>
      <trkpt lat="45.11139" lon="2.6384">
        <ele>1540</ele>
        <time>2000-01-01T08:53:41.000Z</time>
      </trkpt>
      <trkpt lat="45.11141" lon="2.63841">
        <ele>1540</ele>
        <time>2000-01-01T08:53:51.000Z</time>
      </trkpt>
      <trkpt lat="45.11147" lon="2.63839">
        <ele>1537</ele>
        <time>2000-01-01T08:54:01.000Z</time>
      </trkpt>
      <trkpt lat="45.11152" lon="2.63839">
        <ele>1534</ele>
        <time>2000-01-01T08:54:11.000Z</time>
      </trkpt>
      <trkpt lat="45.11157" lon="2.63841">
        <ele>1532</ele>
        <time>2000-01-01T08:54:21.000Z</time>
      </trkpt>
      <trkpt lat="45.11161" lon="2.63845">
        <ele>1532</ele>
        <time>2000-01-01T08:54:31.000Z</time>
      </trkpt>
      <trkpt lat="45.11165" lon="2.63849">
        <ele>1534</ele>
        <time>2000-01-01T08:54:41.000Z</time>
      </trkpt>
      <trkpt lat="45.11169" lon="2.63852">
        <ele>1530</ele>
        <time>2000-01-01T08:54:51.000Z</time>
      </trkpt>
      <trkpt lat="45.11172" lon="2.63855">
        <ele>1523</ele>
        <time>2000-01-01T08:55:01.000Z</time>
      </trkpt>
      <trkpt lat="45.11176" lon="2.63854">
        <ele>1523</ele>
        <time>2000-01-01T08:55:11.000Z</time>
      </trkpt>
      <trkpt lat="45.11181" lon="2.63855">
        <ele>1522</ele>
        <time>2000-01-01T08:55:21.000Z</time>
      </trkpt>
      <trkpt lat="45.11186" lon="2.63856">
        <ele>1522</ele>
        <time>2000-01-01T08:55:31.000Z</time>
      </trkpt>
      <trkpt lat="45.11191" lon="2.63856">
        <ele>1529</ele>
        <time>2000-01-01T08:55:41.000Z</time>
      </trkpt>
      <trkpt lat="45.11195" lon="2.63857">
        <ele>1522</ele>
        <time>2000-01-01T08:55:51.000Z</time>
      </trkpt>
      <trkpt lat="45.11201" lon="2.63862">
        <ele>1521</ele>
        <time>2000-01-01T08:56:01.000Z</time>
      </trkpt>
      <trkpt lat="45.11205" lon="2.63866">
        <ele>1521</ele>
        <time>2000-01-01T08:56:11.000Z</time>
      </trkpt>
      <trkpt lat="45.11208" lon="2.6387">
        <ele>1527</ele>
        <time>2000-01-01T08:56:21.000Z</time>
      </trkpt>
      <trkpt lat="45.11213" lon="2.63873">
        <ele>1521</ele>
        <time>2000-01-01T08:56:31.000Z</time>
      </trkpt>
      <trkpt lat="45.11217" lon="2.63875">
        <ele>1521</ele>
        <time>2000-01-01T08:56:41.000Z</time>
      </trkpt>
      <trkpt lat="45.11222" lon="2.63877">
        <ele>1521</ele>
        <time>2000-01-01T08:56:51.000Z</time>
      </trkpt>
      <trkpt lat="45.11226" lon="2.6388">
        <ele>1521</ele>
        <time>2000-01-01T08:57:01.000Z</time>
      </trkpt>
      <trkpt lat="45.11229" lon="2.63883">
        <ele>1526</ele>
        <time>2000-01-01T08:57:11.000Z</time>
      </trkpt>
      <trkpt lat="45.11233" lon="2.63885">
        <ele>1521</ele>
        <time>2000-01-01T08:57:21.000Z</time>
      </trkpt>
      <trkpt lat="45.11239" lon="2.63886">
        <ele>1520</ele>
        <time>2000-01-01T08:57:31.000Z</time>
      </trkpt>
      <trkpt lat="45.11244" lon="2.63889">
        <ele>1520</ele>
        <time>2000-01-01T08:57:41.000Z</time>
      </trkpt>
      <trkpt lat="45.11248" lon="2.63891">
        <ele>1524</ele>
        <time>2000-01-01T08:57:51.000Z</time>
      </trkpt>
      <trkpt lat="45.11252" lon="2.63895">
        <ele>1508</ele>
        <time>2000-01-01T08:58:01.000Z</time>
      </trkpt>
      <trkpt lat="45.11256" lon="2.639">
        <ele>1509</ele>
        <time>2000-01-01T08:58:11.000Z</time>
      </trkpt>
      <trkpt lat="45.1126" lon="2.63903">
        <ele>1510</ele>
        <time>2000-01-01T08:58:21.000Z</time>
      </trkpt>
      <trkpt lat="45.11264" lon="2.63907">
        <ele>1520</ele>
        <time>2000-01-01T08:58:31.000Z</time>
      </trkpt>
      <trkpt lat="45.11267" lon="2.63912">
        <ele>1509</ele>
        <time>2000-01-01T08:58:41.000Z</time>
      </trkpt>
      <trkpt lat="45.11269" lon="2.63917">
        <ele>1521</ele>
        <time>2000-01-01T08:58:51.000Z</time>
      </trkpt>
      <trkpt lat="45.11273" lon="2.63921">
        <ele>1521</ele>
        <time>2000-01-01T08:59:01.000Z</time>
      </trkpt>
      <trkpt lat="45.11277" lon="2.63924">
        <ele>1521</ele>
        <time>2000-01-01T08:59:11.000Z</time>
      </trkpt>
      <trkpt lat="45.1128" lon="2.63927">
        <ele>1518.5</ele>
        <time>2000-01-01T08:59:21.000Z</time>
      </trkpt>
      <trkpt lat="45.11282" lon="2.63932">
        <ele>1521</ele>
        <time>2000-01-01T08:59:31.000Z</time>
      </trkpt>
      <trkpt lat="45.11284" lon="2.63937">
        <ele>1521</ele>
        <time>2000-01-01T08:59:41.000Z</time>
      </trkpt>
      <trkpt lat="45.11288" lon="2.63943">
        <ele>1521</ele>
        <time>2000-01-01T08:59:51.000Z</time>
      </trkpt>
      <trkpt lat="45.11291" lon="2.63948">
        <ele>1521</ele>
        <time>2000-01-01T09:00:01.000Z</time>
      </trkpt>
      <trkpt lat="45.11295" lon="2.63951">
        <ele>1518.2</ele>
        <time>2000-01-01T09:00:11.000Z</time>
      </trkpt>
      <trkpt lat="45.11298" lon="2.63954">
        <ele>1521</ele>
        <time>2000-01-01T09:00:21.000Z</time>
      </trkpt>
      <trkpt lat="45.11304" lon="2.63961">
        <ele>1521</ele>
        <time>2000-01-01T09:00:31.000Z</time>
      </trkpt>
      <trkpt lat="45.11309" lon="2.63962">
        <ele>1521</ele>
        <time>2000-01-01T09:00:41.000Z</time>
      </trkpt>
      <trkpt lat="45.11312" lon="2.63967">
        <ele>1518</ele>
        <time>2000-01-01T09:00:51.000Z</time>
      </trkpt>
      <trkpt lat="45.11315" lon="2.63971">
        <ele>1521</ele>
        <time>2000-01-01T09:01:01.000Z</time>
      </trkpt>
      <trkpt lat="45.11319" lon="2.63976">
        <ele>1521</ele>
        <time>2000-01-01T09:01:11.000Z</time>
      </trkpt>
      <trkpt lat="45.11322" lon="2.63983">
        <ele>1522</ele>
        <time>2000-01-01T09:01:21.000Z</time>
      </trkpt>
      <trkpt lat="45.11325" lon="2.63991">
        <ele>1517.5</ele>
        <time>2000-01-01T09:01:31.000Z</time>
      </trkpt>
      <trkpt lat="45.11328" lon="2.63997">
        <ele>1522</ele>
        <time>2000-01-01T09:01:41.000Z</time>
      </trkpt>
      <trkpt lat="45.1133" lon="2.64002">
        <ele>1525</ele>
        <time>2000-01-01T09:01:51.000Z</time>
      </trkpt>
      <trkpt lat="45.11334" lon="2.64006">
        <ele>1521</ele>
        <time>2000-01-01T09:02:01.000Z</time>
      </trkpt>
      <trkpt lat="45.11338" lon="2.6401">
        <ele>1521</ele>
        <time>2000-01-01T09:02:11.000Z</time>
      </trkpt>
      <trkpt lat="45.11343" lon="2.64012">
        <ele>1517.7</ele>
        <time>2000-01-01T09:02:21.000Z</time>
      </trkpt>
      <trkpt lat="45.11349" lon="2.64014">
        <ele>1521</ele>
        <time>2000-01-01T09:02:31.000Z</time>
      </trkpt>
      <trkpt lat="45.11354" lon="2.64017">
        <ele>1521</ele>
        <time>2000-01-01T09:02:41.000Z</time>
      </trkpt>
      <trkpt lat="45.11359" lon="2.64021">
        <ele>1521</ele>
        <time>2000-01-01T09:02:51.000Z</time>
      </trkpt>
      <trkpt lat="45.11364" lon="2.64022">
        <ele>1517.3</ele>
        <time>2000-01-01T09:03:01.000Z</time>
      </trkpt>
      <trkpt lat="45.11371" lon="2.64024">
        <ele>1520</ele>
        <time>2000-01-01T09:03:11.000Z</time>
      </trkpt>
      <trkpt lat="45.11375" lon="2.64025">
        <ele>1520</ele>
        <time>2000-01-01T09:03:21.000Z</time>
      </trkpt>
      <trkpt lat="45.1138" lon="2.64028">
        <ele>1519</ele>
        <time>2000-01-01T09:03:31.000Z</time>
      </trkpt>
      <trkpt lat="45.11384" lon="2.6403">
        <ele>1517</ele>
        <time>2000-01-01T09:03:41.000Z</time>
      </trkpt>
      <trkpt lat="45.11389" lon="2.64032">
        <ele>1519</ele>
        <time>2000-01-01T09:03:51.000Z</time>
      </trkpt>
      <trkpt lat="45.11394" lon="2.64034">
        <ele>1518</ele>
        <time>2000-01-01T09:04:01.000Z</time>
      </trkpt>
      <trkpt lat="45.11398" lon="2.64037">
        <ele>1519</ele>
        <time>2000-01-01T09:04:11.000Z</time>
      </trkpt>
      <trkpt lat="45.11402" lon="2.64041">
        <ele>1516</ele>
        <time>2000-01-01T09:04:21.000Z</time>
      </trkpt>
      <trkpt lat="45.11406" lon="2.64044">
        <ele>1520</ele>
        <time>2000-01-01T09:04:31.000Z</time>
      </trkpt>
      <trkpt lat="45.11409" lon="2.64048">
        <ele>1520</ele>
        <time>2000-01-01T09:04:41.000Z</time>
      </trkpt>
      <trkpt lat="45.11412" lon="2.6405">
        <ele>1521</ele>
        <time>2000-01-01T09:04:51.000Z</time>
      </trkpt>
      <trkpt lat="45.11414" lon="2.6405">
        <ele>1521</ele>
        <time>2000-01-01T09:05:01.000Z</time>
      </trkpt>
      <trkpt lat="45.11419" lon="2.64053">
        <ele>1516</ele>
        <time>2000-01-01T09:05:11.000Z</time>
      </trkpt>
      <trkpt lat="45.11426" lon="2.64056">
        <ele>1513</ele>
        <time>2000-01-01T09:05:21.000Z</time>
      </trkpt>
      <trkpt lat="45.11429" lon="2.64057">
        <ele>1513</ele>
        <time>2000-01-01T09:05:31.000Z</time>
      </trkpt>
      <trkpt lat="45.11435" lon="2.6406">
        <ele>1513</ele>
        <time>2000-01-01T09:05:41.000Z</time>
      </trkpt>
      <trkpt lat="45.11439" lon="2.64063">
        <ele>1517</ele>
        <time>2000-01-01T09:05:51.000Z</time>
      </trkpt>
      <trkpt lat="45.11441" lon="2.64065">
        <ele>1514</ele>
        <time>2000-01-01T09:06:01.000Z</time>
      </trkpt>
      <trkpt lat="45.11445" lon="2.64068">
        <ele>1514</ele>
        <time>2000-01-01T09:06:11.000Z</time>
      </trkpt>
      <trkpt lat="45.11448" lon="2.64072">
        <ele>1514</ele>
        <time>2000-01-01T09:06:21.000Z</time>
      </trkpt>
      <trkpt lat="45.11452" lon="2.64075">
        <ele>1514</ele>
        <time>2000-01-01T09:06:31.000Z</time>
      </trkpt>
      <trkpt lat="45.11456" lon="2.64078">
        <ele>1517</ele>
        <time>2000-01-01T09:06:41.000Z</time>
      </trkpt>
      <trkpt lat="45.1146" lon="2.6408">
        <ele>1513</ele>
        <time>2000-01-01T09:06:51.000Z</time>
      </trkpt>
      <trkpt lat="45.11461" lon="2.64081">
        <ele>1513</ele>
        <time>2000-01-01T09:07:01.000Z</time>
      </trkpt>
      <trkpt lat="45.11466" lon="2.6408">
        <ele>1513</ele>
        <time>2000-01-01T09:07:11.000Z</time>
      </trkpt>
      <trkpt lat="45.11469" lon="2.64079">
        <ele>1513</ele>
        <time>2000-01-01T09:07:21.000Z</time>
      </trkpt>
      <trkpt lat="45.11473" lon="2.64078">
        <ele>1513</ele>
        <time>2000-01-01T09:07:31.000Z</time>
      </trkpt>
      <trkpt lat="45.11479" lon="2.64079">
        <ele>1517</ele>
        <time>2000-01-01T09:07:41.000Z</time>
      </trkpt>
      <trkpt lat="45.11483" lon="2.64081">
        <ele>1515</ele>
        <time>2000-01-01T09:07:51.000Z</time>
      </trkpt>
      <trkpt lat="45.11485" lon="2.64081">
        <ele>1515</ele>
        <time>2000-01-01T09:08:01.000Z</time>
      </trkpt>
      <trkpt lat="45.11489" lon="2.64079">
        <ele>1516</ele>
        <time>2000-01-01T09:08:11.000Z</time>
      </trkpt>
      <trkpt lat="45.11492" lon="2.64076">
        <ele>1516</ele>
        <time>2000-01-01T09:08:21.000Z</time>
      </trkpt>
      <trkpt lat="45.11496" lon="2.64074">
        <ele>1516</ele>
        <time>2000-01-01T09:08:31.000Z</time>
      </trkpt>
      <trkpt lat="45.11499" lon="2.64073">
        <ele>1516</ele>
        <time>2000-01-01T09:08:41.000Z</time>
      </trkpt>
      <trkpt lat="45.11504" lon="2.64071">
        <ele>1512</ele>
        <time>2000-01-01T09:08:51.000Z</time>
      </trkpt>
      <trkpt lat="45.11509" lon="2.64072">
        <ele>1512</ele>
        <time>2000-01-01T09:09:01.000Z</time>
      </trkpt>
      <trkpt lat="45.11514" lon="2.64069">
        <ele>1510</ele>
        <time>2000-01-01T09:09:11.000Z</time>
      </trkpt>
      <trkpt lat="45.11519" lon="2.64066">
        <ele>1514</ele>
        <time>2000-01-01T09:09:21.000Z</time>
      </trkpt>
      <trkpt lat="45.11523" lon="2.64064">
        <ele>1507</ele>
        <time>2000-01-01T09:09:31.000Z</time>
      </trkpt>
      <trkpt lat="45.11527" lon="2.64062">
        <ele>1506</ele>
        <time>2000-01-01T09:09:41.000Z</time>
      </trkpt>
      <trkpt lat="45.11531" lon="2.6406">
        <ele>1506</ele>
        <time>2000-01-01T09:09:51.000Z</time>
      </trkpt>
      <trkpt lat="45.11537" lon="2.64059">
        <ele>1509</ele>
        <time>2000-01-01T09:10:01.000Z</time>
      </trkpt>
      <trkpt lat="45.11542" lon="2.64058">
        <ele>1505</ele>
        <time>2000-01-01T09:10:11.000Z</time>
      </trkpt>
      <trkpt lat="45.11547" lon="2.64057">
        <ele>1504</ele>
        <time>2000-01-01T09:10:21.000Z</time>
      </trkpt>
      <trkpt lat="45.11552" lon="2.64056">
        <ele>1504</ele>
        <time>2000-01-01T09:10:31.000Z</time>
      </trkpt>
      <trkpt lat="45.11557" lon="2.64055">
        <ele>1507</ele>
        <time>2000-01-01T09:10:41.000Z</time>
      </trkpt>
      <trkpt lat="45.11559" lon="2.64055">
        <ele>1504</ele>
        <time>2000-01-01T09:10:51.000Z</time>
      </trkpt>
      <trkpt lat="45.11564" lon="2.64054">
        <ele>1504</ele>
        <time>2000-01-01T09:11:01.000Z</time>
      </trkpt>
      <trkpt lat="45.11568" lon="2.64052">
        <ele>1504</ele>
        <time>2000-01-01T09:11:11.000Z</time>
      </trkpt>
      <trkpt lat="45.11572" lon="2.64051">
        <ele>1504</ele>
        <time>2000-01-01T09:11:21.000Z</time>
      </trkpt>
      <trkpt lat="45.11577" lon="2.6405">
        <ele>1506</ele>
        <time>2000-01-01T09:11:31.000Z</time>
      </trkpt>
      <trkpt lat="45.11582" lon="2.6405">
        <ele>1503</ele>
        <time>2000-01-01T09:11:41.000Z</time>
      </trkpt>
      <trkpt lat="45.11587" lon="2.64048">
        <ele>1500</ele>
        <time>2000-01-01T09:11:51.000Z</time>
      </trkpt>
      <trkpt lat="45.11592" lon="2.64046">
        <ele>1499</ele>
        <time>2000-01-01T09:12:01.000Z</time>
      </trkpt>
      <trkpt lat="45.11597" lon="2.64043">
        <ele>1505</ele>
        <time>2000-01-01T09:12:11.000Z</time>
      </trkpt>
      <trkpt lat="45.11603" lon="2.64042">
        <ele>1498</ele>
        <time>2000-01-01T09:12:21.000Z</time>
      </trkpt>
      <trkpt lat="45.11608" lon="2.64041">
        <ele>1497</ele>
        <time>2000-01-01T09:12:31.000Z</time>
      </trkpt>
      <trkpt lat="45.11614" lon="2.64039">
        <ele>1497</ele>
        <time>2000-01-01T09:12:41.000Z</time>
      </trkpt>
      <trkpt lat="45.11619" lon="2.64038">
        <ele>1504</ele>
        <time>2000-01-01T09:12:51.000Z</time>
      </trkpt>
      <trkpt lat="45.11624" lon="2.64036">
        <ele>1496</ele>
        <time>2000-01-01T09:13:01.000Z</time>
      </trkpt>
      <trkpt lat="45.1163" lon="2.64034">
        <ele>1496</ele>
        <time>2000-01-01T09:13:11.000Z</time>
      </trkpt>
      <trkpt lat="45.11635" lon="2.64032">
        <ele>1495</ele>
        <time>2000-01-01T09:13:21.000Z</time>
      </trkpt>
      <trkpt lat="45.1164" lon="2.64031">
        <ele>1504</ele>
        <time>2000-01-01T09:13:31.000Z</time>
      </trkpt>
      <trkpt lat="45.11645" lon="2.64029">
        <ele>1495</ele>
        <time>2000-01-01T09:13:41.000Z</time>
      </trkpt>
      <trkpt lat="45.11651" lon="2.64028">
        <ele>1494</ele>
        <time>2000-01-01T09:13:51.000Z</time>
      </trkpt>
      <trkpt lat="45.11656" lon="2.64027">
        <ele>1494</ele>
        <time>2000-01-01T09:14:01.000Z</time>
      </trkpt>
      <trkpt lat="45.1166" lon="2.64025">
        <ele>1501</ele>
        <time>2000-01-01T09:14:11.000Z</time>
      </trkpt>
      <trkpt lat="45.11665" lon="2.64024">
        <ele>1493</ele>
        <time>2000-01-01T09:14:21.000Z</time>
      </trkpt>
      <trkpt lat="45.11669" lon="2.64024">
        <ele>1489</ele>
        <time>2000-01-01T09:14:31.000Z</time>
      </trkpt>
      <trkpt lat="45.11674" lon="2.64023">
        <ele>1489</ele>
        <time>2000-01-01T09:14:41.000Z</time>
      </trkpt>
      <trkpt lat="45.11678" lon="2.64022">
        <ele>1489</ele>
        <time>2000-01-01T09:14:51.000Z</time>
      </trkpt>
      <trkpt lat="45.11681" lon="2.64023">
        <ele>1498</ele>
        <time>2000-01-01T09:15:01.000Z</time>
      </trkpt>
      <trkpt lat="45.11686" lon="2.64019">
        <ele>1489</ele>
        <time>2000-01-01T09:15:11.000Z</time>
      </trkpt>
      <trkpt lat="45.11692" lon="2.64018">
        <ele>1489</ele>
        <time>2000-01-01T09:15:21.000Z</time>
      </trkpt>
      <trkpt lat="45.11697" lon="2.64017">
        <ele>1489</ele>
        <time>2000-01-01T09:15:31.000Z</time>
      </trkpt>
      <trkpt lat="45.11702" lon="2.64017">
        <ele>1497</ele>
        <time>2000-01-01T09:15:41.000Z</time>
      </trkpt>
      <trkpt lat="45.11707" lon="2.64017">
        <ele>1489</ele>
        <time>2000-01-01T09:15:51.000Z</time>
      </trkpt>
      <trkpt lat="45.11712" lon="2.64016">
        <ele>1490</ele>
        <time>2000-01-01T09:16:01.000Z</time>
      </trkpt>
      <trkpt lat="45.11716" lon="2.64016">
        <ele>1490</ele>
        <time>2000-01-01T09:16:11.000Z</time>
      </trkpt>
      <trkpt lat="45.11721" lon="2.64016">
        <ele>1490</ele>
        <time>2000-01-01T09:16:21.000Z</time>
      </trkpt>
      <trkpt lat="45.11725" lon="2.64015">
        <ele>1497</ele>
        <time>2000-01-01T09:16:31.000Z</time>
      </trkpt>
      <trkpt lat="45.11729" lon="2.64013">
        <ele>1491</ele>
        <time>2000-01-01T09:16:41.000Z</time>
      </trkpt>
      <trkpt lat="45.11733" lon="2.64012">
        <ele>1491</ele>
        <time>2000-01-01T09:16:51.000Z</time>
      </trkpt>
      <trkpt lat="45.11737" lon="2.64011">
        <ele>1492</ele>
        <time>2000-01-01T09:17:01.000Z</time>
      </trkpt>
      <trkpt lat="45.11742" lon="2.6401">
        <ele>1492</ele>
        <time>2000-01-01T09:17:11.000Z</time>
      </trkpt>
      <trkpt lat="45.11746" lon="2.64008">
        <ele>1498</ele>
        <time>2000-01-01T09:17:21.000Z</time>
      </trkpt>
      <trkpt lat="45.1175" lon="2.64007">
        <ele>1494</ele>
        <time>2000-01-01T09:17:31.000Z</time>
      </trkpt>
      <trkpt lat="45.11754" lon="2.64006">
        <ele>1494</ele>
        <time>2000-01-01T09:17:41.000Z</time>
      </trkpt>
      <trkpt lat="45.11758" lon="2.64004">
        <ele>1494</ele>
        <time>2000-01-01T09:17:51.000Z</time>
      </trkpt>
      <trkpt lat="45.11763" lon="2.64002">
        <ele>1493</ele>
        <time>2000-01-01T09:18:01.000Z</time>
      </trkpt>
      <trkpt lat="45.11767" lon="2.64">
        <ele>1498</ele>
        <time>2000-01-01T09:18:11.000Z</time>
      </trkpt>
      <trkpt lat="45.1177" lon="2.63998">
        <ele>1498</ele>
        <time>2000-01-01T09:18:21.000Z</time>
      </trkpt>
      <trkpt lat="45.11775" lon="2.63997">
        <ele>1498</ele>
        <time>2000-01-01T09:18:31.000Z</time>
      </trkpt>
      <trkpt lat="45.11779" lon="2.63995">
        <ele>1498</ele>
        <time>2000-01-01T09:18:41.000Z</time>
      </trkpt>
      <trkpt lat="45.11783" lon="2.63993">
        <ele>1499</ele>
        <time>2000-01-01T09:18:51.000Z</time>
      </trkpt>
      <trkpt lat="45.11787" lon="2.6399">
        <ele>1501</ele>
        <time>2000-01-01T09:19:01.000Z</time>
      </trkpt>
      <trkpt lat="45.11791" lon="2.63987">
        <ele>1499</ele>
        <time>2000-01-01T09:19:11.000Z</time>
      </trkpt>
      <trkpt lat="45.11795" lon="2.63984">
        <ele>1500</ele>
        <time>2000-01-01T09:19:21.000Z</time>
      </trkpt>
      <trkpt lat="45.11799" lon="2.63981">
        <ele>1500</ele>
        <time>2000-01-01T09:19:31.000Z</time>
      </trkpt>
      <trkpt lat="45.11802" lon="2.63979">
        <ele>1500</ele>
        <time>2000-01-01T09:19:41.000Z</time>
      </trkpt>
      <trkpt lat="45.11806" lon="2.63975">
        <ele>1504</ele>
        <time>2000-01-01T09:19:51.000Z</time>
      </trkpt>
      <trkpt lat="45.11809" lon="2.63972">
        <ele>1501</ele>
        <time>2000-01-01T09:20:01.000Z</time>
      </trkpt>
      <trkpt lat="45.11812" lon="2.63969">
        <ele>1501</ele>
        <time>2000-01-01T09:20:11.000Z</time>
      </trkpt>
      <trkpt lat="45.11816" lon="2.63966">
        <ele>1501</ele>
        <time>2000-01-01T09:20:21.000Z</time>
      </trkpt>
      <trkpt lat="45.1182" lon="2.63963">
        <ele>1501</ele>
        <time>2000-01-01T09:20:31.000Z</time>
      </trkpt>
      <trkpt lat="45.11824" lon="2.6396">
        <ele>1508</ele>
        <time>2000-01-01T09:20:41.000Z</time>
      </trkpt>
      <trkpt lat="45.11827" lon="2.63956">
        <ele>1501</ele>
        <time>2000-01-01T09:20:51.000Z</time>
      </trkpt>
      <trkpt lat="45.1183" lon="2.63953">
        <ele>1501</ele>
        <time>2000-01-01T09:21:01.000Z</time>
      </trkpt>
      <trkpt lat="45.11834" lon="2.63949">
        <ele>1506</ele>
        <time>2000-01-01T09:21:11.000Z</time>
      </trkpt>
      <trkpt lat="45.11837" lon="2.63946">
        <ele>1506</ele>
        <time>2000-01-01T09:21:21.000Z</time>
      </trkpt>
      <trkpt lat="45.1184" lon="2.63943">
        <ele>1513</ele>
        <time>2000-01-01T09:21:31.000Z</time>
      </trkpt>
      <trkpt lat="45.11844" lon="2.63938">
        <ele>1506</ele>
        <time>2000-01-01T09:21:41.000Z</time>
      </trkpt>
      <trkpt lat="45.11847" lon="2.63934">
        <ele>1506</ele>
        <time>2000-01-01T09:21:51.000Z</time>
      </trkpt>
      <trkpt lat="45.11851" lon="2.63931">
        <ele>1506</ele>
        <time>2000-01-01T09:22:01.000Z</time>
      </trkpt>
      <trkpt lat="45.11854" lon="2.63929">
        <ele>1506</ele>
        <time>2000-01-01T09:22:11.000Z</time>
      </trkpt>
      <trkpt lat="45.11857" lon="2.63925">
        <ele>1516</ele>
        <time>2000-01-01T09:22:21.000Z</time>
      </trkpt>
      <trkpt lat="45.1186" lon="2.63921">
        <ele>1506</ele>
        <time>2000-01-01T09:22:31.000Z</time>
      </trkpt>
      <trkpt lat="45.11864" lon="2.63918">
        <ele>1507</ele>
        <time>2000-01-01T09:22:41.000Z</time>
      </trkpt>
      <trkpt lat="45.11869" lon="2.63913">
        <ele>1508</ele>
        <time>2000-01-01T09:22:51.000Z</time>
      </trkpt>
      <trkpt lat="45.11872" lon="2.6391">
        <ele>1508</ele>
        <time>2000-01-01T09:23:01.000Z</time>
      </trkpt>
      <trkpt lat="45.11876" lon="2.63907">
        <ele>1518</ele>
        <time>2000-01-01T09:23:11.000Z</time>
      </trkpt>
      <trkpt lat="45.11879" lon="2.63903">
        <ele>1509</ele>
        <time>2000-01-01T09:23:21.000Z</time>
      </trkpt>
      <trkpt lat="45.11882" lon="2.63899">
        <ele>1509</ele>
        <time>2000-01-01T09:23:31.000Z</time>
      </trkpt>
      <trkpt lat="45.11886" lon="2.63895">
        <ele>1509</ele>
        <time>2000-01-01T09:23:41.000Z</time>
      </trkpt>
      <trkpt lat="45.11889" lon="2.63891">
        <ele>1509</ele>
        <time>2000-01-01T09:23:51.000Z</time>
      </trkpt>
      <trkpt lat="45.11893" lon="2.63888">
        <ele>1520</ele>
        <time>2000-01-01T09:24:01.000Z</time>
      </trkpt>
      <trkpt lat="45.11895" lon="2.63884">
        <ele>1510</ele>
        <time>2000-01-01T09:24:11.000Z</time>
      </trkpt>
      <trkpt lat="45.11898" lon="2.6388">
        <ele>1510</ele>
        <time>2000-01-01T09:24:21.000Z</time>
      </trkpt>
      <trkpt lat="45.119" lon="2.63876">
        <ele>1510</ele>
        <time>2000-01-01T09:24:31.000Z</time>
      </trkpt>
      <trkpt lat="45.11905" lon="2.63872">
        <ele>1510</ele>
        <time>2000-01-01T09:24:41.000Z</time>
      </trkpt>
      <trkpt lat="45.11908" lon="2.63867">
        <ele>1522</ele>
        <time>2000-01-01T09:24:51.000Z</time>
      </trkpt>
      <trkpt lat="45.11911" lon="2.63862">
        <ele>1511</ele>
        <time>2000-01-01T09:25:01.000Z</time>
      </trkpt>
      <trkpt lat="45.11914" lon="2.63857">
        <ele>1511</ele>
        <time>2000-01-01T09:25:11.000Z</time>
      </trkpt>
      <trkpt lat="45.11918" lon="2.63854">
        <ele>1511</ele>
        <time>2000-01-01T09:25:21.000Z</time>
      </trkpt>
      <trkpt lat="45.1192" lon="2.63852">
        <ele>1511</ele>
        <time>2000-01-01T09:25:31.000Z</time>
      </trkpt>
      <trkpt lat="45.11924" lon="2.63851">
        <ele>1523</ele>
        <time>2000-01-01T09:25:41.000Z</time>
      </trkpt>
      <trkpt lat="45.11929" lon="2.63849">
        <ele>1511</ele>
        <time>2000-01-01T09:25:51.000Z</time>
      </trkpt>
      <trkpt lat="45.11933" lon="2.63845">
        <ele>1511</ele>
        <time>2000-01-01T09:26:01.000Z</time>
      </trkpt>
      <trkpt lat="45.11939" lon="2.6384">
        <ele>1510</ele>
        <time>2000-01-01T09:26:11.000Z</time>
      </trkpt>
      <trkpt lat="45.11942" lon="2.63837">
        <ele>1525</ele>
        <time>2000-01-01T09:26:21.000Z</time>
      </trkpt>
      <trkpt lat="45.11945" lon="2.63834">
        <ele>1509</ele>
        <time>2000-01-01T09:26:31.000Z</time>
      </trkpt>
      <trkpt lat="45.11949" lon="2.6383">
        <ele>1512</ele>
        <time>2000-01-01T09:26:41.000Z</time>
      </trkpt>
      <trkpt lat="45.11952" lon="2.63827">
        <ele>1512</ele>
        <time>2000-01-01T09:26:51.000Z</time>
      </trkpt>
      <trkpt lat="45.11956" lon="2.63824">
        <ele>1511</ele>
        <time>2000-01-01T09:27:01.000Z</time>
      </trkpt>
      <trkpt lat="45.11957" lon="2.63823">
        <ele>1511</ele>
        <time>2000-01-01T09:27:11.000Z</time>
      </trkpt>
      <trkpt lat="45.1196" lon="2.6382">
        <ele>1525</ele>
        <time>2000-01-01T09:27:21.000Z</time>
      </trkpt>
      <trkpt lat="45.11965" lon="2.63814">
        <ele>1511</ele>
        <time>2000-01-01T09:27:31.000Z</time>
      </trkpt>
      <trkpt lat="45.11968" lon="2.63809">
        <ele>1511</ele>
        <time>2000-01-01T09:27:41.000Z</time>
      </trkpt>
      <trkpt lat="45.11971" lon="2.63803">
        <ele>1511</ele>
        <time>2000-01-01T09:27:51.000Z</time>
      </trkpt>
      <trkpt lat="45.11974" lon="2.63796">
        <ele>1525</ele>
        <time>2000-01-01T09:28:01.000Z</time>
      </trkpt>
      <trkpt lat="45.11977" lon="2.6379">
        <ele>1512</ele>
        <time>2000-01-01T09:28:11.000Z</time>
      </trkpt>
      <trkpt lat="45.11979" lon="2.63785">
        <ele>1512</ele>
        <time>2000-01-01T09:28:21.000Z</time>
      </trkpt>
      <trkpt lat="45.11982" lon="2.63779">
        <ele>1513</ele>
        <time>2000-01-01T09:28:31.000Z</time>
      </trkpt>
      <trkpt lat="45.11985" lon="2.63773">
        <ele>1525</ele>
        <time>2000-01-01T09:28:41.000Z</time>
      </trkpt>
      <trkpt lat="45.11989" lon="2.63767">
        <ele>1515</ele>
        <time>2000-01-01T09:28:51.000Z</time>
      </trkpt>
      <trkpt lat="45.11994" lon="2.63763">
        <ele>1517</ele>
        <time>2000-01-01T09:29:01.000Z</time>
      </trkpt>
      <trkpt lat="45.11999" lon="2.6376">
        <ele>1518</ele>
        <time>2000-01-01T09:29:11.000Z</time>
      </trkpt>
      <trkpt lat="45.12003" lon="2.63756">
        <ele>1525</ele>
        <time>2000-01-01T09:29:21.000Z</time>
      </trkpt>
      <trkpt lat="45.12006" lon="2.63751">
        <ele>1517</ele>
        <time>2000-01-01T09:29:31.000Z</time>
      </trkpt>
      <trkpt lat="45.12009" lon="2.63745">
        <ele>1520</ele>
        <time>2000-01-01T09:29:41.000Z</time>
      </trkpt>
      <trkpt lat="45.12011" lon="2.63738">
        <ele>1519</ele>
        <time>2000-01-01T09:29:51.000Z</time>
      </trkpt>
      <trkpt lat="45.12013" lon="2.63732">
        <ele>1526</ele>
        <time>2000-01-01T09:30:01.000Z</time>
      </trkpt>
      <trkpt lat="45.12016" lon="2.63726">
        <ele>1518</ele>
        <time>2000-01-01T09:30:11.000Z</time>
      </trkpt>
      <trkpt lat="45.1202" lon="2.6372">
        <ele>1517</ele>
        <time>2000-01-01T09:30:21.000Z</time>
      </trkpt>
      <trkpt lat="45.12023" lon="2.63715">
        <ele>1517</ele>
        <time>2000-01-01T09:30:31.000Z</time>
      </trkpt>
      <trkpt lat="45.12026" lon="2.63709">
        <ele>1529</ele>
        <time>2000-01-01T09:30:41.000Z</time>
      </trkpt>
      <trkpt lat="45.1203" lon="2.63705">
        <ele>1517</ele>
        <time>2000-01-01T09:30:51.000Z</time>
      </trkpt>
      <trkpt lat="45.12033" lon="2.637">
        <ele>1517</ele>
        <time>2000-01-01T09:31:01.000Z</time>
      </trkpt>
      <trkpt lat="45.12036" lon="2.63695">
        <ele>1517</ele>
        <time>2000-01-01T09:31:11.000Z</time>
      </trkpt>
      <trkpt lat="45.1204" lon="2.63691">
        <ele>1518</ele>
        <time>2000-01-01T09:31:21.000Z</time>
      </trkpt>
      <trkpt lat="45.12043" lon="2.63686">
        <ele>1532</ele>
        <time>2000-01-01T09:31:31.000Z</time>
      </trkpt>
      <trkpt lat="45.12046" lon="2.63682">
        <ele>1518</ele>
        <time>2000-01-01T09:31:41.000Z</time>
      </trkpt>
      <trkpt lat="45.12049" lon="2.63677">
        <ele>1518</ele>
        <time>2000-01-01T09:31:51.000Z</time>
      </trkpt>
      <trkpt lat="45.12052" lon="2.63673">
        <ele>1519</ele>
        <time>2000-01-01T09:32:01.000Z</time>
      </trkpt>
      <trkpt lat="45.12055" lon="2.63669">
        <ele>1519</ele>
        <time>2000-01-01T09:32:11.000Z</time>
      </trkpt>
      <trkpt lat="45.12058" lon="2.63664">
        <ele>1535</ele>
        <time>2000-01-01T09:32:21.000Z</time>
      </trkpt>
      <trkpt lat="45.12062" lon="2.63659">
        <ele>1524</ele>
        <time>2000-01-01T09:32:31.000Z</time>
      </trkpt>
      <trkpt lat="45.12065" lon="2.63653">
        <ele>1524</ele>
        <time>2000-01-01T09:32:41.000Z</time>
      </trkpt>
      <trkpt lat="45.12069" lon="2.63647">
        <ele>1524</ele>
        <time>2000-01-01T09:32:51.000Z</time>
      </trkpt>
      <trkpt lat="45.12073" lon="2.63643">
        <ele>1537</ele>
        <time>2000-01-01T09:33:01.000Z</time>
      </trkpt>
      <trkpt lat="45.12076" lon="2.63638">
        <ele>1525</ele>
        <time>2000-01-01T09:33:11.000Z</time>
      </trkpt>
      <trkpt lat="45.12079" lon="2.63632">
        <ele>1525</ele>
        <time>2000-01-01T09:33:21.000Z</time>
      </trkpt>
      <trkpt lat="45.12081" lon="2.63626">
        <ele>1526</ele>
        <time>2000-01-01T09:33:31.000Z</time>
      </trkpt>
      <trkpt lat="45.12084" lon="2.6362">
        <ele>1538</ele>
        <time>2000-01-01T09:33:41.000Z</time>
      </trkpt>
      <trkpt lat="45.12085" lon="2.63613">
        <ele>1523</ele>
        <time>2000-01-01T09:33:51.000Z</time>
      </trkpt>
      <trkpt lat="45.12088" lon="2.63607">
        <ele>1524</ele>
        <time>2000-01-01T09:34:01.000Z</time>
      </trkpt>
      <trkpt lat="45.1209" lon="2.63601">
        <ele>1525</ele>
        <time>2000-01-01T09:34:11.000Z</time>
      </trkpt>
      <trkpt lat="45.12093" lon="2.63597">
        <ele>1539</ele>
        <time>2000-01-01T09:34:21.000Z</time>
      </trkpt>
      <trkpt lat="45.12097" lon="2.63593">
        <ele>1526</ele>
        <time>2000-01-01T09:34:31.000Z</time>
      </trkpt>
      <trkpt lat="45.121" lon="2.63585">
        <ele>1526</ele>
        <time>2000-01-01T09:34:41.000Z</time>
      </trkpt>
      <trkpt lat="45.12103" lon="2.6358">
        <ele>1532</ele>
        <time>2000-01-01T09:34:51.000Z</time>
      </trkpt>
      <trkpt lat="45.12106" lon="2.63576">
        <ele>1540</ele>
        <time>2000-01-01T09:35:01.000Z</time>
      </trkpt>
      <trkpt lat="45.12109" lon="2.63571">
        <ele>1531</ele>
        <time>2000-01-01T09:35:11.000Z</time>
      </trkpt>
      <trkpt lat="45.12113" lon="2.63566">
        <ele>1531</ele>
        <time>2000-01-01T09:35:21.000Z</time>
      </trkpt>
      <trkpt lat="45.12116" lon="2.63561">
        <ele>1531</ele>
        <time>2000-01-01T09:35:31.000Z</time>
      </trkpt>
      <trkpt lat="45.1212" lon="2.63556">
        <ele>1540</ele>
        <time>2000-01-01T09:35:41.000Z</time>
      </trkpt>
      <trkpt lat="45.12123" lon="2.63551">
        <ele>1531</ele>
        <time>2000-01-01T09:35:51.000Z</time>
      </trkpt>
      <trkpt lat="45.12127" lon="2.63545">
        <ele>1531</ele>
        <time>2000-01-01T09:36:01.000Z</time>
      </trkpt>
      <trkpt lat="45.1213" lon="2.6354">
        <ele>1531</ele>
        <time>2000-01-01T09:36:11.000Z</time>
      </trkpt>
      <trkpt lat="45.12134" lon="2.63535">
        <ele>1540</ele>
        <time>2000-01-01T09:36:21.000Z</time>
      </trkpt>
      <trkpt lat="45.12138" lon="2.6353">
        <ele>1532</ele>
        <time>2000-01-01T09:36:31.000Z</time>
      </trkpt>
      <trkpt lat="45.12141" lon="2.63523">
        <ele>1532</ele>
        <time>2000-01-01T09:36:41.000Z</time>
      </trkpt>
      <trkpt lat="45.12143" lon="2.63517">
        <ele>1533</ele>
        <time>2000-01-01T09:36:51.000Z</time>
      </trkpt>
      <trkpt lat="45.12146" lon="2.6351">
        <ele>1540</ele>
        <time>2000-01-01T09:37:01.000Z</time>
      </trkpt>
      <trkpt lat="45.12148" lon="2.63503">
        <ele>1534</ele>
        <time>2000-01-01T09:37:11.000Z</time>
      </trkpt>
      <trkpt lat="45.12153" lon="2.63497">
        <ele>1538</ele>
        <time>2000-01-01T09:37:21.000Z</time>
      </trkpt>
      <trkpt lat="45.12157" lon="2.63489">
        <ele>1538</ele>
        <time>2000-01-01T09:37:31.000Z</time>
      </trkpt>
      <trkpt lat="45.12163" lon="2.63484">
        <ele>1540.5</ele>
        <time>2000-01-01T09:37:41.000Z</time>
      </trkpt>
      <trkpt lat="45.12166" lon="2.63478">
        <ele>1538</ele>
        <time>2000-01-01T09:37:51.000Z</time>
      </trkpt>
      <trkpt lat="45.12171" lon="2.63474">
        <ele>1539</ele>
        <time>2000-01-01T09:38:01.000Z</time>
      </trkpt>
      <trkpt lat="45.12176" lon="2.63468">
        <ele>1539</ele>
        <time>2000-01-01T09:38:11.000Z</time>
      </trkpt>
      <trkpt lat="45.1218" lon="2.63466">
        <ele>1541</ele>
        <time>2000-01-01T09:38:21.000Z</time>
      </trkpt>
      <trkpt lat="45.12183" lon="2.63463">
        <ele>1540</ele>
        <time>2000-01-01T09:38:31.000Z</time>
      </trkpt>
      <trkpt lat="45.1219" lon="2.6346">
        <ele>1540</ele>
        <time>2000-01-01T09:38:41.000Z</time>
      </trkpt>
      <trkpt lat="45.12194" lon="2.63459">
        <ele>1540</ele>
        <time>2000-01-01T09:38:51.000Z</time>
      </trkpt>
      <trkpt lat="45.12199" lon="2.63458">
        <ele>1541</ele>
        <time>2000-01-01T09:39:01.000Z</time>
      </trkpt>
      <trkpt lat="45.12204" lon="2.63458">
        <ele>1539</ele>
        <time>2000-01-01T09:39:11.000Z</time>
      </trkpt>
      <trkpt lat="45.12207" lon="2.63459">
        <ele>1539</ele>
        <time>2000-01-01T09:39:21.000Z</time>
      </trkpt>
      <trkpt lat="45.12211" lon="2.63459">
        <ele>1539</ele>
        <time>2000-01-01T09:39:31.000Z</time>
      </trkpt>
      <trkpt lat="45.12216" lon="2.63459">
        <ele>1539</ele>
        <time>2000-01-01T09:39:41.000Z</time>
      </trkpt>
      <trkpt lat="45.12218" lon="2.63459">
        <ele>1540</ele>
        <time>2000-01-01T09:39:51.000Z</time>
      </trkpt>
      <trkpt lat="45.12224" lon="2.6346">
        <ele>1538</ele>
        <time>2000-01-01T09:40:01.000Z</time>
      </trkpt>
      <trkpt lat="45.1223" lon="2.63458">
        <ele>1538</ele>
        <time>2000-01-01T09:40:11.000Z</time>
      </trkpt>
      <trkpt lat="45.12233" lon="2.63458">
        <ele>1538</ele>
        <time>2000-01-01T09:40:21.000Z</time>
      </trkpt>
      <trkpt lat="45.12239" lon="2.63458">
        <ele>1538</ele>
        <time>2000-01-01T09:40:31.000Z</time>
      </trkpt>
      <trkpt lat="45.12245" lon="2.63458">
        <ele>1538</ele>
        <time>2000-01-01T09:40:41.000Z</time>
      </trkpt>
      <trkpt lat="45.12251" lon="2.63457">
        <ele>1533</ele>
        <time>2000-01-01T09:40:51.000Z</time>
      </trkpt>
      <trkpt lat="45.12256" lon="2.63458">
        <ele>1533</ele>
        <time>2000-01-01T09:41:01.000Z</time>
      </trkpt>
      <trkpt lat="45.12262" lon="2.63459">
        <ele>1538</ele>
        <time>2000-01-01T09:41:11.000Z</time>
      </trkpt>
      <trkpt lat="45.12268" lon="2.63459">
        <ele>1532</ele>
        <time>2000-01-01T09:41:21.000Z</time>
      </trkpt>
      <trkpt lat="45.12274" lon="2.63458">
        <ele>1532</ele>
        <time>2000-01-01T09:41:31.000Z</time>
      </trkpt>
      <trkpt lat="45.12279" lon="2.63458">
        <ele>1532</ele>
        <time>2000-01-01T09:41:41.000Z</time>
      </trkpt>
      <trkpt lat="45.12283" lon="2.63457">
        <ele>1538</ele>
        <time>2000-01-01T09:41:51.000Z</time>
      </trkpt>
      <trkpt lat="45.12288" lon="2.63456">
        <ele>1532</ele>
        <time>2000-01-01T09:42:01.000Z</time>
      </trkpt>
      <trkpt lat="45.12293" lon="2.63455">
        <ele>1532</ele>
        <time>2000-01-01T09:42:11.000Z</time>
      </trkpt>
      <trkpt lat="45.12297" lon="2.63453">
        <ele>1532</ele>
        <time>2000-01-01T09:42:21.000Z</time>
      </trkpt>
      <trkpt lat="45.12301" lon="2.63451">
        <ele>1532</ele>
        <time>2000-01-01T09:42:31.000Z</time>
      </trkpt>
      <trkpt lat="45.12306" lon="2.63447">
        <ele>1538</ele>
        <time>2000-01-01T09:42:41.000Z</time>
      </trkpt>
      <trkpt lat="45.1231" lon="2.63442">
        <ele>1533</ele>
        <time>2000-01-01T09:42:51.000Z</time>
      </trkpt>
      <trkpt lat="45.12314" lon="2.63437">
        <ele>1533</ele>
        <time>2000-01-01T09:43:01.000Z</time>
      </trkpt>
      <trkpt lat="45.12318" lon="2.63433">
        <ele>1533</ele>
        <time>2000-01-01T09:43:11.000Z</time>
      </trkpt>
      <trkpt lat="45.12323" lon="2.63428">
        <ele>1538</ele>
        <time>2000-01-01T09:43:21.000Z</time>
      </trkpt>
      <trkpt lat="45.12327" lon="2.63422">
        <ele>1534</ele>
        <time>2000-01-01T09:43:31.000Z</time>
      </trkpt>
      <trkpt lat="45.12331" lon="2.63418">
        <ele>1535</ele>
        <time>2000-01-01T09:43:41.000Z</time>
      </trkpt>
      <trkpt lat="45.12334" lon="2.63414">
        <ele>1535</ele>
        <time>2000-01-01T09:43:51.000Z</time>
      </trkpt>
      <trkpt lat="45.12338" lon="2.63411">
        <ele>1537</ele>
        <time>2000-01-01T09:44:01.000Z</time>
      </trkpt>
      <trkpt lat="45.12341" lon="2.63406">
        <ele>1534</ele>
        <time>2000-01-01T09:44:11.000Z</time>
      </trkpt>
      <trkpt lat="45.12344" lon="2.63402">
        <ele>1533</ele>
        <time>2000-01-01T09:44:21.000Z</time>
      </trkpt>
      <trkpt lat="45.12347" lon="2.63397">
        <ele>1533</ele>
        <time>2000-01-01T09:44:31.000Z</time>
      </trkpt>
      <trkpt lat="45.12351" lon="2.63394">
        <ele>1533</ele>
        <time>2000-01-01T09:44:41.000Z</time>
      </trkpt>
      <trkpt lat="45.12354" lon="2.6339">
        <ele>1536</ele>
        <time>2000-01-01T09:44:51.000Z</time>
      </trkpt>
      <trkpt lat="45.12357" lon="2.63387">
        <ele>1533</ele>
        <time>2000-01-01T09:45:01.000Z</time>
      </trkpt>
      <trkpt lat="45.1236" lon="2.63384">
        <ele>1533</ele>
        <time>2000-01-01T09:45:11.000Z</time>
      </trkpt>
      <trkpt lat="45.12365" lon="2.6338">
        <ele>1532</ele>
        <time>2000-01-01T09:45:21.000Z</time>
      </trkpt>
      <trkpt lat="45.12368" lon="2.63376">
        <ele>1532</ele>
        <time>2000-01-01T09:45:31.000Z</time>
      </trkpt>
      <trkpt lat="45.12372" lon="2.63373">
        <ele>1533</ele>
        <time>2000-01-01T09:45:41.000Z</time>
      </trkpt>
      <trkpt lat="45.12377" lon="2.63369">
        <ele>1532</ele>
        <time>2000-01-01T09:45:51.000Z</time>
      </trkpt>
      <trkpt lat="45.12382" lon="2.63365">
        <ele>1531</ele>
        <time>2000-01-01T09:46:01.000Z</time>
      </trkpt>
      <trkpt lat="45.12387" lon="2.63362">
        <ele>1531</ele>
        <time>2000-01-01T09:46:11.000Z</time>
      </trkpt>
      <trkpt lat="45.12392" lon="2.63358">
        <ele>1530</ele>
        <time>2000-01-01T09:46:21.000Z</time>
      </trkpt>
      <trkpt lat="45.12397" lon="2.63354">
        <ele>1530</ele>
        <time>2000-01-01T09:46:31.000Z</time>
      </trkpt>
      <trkpt lat="45.12402" lon="2.6335">
        <ele>1529</ele>
        <time>2000-01-01T09:46:41.000Z</time>
      </trkpt>
      <trkpt lat="45.12407" lon="2.63347">
        <ele>1529</ele>
        <time>2000-01-01T09:46:51.000Z</time>
      </trkpt>
      <trkpt lat="45.12412" lon="2.63342">
        <ele>1527</ele>
        <time>2000-01-01T09:47:01.000Z</time>
      </trkpt>
      <trkpt lat="45.12416" lon="2.63337">
        <ele>1527</ele>
        <time>2000-01-01T09:47:11.000Z</time>
      </trkpt>
      <trkpt lat="45.1242" lon="2.63333">
        <ele>1525</ele>
        <time>2000-01-01T09:47:21.000Z</time>
      </trkpt>
      <trkpt lat="45.12424" lon="2.63329">
        <ele>1524</ele>
        <time>2000-01-01T09:47:31.000Z</time>
      </trkpt>
      <trkpt lat="45.12428" lon="2.63327">
        <ele>1525</ele>
        <time>2000-01-01T09:47:41.000Z</time>
      </trkpt>
      <trkpt lat="45.12432" lon="2.63324">
        <ele>1522</ele>
        <time>2000-01-01T09:47:51.000Z</time>
      </trkpt>
      <trkpt lat="45.12437" lon="2.63322">
        <ele>1522</ele>
        <time>2000-01-01T09:48:01.000Z</time>
      </trkpt>
      <trkpt lat="45.12442" lon="2.63319">
        <ele>1521</ele>
        <time>2000-01-01T09:48:11.000Z</time>
      </trkpt>
      <trkpt lat="45.12445" lon="2.63315">
        <ele>1524</ele>
        <time>2000-01-01T09:48:21.000Z</time>
      </trkpt>
      <trkpt lat="45.12449" lon="2.6331">
        <ele>1520</ele>
        <time>2000-01-01T09:48:31.000Z</time>
      </trkpt>
      <trkpt lat="45.12452" lon="2.63306">
        <ele>1520</ele>
        <time>2000-01-01T09:48:41.000Z</time>
      </trkpt>
      <trkpt lat="45.12456" lon="2.63301">
        <ele>1519</ele>
        <time>2000-01-01T09:48:51.000Z</time>
      </trkpt>
      <trkpt lat="45.12459" lon="2.63297">
        <ele>1519</ele>
        <time>2000-01-01T09:49:01.000Z</time>
      </trkpt>
      <trkpt lat="45.12462" lon="2.63292">
        <ele>1520</ele>
        <time>2000-01-01T09:49:11.000Z</time>
      </trkpt>
      <trkpt lat="45.12465" lon="2.63286">
        <ele>1519</ele>
        <time>2000-01-01T09:49:21.000Z</time>
      </trkpt>
      <trkpt lat="45.12467" lon="2.6328">
        <ele>1519</ele>
        <time>2000-01-01T09:49:31.000Z</time>
      </trkpt>
      <trkpt lat="45.12469" lon="2.63274">
        <ele>1519</ele>
        <time>2000-01-01T09:49:41.000Z</time>
      </trkpt>
      <trkpt lat="45.12472" lon="2.63268">
        <ele>1519</ele>
        <time>2000-01-01T09:49:51.000Z</time>
      </trkpt>
      <trkpt lat="45.12476" lon="2.63263">
        <ele>1518</ele>
        <time>2000-01-01T09:50:01.000Z</time>
      </trkpt>
      <trkpt lat="45.1248" lon="2.63264">
        <ele>1517</ele>
        <time>2000-01-01T09:50:11.000Z</time>
      </trkpt>
      <trkpt lat="45.12483" lon="2.63267">
        <ele>1516</ele>
        <time>2000-01-01T09:50:21.000Z</time>
      </trkpt>
      <trkpt lat="45.12485" lon="2.63272">
        <ele>1516</ele>
        <time>2000-01-01T09:50:31.000Z</time>
      </trkpt>
      <trkpt lat="45.12488" lon="2.63279">
        <ele>1515</ele>
        <time>2000-01-01T09:50:41.000Z</time>
      </trkpt>
      <trkpt lat="45.12489" lon="2.63285">
        <ele>1516</ele>
        <time>2000-01-01T09:50:51.000Z</time>
      </trkpt>
      <trkpt lat="45.12489" lon="2.63293">
        <ele>1515</ele>
        <time>2000-01-01T09:51:01.000Z</time>
      </trkpt>
      <trkpt lat="45.12489" lon="2.633">
        <ele>1514</ele>
        <time>2000-01-01T09:51:11.000Z</time>
      </trkpt>
      <trkpt lat="45.12489" lon="2.63306">
        <ele>1510</ele>
        <time>2000-01-01T09:51:21.000Z</time>
      </trkpt>
      <trkpt lat="45.12489" lon="2.63309">
        <ele>1512</ele>
        <time>2000-01-01T09:51:31.000Z</time>
      </trkpt>
      <trkpt lat="45.12493" lon="2.63311">
        <ele>1511</ele>
        <time>2000-01-01T09:51:41.000Z</time>
      </trkpt>
      <trkpt lat="45.12499" lon="2.63309">
        <ele>1511</ele>
        <time>2000-01-01T09:51:51.000Z</time>
      </trkpt>
      <trkpt lat="45.12503" lon="2.63305">
        <ele>1494</ele>
        <time>2000-01-01T09:52:01.000Z</time>
      </trkpt>
      <trkpt lat="45.12507" lon="2.63302">
        <ele>1505</ele>
        <time>2000-01-01T09:52:11.000Z</time>
      </trkpt>
      <trkpt lat="45.12512" lon="2.63299">
        <ele>1493</ele>
        <time>2000-01-01T09:52:21.000Z</time>
      </trkpt>
      <trkpt lat="45.12517" lon="2.63297">
        <ele>1493</ele>
        <time>2000-01-01T09:52:31.000Z</time>
      </trkpt>
      <trkpt lat="45.12522" lon="2.63293">
        <ele>1492</ele>
        <time>2000-01-01T09:52:41.000Z</time>
      </trkpt>
      <trkpt lat="45.12527" lon="2.63288">
        <ele>1499</ele>
        <time>2000-01-01T09:52:51.000Z</time>
      </trkpt>
      <trkpt lat="45.1253" lon="2.6328">
        <ele>1492</ele>
        <time>2000-01-01T09:53:01.000Z</time>
      </trkpt>
      <trkpt lat="45.12533" lon="2.63272">
        <ele>1492</ele>
        <time>2000-01-01T09:53:11.000Z</time>
      </trkpt>
      <trkpt lat="45.12535" lon="2.63265">
        <ele>1492</ele>
        <time>2000-01-01T09:53:21.000Z</time>
      </trkpt>
      <trkpt lat="45.1254" lon="2.6326">
        <ele>1494</ele>
        <time>2000-01-01T09:53:31.000Z</time>
      </trkpt>
      <trkpt lat="45.12543" lon="2.63255">
        <ele>1491</ele>
        <time>2000-01-01T09:53:41.000Z</time>
      </trkpt>
      <trkpt lat="45.12546" lon="2.6325">
        <ele>1500</ele>
        <time>2000-01-01T09:53:51.000Z</time>
      </trkpt>
      <trkpt lat="45.1255" lon="2.63245">
        <ele>1499</ele>
        <time>2000-01-01T09:54:01.000Z</time>
      </trkpt>
      <trkpt lat="45.12554" lon="2.63241">
        <ele>1493</ele>
        <time>2000-01-01T09:54:11.000Z</time>
      </trkpt>
      <trkpt lat="45.12559" lon="2.63237">
        <ele>1497</ele>
        <time>2000-01-01T09:54:21.000Z</time>
      </trkpt>
      <trkpt lat="45.12563" lon="2.63233">
        <ele>1496</ele>
        <time>2000-01-01T09:54:31.000Z</time>
      </trkpt>
      <trkpt lat="45.12566" lon="2.63231">
        <ele>1496</ele>
        <time>2000-01-01T09:54:41.000Z</time>
      </trkpt>
      <trkpt lat="45.12571" lon="2.63227">
        <ele>1491</ele>
        <time>2000-01-01T09:54:51.000Z</time>
      </trkpt>
      <trkpt lat="45.12577" lon="2.63223">
        <ele>1496</ele>
        <time>2000-01-01T09:55:01.000Z</time>
      </trkpt>
      <trkpt lat="45.12581" lon="2.63218">
        <ele>1496</ele>
        <time>2000-01-01T09:55:11.000Z</time>
      </trkpt>
      <trkpt lat="45.12585" lon="2.63213">
        <ele>1479</ele>
        <time>2000-01-01T09:55:21.000Z</time>
      </trkpt>
      <trkpt lat="45.12589" lon="2.63207">
        <ele>1488</ele>
        <time>2000-01-01T09:55:31.000Z</time>
      </trkpt>
      <trkpt lat="45.12592" lon="2.63201">
        <ele>1480</ele>
        <time>2000-01-01T09:55:41.000Z</time>
      </trkpt>
      <trkpt lat="45.12595" lon="2.63196">
        <ele>1481</ele>
        <time>2000-01-01T09:55:51.000Z</time>
      </trkpt>
      <trkpt lat="45.12599" lon="2.6319">
        <ele>1482</ele>
        <time>2000-01-01T09:56:01.000Z</time>
      </trkpt>
      <trkpt lat="45.12602" lon="2.63185">
        <ele>1486</ele>
        <time>2000-01-01T09:56:11.000Z</time>
      </trkpt>
      <trkpt lat="45.12604" lon="2.63178">
        <ele>1483</ele>
        <time>2000-01-01T09:56:21.000Z</time>
      </trkpt>
      <trkpt lat="45.12606" lon="2.63172">
        <ele>1483</ele>
        <time>2000-01-01T09:56:31.000Z</time>
      </trkpt>
      <trkpt lat="45.12609" lon="2.63165">
        <ele>1492</ele>
        <time>2000-01-01T09:56:41.000Z</time>
      </trkpt>
      <trkpt lat="45.1261" lon="2.63162">
        <ele>1492</ele>
        <time>2000-01-01T09:56:51.000Z</time>
      </trkpt>
      <trkpt lat="45.12613" lon="2.63157">
        <ele>1486</ele>
        <time>2000-01-01T09:57:01.000Z</time>
      </trkpt>
      <trkpt lat="45.12615" lon="2.6315">
        <ele>1491</ele>
        <time>2000-01-01T09:57:11.000Z</time>
      </trkpt>
      <trkpt lat="45.12616" lon="2.63142">
        <ele>1492</ele>
        <time>2000-01-01T09:57:21.000Z</time>
      </trkpt>
      <trkpt lat="45.12617" lon="2.63136">
        <ele>1492</ele>
        <time>2000-01-01T09:57:31.000Z</time>
      </trkpt>
      <trkpt lat="45.12621" lon="2.63131">
        <ele>1486</ele>
        <time>2000-01-01T09:57:41.000Z</time>
      </trkpt>
      <trkpt lat="45.12624" lon="2.63125">
        <ele>1492</ele>
        <time>2000-01-01T09:57:51.000Z</time>
      </trkpt>
      <trkpt lat="45.12626" lon="2.63118">
        <ele>1493</ele>
        <time>2000-01-01T09:58:01.000Z</time>
      </trkpt>
      <trkpt lat="45.12629" lon="2.63113">
        <ele>1493</ele>
        <time>2000-01-01T09:58:11.000Z</time>
      </trkpt>
      <trkpt lat="45.12632" lon="2.6311">
        <ele>1486</ele>
        <time>2000-01-01T09:58:21.000Z</time>
      </trkpt>
      <trkpt lat="45.12634" lon="2.63108">
        <ele>1492</ele>
        <time>2000-01-01T09:58:31.000Z</time>
      </trkpt>
      <trkpt lat="45.12637" lon="2.63102">
        <ele>1492</ele>
        <time>2000-01-01T09:58:41.000Z</time>
      </trkpt>
      <trkpt lat="45.1264" lon="2.63096">
        <ele>1492</ele>
        <time>2000-01-01T09:58:51.000Z</time>
      </trkpt>
      <trkpt lat="45.12642" lon="2.63093">
        <ele>1491</ele>
        <time>2000-01-01T09:59:01.000Z</time>
      </trkpt>
      <trkpt lat="45.12646" lon="2.63092">
        <ele>1486</ele>
        <time>2000-01-01T09:59:11.000Z</time>
      </trkpt>
      <trkpt lat="45.12652" lon="2.63093">
        <ele>1489</ele>
        <time>2000-01-01T09:59:21.000Z</time>
      </trkpt>
      <trkpt lat="45.12657" lon="2.63094">
        <ele>1488</ele>
        <time>2000-01-01T09:59:31.000Z</time>
      </trkpt>
      <trkpt lat="45.12662" lon="2.63094">
        <ele>1488</ele>
        <time>2000-01-01T09:59:41.000Z</time>
      </trkpt>
      <trkpt lat="45.12664" lon="2.63095">
        <ele>1488</ele>
        <time>2000-01-01T09:59:51.000Z</time>
      </trkpt>
      <trkpt lat="45.12669" lon="2.63093">
        <ele>1485</ele>
        <time>2000-01-01T10:00:01.000Z</time>
      </trkpt>
      <trkpt lat="45.12673" lon="2.63091">
        <ele>1482</ele>
        <time>2000-01-01T10:00:11.000Z</time>
      </trkpt>
      <trkpt lat="45.12678" lon="2.6309">
        <ele>1481</ele>
        <time>2000-01-01T10:00:21.000Z</time>
      </trkpt>
      <trkpt lat="45.12683" lon="2.63087">
        <ele>1481</ele>
        <time>2000-01-01T10:00:31.000Z</time>
      </trkpt>
      <trkpt lat="45.12684" lon="2.63084">
        <ele>1481</ele>
        <time>2000-01-01T10:00:41.000Z</time>
      </trkpt>
      <trkpt lat="45.12684" lon="2.63078">
        <ele>1485.5</ele>
        <time>2000-01-01T10:00:51.000Z</time>
      </trkpt>
      <trkpt lat="45.12682" lon="2.63072">
        <ele>1486</ele>
        <time>2000-01-01T10:01:01.000Z</time>
      </trkpt>
      <trkpt lat="45.1268" lon="2.63066">
        <ele>1486</ele>
        <time>2000-01-01T10:01:11.000Z</time>
      </trkpt>
      <trkpt lat="45.12677" lon="2.63061">
        <ele>1486</ele>
        <time>2000-01-01T10:01:21.000Z</time>
      </trkpt>
      <trkpt lat="45.12675" lon="2.63056">
        <ele>1486</ele>
        <time>2000-01-01T10:01:31.000Z</time>
      </trkpt>
      <trkpt lat="45.12675" lon="2.63053">
        <ele>1486</ele>
        <time>2000-01-01T10:01:41.000Z</time>
      </trkpt>
      <trkpt lat="45.12679" lon="2.63049">
        <ele>1487</ele>
        <time>2000-01-01T10:01:51.000Z</time>
      </trkpt>
      <trkpt lat="45.12682" lon="2.63046">
        <ele>1487</ele>
        <time>2000-01-01T10:02:01.000Z</time>
      </trkpt>
      <trkpt lat="45.12683" lon="2.63044">
        <ele>1487</ele>
        <time>2000-01-01T10:02:11.000Z</time>
      </trkpt>
      <trkpt lat="45.12686" lon="2.63044">
        <ele>1487</ele>
        <time>2000-01-01T10:02:21.000Z</time>
      </trkpt>
      <trkpt lat="45.1269" lon="2.63045">
        <ele>1487</ele>
        <time>2000-01-01T10:02:31.000Z</time>
      </trkpt>
      <trkpt lat="45.12692" lon="2.63044">
        <ele>1487.5</ele>
        <time>2000-01-01T10:02:41.000Z</time>
      </trkpt>
      <trkpt lat="45.12696" lon="2.6304">
        <ele>1487</ele>
        <time>2000-01-01T10:02:51.000Z</time>
      </trkpt>
      <trkpt lat="45.12699" lon="2.63035">
        <ele>1487</ele>
        <time>2000-01-01T10:03:01.000Z</time>
      </trkpt>
      <trkpt lat="45.12704" lon="2.63031">
        <ele>1487</ele>
        <time>2000-01-01T10:03:11.000Z</time>
      </trkpt>
      <trkpt lat="45.12709" lon="2.63028">
        <ele>1487.7</ele>
        <time>2000-01-01T10:03:21.000Z</time>
      </trkpt>
      <trkpt lat="45.12713" lon="2.63024">
        <ele>1486</ele>
        <time>2000-01-01T10:03:31.000Z</time>
      </trkpt>
      <trkpt lat="45.12718" lon="2.63023">
        <ele>1485</ele>
        <time>2000-01-01T10:03:41.000Z</time>
      </trkpt>
      <trkpt lat="45.12723" lon="2.63021">
        <ele>1485</ele>
        <time>2000-01-01T10:03:51.000Z</time>
      </trkpt>
      <trkpt lat="45.12728" lon="2.6302">
        <ele>1486.8</ele>
        <time>2000-01-01T10:04:01.000Z</time>
      </trkpt>
      <trkpt lat="45.12733" lon="2.63018">
        <ele>1484</ele>
        <time>2000-01-01T10:04:11.000Z</time>
      </trkpt>
      <trkpt lat="45.12738" lon="2.63017">
        <ele>1483</ele>
        <time>2000-01-01T10:04:21.000Z</time>
      </trkpt>
      <trkpt lat="45.12743" lon="2.63015">
        <ele>1483</ele>
        <time>2000-01-01T10:04:31.000Z</time>
      </trkpt>
      <trkpt lat="45.12748" lon="2.63015">
        <ele>1486</ele>
        <time>2000-01-01T10:04:41.000Z</time>
      </trkpt>
      <trkpt lat="45.12753" lon="2.63014">
        <ele>1478</ele>
        <time>2000-01-01T10:04:51.000Z</time>
      </trkpt>
      <trkpt lat="45.12758" lon="2.63014">
        <ele>1478</ele>
        <time>2000-01-01T10:05:01.000Z</time>
      </trkpt>
      <trkpt lat="45.12764" lon="2.63014">
        <ele>1478</ele>
        <time>2000-01-01T10:05:11.000Z</time>
      </trkpt>
      <trkpt lat="45.12769" lon="2.63012">
        <ele>1482</ele>
        <time>2000-01-01T10:05:21.000Z</time>
      </trkpt>
      <trkpt lat="45.12774" lon="2.63009">
        <ele>1477</ele>
        <time>2000-01-01T10:05:31.000Z</time>
      </trkpt>
      <trkpt lat="45.12779" lon="2.63006">
        <ele>1477</ele>
        <time>2000-01-01T10:05:41.000Z</time>
      </trkpt>
      <trkpt lat="45.12784" lon="2.63003">
        <ele>1476</ele>
        <time>2000-01-01T10:05:51.000Z</time>
      </trkpt>
      <trkpt lat="45.12789" lon="2.63">
        <ele>1478</ele>
        <time>2000-01-01T10:06:01.000Z</time>
      </trkpt>
      <trkpt lat="45.12794" lon="2.62998">
        <ele>1472</ele>
        <time>2000-01-01T10:06:11.000Z</time>
      </trkpt>
      <trkpt lat="45.12799" lon="2.62995">
        <ele>1471</ele>
        <time>2000-01-01T10:06:21.000Z</time>
      </trkpt>
      <trkpt lat="45.12804" lon="2.62993">
        <ele>1471</ele>
        <time>2000-01-01T10:06:31.000Z</time>
      </trkpt>
      <trkpt lat="45.12809" lon="2.62992">
        <ele>1473</ele>
        <time>2000-01-01T10:06:41.000Z</time>
      </trkpt>
      <trkpt lat="45.12814" lon="2.62993">
        <ele>1470</ele>
        <time>2000-01-01T10:06:51.000Z</time>
      </trkpt>
      <trkpt lat="45.12819" lon="2.62993">
        <ele>1470</ele>
        <time>2000-01-01T10:07:01.000Z</time>
      </trkpt>
      <trkpt lat="45.12824" lon="2.62992">
        <ele>1470</ele>
        <time>2000-01-01T10:07:11.000Z</time>
      </trkpt>
      <trkpt lat="45.12829" lon="2.6299">
        <ele>1470</ele>
        <time>2000-01-01T10:07:21.000Z</time>
      </trkpt>
      <trkpt lat="45.12834" lon="2.62987">
        <ele>1464</ele>
        <time>2000-01-01T10:07:31.000Z</time>
      </trkpt>
      <trkpt lat="45.12838" lon="2.62984">
        <ele>1463</ele>
        <time>2000-01-01T10:07:41.000Z</time>
      </trkpt>
      <trkpt lat="45.12842" lon="2.62982">
        <ele>1462</ele>
        <time>2000-01-01T10:07:51.000Z</time>
      </trkpt>
      <trkpt lat="45.12847" lon="2.6298">
        <ele>1467</ele>
        <time>2000-01-01T10:08:01.000Z</time>
      </trkpt>
      <trkpt lat="45.12852" lon="2.62978">
        <ele>1460</ele>
        <time>2000-01-01T10:08:11.000Z</time>
      </trkpt>
      <trkpt lat="45.12857" lon="2.62976">
        <ele>1459</ele>
        <time>2000-01-01T10:08:21.000Z</time>
      </trkpt>
      <trkpt lat="45.1286" lon="2.62975">
        <ele>1458</ele>
        <time>2000-01-01T10:08:31.000Z</time>
      </trkpt>
      <trkpt lat="45.12865" lon="2.62974">
        <ele>1458</ele>
        <time>2000-01-01T10:08:41.000Z</time>
      </trkpt>
      <trkpt lat="45.1287" lon="2.62972">
        <ele>1463</ele>
        <time>2000-01-01T10:08:51.000Z</time>
      </trkpt>
      <trkpt lat="45.12874" lon="2.62971">
        <ele>1456</ele>
        <time>2000-01-01T10:09:01.000Z</time>
      </trkpt>
      <trkpt lat="45.12879" lon="2.62969">
        <ele>1456</ele>
        <time>2000-01-01T10:09:11.000Z</time>
      </trkpt>
      <trkpt lat="45.12883" lon="2.62967">
        <ele>1455</ele>
        <time>2000-01-01T10:09:21.000Z</time>
      </trkpt>
      <trkpt lat="45.12887" lon="2.62965">
        <ele>1455</ele>
        <time>2000-01-01T10:09:31.000Z</time>
      </trkpt>
      <trkpt lat="45.12891" lon="2.62964">
        <ele>1459</ele>
        <time>2000-01-01T10:09:41.000Z</time>
      </trkpt>
      <trkpt lat="45.12896" lon="2.62963">
        <ele>1454</ele>
        <time>2000-01-01T10:09:51.000Z</time>
      </trkpt>
      <trkpt lat="45.12902" lon="2.62963">
        <ele>1453</ele>
        <time>2000-01-01T10:10:01.000Z</time>
      </trkpt>
      <trkpt lat="45.12907" lon="2.62962">
        <ele>1453</ele>
        <time>2000-01-01T10:10:11.000Z</time>
      </trkpt>
      <trkpt lat="45.12912" lon="2.62963">
        <ele>1455</ele>
        <time>2000-01-01T10:10:21.000Z</time>
      </trkpt>
      <trkpt lat="45.12918" lon="2.62964">
        <ele>1443</ele>
        <time>2000-01-01T10:10:31.000Z</time>
      </trkpt>
      <trkpt lat="45.12922" lon="2.62964">
        <ele>1443</ele>
        <time>2000-01-01T10:10:41.000Z</time>
      </trkpt>
      <trkpt lat="45.12927" lon="2.62964">
        <ele>1443</ele>
        <time>2000-01-01T10:10:51.000Z</time>
      </trkpt>
      <trkpt lat="45.12932" lon="2.62965">
        <ele>1451</ele>
        <time>2000-01-01T10:11:01.000Z</time>
      </trkpt>
      <trkpt lat="45.12937" lon="2.62964">
        <ele>1442</ele>
        <time>2000-01-01T10:11:11.000Z</time>
      </trkpt>
      <trkpt lat="45.12942" lon="2.62963">
        <ele>1442</ele>
        <time>2000-01-01T10:11:21.000Z</time>
      </trkpt>
      <trkpt lat="45.12946" lon="2.62962">
        <ele>1441</ele>
        <time>2000-01-01T10:11:31.000Z</time>
      </trkpt>
      <trkpt lat="45.12951" lon="2.62961">
        <ele>1441</ele>
        <time>2000-01-01T10:11:41.000Z</time>
      </trkpt>
      <trkpt lat="45.12955" lon="2.62959">
        <ele>1448</ele>
        <time>2000-01-01T10:11:51.000Z</time>
      </trkpt>
      <trkpt lat="45.1296" lon="2.62957">
        <ele>1440</ele>
        <time>2000-01-01T10:12:01.000Z</time>
      </trkpt>
      <trkpt lat="45.12965" lon="2.62957">
        <ele>1439</ele>
        <time>2000-01-01T10:12:11.000Z</time>
      </trkpt>
      <trkpt lat="45.1297" lon="2.62958">
        <ele>1439</ele>
        <time>2000-01-01T10:12:21.000Z</time>
      </trkpt>
      <trkpt lat="45.12975" lon="2.62959">
        <ele>1443</ele>
        <time>2000-01-01T10:12:31.000Z</time>
      </trkpt>
      <trkpt lat="45.1298" lon="2.62959">
        <ele>1438</ele>
        <time>2000-01-01T10:12:41.000Z</time>
      </trkpt>
      <trkpt lat="45.12985" lon="2.62958">
        <ele>1438</ele>
        <time>2000-01-01T10:12:51.000Z</time>
      </trkpt>
      <trkpt lat="45.12991" lon="2.62956">
        <ele>1437</ele>
        <time>2000-01-01T10:13:01.000Z</time>
      </trkpt>
      <trkpt lat="45.12996" lon="2.62955">
        <ele>1440</ele>
        <time>2000-01-01T10:13:11.000Z</time>
      </trkpt>
      <trkpt lat="45.13002" lon="2.62954">
        <ele>1430</ele>
        <time>2000-01-01T10:13:21.000Z</time>
      </trkpt>
      <trkpt lat="45.13007" lon="2.62954">
        <ele>1430</ele>
        <time>2000-01-01T10:13:31.000Z</time>
      </trkpt>
      <trkpt lat="45.13012" lon="2.62953">
        <ele>1430</ele>
        <time>2000-01-01T10:13:41.000Z</time>
      </trkpt>
      <trkpt lat="45.13018" lon="2.62953">
        <ele>1438</ele>
        <time>2000-01-01T10:13:51.000Z</time>
      </trkpt>
      <trkpt lat="45.13023" lon="2.62951">
        <ele>1429</ele>
        <time>2000-01-01T10:14:01.000Z</time>
      </trkpt>
      <trkpt lat="45.13029" lon="2.62948">
        <ele>1429</ele>
        <time>2000-01-01T10:14:11.000Z</time>
      </trkpt>
      <trkpt lat="45.13034" lon="2.62945">
        <ele>1429</ele>
        <time>2000-01-01T10:14:21.000Z</time>
      </trkpt>
      <trkpt lat="45.13039" lon="2.62944">
        <ele>1436</ele>
        <time>2000-01-01T10:14:31.000Z</time>
      </trkpt>
      <trkpt lat="45.13044" lon="2.62941">
        <ele>1428</ele>
        <time>2000-01-01T10:14:41.000Z</time>
      </trkpt>
      <trkpt lat="45.13048" lon="2.62938">
        <ele>1428</ele>
        <time>2000-01-01T10:14:51.000Z</time>
      </trkpt>
      <trkpt lat="45.13053" lon="2.62935">
        <ele>1427</ele>
        <time>2000-01-01T10:15:01.000Z</time>
      </trkpt>
      <trkpt lat="45.13058" lon="2.62932">
        <ele>1433</ele>
        <time>2000-01-01T10:15:11.000Z</time>
      </trkpt>
      <trkpt lat="45.13063" lon="2.62931">
        <ele>1426</ele>
        <time>2000-01-01T10:15:21.000Z</time>
      </trkpt>
      <trkpt lat="45.13069" lon="2.62929">
        <ele>1425</ele>
        <time>2000-01-01T10:15:31.000Z</time>
      </trkpt>
      <trkpt lat="45.13074" lon="2.62927">
        <ele>1424</ele>
        <time>2000-01-01T10:15:41.000Z</time>
      </trkpt>
      <trkpt lat="45.13078" lon="2.62924">
        <ele>1430</ele>
        <time>2000-01-01T10:15:51.000Z</time>
      </trkpt>
      <trkpt lat="45.13082" lon="2.62924">
        <ele>1422</ele>
        <time>2000-01-01T10:16:01.000Z</time>
      </trkpt>
      <trkpt lat="45.13088" lon="2.62923">
        <ele>1421</ele>
        <time>2000-01-01T10:16:11.000Z</time>
      </trkpt>
      <trkpt lat="45.1309" lon="2.62922">
        <ele>1421</ele>
        <time>2000-01-01T10:16:21.000Z</time>
      </trkpt>
      <trkpt lat="45.13096" lon="2.62921">
        <ele>1421</ele>
        <time>2000-01-01T10:16:31.000Z</time>
      </trkpt>
      <trkpt lat="45.131" lon="2.62918">
        <ele>1428</ele>
        <time>2000-01-01T10:16:41.000Z</time>
      </trkpt>
      <trkpt lat="45.13106" lon="2.62916">
        <ele>1415</ele>
        <time>2000-01-01T10:16:51.000Z</time>
      </trkpt>
      <trkpt lat="45.13111" lon="2.62914">
        <ele>1414</ele>
        <time>2000-01-01T10:17:01.000Z</time>
      </trkpt>
      <trkpt lat="45.13115" lon="2.62912">
        <ele>1413</ele>
        <time>2000-01-01T10:17:11.000Z</time>
      </trkpt>
      <trkpt lat="45.1312" lon="2.6291">
        <ele>1425</ele>
        <time>2000-01-01T10:17:21.000Z</time>
      </trkpt>
      <trkpt lat="45.13126" lon="2.62906">
        <ele>1412</ele>
        <time>2000-01-01T10:17:31.000Z</time>
      </trkpt>
      <trkpt lat="45.1313" lon="2.62904">
        <ele>1412</ele>
        <time>2000-01-01T10:17:41.000Z</time>
      </trkpt>
      <trkpt lat="45.13135" lon="2.62903">
        <ele>1412</ele>
        <time>2000-01-01T10:17:51.000Z</time>
      </trkpt>
      <trkpt lat="45.1314" lon="2.62903">
        <ele>1422</ele>
        <time>2000-01-01T10:18:01.000Z</time>
      </trkpt>
      <trkpt lat="45.13145" lon="2.62901">
        <ele>1412</ele>
        <time>2000-01-01T10:18:11.000Z</time>
      </trkpt>
      <trkpt lat="45.13149" lon="2.62898">
        <ele>1411</ele>
        <time>2000-01-01T10:18:21.000Z</time>
      </trkpt>
      <trkpt lat="45.13154" lon="2.62896">
        <ele>1411</ele>
        <time>2000-01-01T10:18:31.000Z</time>
      </trkpt>
      <trkpt lat="45.13158" lon="2.62893">
        <ele>1419</ele>
        <time>2000-01-01T10:18:41.000Z</time>
      </trkpt>
      <trkpt lat="45.13163" lon="2.62891">
        <ele>1411</ele>
        <time>2000-01-01T10:18:51.000Z</time>
      </trkpt>
      <trkpt lat="45.13167" lon="2.62888">
        <ele>1407</ele>
        <time>2000-01-01T10:19:01.000Z</time>
      </trkpt>
      <trkpt lat="45.13171" lon="2.62887">
        <ele>1407</ele>
        <time>2000-01-01T10:19:11.000Z</time>
      </trkpt>
      <trkpt lat="45.13176" lon="2.62884">
        <ele>1416</ele>
        <time>2000-01-01T10:19:21.000Z</time>
      </trkpt>
      <trkpt lat="45.13181" lon="2.62881">
        <ele>1406</ele>
        <time>2000-01-01T10:19:31.000Z</time>
      </trkpt>
      <trkpt lat="45.13183" lon="2.6288">
        <ele>1405</ele>
        <time>2000-01-01T10:19:41.000Z</time>
      </trkpt>
      <trkpt lat="45.13186" lon="2.62876">
        <ele>1405</ele>
        <time>2000-01-01T10:19:51.000Z</time>
      </trkpt>
      <trkpt lat="45.1319" lon="2.62873">
        <ele>1405</ele>
        <time>2000-01-01T10:20:01.000Z</time>
      </trkpt>
      <trkpt lat="45.13193" lon="2.62869">
        <ele>1414</ele>
        <time>2000-01-01T10:20:11.000Z</time>
      </trkpt>
      <trkpt lat="45.13198" lon="2.62866">
        <ele>1404</ele>
        <time>2000-01-01T10:20:21.000Z</time>
      </trkpt>
      <trkpt lat="45.13202" lon="2.62862">
        <ele>1403</ele>
        <time>2000-01-01T10:20:31.000Z</time>
      </trkpt>
      <trkpt lat="45.13206" lon="2.62859">
        <ele>1403</ele>
        <time>2000-01-01T10:20:41.000Z</time>
      </trkpt>
      <trkpt lat="45.1321" lon="2.62856">
        <ele>1411</ele>
        <time>2000-01-01T10:20:51.000Z</time>
      </trkpt>
      <trkpt lat="45.13215" lon="2.62853">
        <ele>1402</ele>
        <time>2000-01-01T10:21:01.000Z</time>
      </trkpt>
      <trkpt lat="45.1322" lon="2.62851">
        <ele>1402</ele>
        <time>2000-01-01T10:21:11.000Z</time>
      </trkpt>
      <trkpt lat="45.13225" lon="2.62849">
        <ele>1401</ele>
        <time>2000-01-01T10:21:21.000Z</time>
      </trkpt>
      <trkpt lat="45.1323" lon="2.62848">
        <ele>1407</ele>
        <time>2000-01-01T10:21:31.000Z</time>
      </trkpt>
      <trkpt lat="45.13235" lon="2.62846">
        <ele>1400</ele>
        <time>2000-01-01T10:21:41.000Z</time>
      </trkpt>
      <trkpt lat="45.1324" lon="2.62844">
        <ele>1400</ele>
        <time>2000-01-01T10:21:51.000Z</time>
      </trkpt>
      <trkpt lat="45.13244" lon="2.62843">
        <ele>1399</ele>
        <time>2000-01-01T10:22:01.000Z</time>
      </trkpt>
      <trkpt lat="45.13249" lon="2.62842">
        <ele>1405</ele>
        <time>2000-01-01T10:22:11.000Z</time>
      </trkpt>
      <trkpt lat="45.13254" lon="2.62839">
        <ele>1395</ele>
        <time>2000-01-01T10:22:21.000Z</time>
      </trkpt>
      <trkpt lat="45.13259" lon="2.62837">
        <ele>1394</ele>
        <time>2000-01-01T10:22:31.000Z</time>
      </trkpt>
      <trkpt lat="45.13262" lon="2.62837">
        <ele>1394</ele>
        <time>2000-01-01T10:22:41.000Z</time>
      </trkpt>
      <trkpt lat="45.13267" lon="2.62837">
        <ele>1393</ele>
        <time>2000-01-01T10:22:51.000Z</time>
      </trkpt>
      <trkpt lat="45.13272" lon="2.62838">
        <ele>1400</ele>
        <time>2000-01-01T10:23:01.000Z</time>
      </trkpt>
      <trkpt lat="45.13277" lon="2.62837">
        <ele>1391</ele>
        <time>2000-01-01T10:23:11.000Z</time>
      </trkpt>
      <trkpt lat="45.13283" lon="2.62837">
        <ele>1390</ele>
        <time>2000-01-01T10:23:21.000Z</time>
      </trkpt>
      <trkpt lat="45.13288" lon="2.62837">
        <ele>1390</ele>
        <time>2000-01-01T10:23:31.000Z</time>
      </trkpt>
      <trkpt lat="45.13294" lon="2.62838">
        <ele>1397</ele>
        <time>2000-01-01T10:23:41.000Z</time>
      </trkpt>
      <trkpt lat="45.13299" lon="2.62839">
        <ele>1388</ele>
        <time>2000-01-01T10:23:51.000Z</time>
      </trkpt>
      <trkpt lat="45.13305" lon="2.62839">
        <ele>1387</ele>
        <time>2000-01-01T10:24:01.000Z</time>
      </trkpt>
      <trkpt lat="45.1331" lon="2.62838">
        <ele>1386</ele>
        <time>2000-01-01T10:24:11.000Z</time>
      </trkpt>
      <trkpt lat="45.13317" lon="2.62838">
        <ele>1395</ele>
        <time>2000-01-01T10:24:21.000Z</time>
      </trkpt>
      <trkpt lat="45.13321" lon="2.62839">
        <ele>1384</ele>
        <time>2000-01-01T10:24:31.000Z</time>
      </trkpt>
      <trkpt lat="45.13325" lon="2.62839">
        <ele>1384</ele>
        <time>2000-01-01T10:24:41.000Z</time>
      </trkpt>
      <trkpt lat="45.13329" lon="2.6284">
        <ele>1383</ele>
        <time>2000-01-01T10:24:51.000Z</time>
      </trkpt>
      <trkpt lat="45.13331" lon="2.62841">
        <ele>1383</ele>
        <time>2000-01-01T10:25:01.000Z</time>
      </trkpt>
      <trkpt lat="45.13334" lon="2.62841">
        <ele>1378</ele>
        <time>2000-01-01T10:25:11.000Z</time>
      </trkpt>
      <trkpt lat="45.13338" lon="2.62841">
        <ele>1392</ele>
        <time>2000-01-01T10:25:21.000Z</time>
      </trkpt>
      <trkpt lat="45.13342" lon="2.62843">
        <ele>1376</ele>
        <time>2000-01-01T10:25:31.000Z</time>
      </trkpt>
      <trkpt lat="45.13347" lon="2.62844">
        <ele>1375</ele>
        <time>2000-01-01T10:25:41.000Z</time>
      </trkpt>
      <trkpt lat="45.13352" lon="2.62844">
        <ele>1374</ele>
        <time>2000-01-01T10:25:51.000Z</time>
      </trkpt>
      <trkpt lat="45.13358" lon="2.62843">
        <ele>1389</ele>
        <time>2000-01-01T10:26:01.000Z</time>
      </trkpt>
      <trkpt lat="45.13364" lon="2.62841">
        <ele>1372</ele>
        <time>2000-01-01T10:26:11.000Z</time>
      </trkpt>
      <trkpt lat="45.1337" lon="2.62838">
        <ele>1371</ele>
        <time>2000-01-01T10:26:21.000Z</time>
      </trkpt>
      <trkpt lat="45.13376" lon="2.62837">
        <ele>1370</ele>
        <time>2000-01-01T10:26:31.000Z</time>
      </trkpt>
      <trkpt lat="45.13379" lon="2.62836">
        <ele>1385</ele>
        <time>2000-01-01T10:26:41.000Z</time>
      </trkpt>
      <trkpt lat="45.13383" lon="2.62832">
        <ele>1372</ele>
        <time>2000-01-01T10:26:51.000Z</time>
      </trkpt>
      <trkpt lat="45.13385" lon="2.6283">
        <ele>1372</ele>
        <time>2000-01-01T10:27:01.000Z</time>
      </trkpt>
      <trkpt lat="45.13387" lon="2.62829">
        <ele>1372</ele>
        <time>2000-01-01T10:27:11.000Z</time>
      </trkpt>
      <trkpt lat="45.13393" lon="2.62826">
        <ele>1371</ele>
        <time>2000-01-01T10:27:21.000Z</time>
      </trkpt>
      <trkpt lat="45.13398" lon="2.62824">
        <ele>1381</ele>
        <time>2000-01-01T10:27:31.000Z</time>
      </trkpt>
      <trkpt lat="45.13401" lon="2.62826">
        <ele>1370</ele>
        <time>2000-01-01T10:27:41.000Z</time>
      </trkpt>
      <trkpt lat="45.13407" lon="2.62824">
        <ele>1370</ele>
        <time>2000-01-01T10:27:51.000Z</time>
      </trkpt>
      <trkpt lat="45.13411" lon="2.62821">
        <ele>1370</ele>
        <time>2000-01-01T10:28:01.000Z</time>
      </trkpt>
      <trkpt lat="45.13414" lon="2.62821">
        <ele>1370</ele>
        <time>2000-01-01T10:28:11.000Z</time>
      </trkpt>
      <trkpt lat="45.13419" lon="2.62821">
        <ele>1376</ele>
        <time>2000-01-01T10:28:21.000Z</time>
      </trkpt>
      <trkpt lat="45.13424" lon="2.62824">
        <ele>1364</ele>
        <time>2000-01-01T10:28:31.000Z</time>
      </trkpt>
      <trkpt lat="45.13427" lon="2.62825">
        <ele>1364</ele>
        <time>2000-01-01T10:28:41.000Z</time>
      </trkpt>
      <trkpt lat="45.13432" lon="2.62823">
        <ele>1362</ele>
        <time>2000-01-01T10:28:51.000Z</time>
      </trkpt>
      <trkpt lat="45.13434" lon="2.62821">
        <ele>1362</ele>
        <time>2000-01-01T10:29:01.000Z</time>
      </trkpt>
      <trkpt lat="45.13437" lon="2.62818">
        <ele>1372</ele>
        <time>2000-01-01T10:29:11.000Z</time>
      </trkpt>
      <trkpt lat="45.1344" lon="2.62812">
        <ele>1360</ele>
        <time>2000-01-01T10:29:21.000Z</time>
      </trkpt>
      <trkpt lat="45.13444" lon="2.62807">
        <ele>1360</ele>
        <time>2000-01-01T10:29:31.000Z</time>
      </trkpt>
      <trkpt lat="45.13447" lon="2.62803">
        <ele>1359</ele>
        <time>2000-01-01T10:29:41.000Z</time>
      </trkpt>
      <trkpt lat="45.13451" lon="2.62797">
        <ele>1366</ele>
        <time>2000-01-01T10:29:51.000Z</time>
      </trkpt>
      <trkpt lat="45.13455" lon="2.62792">
        <ele>1359</ele>
        <time>2000-01-01T10:30:01.000Z</time>
      </trkpt>
      <trkpt lat="45.13459" lon="2.62786">
        <ele>1358</ele>
        <time>2000-01-01T10:30:11.000Z</time>
      </trkpt>
      <trkpt lat="45.13463" lon="2.62783">
        <ele>1358</ele>
        <time>2000-01-01T10:30:21.000Z</time>
      </trkpt>
      <trkpt lat="45.13467" lon="2.62781">
        <ele>1365</ele>
        <time>2000-01-01T10:30:31.000Z</time>
      </trkpt>
      <trkpt lat="45.13473" lon="2.6278">
        <ele>1357</ele>
        <time>2000-01-01T10:30:41.000Z</time>
      </trkpt>
      <trkpt lat="45.13478" lon="2.62779">
        <ele>1357</ele>
        <time>2000-01-01T10:30:51.000Z</time>
      </trkpt>
      <trkpt lat="45.13481" lon="2.6278">
        <ele>1357</ele>
        <time>2000-01-01T10:31:01.000Z</time>
      </trkpt>
      <trkpt lat="45.13484" lon="2.6278">
        <ele>1357</ele>
        <time>2000-01-01T10:31:11.000Z</time>
      </trkpt>
      <trkpt lat="45.13488" lon="2.62777">
        <ele>1364</ele>
        <time>2000-01-01T10:31:21.000Z</time>
      </trkpt>
      <trkpt lat="45.13492" lon="2.62772">
        <ele>1357</ele>
        <time>2000-01-01T10:31:31.000Z</time>
      </trkpt>
      <trkpt lat="45.13496" lon="2.62767">
        <ele>1357</ele>
        <time>2000-01-01T10:31:41.000Z</time>
      </trkpt>
      <trkpt lat="45.135" lon="2.62764">
        <ele>1357</ele>
        <time>2000-01-01T10:31:51.000Z</time>
      </trkpt>
      <trkpt lat="45.13504" lon="2.62761">
        <ele>1361</ele>
        <time>2000-01-01T10:32:01.000Z</time>
      </trkpt>
      <trkpt lat="45.13509" lon="2.62757">
        <ele>1351</ele>
        <time>2000-01-01T10:32:11.000Z</time>
      </trkpt>
      <trkpt lat="45.13513" lon="2.62754">
        <ele>1351</ele>
        <time>2000-01-01T10:32:21.000Z</time>
      </trkpt>
      <trkpt lat="45.13518" lon="2.62751">
        <ele>1349</ele>
        <time>2000-01-01T10:32:31.000Z</time>
      </trkpt>
      <trkpt lat="45.13522" lon="2.62748">
        <ele>1361</ele>
        <time>2000-01-01T10:32:41.000Z</time>
      </trkpt>
      <trkpt lat="45.13526" lon="2.62745">
        <ele>1353</ele>
        <time>2000-01-01T10:32:51.000Z</time>
      </trkpt>
      <trkpt lat="45.13531" lon="2.62741">
        <ele>1352</ele>
        <time>2000-01-01T10:33:01.000Z</time>
      </trkpt>
      <trkpt lat="45.13536" lon="2.62739">
        <ele>1352</ele>
        <time>2000-01-01T10:33:11.000Z</time>
      </trkpt>
      <trkpt lat="45.13541" lon="2.62737">
        <ele>1359</ele>
        <time>2000-01-01T10:33:21.000Z</time>
      </trkpt>
      <trkpt lat="45.13546" lon="2.62735">
        <ele>1351</ele>
        <time>2000-01-01T10:33:31.000Z</time>
      </trkpt>
      <trkpt lat="45.13552" lon="2.62733">
        <ele>1351</ele>
        <time>2000-01-01T10:33:41.000Z</time>
      </trkpt>
      <trkpt lat="45.13557" lon="2.62731">
        <ele>1350</ele>
        <time>2000-01-01T10:33:51.000Z</time>
      </trkpt>
      <trkpt lat="45.13562" lon="2.62729">
        <ele>1358</ele>
        <time>2000-01-01T10:34:01.000Z</time>
      </trkpt>
      <trkpt lat="45.13567" lon="2.62727">
        <ele>1350</ele>
        <time>2000-01-01T10:34:11.000Z</time>
      </trkpt>
      <trkpt lat="45.13573" lon="2.62725">
        <ele>1350</ele>
        <time>2000-01-01T10:34:21.000Z</time>
      </trkpt>
      <trkpt lat="45.13578" lon="2.62724">
        <ele>1350</ele>
        <time>2000-01-01T10:34:31.000Z</time>
      </trkpt>
      <trkpt lat="45.13583" lon="2.62723">
        <ele>1357</ele>
        <time>2000-01-01T10:34:41.000Z</time>
      </trkpt>
      <trkpt lat="45.13587" lon="2.6272">
        <ele>1344</ele>
        <time>2000-01-01T10:34:51.000Z</time>
      </trkpt>
      <trkpt lat="45.13592" lon="2.62719">
        <ele>1344</ele>
        <time>2000-01-01T10:35:01.000Z</time>
      </trkpt>
      <trkpt lat="45.13598" lon="2.62718">
        <ele>1344</ele>
        <time>2000-01-01T10:35:11.000Z</time>
      </trkpt>
      <trkpt lat="45.13603" lon="2.62718">
        <ele>1354</ele>
        <time>2000-01-01T10:35:21.000Z</time>
      </trkpt>
      <trkpt lat="45.13608" lon="2.62717">
        <ele>1343</ele>
        <time>2000-01-01T10:35:31.000Z</time>
      </trkpt>
      <trkpt lat="45.13613" lon="2.62715">
        <ele>1343</ele>
        <time>2000-01-01T10:35:41.000Z</time>
      </trkpt>
      <trkpt lat="45.13618" lon="2.62711">
        <ele>1343</ele>
        <time>2000-01-01T10:35:51.000Z</time>
      </trkpt>
      <trkpt lat="45.13623" lon="2.62707">
        <ele>1349</ele>
        <time>2000-01-01T10:36:01.000Z</time>
      </trkpt>
      <trkpt lat="45.13627" lon="2.62703">
        <ele>1343</ele>
        <time>2000-01-01T10:36:11.000Z</time>
      </trkpt>
      <trkpt lat="45.13631" lon="2.62698">
        <ele>1343</ele>
        <time>2000-01-01T10:36:21.000Z</time>
      </trkpt>
      <trkpt lat="45.13635" lon="2.62693">
        <ele>1343</ele>
        <time>2000-01-01T10:36:31.000Z</time>
      </trkpt>
      <trkpt lat="45.1364" lon="2.62688">
        <ele>1345</ele>
        <time>2000-01-01T10:36:41.000Z</time>
      </trkpt>
      <trkpt lat="45.13644" lon="2.62683">
        <ele>1344</ele>
        <time>2000-01-01T10:36:51.000Z</time>
      </trkpt>
      <trkpt lat="45.13648" lon="2.62677">
        <ele>1344</ele>
        <time>2000-01-01T10:37:01.000Z</time>
      </trkpt>
      <trkpt lat="45.13652" lon="2.62671">
        <ele>1344</ele>
        <time>2000-01-01T10:37:11.000Z</time>
      </trkpt>
      <trkpt lat="45.13657" lon="2.62666">
        <ele>1345</ele>
        <time>2000-01-01T10:37:21.000Z</time>
      </trkpt>
      <trkpt lat="45.13662" lon="2.62661">
        <ele>1346</ele>
        <time>2000-01-01T10:37:31.000Z</time>
      </trkpt>
      <trkpt lat="45.13667" lon="2.62656">
        <ele>1344</ele>
        <time>2000-01-01T10:37:41.000Z</time>
      </trkpt>
      <trkpt lat="45.13672" lon="2.62652">
        <ele>1344</ele>
        <time>2000-01-01T10:37:51.000Z</time>
      </trkpt>
      <trkpt lat="45.13678" lon="2.62648">
        <ele>1344</ele>
        <time>2000-01-01T10:38:01.000Z</time>
      </trkpt>
      <trkpt lat="45.13683" lon="2.62643">
        <ele>1343</ele>
        <time>2000-01-01T10:38:11.000Z</time>
      </trkpt>
      <trkpt lat="45.13688" lon="2.62639">
        <ele>1342</ele>
        <time>2000-01-01T10:38:21.000Z</time>
      </trkpt>
      <trkpt lat="45.13693" lon="2.62634">
        <ele>1342</ele>
        <time>2000-01-01T10:38:31.000Z</time>
      </trkpt>
      <trkpt lat="45.13697" lon="2.62631">
        <ele>1341</ele>
        <time>2000-01-01T10:38:41.000Z</time>
      </trkpt>
      <trkpt lat="45.137" lon="2.6263">
        <ele>1342</ele>
        <time>2000-01-01T10:38:51.000Z</time>
      </trkpt>
      <trkpt lat="45.13704" lon="2.62626">
        <ele>1342</ele>
        <time>2000-01-01T10:39:01.000Z</time>
      </trkpt>
      <trkpt lat="45.13709" lon="2.62623">
        <ele>1342</ele>
        <time>2000-01-01T10:39:11.000Z</time>
      </trkpt>
      <trkpt lat="45.13713" lon="2.62618">
        <ele>1342</ele>
        <time>2000-01-01T10:39:21.000Z</time>
      </trkpt>
      <trkpt lat="45.13717" lon="2.62614">
        <ele>1341</ele>
        <time>2000-01-01T10:39:31.000Z</time>
      </trkpt>
      <trkpt lat="45.13721" lon="2.62609">
        <ele>1342</ele>
        <time>2000-01-01T10:39:41.000Z</time>
      </trkpt>
      <trkpt lat="45.13725" lon="2.62604">
        <ele>1342</ele>
        <time>2000-01-01T10:39:51.000Z</time>
      </trkpt>
      <trkpt lat="45.13729" lon="2.62599">
        <ele>1343</ele>
        <time>2000-01-01T10:40:01.000Z</time>
      </trkpt>
      <trkpt lat="45.13733" lon="2.62595">
        <ele>1342</ele>
        <time>2000-01-01T10:40:11.000Z</time>
      </trkpt>
      <trkpt lat="45.13737" lon="2.62591">
        <ele>1344</ele>
        <time>2000-01-01T10:40:21.000Z</time>
      </trkpt>
      <trkpt lat="45.13742" lon="2.62588">
        <ele>1344</ele>
        <time>2000-01-01T10:40:31.000Z</time>
      </trkpt>
      <trkpt lat="45.13747" lon="2.62585">
        <ele>1345</ele>
        <time>2000-01-01T10:40:41.000Z</time>
      </trkpt>
      <trkpt lat="45.13751" lon="2.62582">
        <ele>1344</ele>
        <time>2000-01-01T10:40:51.000Z</time>
      </trkpt>
      <trkpt lat="45.13756" lon="2.62578">
        <ele>1346</ele>
        <time>2000-01-01T10:41:01.000Z</time>
      </trkpt>
      <trkpt lat="45.1376" lon="2.62575">
        <ele>1346</ele>
        <time>2000-01-01T10:41:11.000Z</time>
      </trkpt>
      <trkpt lat="45.13764" lon="2.62572">
        <ele>1346</ele>
        <time>2000-01-01T10:41:21.000Z</time>
      </trkpt>
      <trkpt lat="45.1377" lon="2.62569">
        <ele>1345</ele>
        <time>2000-01-01T10:41:31.000Z</time>
      </trkpt>
      <trkpt lat="45.13775" lon="2.62565">
        <ele>1346</ele>
        <time>2000-01-01T10:41:41.000Z</time>
      </trkpt>
      <trkpt lat="45.13779" lon="2.62561">
        <ele>1346</ele>
        <time>2000-01-01T10:41:51.000Z</time>
      </trkpt>
      <trkpt lat="45.13783" lon="2.62555">
        <ele>1346</ele>
        <time>2000-01-01T10:42:01.000Z</time>
      </trkpt>
      <trkpt lat="45.13787" lon="2.62552">
        <ele>1346</ele>
        <time>2000-01-01T10:42:11.000Z</time>
      </trkpt>
      <trkpt lat="45.13792" lon="2.62548">
        <ele>1346</ele>
        <time>2000-01-01T10:42:21.000Z</time>
      </trkpt>
      <trkpt lat="45.13796" lon="2.62541">
        <ele>1347</ele>
        <time>2000-01-01T10:42:31.000Z</time>
      </trkpt>
      <trkpt lat="45.13798" lon="2.6254">
        <ele>1347</ele>
        <time>2000-01-01T10:42:41.000Z</time>
      </trkpt>
      <trkpt lat="45.13802" lon="2.62537">
        <ele>1347</ele>
        <time>2000-01-01T10:42:51.000Z</time>
      </trkpt>
      <trkpt lat="45.13806" lon="2.62533">
        <ele>1350</ele>
        <time>2000-01-01T10:43:01.000Z</time>
      </trkpt>
      <trkpt lat="45.13809" lon="2.6253">
        <ele>1347</ele>
        <time>2000-01-01T10:43:11.000Z</time>
      </trkpt>
      <trkpt lat="45.13813" lon="2.62527">
        <ele>1347</ele>
        <time>2000-01-01T10:43:21.000Z</time>
      </trkpt>
      <trkpt lat="45.13818" lon="2.62524">
        <ele>1347</ele>
        <time>2000-01-01T10:43:31.000Z</time>
      </trkpt>
      <trkpt lat="45.13823" lon="2.62521">
        <ele>1348</ele>
        <time>2000-01-01T10:43:41.000Z</time>
      </trkpt>
      <trkpt lat="45.13827" lon="2.62517">
        <ele>1354</ele>
        <time>2000-01-01T10:43:51.000Z</time>
      </trkpt>
      <trkpt lat="45.1383" lon="2.62512">
        <ele>1349</ele>
        <time>2000-01-01T10:44:01.000Z</time>
      </trkpt>
      <trkpt lat="45.13833" lon="2.62506">
        <ele>1349</ele>
        <time>2000-01-01T10:44:11.000Z</time>
      </trkpt>
      <trkpt lat="45.13837" lon="2.625">
        <ele>1350</ele>
        <time>2000-01-01T10:44:21.000Z</time>
      </trkpt>
      <trkpt lat="45.13841" lon="2.62494">
        <ele>1357</ele>
        <time>2000-01-01T10:44:31.000Z</time>
      </trkpt>
      <trkpt lat="45.13845" lon="2.62489">
        <ele>1350</ele>
        <time>2000-01-01T10:44:41.000Z</time>
      </trkpt>
      <trkpt lat="45.13849" lon="2.62482">
        <ele>1350</ele>
        <time>2000-01-01T10:44:51.000Z</time>
      </trkpt>
      <trkpt lat="45.13853" lon="2.62477">
        <ele>1350</ele>
        <time>2000-01-01T10:45:01.000Z</time>
      </trkpt>
      <trkpt lat="45.13856" lon="2.62472">
        <ele>1360</ele>
        <time>2000-01-01T10:45:11.000Z</time>
      </trkpt>
      <trkpt lat="45.13859" lon="2.62468">
        <ele>1350</ele>
        <time>2000-01-01T10:45:21.000Z</time>
      </trkpt>
      <trkpt lat="45.13862" lon="2.62462">
        <ele>1350</ele>
        <time>2000-01-01T10:45:31.000Z</time>
      </trkpt>
      <trkpt lat="45.13867" lon="2.62456">
        <ele>1350</ele>
        <time>2000-01-01T10:45:41.000Z</time>
      </trkpt>
      <trkpt lat="45.13869" lon="2.62453">
        <ele>1350</ele>
        <time>2000-01-01T10:45:51.000Z</time>
      </trkpt>
      <trkpt lat="45.13873" lon="2.62447">
        <ele>1361</ele>
        <time>2000-01-01T10:46:01.000Z</time>
      </trkpt>
      <trkpt lat="45.13876" lon="2.62441">
        <ele>1350</ele>
        <time>2000-01-01T10:46:11.000Z</time>
      </trkpt>
      <trkpt lat="45.1388" lon="2.62435">
        <ele>1350</ele>
        <time>2000-01-01T10:46:21.000Z</time>
      </trkpt>
      <trkpt lat="45.13884" lon="2.62429">
        <ele>1350</ele>
        <time>2000-01-01T10:46:31.000Z</time>
      </trkpt>
      <trkpt lat="45.13888" lon="2.62423">
        <ele>1361</ele>
        <time>2000-01-01T10:46:41.000Z</time>
      </trkpt>
      <trkpt lat="45.13892" lon="2.62417">
        <ele>1351</ele>
        <time>2000-01-01T10:46:51.000Z</time>
      </trkpt>
      <trkpt lat="45.13895" lon="2.62411">
        <ele>1350</ele>
        <time>2000-01-01T10:47:01.000Z</time>
      </trkpt>
      <trkpt lat="45.13899" lon="2.62406">
        <ele>1350</ele>
        <time>2000-01-01T10:47:11.000Z</time>
      </trkpt>
      <trkpt lat="45.13903" lon="2.624">
        <ele>1360</ele>
        <time>2000-01-01T10:47:21.000Z</time>
      </trkpt>
      <trkpt lat="45.13906" lon="2.62395">
        <ele>1350</ele>
        <time>2000-01-01T10:47:31.000Z</time>
      </trkpt>
      <trkpt lat="45.13909" lon="2.62389">
        <ele>1350</ele>
        <time>2000-01-01T10:47:41.000Z</time>
      </trkpt>
      <trkpt lat="45.13912" lon="2.62384">
        <ele>1350</ele>
        <time>2000-01-01T10:47:51.000Z</time>
      </trkpt>
      <trkpt lat="45.13915" lon="2.62378">
        <ele>1360</ele>
        <time>2000-01-01T10:48:01.000Z</time>
      </trkpt>
      <trkpt lat="45.13918" lon="2.62372">
        <ele>1349</ele>
        <time>2000-01-01T10:48:11.000Z</time>
      </trkpt>
      <trkpt lat="45.13922" lon="2.62367">
        <ele>1349</ele>
        <time>2000-01-01T10:48:21.000Z</time>
      </trkpt>
      <trkpt lat="45.13925" lon="2.62363">
        <ele>1349</ele>
        <time>2000-01-01T10:48:31.000Z</time>
      </trkpt>
      <trkpt lat="45.13928" lon="2.62357">
        <ele>1360</ele>
        <time>2000-01-01T10:48:41.000Z</time>
      </trkpt>
      <trkpt lat="45.13932" lon="2.62351">
        <ele>1350</ele>
        <time>2000-01-01T10:48:51.000Z</time>
      </trkpt>
      <trkpt lat="45.13935" lon="2.62346">
        <ele>1350</ele>
        <time>2000-01-01T10:49:01.000Z</time>
      </trkpt>
      <trkpt lat="45.13939" lon="2.6234">
        <ele>1350</ele>
        <time>2000-01-01T10:49:11.000Z</time>
      </trkpt>
      <trkpt lat="45.13942" lon="2.62335">
        <ele>1359</ele>
        <time>2000-01-01T10:49:21.000Z</time>
      </trkpt>
      <trkpt lat="45.13945" lon="2.62331">
        <ele>1351</ele>
        <time>2000-01-01T10:49:31.000Z</time>
      </trkpt>
      <trkpt lat="45.13949" lon="2.62329">
        <ele>1351</ele>
        <time>2000-01-01T10:49:41.000Z</time>
      </trkpt>
      <trkpt lat="45.13954" lon="2.62326">
        <ele>1351</ele>
        <time>2000-01-01T10:49:51.000Z</time>
      </trkpt>
      <trkpt lat="45.13959" lon="2.62325">
        <ele>1351</ele>
        <time>2000-01-01T10:50:01.000Z</time>
      </trkpt>
      <trkpt lat="45.13961" lon="2.62324">
        <ele>1359</ele>
        <time>2000-01-01T10:50:11.000Z</time>
      </trkpt>
      <trkpt lat="45.13963" lon="2.62326">
        <ele>1351</ele>
        <time>2000-01-01T10:50:21.000Z</time>
      </trkpt>
      <trkpt lat="45.13963" lon="2.62326">
        <ele>1351</ele>
        <time>2000-01-01T10:50:31.000Z</time>
      </trkpt>
      <trkpt lat="45.13963" lon="2.62326">
        <ele>1351</ele>
        <time>2000-01-01T10:50:41.000Z</time>
      </trkpt>
      <trkpt lat="45.13963" lon="2.62332">
        <ele>1351</ele>
        <time>2000-01-01T10:50:51.000Z</time>
      </trkpt>
      <trkpt lat="45.13962" lon="2.62338">
        <ele>1348</ele>
        <time>2000-01-01T10:51:01.000Z</time>
      </trkpt>
      <trkpt lat="45.1396" lon="2.62343">
        <ele>1348</ele>
        <time>2000-01-01T10:51:11.000Z</time>
      </trkpt>
      <trkpt lat="45.13959" lon="2.62348">
        <ele>1356</ele>
        <time>2000-01-01T10:51:21.000Z</time>
      </trkpt>
      <trkpt lat="45.13957" lon="2.62354">
        <ele>1347</ele>
        <time>2000-01-01T10:51:31.000Z</time>
      </trkpt>
      <trkpt lat="45.13955" lon="2.62361">
        <ele>1347</ele>
        <time>2000-01-01T10:51:41.000Z</time>
      </trkpt>
      <trkpt lat="45.13953" lon="2.62366">
        <ele>1347</ele>
        <time>2000-01-01T10:51:51.000Z</time>
      </trkpt>
      <trkpt lat="45.13951" lon="2.62373">
        <ele>1352</ele>
        <time>2000-01-01T10:52:01.000Z</time>
      </trkpt>
      <trkpt lat="45.13949" lon="2.62381">
        <ele>1347</ele>
        <time>2000-01-01T10:52:11.000Z</time>
      </trkpt>
      <trkpt lat="45.13946" lon="2.62386">
        <ele>1347</ele>
        <time>2000-01-01T10:52:21.000Z</time>
      </trkpt>
      <trkpt lat="45.13945" lon="2.62388">
        <ele>1347</ele>
        <time>2000-01-01T10:52:31.000Z</time>
      </trkpt>
      <trkpt lat="45.13943" lon="2.62393">
        <ele>1347</ele>
        <time>2000-01-01T10:52:41.000Z</time>
      </trkpt>
      <trkpt lat="45.13941" lon="2.62399">
        <ele>1351</ele>
        <time>2000-01-01T10:52:51.000Z</time>
      </trkpt>
      <trkpt lat="45.13939" lon="2.62406">
        <ele>1348</ele>
        <time>2000-01-01T10:53:01.000Z</time>
      </trkpt>
      <trkpt lat="45.13937" lon="2.62412">
        <ele>1348</ele>
        <time>2000-01-01T10:53:11.000Z</time>
      </trkpt>
      <trkpt lat="45.13934" lon="2.62416">
        <ele>1349</ele>
        <time>2000-01-01T10:53:21.000Z</time>
      </trkpt>
      <trkpt lat="45.13932" lon="2.62423">
        <ele>1351</ele>
        <time>2000-01-01T10:53:31.000Z</time>
      </trkpt>
      <trkpt lat="45.13929" lon="2.62429">
        <ele>1345</ele>
        <time>2000-01-01T10:53:41.000Z</time>
      </trkpt>
      <trkpt lat="45.13927" lon="2.62436">
        <ele>1344</ele>
        <time>2000-01-01T10:53:51.000Z</time>
      </trkpt>
      <trkpt lat="45.13925" lon="2.62442">
        <ele>1343</ele>
        <time>2000-01-01T10:54:01.000Z</time>
      </trkpt>
      <trkpt lat="45.13923" lon="2.62449">
        <ele>1351</ele>
        <time>2000-01-01T10:54:11.000Z</time>
      </trkpt>
      <trkpt lat="45.1392" lon="2.62456">
        <ele>1342</ele>
        <time>2000-01-01T10:54:21.000Z</time>
      </trkpt>
      <trkpt lat="45.13919" lon="2.62463">
        <ele>1342</ele>
        <time>2000-01-01T10:54:31.000Z</time>
      </trkpt>
      <trkpt lat="45.13917" lon="2.6247">
        <ele>1342</ele>
        <time>2000-01-01T10:54:41.000Z</time>
      </trkpt>
      <trkpt lat="45.13916" lon="2.62477">
        <ele>1351</ele>
        <time>2000-01-01T10:54:51.000Z</time>
      </trkpt>
      <trkpt lat="45.13915" lon="2.62482">
        <ele>1350</ele>
        <time>2000-01-01T10:55:01.000Z</time>
      </trkpt>
      <trkpt lat="45.13912" lon="2.6249">
        <ele>1350</ele>
        <time>2000-01-01T10:55:11.000Z</time>
      </trkpt>
      <trkpt lat="45.1391" lon="2.62495">
        <ele>1350</ele>
        <time>2000-01-01T10:55:21.000Z</time>
      </trkpt>
      <trkpt lat="45.13908" lon="2.62501">
        <ele>1349</ele>
        <time>2000-01-01T10:55:31.000Z</time>
      </trkpt>
      <trkpt lat="45.13908" lon="2.62503">
        <ele>1351</ele>
        <time>2000-01-01T10:55:41.000Z</time>
      </trkpt>
      <trkpt lat="45.13904" lon="2.62511">
        <ele>1348</ele>
        <time>2000-01-01T10:55:51.000Z</time>
      </trkpt>
      <trkpt lat="45.13902" lon="2.62518">
        <ele>1347</ele>
        <time>2000-01-01T10:56:01.000Z</time>
      </trkpt>
      <trkpt lat="45.139" lon="2.62523">
        <ele>1347</ele>
        <time>2000-01-01T10:56:11.000Z</time>
      </trkpt>
      <trkpt lat="45.13898" lon="2.62529">
        <ele>1351</ele>
        <time>2000-01-01T10:56:21.000Z</time>
      </trkpt>
      <trkpt lat="45.13896" lon="2.62534">
        <ele>1346</ele>
        <time>2000-01-01T10:56:31.000Z</time>
      </trkpt>
      <trkpt lat="45.13894" lon="2.62539">
        <ele>1346</ele>
        <time>2000-01-01T10:56:41.000Z</time>
      </trkpt>
      <trkpt lat="45.13891" lon="2.62544">
        <ele>1345</ele>
        <time>2000-01-01T10:56:51.000Z</time>
      </trkpt>
      <trkpt lat="45.13889" lon="2.62548">
        <ele>1345</ele>
        <time>2000-01-01T10:57:01.000Z</time>
      </trkpt>
      <trkpt lat="45.13885" lon="2.62555">
        <ele>1350</ele>
        <time>2000-01-01T10:57:11.000Z</time>
      </trkpt>
      <trkpt lat="45.13883" lon="2.62559">
        <ele>1345</ele>
        <time>2000-01-01T10:57:21.000Z</time>
      </trkpt>
      <trkpt lat="45.1388" lon="2.62566">
        <ele>1345</ele>
        <time>2000-01-01T10:57:31.000Z</time>
      </trkpt>
      <trkpt lat="45.13877" lon="2.62571">
        <ele>1345</ele>
        <time>2000-01-01T10:57:41.000Z</time>
      </trkpt>
      <trkpt lat="45.13875" lon="2.62572">
        <ele>1345</ele>
        <time>2000-01-01T10:57:51.000Z</time>
      </trkpt>
      <trkpt lat="45.13869" lon="2.62573">
        <ele>1346</ele>
        <time>2000-01-01T10:58:01.000Z</time>
      </trkpt>
      <trkpt lat="45.13863" lon="2.62572">
        <ele>1345</ele>
        <time>2000-01-01T10:58:11.000Z</time>
      </trkpt>
      <trkpt lat="45.13858" lon="2.62571">
        <ele>1346</ele>
        <time>2000-01-01T10:58:21.000Z</time>
      </trkpt>
      <trkpt lat="45.13854" lon="2.6257">
        <ele>1346</ele>
        <time>2000-01-01T10:58:31.000Z</time>
      </trkpt>
      <trkpt lat="45.1385" lon="2.6257">
        <ele>1343</ele>
        <time>2000-01-01T10:58:41.000Z</time>
      </trkpt>
      <trkpt lat="45.13846" lon="2.6257">
        <ele>1346</ele>
        <time>2000-01-01T10:58:51.000Z</time>
      </trkpt>
      <trkpt lat="45.13839" lon="2.6257">
        <ele>1346</ele>
        <time>2000-01-01T10:59:01.000Z</time>
      </trkpt>
      <trkpt lat="45.13833" lon="2.62572">
        <ele>1346</ele>
        <time>2000-01-01T10:59:11.000Z</time>
      </trkpt>
      <trkpt lat="45.13829" lon="2.62573">
        <ele>1342</ele>
        <time>2000-01-01T10:59:21.000Z</time>
      </trkpt>
      <trkpt lat="45.13824" lon="2.62572">
        <ele>1346</ele>
        <time>2000-01-01T10:59:31.000Z</time>
      </trkpt>
      <trkpt lat="45.13822" lon="2.62572">
        <ele>1346</ele>
        <time>2000-01-01T10:59:41.000Z</time>
      </trkpt>
      <trkpt lat="45.13821" lon="2.62574">
        <ele>1346</ele>
        <time>2000-01-01T10:59:51.000Z</time>
      </trkpt>
      <trkpt lat="45.13824" lon="2.62578">
        <ele>1346</ele>
        <time>2000-01-01T11:00:01.000Z</time>
      </trkpt>
      <trkpt lat="45.13827" lon="2.62582">
        <ele>1346</ele>
        <time>2000-01-01T11:00:11.000Z</time>
      </trkpt>
      <trkpt lat="45.1383" lon="2.62584">
        <ele>1342</ele>
        <time>2000-01-01T11:00:21.000Z</time>
      </trkpt>
      <trkpt lat="45.13833" lon="2.62588">
        <ele>1344</ele>
        <time>2000-01-01T11:00:31.000Z</time>
      </trkpt>
      <trkpt lat="45.13836" lon="2.62588">
        <ele>1343</ele>
        <time>2000-01-01T11:00:41.000Z</time>
      </trkpt>
      <trkpt lat="45.13838" lon="2.62589">
        <ele>1342</ele>
        <time>2000-01-01T11:00:51.000Z</time>
      </trkpt>
      <trkpt lat="45.1384" lon="2.62589">
        <ele>1341</ele>
        <time>2000-01-01T11:01:01.000Z</time>
      </trkpt>
      <trkpt lat="45.13844" lon="2.62592">
        <ele>1339</ele>
        <time>2000-01-01T11:01:11.000Z</time>
      </trkpt>
      <trkpt lat="45.13846" lon="2.62594">
        <ele>1338</ele>
        <time>2000-01-01T11:01:21.000Z</time>
      </trkpt>
      <trkpt lat="45.13847" lon="2.62596">
        <ele>1338</ele>
        <time>2000-01-01T11:01:31.000Z</time>
      </trkpt>
      <trkpt lat="45.13849" lon="2.62596">
        <ele>1337</ele>
        <time>2000-01-01T11:01:41.000Z</time>
      </trkpt>
      <trkpt lat="45.13855" lon="2.62599">
        <ele>1335</ele>
        <time>2000-01-01T11:01:51.000Z</time>
      </trkpt>
      <trkpt lat="45.13857" lon="2.626">
        <ele>1335</ele>
        <time>2000-01-01T11:02:01.000Z</time>
      </trkpt>
      <trkpt lat="45.13861" lon="2.62602">
        <ele>1334</ele>
        <time>2000-01-01T11:02:11.000Z</time>
      </trkpt>
      <trkpt lat="45.13865" lon="2.62605">
        <ele>1333</ele>
        <time>2000-01-01T11:02:21.000Z</time>
      </trkpt>
      <trkpt lat="45.13869" lon="2.62608">
        <ele>1334</ele>
        <time>2000-01-01T11:02:31.000Z</time>
      </trkpt>
      <trkpt lat="45.13874" lon="2.62612">
        <ele>1332</ele>
        <time>2000-01-01T11:02:41.000Z</time>
      </trkpt>
      <trkpt lat="45.13878" lon="2.62617">
        <ele>1331</ele>
        <time>2000-01-01T11:02:51.000Z</time>
      </trkpt>
      <trkpt lat="45.1388" lon="2.62618">
        <ele>1331</ele>
        <time>2000-01-01T11:03:01.000Z</time>
      </trkpt>
      <trkpt lat="45.13883" lon="2.6262">
        <ele>1330</ele>
        <time>2000-01-01T11:03:11.000Z</time>
      </trkpt>
      <trkpt lat="45.13887" lon="2.62625">
        <ele>1331</ele>
        <time>2000-01-01T11:03:21.000Z</time>
      </trkpt>
      <trkpt lat="45.13891" lon="2.62629">
        <ele>1328</ele>
        <time>2000-01-01T11:03:31.000Z</time>
      </trkpt>
      <trkpt lat="45.13895" lon="2.62634">
        <ele>1327</ele>
        <time>2000-01-01T11:03:41.000Z</time>
      </trkpt>
      <trkpt lat="45.13899" lon="2.62639">
        <ele>1326</ele>
        <time>2000-01-01T11:03:51.000Z</time>
      </trkpt>
      <trkpt lat="45.13903" lon="2.62641">
        <ele>1326</ele>
        <time>2000-01-01T11:04:01.000Z</time>
      </trkpt>
      <trkpt lat="45.13907" lon="2.62644">
        <ele>1325</ele>
        <time>2000-01-01T11:04:11.000Z</time>
      </trkpt>
      <trkpt lat="45.13912" lon="2.62646">
        <ele>1324</ele>
        <time>2000-01-01T11:04:21.000Z</time>
      </trkpt>
      <trkpt lat="45.13913" lon="2.62647">
        <ele>1323</ele>
        <time>2000-01-01T11:04:31.000Z</time>
      </trkpt>
      <trkpt lat="45.13918" lon="2.62648">
        <ele>1314</ele>
        <time>2000-01-01T11:04:41.000Z</time>
      </trkpt>
      <trkpt lat="45.13921" lon="2.62647">
        <ele>1314</ele>
        <time>2000-01-01T11:04:51.000Z</time>
      </trkpt>
      <trkpt lat="45.13925" lon="2.62646">
        <ele>1322</ele>
        <time>2000-01-01T11:05:01.000Z</time>
      </trkpt>
      <trkpt lat="45.13929" lon="2.62648">
        <ele>1314</ele>
        <time>2000-01-01T11:05:11.000Z</time>
      </trkpt>
      <trkpt lat="45.1393" lon="2.62649">
        <ele>1313</ele>
        <time>2000-01-01T11:05:21.000Z</time>
      </trkpt>
      <trkpt lat="45.13935" lon="2.62652">
        <ele>1313</ele>
        <time>2000-01-01T11:05:31.000Z</time>
      </trkpt>
      <trkpt lat="45.13937" lon="2.62653">
        <ele>1312</ele>
        <time>2000-01-01T11:05:41.000Z</time>
      </trkpt>
      <trkpt lat="45.13941" lon="2.62655">
        <ele>1312</ele>
        <time>2000-01-01T11:05:51.000Z</time>
      </trkpt>
      <trkpt lat="45.13944" lon="2.62658">
        <ele>1317</ele>
        <time>2000-01-01T11:06:01.000Z</time>
      </trkpt>
      <trkpt lat="45.13945" lon="2.62664">
        <ele>1311</ele>
        <time>2000-01-01T11:06:11.000Z</time>
      </trkpt>
      <trkpt lat="45.13944" lon="2.62671">
        <ele>1301</ele>
        <time>2000-01-01T11:06:21.000Z</time>
      </trkpt>
      <trkpt lat="45.13943" lon="2.62677">
        <ele>1300</ele>
        <time>2000-01-01T11:06:31.000Z</time>
      </trkpt>
      <trkpt lat="45.13943" lon="2.62681">
        <ele>1300</ele>
        <time>2000-01-01T11:06:41.000Z</time>
      </trkpt>
      <trkpt lat="45.13943" lon="2.62688">
        <ele>1310</ele>
        <time>2000-01-01T11:06:51.000Z</time>
      </trkpt>
      <trkpt lat="45.13942" lon="2.62695">
        <ele>1298</ele>
        <time>2000-01-01T11:07:01.000Z</time>
      </trkpt>
      <trkpt lat="45.1394" lon="2.62699">
        <ele>1297</ele>
        <time>2000-01-01T11:07:11.000Z</time>
      </trkpt>
      <trkpt lat="45.13939" lon="2.62702">
        <ele>1297</ele>
        <time>2000-01-01T11:07:21.000Z</time>
      </trkpt>
      <trkpt lat="45.13936" lon="2.62707">
        <ele>1296</ele>
        <time>2000-01-01T11:07:31.000Z</time>
      </trkpt>
      <trkpt lat="45.13933" lon="2.62713">
        <ele>1302</ele>
        <time>2000-01-01T11:07:41.000Z</time>
      </trkpt>
      <trkpt lat="45.13931" lon="2.62721">
        <ele>1294</ele>
        <time>2000-01-01T11:07:51.000Z</time>
      </trkpt>
      <trkpt lat="45.13929" lon="2.62728">
        <ele>1294</ele>
        <time>2000-01-01T11:08:01.000Z</time>
      </trkpt>
      <trkpt lat="45.13926" lon="2.62732">
        <ele>1293</ele>
        <time>2000-01-01T11:08:11.000Z</time>
      </trkpt>
      <trkpt lat="45.13924" lon="2.62735">
        <ele>1293</ele>
        <time>2000-01-01T11:08:21.000Z</time>
      </trkpt>
      <trkpt lat="45.13923" lon="2.62738">
        <ele>1296</ele>
        <time>2000-01-01T11:08:31.000Z</time>
      </trkpt>
      <trkpt lat="45.13924" lon="2.62744">
        <ele>1292</ele>
        <time>2000-01-01T11:08:41.000Z</time>
      </trkpt>
      <trkpt lat="45.13925" lon="2.62748">
        <ele>1292</ele>
        <time>2000-01-01T11:08:51.000Z</time>
      </trkpt>
      <trkpt lat="45.13929" lon="2.62752">
        <ele>1283</ele>
        <time>2000-01-01T11:09:01.000Z</time>
      </trkpt>
      <trkpt lat="45.13934" lon="2.62755">
        <ele>1280</ele>
        <time>2000-01-01T11:09:11.000Z</time>
      </trkpt>
      <trkpt lat="45.13938" lon="2.62758">
        <ele>1288</ele>
        <time>2000-01-01T11:09:21.000Z</time>
      </trkpt>
      <trkpt lat="45.13943" lon="2.6276">
        <ele>1277</ele>
        <time>2000-01-01T11:09:31.000Z</time>
      </trkpt>
      <trkpt lat="45.13945" lon="2.62761">
        <ele>1277</ele>
        <time>2000-01-01T11:09:41.000Z</time>
      </trkpt>
      <trkpt lat="45.13947" lon="2.62761">
        <ele>1276</ele>
        <time>2000-01-01T11:09:51.000Z</time>
      </trkpt>
      <trkpt lat="45.13947" lon="2.62761">
        <ele>1276</ele>
        <time>2000-01-01T11:10:01.000Z</time>
      </trkpt>
      <trkpt lat="45.13946" lon="2.62767">
        <ele>1275</ele>
        <time>2000-01-01T11:10:11.000Z</time>
      </trkpt>
      <trkpt lat="45.13949" lon="2.62772">
        <ele>1274</ele>
        <time>2000-01-01T11:10:21.000Z</time>
      </trkpt>
      <trkpt lat="45.13953" lon="2.62776">
        <ele>1281</ele>
        <time>2000-01-01T11:10:31.000Z</time>
      </trkpt>
      <trkpt lat="45.13955" lon="2.62778">
        <ele>1273</ele>
        <time>2000-01-01T11:10:41.000Z</time>
      </trkpt>
      <trkpt lat="45.13957" lon="2.62778">
        <ele>1272</ele>
        <time>2000-01-01T11:10:51.000Z</time>
      </trkpt>
      <trkpt lat="45.13962" lon="2.6278">
        <ele>1272</ele>
        <time>2000-01-01T11:11:01.000Z</time>
      </trkpt>
      <trkpt lat="45.13964" lon="2.6278">
        <ele>1272</ele>
        <time>2000-01-01T11:11:11.000Z</time>
      </trkpt>
      <trkpt lat="45.13965" lon="2.62786">
        <ele>1271</ele>
        <time>2000-01-01T11:11:21.000Z</time>
      </trkpt>
      <trkpt lat="45.13967" lon="2.62792">
        <ele>1274</ele>
        <time>2000-01-01T11:11:31.000Z</time>
      </trkpt>
      <trkpt lat="45.13967" lon="2.62795">
        <ele>1269</ele>
        <time>2000-01-01T11:11:41.000Z</time>
      </trkpt>
      <trkpt lat="45.13969" lon="2.628">
        <ele>1268</ele>
        <time>2000-01-01T11:11:51.000Z</time>
      </trkpt>
      <trkpt lat="45.13971" lon="2.62801">
        <ele>1268</ele>
        <time>2000-01-01T11:12:01.000Z</time>
      </trkpt>
      <trkpt lat="45.13973" lon="2.62804">
        <ele>1267</ele>
        <time>2000-01-01T11:12:11.000Z</time>
      </trkpt>
      <trkpt lat="45.13972" lon="2.62806">
        <ele>1267</ele>
        <time>2000-01-01T11:12:21.000Z</time>
      </trkpt>
      <trkpt lat="45.13976" lon="2.62812">
        <ele>1265</ele>
        <time>2000-01-01T11:12:31.000Z</time>
      </trkpt>
      <trkpt lat="45.13978" lon="2.62813">
        <ele>1267</ele>
        <time>2000-01-01T11:12:41.000Z</time>
      </trkpt>
      <trkpt lat="45.13982" lon="2.62817">
        <ele>1263</ele>
        <time>2000-01-01T11:12:51.000Z</time>
      </trkpt>
      <trkpt lat="45.13985" lon="2.62821">
        <ele>1262</ele>
        <time>2000-01-01T11:13:01.000Z</time>
      </trkpt>
      <trkpt lat="45.1399" lon="2.62825">
        <ele>1259</ele>
        <time>2000-01-01T11:13:11.000Z</time>
      </trkpt>
      <trkpt lat="45.13995" lon="2.62828">
        <ele>1259</ele>
        <time>2000-01-01T11:13:21.000Z</time>
      </trkpt>
      <trkpt lat="45.13999" lon="2.62832">
        <ele>1253</ele>
        <time>2000-01-01T11:13:31.000Z</time>
      </trkpt>
      <trkpt lat="45.14003" lon="2.62836">
        <ele>1248</ele>
        <time>2000-01-01T11:13:41.000Z</time>
      </trkpt>
      <trkpt lat="45.14006" lon="2.6284">
        <ele>1244</ele>
        <time>2000-01-01T11:13:51.000Z</time>
      </trkpt>
      <trkpt lat="45.14011" lon="2.62845">
        <ele>1251</ele>
        <time>2000-01-01T11:14:01.000Z</time>
      </trkpt>
      <trkpt lat="45.14015" lon="2.62851">
        <ele>1235</ele>
        <time>2000-01-01T11:14:11.000Z</time>
      </trkpt>
      <trkpt lat="45.14017" lon="2.62853">
        <ele>1234</ele>
        <time>2000-01-01T11:14:21.000Z</time>
      </trkpt>
      <trkpt lat="45.1402" lon="2.62855">
        <ele>1233</ele>
        <time>2000-01-01T11:14:31.000Z</time>
      </trkpt>
      <trkpt lat="45.14035" lon="2.62853">
        <ele>1242</ele>
        <time>2000-01-01T11:14:41.000Z</time>
      </trkpt>
      <trkpt lat="45.1405" lon="2.62856">
        <ele>1226</ele>
        <time>2000-01-01T11:14:51.000Z</time>
      </trkpt>
      <trkpt lat="45.14048" lon="2.62869">
        <ele>1233</ele>
        <time>2000-01-01T11:15:01.000Z</time>
      </trkpt>
      <trkpt lat="45.14048" lon="2.62869">
        <ele>1224</ele>
        <time>2000-01-01T11:15:11.000Z</time>
      </trkpt>
      <trkpt lat="45.14048" lon="2.62869">
        <ele>1224</ele>
        <time>2000-01-01T11:15:21.000Z</time>
      </trkpt>
      <trkpt lat="45.14031" lon="2.62887">
        <ele>1224</ele>
        <time>2000-01-01T11:15:31.000Z</time>
      </trkpt>
      <trkpt lat="45.14019" lon="2.62898">
        <ele>1223</ele>
        <time>2000-01-01T11:15:41.000Z</time>
      </trkpt>
      <trkpt lat="45.14004" lon="2.62912">
        <ele>1222</ele>
        <time>2000-01-01T11:15:51.000Z</time>
      </trkpt>
      <trkpt lat="45.13991" lon="2.62922">
        <ele>1217</ele>
        <time>2000-01-01T11:16:01.000Z</time>
      </trkpt>
      <trkpt lat="45.13977" lon="2.62933">
        <ele>1218</ele>
        <time>2000-01-01T11:16:11.000Z</time>
      </trkpt>
      <trkpt lat="45.13965" lon="2.62945">
        <ele>1211</ele>
        <time>2000-01-01T11:16:21.000Z</time>
      </trkpt>
      <trkpt lat="45.13951" lon="2.62957">
        <ele>1214</ele>
        <time>2000-01-01T11:16:31.000Z</time>
      </trkpt>
      <trkpt lat="45.13925" lon="2.62967">
        <ele>1206</ele>
        <time>2000-01-01T11:16:41.000Z</time>
      </trkpt>
      <trkpt lat="45.13907" lon="2.62967">
        <ele>1209</ele>
        <time>2000-01-01T11:16:51.000Z</time>
      </trkpt>
      <trkpt lat="45.13907" lon="2.62967">
        <ele>1209</ele>
        <time>2000-01-01T11:17:01.000Z</time>
      </trkpt>
      <trkpt lat="45.13907" lon="2.62967">
        <ele>1209</ele>
        <time>2000-01-01T11:17:11.000Z</time>
      </trkpt>
      <trkpt lat="45.13907" lon="2.62967">
        <ele>1209</ele>
        <time>2000-01-01T11:17:21.000Z</time>
      </trkpt>
      <trkpt lat="45.13887" lon="2.62969">
        <ele>1204</ele>
        <time>2000-01-01T11:17:31.000Z</time>
      </trkpt>
      <trkpt lat="45.13873" lon="2.62981">
        <ele>1207</ele>
        <time>2000-01-01T11:17:41.000Z</time>
      </trkpt>
      <trkpt lat="45.13853" lon="2.62988">
        <ele>1202</ele>
        <time>2000-01-01T11:17:51.000Z</time>
      </trkpt>
      <trkpt lat="45.13853" lon="2.62988">
        <ele>1205</ele>
        <time>2000-01-01T11:18:01.000Z</time>
      </trkpt>
      <trkpt lat="45.13853" lon="2.62988">
        <ele>1205</ele>
        <time>2000-01-01T11:18:11.000Z</time>
      </trkpt>
      <trkpt lat="45.13853" lon="2.62988">
        <ele>1205</ele>
        <time>2000-01-01T11:18:21.000Z</time>
      </trkpt>
      <trkpt lat="45.13831" lon="2.62996">
        <ele>1197</ele>
        <time>2000-01-01T11:18:31.000Z</time>
      </trkpt>
      <trkpt lat="45.13816" lon="2.63003">
        <ele>1196</ele>
        <time>2000-01-01T11:18:41.000Z</time>
      </trkpt>
      <trkpt lat="45.13816" lon="2.63003">
        <ele>1196</ele>
        <time>2000-01-01T11:18:51.000Z</time>
      </trkpt>
      <trkpt lat="45.13816" lon="2.63003">
        <ele>1196</ele>
        <time>2000-01-01T11:19:01.000Z</time>
      </trkpt>
      <trkpt lat="45.13816" lon="2.63003">
        <ele>1196</ele>
        <time>2000-01-01T11:19:11.000Z</time>
      </trkpt>
      <trkpt lat="45.13793" lon="2.63015">
        <ele>1195</ele>
        <time>2000-01-01T11:19:21.000Z</time>
      </trkpt>
      <trkpt lat="45.13781" lon="2.63026">
        <ele>1196</ele>
        <time>2000-01-01T11:19:31.000Z</time>
      </trkpt>
      <trkpt lat="45.13781" lon="2.63026">
        <ele>1196</ele>
        <time>2000-01-01T11:19:41.000Z</time>
      </trkpt>
      <trkpt lat="45.13781" lon="2.63026">
        <ele>1196</ele>
        <time>2000-01-01T11:19:51.000Z</time>
      </trkpt>
      <trkpt lat="45.13781" lon="2.63026">
        <ele>1196</ele>
        <time>2000-01-01T11:20:01.000Z</time>
      </trkpt>
      <trkpt lat="45.13767" lon="2.63037">
        <ele>1192</ele>
        <time>2000-01-01T11:20:11.000Z</time>
      </trkpt>
      <trkpt lat="45.13759" lon="2.63048">
        <ele>1194</ele>
        <time>2000-01-01T11:20:21.000Z</time>
      </trkpt>
      <trkpt lat="45.13758" lon="2.63068">
        <ele>1190</ele>
        <time>2000-01-01T11:20:31.000Z</time>
      </trkpt>
      <trkpt lat="45.13762" lon="2.63065">
        <ele>1192</ele>
        <time>2000-01-01T11:20:41.000Z</time>
      </trkpt>
      <trkpt lat="45.13762" lon="2.63064">
        <ele>1192</ele>
        <time>2000-01-01T11:20:51.000Z</time>
      </trkpt>
      <trkpt lat="45.13762" lon="2.63064">
        <ele>1192</ele>
        <time>2000-01-01T11:21:01.000Z</time>
      </trkpt>
      <trkpt lat="45.13762" lon="2.63065">
        <ele>1192</ele>
        <time>2000-01-01T11:21:11.000Z</time>
      </trkpt>
      <trkpt lat="45.13772" lon="2.6306">
        <ele>1192</ele>
        <time>2000-01-01T11:21:21.000Z</time>
      </trkpt>
      <trkpt lat="45.13781" lon="2.63055">
        <ele>1185</ele>
        <time>2000-01-01T11:21:31.000Z</time>
      </trkpt>
      <trkpt lat="45.13781" lon="2.63055">
        <ele>1192</ele>
        <time>2000-01-01T11:21:41.000Z</time>
      </trkpt>
      <trkpt lat="45.13781" lon="2.63055">
        <ele>1192</ele>
        <time>2000-01-01T11:21:51.000Z</time>
      </trkpt>
      <trkpt lat="45.13781" lon="2.63055">
        <ele>1192</ele>
        <time>2000-01-01T11:22:01.000Z</time>
      </trkpt>
      <trkpt lat="45.13789" lon="2.63052">
        <ele>1191</ele>
        <time>2000-01-01T11:22:11.000Z</time>
      </trkpt>
      <trkpt lat="45.13803" lon="2.6305">
        <ele>1183</ele>
        <time>2000-01-01T11:22:21.000Z</time>
      </trkpt>
      <trkpt lat="45.13803" lon="2.6305">
        <ele>1190</ele>
        <time>2000-01-01T11:22:31.000Z</time>
      </trkpt>
      <trkpt lat="45.13803" lon="2.6305">
        <ele>1190</ele>
        <time>2000-01-01T11:22:41.000Z</time>
      </trkpt>
      <trkpt lat="45.13803" lon="2.6305">
        <ele>1190</ele>
        <time>2000-01-01T11:22:51.000Z</time>
      </trkpt>
      <trkpt lat="45.13816" lon="2.63047">
        <ele>1189</ele>
        <time>2000-01-01T11:23:01.000Z</time>
      </trkpt>
      <trkpt lat="45.13827" lon="2.63046">
        <ele>1180</ele>
        <time>2000-01-01T11:23:11.000Z</time>
      </trkpt>
      <trkpt lat="45.13841" lon="2.63042">
        <ele>1183</ele>
        <time>2000-01-01T11:23:21.000Z</time>
      </trkpt>
      <trkpt lat="45.13855" lon="2.63042">
        <ele>1179</ele>
        <time>2000-01-01T11:23:31.000Z</time>
      </trkpt>
      <trkpt lat="45.13877" lon="2.63045">
        <ele>1179</ele>
        <time>2000-01-01T11:23:41.000Z</time>
      </trkpt>
      <trkpt lat="45.13877" lon="2.63045">
        <ele>1181</ele>
        <time>2000-01-01T11:23:51.000Z</time>
      </trkpt>
      <trkpt lat="45.13877" lon="2.63045">
        <ele>1181</ele>
        <time>2000-01-01T11:24:01.000Z</time>
      </trkpt>
      <trkpt lat="45.13877" lon="2.63045">
        <ele>1181</ele>
        <time>2000-01-01T11:24:11.000Z</time>
      </trkpt>
      <trkpt lat="45.13899" lon="2.63049">
        <ele>1178</ele>
        <time>2000-01-01T11:24:21.000Z</time>
      </trkpt>
      <trkpt lat="45.13919" lon="2.63053">
        <ele>1176</ele>
        <time>2000-01-01T11:24:31.000Z</time>
      </trkpt>
      <trkpt lat="45.13919" lon="2.63053">
        <ele>1176</ele>
        <time>2000-01-01T11:24:41.000Z</time>
      </trkpt>
      <trkpt lat="45.13919" lon="2.63053">
        <ele>1176</ele>
        <time>2000-01-01T11:24:51.000Z</time>
      </trkpt>
      <trkpt lat="45.13919" lon="2.63053">
        <ele>1176</ele>
        <time>2000-01-01T11:25:01.000Z</time>
      </trkpt>
      <trkpt lat="45.13936" lon="2.63058">
        <ele>1175</ele>
        <time>2000-01-01T11:25:11.000Z</time>
      </trkpt>
      <trkpt lat="45.13949" lon="2.63062">
        <ele>1174</ele>
        <time>2000-01-01T11:25:21.000Z</time>
      </trkpt>
      <trkpt lat="45.13949" lon="2.63062">
        <ele>1175</ele>
        <time>2000-01-01T11:25:31.000Z</time>
      </trkpt>
      <trkpt lat="45.13949" lon="2.63062">
        <ele>1175</ele>
        <time>2000-01-01T11:25:41.000Z</time>
      </trkpt>
      <trkpt lat="45.13949" lon="2.63062">
        <ele>1175</ele>
        <time>2000-01-01T11:25:51.000Z</time>
      </trkpt>
      <trkpt lat="45.13965" lon="2.63068">
        <ele>1174</ele>
        <time>2000-01-01T11:26:01.000Z</time>
      </trkpt>
      <trkpt lat="45.13975" lon="2.63073">
        <ele>1170</ele>
        <time>2000-01-01T11:26:11.000Z</time>
      </trkpt>
      <trkpt lat="45.13982" lon="2.63073">
        <ele>1171</ele>
        <time>2000-01-01T11:26:21.000Z</time>
      </trkpt>
      <trkpt lat="45.1401" lon="2.63071">
        <ele>1163</ele>
        <time>2000-01-01T11:26:31.000Z</time>
      </trkpt>
      <trkpt lat="45.14036" lon="2.63063">
        <ele>1157</ele>
        <time>2000-01-01T11:26:41.000Z</time>
      </trkpt>
      <trkpt lat="45.14052" lon="2.63059">
        <ele>1158</ele>
        <time>2000-01-01T11:26:51.000Z</time>
      </trkpt>
      <trkpt lat="45.1406" lon="2.63058">
        <ele>1151</ele>
        <time>2000-01-01T11:27:01.000Z</time>
      </trkpt>
      <trkpt lat="45.14064" lon="2.63058">
        <ele>1156</ele>
        <time>2000-01-01T11:27:11.000Z</time>
      </trkpt>
      <trkpt lat="45.14074" lon="2.63072">
        <ele>1149</ele>
        <time>2000-01-01T11:27:21.000Z</time>
      </trkpt>
      <trkpt lat="45.14087" lon="2.63085">
        <ele>1143</ele>
        <time>2000-01-01T11:27:31.000Z</time>
      </trkpt>
      <trkpt lat="45.14097" lon="2.63103">
        <ele>1128</ele>
        <time>2000-01-01T11:27:41.000Z</time>
      </trkpt>
      <trkpt lat="45.14097" lon="2.63103">
        <ele>1128</ele>
        <time>2000-01-01T11:27:51.000Z</time>
      </trkpt>
      <trkpt lat="45.14106" lon="2.6312">
        <ele>1126</ele>
        <time>2000-01-01T11:28:01.000Z</time>
      </trkpt>
      <trkpt lat="45.14113" lon="2.63135">
        <ele>1122</ele>
        <time>2000-01-01T11:28:11.000Z</time>
      </trkpt>
      <trkpt lat="45.14113" lon="2.63135">
        <ele>1122</ele>
        <time>2000-01-01T11:28:21.000Z</time>
      </trkpt>
      <trkpt lat="45.14113" lon="2.63135">
        <ele>1122</ele>
        <time>2000-01-01T11:28:31.000Z</time>
      </trkpt>
      <trkpt lat="45.14113" lon="2.63135">
        <ele>1122</ele>
        <time>2000-01-01T11:28:41.000Z</time>
      </trkpt>
      <trkpt lat="45.14119" lon="2.63144">
        <ele>1109</ele>
        <time>2000-01-01T11:28:51.000Z</time>
      </trkpt>
      <trkpt lat="45.14119" lon="2.63144">
        <ele>1121</ele>
        <time>2000-01-01T11:29:01.000Z</time>
      </trkpt>
      <trkpt lat="45.14124" lon="2.63153">
        <ele>1120</ele>
        <time>2000-01-01T11:29:11.000Z</time>
      </trkpt>
      <trkpt lat="45.1413" lon="2.63161">
        <ele>1118</ele>
        <time>2000-01-01T11:29:21.000Z</time>
      </trkpt>
      <trkpt lat="45.14135" lon="2.63165">
        <ele>1102</ele>
        <time>2000-01-01T11:29:31.000Z</time>
      </trkpt>
      <trkpt lat="45.1414" lon="2.63163">
        <ele>1116</ele>
        <time>2000-01-01T11:29:41.000Z</time>
      </trkpt>
      <trkpt lat="45.14148" lon="2.63157">
        <ele>1115</ele>
        <time>2000-01-01T11:29:51.000Z</time>
      </trkpt>
      <trkpt lat="45.14161" lon="2.6314">
        <ele>1100</ele>
        <time>2000-01-01T11:30:01.000Z</time>
      </trkpt>
      <trkpt lat="45.14167" lon="2.63135">
        <ele>1099</ele>
        <time>2000-01-01T11:30:11.000Z</time>
      </trkpt>
      <trkpt lat="45.1418" lon="2.63127">
        <ele>1098</ele>
        <time>2000-01-01T11:30:21.000Z</time>
      </trkpt>
      <trkpt lat="45.14199" lon="2.63109">
        <ele>1094</ele>
        <time>2000-01-01T11:30:31.000Z</time>
      </trkpt>
      <trkpt lat="45.14213" lon="2.63087">
        <ele>1093</ele>
        <time>2000-01-01T11:30:41.000Z</time>
      </trkpt>
      <trkpt lat="45.14229" lon="2.63056">
        <ele>1093</ele>
        <time>2000-01-01T11:30:51.000Z</time>
      </trkpt>
      <trkpt lat="45.14229" lon="2.63056">
        <ele>1099</ele>
        <time>2000-01-01T11:31:01.000Z</time>
      </trkpt>
      <trkpt lat="45.14229" lon="2.63056">
        <ele>1099</ele>
        <time>2000-01-01T11:31:11.000Z</time>
      </trkpt>
      <trkpt lat="45.14229" lon="2.63056">
        <ele>1099</ele>
        <time>2000-01-01T11:31:21.000Z</time>
      </trkpt>
      <trkpt lat="45.14242" lon="2.63026">
        <ele>1091</ele>
        <time>2000-01-01T11:31:31.000Z</time>
      </trkpt>
      <trkpt lat="45.14251" lon="2.63002">
        <ele>1089</ele>
        <time>2000-01-01T11:31:41.000Z</time>
      </trkpt>
      <trkpt lat="45.14251" lon="2.63002">
        <ele>1091</ele>
        <time>2000-01-01T11:31:51.000Z</time>
      </trkpt>
      <trkpt lat="45.14257" lon="2.62981">
        <ele>1086</ele>
        <time>2000-01-01T11:32:01.000Z</time>
      </trkpt>
      <trkpt lat="45.14269" lon="2.62955">
        <ele>1086</ele>
        <time>2000-01-01T11:32:11.000Z</time>
      </trkpt>
      <trkpt lat="45.14277" lon="2.62939">
        <ele>1084</ele>
        <time>2000-01-01T11:32:21.000Z</time>
      </trkpt>
      <trkpt lat="45.14269" lon="2.62955">
        <ele>1081</ele>
        <time>2000-01-01T11:32:31.000Z</time>
      </trkpt>
      <trkpt lat="45.14277" lon="2.62939">
        <ele>1084</ele>
        <time>2000-01-01T11:32:41.000Z</time>
      </trkpt>
      <trkpt lat="45.14284" lon="2.62924">
        <ele>1081</ele>
        <time>2000-01-01T11:32:51.000Z</time>
      </trkpt>
      <trkpt lat="45.14295" lon="2.62906">
        <ele>1088</ele>
        <time>2000-01-01T11:33:01.000Z</time>
      </trkpt>
      <trkpt lat="45.14295" lon="2.62906">
        <ele>1088</ele>
        <time>2000-01-01T11:33:11.000Z</time>
      </trkpt>
      <trkpt lat="45.14303" lon="2.62893">
        <ele>1080</ele>
        <time>2000-01-01T11:33:21.000Z</time>
      </trkpt>
      <trkpt lat="45.14303" lon="2.62893">
        <ele>1087</ele>
        <time>2000-01-01T11:33:31.000Z</time>
      </trkpt>
      <trkpt lat="45.14303" lon="2.62893">
        <ele>1087</ele>
        <time>2000-01-01T11:33:41.000Z</time>
      </trkpt>
      <trkpt lat="45.14303" lon="2.62893">
        <ele>1087</ele>
        <time>2000-01-01T11:33:51.000Z</time>
      </trkpt>
      <trkpt lat="45.1432" lon="2.62866">
        <ele>1078</ele>
        <time>2000-01-01T11:34:01.000Z</time>
      </trkpt>
      <trkpt lat="45.14332" lon="2.62849">
        <ele>1084</ele>
        <time>2000-01-01T11:34:11.000Z</time>
      </trkpt>
      <trkpt lat="45.14332" lon="2.62849">
        <ele>1084</ele>
        <time>2000-01-01T11:34:21.000Z</time>
      </trkpt>
      <trkpt lat="45.14342" lon="2.62834">
        <ele>1074</ele>
        <time>2000-01-01T11:34:31.000Z</time>
      </trkpt>
      <trkpt lat="45.14356" lon="2.62824">
        <ele>1074</ele>
        <time>2000-01-01T11:34:41.000Z</time>
      </trkpt>
      <trkpt lat="45.14356" lon="2.62824">
        <ele>1074</ele>
        <time>2000-01-01T11:34:51.000Z</time>
      </trkpt>
      <trkpt lat="45.14369" lon="2.62816">
        <ele>1069</ele>
        <time>2000-01-01T11:35:01.000Z</time>
      </trkpt>
      <trkpt lat="45.14372" lon="2.62816">
        <ele>1071</ele>
        <time>2000-01-01T11:35:11.000Z</time>
      </trkpt>
      <trkpt lat="45.1438" lon="2.62791">
        <ele>1064</ele>
        <time>2000-01-01T11:35:21.000Z</time>
      </trkpt>
      <trkpt lat="45.14383" lon="2.62766">
        <ele>1072</ele>
        <time>2000-01-01T11:35:31.000Z</time>
      </trkpt>
      <trkpt lat="45.14384" lon="2.62742">
        <ele>1059</ele>
        <time>2000-01-01T11:35:41.000Z</time>
      </trkpt>
      <trkpt lat="45.14392" lon="2.62731">
        <ele>1083</ele>
        <time>2000-01-01T11:35:51.000Z</time>
      </trkpt>
      <trkpt lat="45.14399" lon="2.62728">
        <ele>1082</ele>
        <time>2000-01-01T11:36:01.000Z</time>
      </trkpt>
      <trkpt lat="45.14399" lon="2.62728">
        <ele>1082</ele>
        <time>2000-01-01T11:36:11.000Z</time>
      </trkpt>
      <trkpt lat="45.14408" lon="2.62722">
        <ele>1059</ele>
        <time>2000-01-01T11:36:21.000Z</time>
      </trkpt>
      <trkpt lat="45.14421" lon="2.62712">
        <ele>1064</ele>
        <time>2000-01-01T11:36:31.000Z</time>
      </trkpt>
      <trkpt lat="45.14421" lon="2.62712">
        <ele>1064</ele>
        <time>2000-01-01T11:36:41.000Z</time>
      </trkpt>
      <trkpt lat="45.1443" lon="2.62704">
        <ele>1057</ele>
        <time>2000-01-01T11:36:51.000Z</time>
      </trkpt>
      <trkpt lat="45.14444" lon="2.62686">
        <ele>1056</ele>
        <time>2000-01-01T11:37:01.000Z</time>
      </trkpt>
      <trkpt lat="45.14452" lon="2.62657">
        <ele>1056</ele>
        <time>2000-01-01T11:37:11.000Z</time>
      </trkpt>
      <trkpt lat="45.14454" lon="2.6264">
        <ele>1081</ele>
        <time>2000-01-01T11:37:21.000Z</time>
      </trkpt>
      <trkpt lat="45.14459" lon="2.62623">
        <ele>1059</ele>
        <time>2000-01-01T11:37:31.000Z</time>
      </trkpt>
      <trkpt lat="45.14483" lon="2.62606">
        <ele>1057.5</ele>
        <time>2000-01-01T11:37:41.000Z</time>
      </trkpt>
      <trkpt lat="45.14515" lon="2.62587">
        <ele>1056</ele>
        <time>2000-01-01T11:37:51.000Z</time>
      </trkpt>
      <trkpt lat="45.145" lon="2.62597">
        <ele>1053</ele>
        <time>2000-01-01T11:38:01.000Z</time>
      </trkpt>
      <trkpt lat="45.145" lon="2.62597">
        <ele>1053</ele>
        <time>2000-01-01T11:38:11.000Z</time>
      </trkpt>
      <trkpt lat="45.145" lon="2.62597">
        <ele>1053</ele>
        <time>2000-01-01T11:38:21.000Z</time>
      </trkpt>
      <trkpt lat="45.145" lon="2.62597">
        <ele>1053</ele>
        <time>2000-01-01T11:38:31.000Z</time>
      </trkpt>
      <trkpt lat="45.14533" lon="2.62573">
        <ele>1049</ele>
        <time>2000-01-01T11:38:41.000Z</time>
      </trkpt>
      <trkpt lat="45.14533" lon="2.62573">
        <ele>1053</ele>
        <time>2000-01-01T11:38:51.000Z</time>
      </trkpt>
      <trkpt lat="45.14533" lon="2.62573">
        <ele>1053</ele>
        <time>2000-01-01T11:39:01.000Z</time>
      </trkpt>
      <trkpt lat="45.14533" lon="2.62573">
        <ele>1053</ele>
        <time>2000-01-01T11:39:11.000Z</time>
      </trkpt>
      <trkpt lat="45.14533" lon="2.62573">
        <ele>1053</ele>
        <time>2000-01-01T11:39:21.000Z</time>
      </trkpt>
      <trkpt lat="45.14548" lon="2.6256">
        <ele>1050</ele>
        <time>2000-01-01T11:39:31.000Z</time>
      </trkpt>
      <trkpt lat="45.14568" lon="2.62541">
        <ele>1046</ele>
        <time>2000-01-01T11:39:41.000Z</time>
      </trkpt>
      <trkpt lat="45.14568" lon="2.62541">
        <ele>1049</ele>
        <time>2000-01-01T11:39:51.000Z</time>
      </trkpt>
      <trkpt lat="45.14568" lon="2.62541">
        <ele>1049</ele>
        <time>2000-01-01T11:40:01.000Z</time>
      </trkpt>
      <trkpt lat="45.14568" lon="2.62541">
        <ele>1049</ele>
        <time>2000-01-01T11:40:11.000Z</time>
      </trkpt>
      <trkpt lat="45.14568" lon="2.62541">
        <ele>1049</ele>
        <time>2000-01-01T11:40:21.000Z</time>
      </trkpt>
      <trkpt lat="45.14586" lon="2.62517">
        <ele>1041</ele>
        <time>2000-01-01T11:40:31.000Z</time>
      </trkpt>
      <trkpt lat="45.14597" lon="2.62499">
        <ele>1044</ele>
        <time>2000-01-01T11:40:41.000Z</time>
      </trkpt>
      <trkpt lat="45.14597" lon="2.62499">
        <ele>1044</ele>
        <time>2000-01-01T11:40:51.000Z</time>
      </trkpt>
      <trkpt lat="45.14605" lon="2.62482">
        <ele>1039</ele>
        <time>2000-01-01T11:41:01.000Z</time>
      </trkpt>
      <trkpt lat="45.14612" lon="2.62462">
        <ele>1044</ele>
        <time>2000-01-01T11:41:11.000Z</time>
      </trkpt>
      <trkpt lat="45.14615" lon="2.62435">
        <ele>1039</ele>
        <time>2000-01-01T11:41:21.000Z</time>
      </trkpt>
      <trkpt lat="45.14612" lon="2.62406">
        <ele>1048</ele>
        <time>2000-01-01T11:41:31.000Z</time>
      </trkpt>
      <trkpt lat="45.14607" lon="2.6239">
        <ele>1053</ele>
        <time>2000-01-01T11:41:41.000Z</time>
      </trkpt>
      <trkpt lat="45.14607" lon="2.62372">
        <ele>1053</ele>
        <time>2000-01-01T11:41:51.000Z</time>
      </trkpt>
      <trkpt lat="45.14609" lon="2.62349">
        <ele>1056</ele>
        <time>2000-01-01T11:42:01.000Z</time>
      </trkpt>
      <trkpt lat="45.14614" lon="2.62337">
        <ele>1058</ele>
        <time>2000-01-01T11:42:11.000Z</time>
      </trkpt>
      <trkpt lat="45.1463" lon="2.62324">
        <ele>1057</ele>
        <time>2000-01-01T11:42:21.000Z</time>
      </trkpt>
      <trkpt lat="45.14652" lon="2.62316">
        <ele>1051</ele>
        <time>2000-01-01T11:42:31.000Z</time>
      </trkpt>
      <trkpt lat="45.14662" lon="2.62299">
        <ele>1054</ele>
        <time>2000-01-01T11:42:41.000Z</time>
      </trkpt>
      <trkpt lat="45.14666" lon="2.62283">
        <ele>1044</ele>
        <time>2000-01-01T11:42:51.000Z</time>
      </trkpt>
      <trkpt lat="45.14666" lon="2.62283">
        <ele>1053</ele>
        <time>2000-01-01T11:43:01.000Z</time>
      </trkpt>
      <trkpt lat="45.14672" lon="2.62265">
        <ele>1038</ele>
        <time>2000-01-01T11:43:11.000Z</time>
      </trkpt>
      <trkpt lat="45.14686" lon="2.6224">
        <ele>1037</ele>
        <time>2000-01-01T11:43:21.000Z</time>
      </trkpt>
      <trkpt lat="45.14696" lon="2.62217">
        <ele>1028</ele>
        <time>2000-01-01T11:43:31.000Z</time>
      </trkpt>
      <trkpt lat="45.14715" lon="2.62201">
        <ele>1028</ele>
        <time>2000-01-01T11:43:41.000Z</time>
      </trkpt>
      <trkpt lat="45.14733" lon="2.6219">
        <ele>1021</ele>
        <time>2000-01-01T11:43:51.000Z</time>
      </trkpt>
      <trkpt lat="45.14744" lon="2.62184">
        <ele>1020</ele>
        <time>2000-01-01T11:44:01.000Z</time>
      </trkpt>
      <trkpt lat="45.1476" lon="2.62186">
        <ele>1009</ele>
        <time>2000-01-01T11:44:11.000Z</time>
      </trkpt>
      <trkpt lat="45.14771" lon="2.62199">
        <ele>1012</ele>
        <time>2000-01-01T11:44:21.000Z</time>
      </trkpt>
      <trkpt lat="45.14771" lon="2.62199">
        <ele>1009</ele>
        <time>2000-01-01T11:44:31.000Z</time>
      </trkpt>
      <trkpt lat="45.14781" lon="2.62211">
        <ele>1009</ele>
        <time>2000-01-01T11:44:41.000Z</time>
      </trkpt>
      <trkpt lat="45.14798" lon="2.62223">
        <ele>1008</ele>
        <time>2000-01-01T11:44:51.000Z</time>
      </trkpt>
      <trkpt lat="45.14812" lon="2.62221">
        <ele>1007</ele>
        <time>2000-01-01T11:45:01.000Z</time>
      </trkpt>
      <trkpt lat="45.14827" lon="2.62214">
        <ele>1007</ele>
        <time>2000-01-01T11:45:11.000Z</time>
      </trkpt>
      <trkpt lat="45.14834" lon="2.62212">
        <ele>997</ele>
        <time>2000-01-01T11:45:21.000Z</time>
      </trkpt>
      <trkpt lat="45.14844" lon="2.62215">
        <ele>996</ele>
        <time>2000-01-01T11:45:31.000Z</time>
      </trkpt>
      <trkpt lat="45.14844" lon="2.62215">
        <ele>996</ele>
        <time>2000-01-01T11:45:41.000Z</time>
      </trkpt>
      <trkpt lat="45.14853" lon="2.62218">
        <ele>1001</ele>
        <time>2000-01-01T11:45:51.000Z</time>
      </trkpt>
      <trkpt lat="45.14863" lon="2.62224">
        <ele>995</ele>
        <time>2000-01-01T11:46:01.000Z</time>
      </trkpt>
      <trkpt lat="45.14868" lon="2.62235">
        <ele>997</ele>
        <time>2000-01-01T11:46:11.000Z</time>
      </trkpt>
      <trkpt lat="45.14869" lon="2.62251">
        <ele>993</ele>
        <time>2000-01-01T11:46:21.000Z</time>
      </trkpt>
      <trkpt lat="45.14869" lon="2.62251">
        <ele>993</ele>
        <time>2000-01-01T11:46:31.000Z</time>
      </trkpt>
      <trkpt lat="45.14869" lon="2.62251">
        <ele>993</ele>
        <time>2000-01-01T11:46:41.000Z</time>
      </trkpt>
      <trkpt lat="45.14869" lon="2.62251">
        <ele>993</ele>
        <time>2000-01-01T11:46:51.000Z</time>
      </trkpt>
      <trkpt lat="45.14869" lon="2.62251">
        <ele>993</ele>
        <time>2000-01-01T11:47:01.000Z</time>
      </trkpt>
      <trkpt lat="45.14868" lon="2.62271">
        <ele>993</ele>
        <time>2000-01-01T11:47:11.000Z</time>
      </trkpt>
      <trkpt lat="45.14865" lon="2.62295">
        <ele>993</ele>
        <time>2000-01-01T11:47:21.000Z</time>
      </trkpt>
      <trkpt lat="45.14865" lon="2.62295">
        <ele>993</ele>
        <time>2000-01-01T11:47:31.000Z</time>
      </trkpt>
      <trkpt lat="45.14865" lon="2.62295">
        <ele>993</ele>
        <time>2000-01-01T11:47:41.000Z</time>
      </trkpt>
      <trkpt lat="45.14865" lon="2.62295">
        <ele>993</ele>
        <time>2000-01-01T11:47:51.000Z</time>
      </trkpt>
      <trkpt lat="45.14865" lon="2.62295">
        <ele>993</ele>
        <time>2000-01-01T11:48:01.000Z</time>
      </trkpt>
      <trkpt lat="45.14863" lon="2.62323">
        <ele>991</ele>
        <time>2000-01-01T11:48:11.000Z</time>
      </trkpt>
      <trkpt lat="45.14862" lon="2.62349">
        <ele>990</ele>
        <time>2000-01-01T11:48:21.000Z</time>
      </trkpt>
      <trkpt lat="45.14862" lon="2.62349">
        <ele>990</ele>
        <time>2000-01-01T11:48:31.000Z</time>
      </trkpt>
      <trkpt lat="45.14862" lon="2.62349">
        <ele>990</ele>
        <time>2000-01-01T11:48:41.000Z</time>
      </trkpt>
      <trkpt lat="45.14862" lon="2.62349">
        <ele>990</ele>
        <time>2000-01-01T11:48:51.000Z</time>
      </trkpt>
      <trkpt lat="45.14862" lon="2.62349">
        <ele>990</ele>
        <time>2000-01-01T11:49:01.000Z</time>
      </trkpt>
      <trkpt lat="45.14862" lon="2.62378">
        <ele>988</ele>
        <time>2000-01-01T11:49:11.000Z</time>
      </trkpt>
      <trkpt lat="45.14863" lon="2.62403">
        <ele>987</ele>
        <time>2000-01-01T11:49:21.000Z</time>
      </trkpt>
      <trkpt lat="45.14862" lon="2.62403">
        <ele>987</ele>
        <time>2000-01-01T11:49:31.000Z</time>
      </trkpt>
      <trkpt lat="45.14862" lon="2.62403">
        <ele>987</ele>
        <time>2000-01-01T11:49:41.000Z</time>
      </trkpt>
      <trkpt lat="45.14863" lon="2.62403">
        <ele>981</ele>
        <time>2000-01-01T11:49:51.000Z</time>
      </trkpt>
      <trkpt lat="45.14864" lon="2.62417">
        <ele>982</ele>
        <time>2000-01-01T11:50:01.000Z</time>
      </trkpt>
      <trkpt lat="45.14869" lon="2.6244">
        <ele>977</ele>
        <time>2000-01-01T11:50:11.000Z</time>
      </trkpt>
      <trkpt lat="45.14869" lon="2.6244">
        <ele>979</ele>
        <time>2000-01-01T11:50:21.000Z</time>
      </trkpt>
      <trkpt lat="45.14869" lon="2.6244">
        <ele>979</ele>
        <time>2000-01-01T11:50:31.000Z</time>
      </trkpt>
      <trkpt lat="45.14869" lon="2.6244">
        <ele>979</ele>
        <time>2000-01-01T11:50:41.000Z</time>
      </trkpt>
      <trkpt lat="45.14869" lon="2.6244">
        <ele>979</ele>
        <time>2000-01-01T11:50:51.000Z</time>
      </trkpt>
      <trkpt lat="45.14876" lon="2.62462">
        <ele>977</ele>
        <time>2000-01-01T11:51:01.000Z</time>
      </trkpt>
      <trkpt lat="45.14882" lon="2.62452">
        <ele>974</ele>
        <time>2000-01-01T11:51:11.000Z</time>
      </trkpt>
      <trkpt lat="45.14882" lon="2.62452">
        <ele>976</ele>
        <time>2000-01-01T11:51:21.000Z</time>
      </trkpt>
      <trkpt lat="45.14887" lon="2.62443">
        <ele>976</ele>
        <time>2000-01-01T11:51:31.000Z</time>
      </trkpt>
      <trkpt lat="45.14887" lon="2.62443">
        <ele>976</ele>
        <time>2000-01-01T11:51:41.000Z</time>
      </trkpt>
      <trkpt lat="45.14887" lon="2.62443">
        <ele>976</ele>
        <time>2000-01-01T11:51:51.000Z</time>
      </trkpt>
      <trkpt lat="45.14887" lon="2.62443">
        <ele>976</ele>
        <time>2000-01-01T11:52:01.000Z</time>
      </trkpt>
      <trkpt lat="45.14887" lon="2.62443">
        <ele>976</ele>
        <time>2000-01-01T11:52:11.000Z</time>
      </trkpt>
      <trkpt lat="45.14894" lon="2.62426">
        <ele>972</ele>
        <time>2000-01-01T11:52:21.000Z</time>
      </trkpt>
      <trkpt lat="45.14897" lon="2.624">
        <ele>979</ele>
        <time>2000-01-01T11:52:31.000Z</time>
      </trkpt>
      <trkpt lat="45.14897" lon="2.624">
        <ele>979</ele>
        <time>2000-01-01T11:52:41.000Z</time>
      </trkpt>
      <trkpt lat="45.14897" lon="2.624">
        <ele>979</ele>
        <time>2000-01-01T11:52:51.000Z</time>
      </trkpt>
      <trkpt lat="45.14897" lon="2.624">
        <ele>979</ele>
        <time>2000-01-01T11:53:01.000Z</time>
      </trkpt>
      <trkpt lat="45.14897" lon="2.624">
        <ele>979</ele>
        <time>2000-01-01T11:53:11.000Z</time>
      </trkpt>
      <trkpt lat="45.14897" lon="2.62377">
        <ele>971.5</ele>
        <time>2000-01-01T11:53:21.000Z</time>
      </trkpt>
      <trkpt lat="45.14897" lon="2.62377">
        <ele>982</ele>
        <time>2000-01-01T11:53:31.000Z</time>
      </trkpt>
      <trkpt lat="45.14897" lon="2.62377">
        <ele>982</ele>
        <time>2000-01-01T11:53:41.000Z</time>
      </trkpt>
      <trkpt lat="45.14897" lon="2.62377">
        <ele>982</ele>
        <time>2000-01-01T11:53:51.000Z</time>
      </trkpt>
      <trkpt lat="45.14897" lon="2.62377">
        <ele>982</ele>
        <time>2000-01-01T11:54:01.000Z</time>
      </trkpt>
      <trkpt lat="45.14898" lon="2.62349">
        <ele>972.2</ele>
        <time>2000-01-01T11:54:11.000Z</time>
      </trkpt>
      <trkpt lat="45.14901" lon="2.62325">
        <ele>983</ele>
        <time>2000-01-01T11:54:21.000Z</time>
      </trkpt>
      <trkpt lat="45.14906" lon="2.62307">
        <ele>973</ele>
        <time>2000-01-01T11:54:31.000Z</time>
      </trkpt>
      <trkpt lat="45.14918" lon="2.62285">
        <ele>973</ele>
        <time>2000-01-01T11:54:41.000Z</time>
      </trkpt>
      <trkpt lat="45.14932" lon="2.62269">
        <ele>971</ele>
        <time>2000-01-01T11:54:51.000Z</time>
      </trkpt>
      <trkpt lat="45.14951" lon="2.62247">
        <ele>973</ele>
        <time>2000-01-01T11:55:01.000Z</time>
      </trkpt>
      <trkpt lat="45.14962" lon="2.62231">
        <ele>969</ele>
        <time>2000-01-01T11:55:11.000Z</time>
      </trkpt>
      <trkpt lat="45.14972" lon="2.62208">
        <ele>968</ele>
        <time>2000-01-01T11:55:21.000Z</time>
      </trkpt>
      <trkpt lat="45.14979" lon="2.62178">
        <ele>964</ele>
        <time>2000-01-01T11:55:31.000Z</time>
      </trkpt>
      <trkpt lat="45.14989" lon="2.62147">
        <ele>964</ele>
        <time>2000-01-01T11:55:41.000Z</time>
      </trkpt>
      <trkpt lat="45.14998" lon="2.62127">
        <ele>973</ele>
        <time>2000-01-01T11:55:51.000Z</time>
      </trkpt>
      <trkpt lat="45.14998" lon="2.62127">
        <ele>973</ele>
        <time>2000-01-01T11:56:01.000Z</time>
      </trkpt>
      <trkpt lat="45.15005" lon="2.62109">
        <ele>964.5</ele>
        <time>2000-01-01T11:56:11.000Z</time>
      </trkpt>
      <trkpt lat="45.15019" lon="2.62082">
        <ele>965</ele>
        <time>2000-01-01T11:56:21.000Z</time>
      </trkpt>
      <trkpt lat="45.15029" lon="2.62064">
        <ele>964</ele>
        <time>2000-01-01T11:56:31.000Z</time>
      </trkpt>
      <trkpt lat="45.15029" lon="2.62064">
        <ele>964</ele>
        <time>2000-01-01T11:56:41.000Z</time>
      </trkpt>
      <trkpt lat="45.15029" lon="2.62064">
        <ele>964</ele>
        <time>2000-01-01T11:56:51.000Z</time>
      </trkpt>
      <trkpt lat="45.15029" lon="2.62064">
        <ele>964</ele>
        <time>2000-01-01T11:57:01.000Z</time>
      </trkpt>
      <trkpt lat="45.15034" lon="2.62055">
        <ele>965</ele>
        <time>2000-01-01T11:57:11.000Z</time>
      </trkpt>
      <trkpt lat="45.1504" lon="2.62043">
        <ele>963</ele>
        <time>2000-01-01T11:57:21.000Z</time>
      </trkpt>
      <trkpt lat="45.15045" lon="2.62041">
        <ele>963</ele>
        <time>2000-01-01T11:57:31.000Z</time>
      </trkpt>
      <trkpt lat="45.15056" lon="2.62009">
        <ele>964</ele>
        <time>2000-01-01T11:57:41.000Z</time>
      </trkpt>
      <trkpt lat="45.15065" lon="2.61982">
        <ele>964</ele>
        <time>2000-01-01T11:57:51.000Z</time>
      </trkpt>
      <trkpt lat="45.15065" lon="2.61982">
        <ele>966</ele>
        <time>2000-01-01T11:58:01.000Z</time>
      </trkpt>
      <trkpt lat="45.15065" lon="2.61982">
        <ele>966</ele>
        <time>2000-01-01T11:58:11.000Z</time>
      </trkpt>
      <trkpt lat="45.15065" lon="2.61982">
        <ele>966</ele>
        <time>2000-01-01T11:58:21.000Z</time>
      </trkpt>
      <trkpt lat="45.15065" lon="2.61982">
        <ele>966</ele>
        <time>2000-01-01T11:58:31.000Z</time>
      </trkpt>
      <trkpt lat="45.15074" lon="2.61955">
        <ele>964</ele>
        <time>2000-01-01T11:58:41.000Z</time>
      </trkpt>
      <trkpt lat="45.15082" lon="2.61918">
        <ele>963</ele>
        <time>2000-01-01T11:58:51.000Z</time>
      </trkpt>
      <trkpt lat="45.15085" lon="2.61898">
        <ele>957</ele>
        <time>2000-01-01T11:59:01.000Z</time>
      </trkpt>
      <trkpt lat="45.15093" lon="2.61866">
        <ele>963.5</ele>
        <time>2000-01-01T11:59:11.000Z</time>
      </trkpt>
      <trkpt lat="45.15096" lon="2.61845">
        <ele>960</ele>
        <time>2000-01-01T11:59:21.000Z</time>
      </trkpt>
      <trkpt lat="45.15096" lon="2.61845">
        <ele>960</ele>
        <time>2000-01-01T11:59:31.000Z</time>
      </trkpt>
      <trkpt lat="45.15096" lon="2.61845">
        <ele>960</ele>
        <time>2000-01-01T11:59:41.000Z</time>
      </trkpt>
      <trkpt lat="45.15096" lon="2.61845">
        <ele>960</ele>
        <time>2000-01-01T11:59:51.000Z</time>
      </trkpt>
      <trkpt lat="45.15096" lon="2.61845">
        <ele>960</ele>
        <time>2000-01-01T12:00:01.000Z</time>
      </trkpt>
      <trkpt lat="45.151" lon="2.61821">
        <ele>964</ele>
        <time>2000-01-01T12:00:11.000Z</time>
      </trkpt>
      <trkpt lat="45.15105" lon="2.61792">
        <ele>966</ele>
        <time>2000-01-01T12:00:21.000Z</time>
      </trkpt>
      <trkpt lat="45.15106" lon="2.61774">
        <ele>961</ele>
        <time>2000-01-01T12:00:31.000Z</time>
      </trkpt>
      <trkpt lat="45.15104" lon="2.61765">
        <ele>967</ele>
        <time>2000-01-01T12:00:41.000Z</time>
      </trkpt>
      <trkpt lat="45.15101" lon="2.61759">
        <ele>963</ele>
        <time>2000-01-01T12:00:51.000Z</time>
      </trkpt>
      <trkpt lat="45.15101" lon="2.61751">
        <ele>964</ele>
        <time>2000-01-01T12:01:01.000Z</time>
      </trkpt>
      <trkpt lat="45.15103" lon="2.61737">
        <ele>968</ele>
        <time>2000-01-01T12:01:11.000Z</time>
      </trkpt>
      <trkpt lat="45.15112" lon="2.61732">
        <ele>962</ele>
        <time>2000-01-01T12:01:21.000Z</time>
      </trkpt>
      <trkpt lat="45.15112" lon="2.61732">
        <ele>962</ele>
        <time>2000-01-01T12:01:31.000Z</time>
      </trkpt>
      <trkpt lat="45.15112" lon="2.61732">
        <ele>962</ele>
        <time>2000-01-01T12:01:41.000Z</time>
      </trkpt>
      <trkpt lat="45.15119" lon="2.61729">
        <ele>960</ele>
        <time>2000-01-01T12:01:51.000Z</time>
      </trkpt>
      <trkpt lat="45.15119" lon="2.61729">
        <ele>960</ele>
        <time>2000-01-01T12:02:01.000Z</time>
      </trkpt>
      <trkpt lat="45.1513" lon="2.61712">
        <ele>968</ele>
        <time>2000-01-01T12:02:11.000Z</time>
      </trkpt>
      <trkpt lat="45.15135" lon="2.617">
        <ele>958</ele>
        <time>2000-01-01T12:02:21.000Z</time>
      </trkpt>
      <trkpt lat="45.15138" lon="2.61683">
        <ele>963</ele>
        <time>2000-01-01T12:02:31.000Z</time>
      </trkpt>
      <trkpt lat="45.1514" lon="2.6167">
        <ele>956</ele>
        <time>2000-01-01T12:02:41.000Z</time>
      </trkpt>
      <trkpt lat="45.15138" lon="2.61658">
        <ele>955</ele>
        <time>2000-01-01T12:02:51.000Z</time>
      </trkpt>
      <trkpt lat="45.15134" lon="2.61649">
        <ele>959</ele>
        <time>2000-01-01T12:03:01.000Z</time>
      </trkpt>
      <trkpt lat="45.15127" lon="2.6164">
        <ele>957</ele>
        <time>2000-01-01T12:03:11.000Z</time>
      </trkpt>
      <trkpt lat="45.15127" lon="2.6164">
        <ele>957</ele>
        <time>2000-01-01T12:03:21.000Z</time>
      </trkpt>
      <trkpt lat="45.15127" lon="2.6164">
        <ele>957</ele>
        <time>2000-01-01T12:03:31.000Z</time>
      </trkpt>
      <trkpt lat="45.1512" lon="2.61633">
        <ele>957</ele>
        <time>2000-01-01T12:03:41.000Z</time>
      </trkpt>
      <trkpt lat="45.15117" lon="2.6163">
        <ele>958.5</ele>
        <time>2000-01-01T12:03:51.000Z</time>
      </trkpt>
      <trkpt lat="45.15114" lon="2.61625">
        <ele>958</ele>
        <time>2000-01-01T12:04:01.000Z</time>
      </trkpt>
      <trkpt lat="45.1511" lon="2.61617">
        <ele>958</ele>
        <time>2000-01-01T12:04:11.000Z</time>
      </trkpt>
      <trkpt lat="45.15109" lon="2.61614">
        <ele>958</ele>
        <time>2000-01-01T12:04:21.000Z</time>
      </trkpt>
      <trkpt lat="45.15108" lon="2.6161">
        <ele>958</ele>
        <time>2000-01-01T12:04:31.000Z</time>
      </trkpt>
      <trkpt lat="45.15109" lon="2.61598">
        <ele>958</ele>
        <time>2000-01-01T12:04:41.000Z</time>
      </trkpt>
      <trkpt lat="45.15112" lon="2.61589">
        <ele>958</ele>
        <time>2000-01-01T12:04:51.000Z</time>
      </trkpt>
      <trkpt lat="45.15117" lon="2.61583">
        <ele>959</ele>
        <time>2000-01-01T12:05:01.000Z</time>
      </trkpt>
      <trkpt lat="45.15136" lon="2.61573">
        <ele>957</ele>
        <time>2000-01-01T12:05:11.000Z</time>
      </trkpt>
      <trkpt lat="45.15152" lon="2.61564">
        <ele>955</ele>
        <time>2000-01-01T12:05:21.000Z</time>
      </trkpt>
      <trkpt lat="45.15168" lon="2.61553">
        <ele>952</ele>
        <time>2000-01-01T12:05:31.000Z</time>
      </trkpt>
      <trkpt lat="45.1518" lon="2.61547">
        <ele>941</ele>
        <time>2000-01-01T12:05:41.000Z</time>
      </trkpt>
      <trkpt lat="45.15185" lon="2.61546">
        <ele>941</ele>
        <time>2000-01-01T12:05:51.000Z</time>
      </trkpt>
      <trkpt lat="45.15193" lon="2.61548">
        <ele>944</ele>
        <time>2000-01-01T12:06:01.000Z</time>
      </trkpt>
      <trkpt lat="45.15199" lon="2.61554">
        <ele>939</ele>
        <time>2000-01-01T12:06:11.000Z</time>
      </trkpt>
      <trkpt lat="45.15203" lon="2.61561">
        <ele>939</ele>
        <time>2000-01-01T12:06:21.000Z</time>
      </trkpt>
      <trkpt lat="45.15204" lon="2.61569">
        <ele>942</ele>
        <time>2000-01-01T12:06:31.000Z</time>
      </trkpt>
      <trkpt lat="45.15203" lon="2.6158">
        <ele>939</ele>
        <time>2000-01-01T12:06:41.000Z</time>
      </trkpt>
      <trkpt lat="45.15199" lon="2.61593">
        <ele>940</ele>
        <time>2000-01-01T12:06:51.000Z</time>
      </trkpt>
      <trkpt lat="45.15198" lon="2.61609">
        <ele>942.5</ele>
        <time>2000-01-01T12:07:01.000Z</time>
      </trkpt>
      <trkpt lat="45.15198" lon="2.61627">
        <ele>940</ele>
        <time>2000-01-01T12:07:11.000Z</time>
      </trkpt>
      <trkpt lat="45.15198" lon="2.61637">
        <ele>943</ele>
        <time>2000-01-01T12:07:21.000Z</time>
      </trkpt>
      <trkpt lat="45.15199" lon="2.61649">
        <ele>940</ele>
        <time>2000-01-01T12:07:31.000Z</time>
      </trkpt>
      <trkpt lat="45.152" lon="2.61672">
        <ele>943</ele>
        <time>2000-01-01T12:07:41.000Z</time>
      </trkpt>
      <trkpt lat="45.15201" lon="2.61675">
        <ele>941</ele>
        <time>2000-01-01T12:07:51.000Z</time>
      </trkpt>
      <trkpt lat="45.15202" lon="2.61684">
        <ele>940</ele>
        <time>2000-01-01T12:08:01.000Z</time>
      </trkpt>
      <trkpt lat="45.15207" lon="2.617">
        <ele>942</ele>
        <time>2000-01-01T12:08:11.000Z</time>
      </trkpt>
      <trkpt lat="45.15214" lon="2.61717">
        <ele>938</ele>
        <time>2000-01-01T12:08:21.000Z</time>
      </trkpt>
      <trkpt lat="45.15223" lon="2.6174">
        <ele>940</ele>
        <time>2000-01-01T12:08:31.000Z</time>
      </trkpt>
      <trkpt lat="45.15223" lon="2.6174">
        <ele>936</ele>
        <time>2000-01-01T12:08:41.000Z</time>
      </trkpt>
      <trkpt lat="45.15223" lon="2.6174">
        <ele>936</ele>
        <time>2000-01-01T12:08:51.000Z</time>
      </trkpt>
      <trkpt lat="45.15223" lon="2.6174">
        <ele>936</ele>
        <time>2000-01-01T12:09:01.000Z</time>
      </trkpt>
      <trkpt lat="45.15223" lon="2.6174">
        <ele>936</ele>
        <time>2000-01-01T12:09:11.000Z</time>
      </trkpt>
      <trkpt lat="45.1523" lon="2.61759">
        <ele>933</ele>
        <time>2000-01-01T12:09:21.000Z</time>
      </trkpt>
      <trkpt lat="45.15232" lon="2.61771">
        <ele>934</ele>
        <time>2000-01-01T12:09:31.000Z</time>
      </trkpt>
      <trkpt lat="45.15232" lon="2.61783">
        <ele>933</ele>
        <time>2000-01-01T12:09:41.000Z</time>
      </trkpt>
      <trkpt lat="45.15228" lon="2.61806">
        <ele>930</ele>
        <time>2000-01-01T12:09:51.000Z</time>
      </trkpt>
      <trkpt lat="45.15225" lon="2.61829">
        <ele>931</ele>
        <time>2000-01-01T12:10:01.000Z</time>
      </trkpt>
      <trkpt lat="45.15225" lon="2.61833">
        <ele>930</ele>
        <time>2000-01-01T12:10:11.000Z</time>
      </trkpt>
      <trkpt lat="45.15226" lon="2.61839">
        <ele>927</ele>
        <time>2000-01-01T12:10:21.000Z</time>
      </trkpt>
      <trkpt lat="45.15228" lon="2.61853">
        <ele>927</ele>
        <time>2000-01-01T12:10:31.000Z</time>
      </trkpt>
      <trkpt lat="45.15231" lon="2.61868">
        <ele>928.5</ele>
        <time>2000-01-01T12:10:41.000Z</time>
      </trkpt>
      <trkpt lat="45.15236" lon="2.61882">
        <ele>925</ele>
        <time>2000-01-01T12:10:51.000Z</time>
      </trkpt>
      <trkpt lat="45.1524" lon="2.61897">
        <ele>927</ele>
        <time>2000-01-01T12:11:01.000Z</time>
      </trkpt>
      <trkpt lat="45.15244" lon="2.61915">
        <ele>919</ele>
        <time>2000-01-01T12:11:11.000Z</time>
      </trkpt>
      <trkpt lat="45.15246" lon="2.61931">
        <ele>925</ele>
        <time>2000-01-01T12:11:21.000Z</time>
      </trkpt>
      <trkpt lat="45.15246" lon="2.61947">
        <ele>920</ele>
        <time>2000-01-01T12:11:31.000Z</time>
      </trkpt>
      <trkpt lat="45.15245" lon="2.61966">
        <ele>922</ele>
        <time>2000-01-01T12:11:41.000Z</time>
      </trkpt>
      <trkpt lat="45.15244" lon="2.61982">
        <ele>918</ele>
        <time>2000-01-01T12:11:51.000Z</time>
      </trkpt>
      <trkpt lat="45.15244" lon="2.61995">
        <ele>918</ele>
        <time>2000-01-01T12:12:01.000Z</time>
      </trkpt>
      <trkpt lat="45.15246" lon="2.62017">
        <ele>915</ele>
        <time>2000-01-01T12:12:11.000Z</time>
      </trkpt>
      <trkpt lat="45.1525" lon="2.62038">
        <ele>915</ele>
        <time>2000-01-01T12:12:21.000Z</time>
      </trkpt>
      <trkpt lat="45.15254" lon="2.62061">
        <ele>905</ele>
        <time>2000-01-01T12:12:31.000Z</time>
      </trkpt>
      <trkpt lat="45.15262" lon="2.62079">
        <ele>913</ele>
        <time>2000-01-01T12:12:41.000Z</time>
      </trkpt>
      <trkpt lat="45.15269" lon="2.62089">
        <ele>904</ele>
        <time>2000-01-01T12:12:51.000Z</time>
      </trkpt>
      <trkpt lat="45.15281" lon="2.62103">
        <ele>911</ele>
        <time>2000-01-01T12:13:01.000Z</time>
      </trkpt>
      <trkpt lat="45.15286" lon="2.62114">
        <ele>902</ele>
        <time>2000-01-01T12:13:11.000Z</time>
      </trkpt>
      <trkpt lat="45.15286" lon="2.62118">
        <ele>902</ele>
        <time>2000-01-01T12:13:21.000Z</time>
      </trkpt>
      <trkpt lat="45.15285" lon="2.62131">
        <ele>907</ele>
        <time>2000-01-01T12:13:31.000Z</time>
      </trkpt>
      <trkpt lat="45.15283" lon="2.62145">
        <ele>902</ele>
        <time>2000-01-01T12:13:41.000Z</time>
      </trkpt>
      <trkpt lat="45.15282" lon="2.62157">
        <ele>903</ele>
        <time>2000-01-01T12:13:51.000Z</time>
      </trkpt>
      <trkpt lat="45.15283" lon="2.62169">
        <ele>906</ele>
        <time>2000-01-01T12:14:01.000Z</time>
      </trkpt>
      <trkpt lat="45.15289" lon="2.62188">
        <ele>902</ele>
        <time>2000-01-01T12:14:11.000Z</time>
      </trkpt>
      <trkpt lat="45.15296" lon="2.62205">
        <ele>904</ele>
        <time>2000-01-01T12:14:21.000Z</time>
      </trkpt>
      <trkpt lat="45.15301" lon="2.622">
        <ele>901</ele>
        <time>2000-01-01T12:14:31.000Z</time>
      </trkpt>
      <trkpt lat="45.15306" lon="2.62189">
        <ele>900</ele>
        <time>2000-01-01T12:14:41.000Z</time>
      </trkpt>
      <trkpt lat="45.15307" lon="2.62168">
        <ele>901</ele>
        <time>2000-01-01T12:14:51.000Z</time>
      </trkpt>
      <trkpt lat="45.15305" lon="2.62147">
        <ele>900</ele>
        <time>2000-01-01T12:15:01.000Z</time>
      </trkpt>
      <trkpt lat="45.15306" lon="2.62129">
        <ele>901</ele>
        <time>2000-01-01T12:15:11.000Z</time>
      </trkpt>
      <trkpt lat="45.15314" lon="2.62119">
        <ele>899</ele>
        <time>2000-01-01T12:15:21.000Z</time>
      </trkpt>
      <trkpt lat="45.15324" lon="2.62111">
        <ele>901</ele>
        <time>2000-01-01T12:15:31.000Z</time>
      </trkpt>
      <trkpt lat="45.15332" lon="2.62101">
        <ele>896</ele>
        <time>2000-01-01T12:15:41.000Z</time>
      </trkpt>
      <trkpt lat="45.15337" lon="2.62113">
        <ele>898</ele>
        <time>2000-01-01T12:15:51.000Z</time>
      </trkpt>
      <trkpt lat="45.15341" lon="2.62128">
        <ele>897</ele>
        <time>2000-01-01T12:16:01.000Z</time>
      </trkpt>
      <trkpt lat="45.15343" lon="2.62151">
        <ele>897</ele>
        <time>2000-01-01T12:16:11.000Z</time>
      </trkpt>
      <trkpt lat="45.15346" lon="2.62165">
        <ele>897</ele>
        <time>2000-01-01T12:16:21.000Z</time>
      </trkpt>
      <trkpt lat="45.15356" lon="2.6218">
        <ele>897</ele>
        <time>2000-01-01T12:16:31.000Z</time>
      </trkpt>
      <trkpt lat="45.15366" lon="2.62191">
        <ele>900</ele>
        <time>2000-01-01T12:16:41.000Z</time>
      </trkpt>
      <trkpt lat="45.15379" lon="2.62206">
        <ele>898</ele>
        <time>2000-01-01T12:16:51.000Z</time>
      </trkpt>
      <trkpt lat="45.15388" lon="2.62217">
        <ele>902</ele>
        <time>2000-01-01T12:17:01.000Z</time>
      </trkpt>
      <trkpt lat="45.15393" lon="2.62237">
        <ele>899</ele>
        <time>2000-01-01T12:17:11.000Z</time>
      </trkpt>
      <trkpt lat="45.15399" lon="2.62252">
        <ele>905</ele>
        <time>2000-01-01T12:17:21.000Z</time>
      </trkpt>
      <trkpt lat="45.15405" lon="2.62267">
        <ele>900</ele>
        <time>2000-01-01T12:17:31.000Z</time>
      </trkpt>
      <trkpt lat="45.1541" lon="2.62274">
        <ele>904</ele>
        <time>2000-01-01T12:17:41.000Z</time>
      </trkpt>
      <trkpt lat="45.1541" lon="2.62274">
        <ele>904</ele>
        <time>2000-01-01T12:17:51.000Z</time>
      </trkpt>
      <trkpt lat="45.15415" lon="2.62278">
        <ele>904</ele>
        <time>2000-01-01T12:18:01.000Z</time>
      </trkpt>
      <trkpt lat="45.15417" lon="2.62275">
        <ele>912</ele>
        <time>2000-01-01T12:18:11.000Z</time>
      </trkpt>
      <trkpt lat="45.1542" lon="2.6227">
        <ele>901</ele>
        <time>2000-01-01T12:18:21.000Z</time>
      </trkpt>
      <trkpt lat="45.15424" lon="2.6226">
        <ele>911</ele>
        <time>2000-01-01T12:18:31.000Z</time>
      </trkpt>
      <trkpt lat="45.15424" lon="2.6226">
        <ele>911</ele>
        <time>2000-01-01T12:18:41.000Z</time>
      </trkpt>
      <trkpt lat="45.15428" lon="2.62249">
        <ele>911</ele>
        <time>2000-01-01T12:18:51.000Z</time>
      </trkpt>
      <trkpt lat="45.15431" lon="2.6224">
        <ele>904</ele>
        <time>2000-01-01T12:19:01.000Z</time>
      </trkpt>
      <trkpt lat="45.15431" lon="2.6224">
        <ele>912</ele>
        <time>2000-01-01T12:19:11.000Z</time>
      </trkpt>
      <trkpt lat="45.15434" lon="2.62229">
        <ele>912</ele>
        <time>2000-01-01T12:19:21.000Z</time>
      </trkpt>
      <trkpt lat="45.15436" lon="2.62221">
        <ele>913</ele>
        <time>2000-01-01T12:19:31.000Z</time>
      </trkpt>
      <trkpt lat="45.1544" lon="2.62224">
        <ele>906</ele>
        <time>2000-01-01T12:19:41.000Z</time>
      </trkpt>
      <trkpt lat="45.15445" lon="2.62232">
        <ele>913</ele>
        <time>2000-01-01T12:19:51.000Z</time>
      </trkpt>
      <trkpt lat="45.15449" lon="2.62246">
        <ele>914</ele>
        <time>2000-01-01T12:20:01.000Z</time>
      </trkpt>
      <trkpt lat="45.15454" lon="2.62247">
        <ele>907</ele>
        <time>2000-01-01T12:20:11.000Z</time>
      </trkpt>
      <trkpt lat="45.15457" lon="2.62236">
        <ele>914</ele>
        <time>2000-01-01T12:20:21.000Z</time>
      </trkpt>
      <trkpt lat="45.15464" lon="2.62225">
        <ele>915</ele>
        <time>2000-01-01T12:20:31.000Z</time>
      </trkpt>
      <trkpt lat="45.15468" lon="2.62215">
        <ele>911</ele>
        <time>2000-01-01T12:20:41.000Z</time>
      </trkpt>
      <trkpt lat="45.15468" lon="2.62215">
        <ele>915</ele>
        <time>2000-01-01T12:20:51.000Z</time>
      </trkpt>
      <trkpt lat="45.15473" lon="2.62211">
        <ele>916</ele>
        <time>2000-01-01T12:21:01.000Z</time>
      </trkpt>
      <trkpt lat="45.15478" lon="2.62214">
        <ele>916</ele>
        <time>2000-01-01T12:21:11.000Z</time>
      </trkpt>
      <trkpt lat="45.15478" lon="2.62214">
        <ele>916</ele>
        <time>2000-01-01T12:21:21.000Z</time>
      </trkpt>
      <trkpt lat="45.15482" lon="2.62221">
        <ele>916</ele>
        <time>2000-01-01T12:21:31.000Z</time>
      </trkpt>
      <trkpt lat="45.15487" lon="2.62228">
        <ele>913</ele>
        <time>2000-01-01T12:21:41.000Z</time>
      </trkpt>
      <trkpt lat="45.15487" lon="2.62228">
        <ele>917</ele>
        <time>2000-01-01T12:21:51.000Z</time>
      </trkpt>
      <trkpt lat="45.15491" lon="2.62236">
        <ele>918</ele>
        <time>2000-01-01T12:22:01.000Z</time>
      </trkpt>
      <trkpt lat="45.15498" lon="2.62245">
        <ele>921</ele>
        <time>2000-01-01T12:22:11.000Z</time>
      </trkpt>
      <trkpt lat="45.15498" lon="2.62245">
        <ele>921</ele>
        <time>2000-01-01T12:22:21.000Z</time>
      </trkpt>
      <trkpt lat="45.15504" lon="2.62252">
        <ele>916</ele>
        <time>2000-01-01T12:22:31.000Z</time>
      </trkpt>
      <trkpt lat="45.1551" lon="2.62256">
        <ele>924</ele>
        <time>2000-01-01T12:22:41.000Z</time>
      </trkpt>
      <trkpt lat="45.1551" lon="2.62256">
        <ele>924</ele>
        <time>2000-01-01T12:22:51.000Z</time>
      </trkpt>
      <trkpt lat="45.15514" lon="2.62259">
        <ele>925</ele>
        <time>2000-01-01T12:23:01.000Z</time>
      </trkpt>
      <trkpt lat="45.15514" lon="2.62259">
        <ele>921</ele>
        <time>2000-01-01T12:23:11.000Z</time>
      </trkpt>
    </trkseg>
  </trk>
</gpx>